<?xml version="1.0" encoding="UTF-8" standalone="no" ?>
<gpx xmlns="http://www.topografix.com/GPX/1/1" xmlns:xsi="http://www.w3.org/2001/XMLSchema-instance" xsi:schemaLocation="http://www.topografix.com/GPX/1/1 http://www.topografix.com/GPX/1/1/gpx.xsd" version="1.1" creator="VisuGPX - https://www.visugpx.com">
  <metadata>
    <name>CDS j10</name>
    <desc><![CDATA[Chemin du soleil]]></desc>
  </metadata>
  <trk>
    <name><![CDATA[ACTIVE LOG070816]]></name>
    <trkseg>
      <trkpt lat="44.07984" lon="6.25996">
        <ele>655</ele>
        <time>2011-08-18T05:08:15Z</time>
      </trkpt>
      <trkpt lat="44.07983" lon="6.25996">
        <ele>655</ele>
        <time>2011-08-18T05:08:59Z</time>
      </trkpt>
      <trkpt lat="44.07979" lon="6.25999">
        <ele>656</ele>
        <time>2011-08-18T05:09:03Z</time>
      </trkpt>
      <trkpt lat="44.07978" lon="6.26006">
        <ele>655</ele>
        <time>2011-08-18T05:09:07Z</time>
      </trkpt>
      <trkpt lat="44.07981" lon="6.26016">
        <ele>655</ele>
        <time>2011-08-18T05:09:20Z</time>
      </trkpt>
      <trkpt lat="44.0799" lon="6.26028">
        <ele>655</ele>
        <time>2011-08-18T05:09:35Z</time>
      </trkpt>
      <trkpt lat="44.07989" lon="6.2603">
        <ele>655</ele>
        <time>2011-08-18T05:09:39Z</time>
      </trkpt>
      <trkpt lat="44.07986" lon="6.26044">
        <ele>656</ele>
        <time>2011-08-18T05:09:44Z</time>
      </trkpt>
      <trkpt lat="44.07983" lon="6.26055">
        <ele>656</ele>
        <time>2011-08-18T05:10:03Z</time>
      </trkpt>
      <trkpt lat="44.07983" lon="6.26055">
        <ele>656</ele>
        <time>2011-08-18T05:10:04Z</time>
      </trkpt>
      <trkpt lat="44.07971" lon="6.26096">
        <ele>659</ele>
        <time>2011-08-18T05:10:21Z</time>
      </trkpt>
      <trkpt lat="44.07955" lon="6.26156">
        <ele>662</ele>
        <time>2011-08-18T05:10:40Z</time>
      </trkpt>
      <trkpt lat="44.07953" lon="6.26163">
        <ele>662</ele>
        <time>2011-08-18T05:10:42Z</time>
      </trkpt>
      <trkpt lat="44.0796" lon="6.2616">
        <ele>662</ele>
        <time>2011-08-18T05:10:50Z</time>
      </trkpt>
      <trkpt lat="44.07958" lon="6.26157">
        <ele>662</ele>
        <time>2011-08-18T05:11:03Z</time>
      </trkpt>
      <trkpt lat="44.07958" lon="6.26157">
        <ele>662</ele>
        <time>2011-08-18T05:11:36Z</time>
      </trkpt>
      <trkpt lat="44.07959" lon="6.26178">
        <ele>667</ele>
        <time>2011-08-18T05:11:48Z</time>
      </trkpt>
      <trkpt lat="44.07951" lon="6.2623">
        <ele>668</ele>
        <time>2011-08-18T05:12:03Z</time>
      </trkpt>
      <trkpt lat="44.07938" lon="6.26282">
        <ele>670</ele>
        <time>2011-08-18T05:12:16Z</time>
      </trkpt>
      <trkpt lat="44.07942" lon="6.26337">
        <ele>672</ele>
        <time>2011-08-18T05:12:31Z</time>
      </trkpt>
      <trkpt lat="44.07949" lon="6.26371">
        <ele>676</ele>
        <time>2011-08-18T05:12:44Z</time>
      </trkpt>
      <trkpt lat="44.07947" lon="6.26421">
        <ele>674</ele>
        <time>2011-08-18T05:12:59Z</time>
      </trkpt>
      <trkpt lat="44.07946" lon="6.2645">
        <ele>674</ele>
        <time>2011-08-18T05:13:16Z</time>
      </trkpt>
      <trkpt lat="44.07945" lon="6.26451">
        <ele>674</ele>
        <time>2011-08-18T05:13:43Z</time>
      </trkpt>
      <trkpt lat="44.07938" lon="6.26451">
        <ele>673</ele>
        <time>2011-08-18T05:19:43Z</time>
      </trkpt>
      <trkpt lat="44.0793" lon="6.26449">
        <ele>673</ele>
        <time>2011-08-18T05:19:49Z</time>
      </trkpt>
      <trkpt lat="44.07927" lon="6.2654">
        <ele>670</ele>
        <time>2011-08-18T05:20:10Z</time>
      </trkpt>
      <trkpt lat="44.07924" lon="6.2664">
        <ele>671</ele>
        <time>2011-08-18T05:20:34Z</time>
      </trkpt>
      <trkpt lat="44.07912" lon="6.26687">
        <ele>672</ele>
        <time>2011-08-18T05:20:46Z</time>
      </trkpt>
      <trkpt lat="44.07883" lon="6.26701">
        <ele>676</ele>
        <time>2011-08-18T05:20:56Z</time>
      </trkpt>
      <trkpt lat="44.07864" lon="6.26711">
        <ele>677</ele>
        <time>2011-08-18T05:21:09Z</time>
      </trkpt>
      <trkpt lat="44.07868" lon="6.26708">
        <ele>677</ele>
        <time>2011-08-18T05:21:26Z</time>
      </trkpt>
      <trkpt lat="44.07869" lon="6.26708">
        <ele>677</ele>
        <time>2011-08-18T05:21:36Z</time>
      </trkpt>
      <trkpt lat="44.0787" lon="6.26706">
        <ele>677</ele>
        <time>2011-08-18T05:21:38Z</time>
      </trkpt>
      <trkpt lat="44.07914" lon="6.26721">
        <ele>674</ele>
        <time>2011-08-18T05:21:55Z</time>
      </trkpt>
      <trkpt lat="44.07931" lon="6.26734">
        <ele>676</ele>
        <time>2011-08-18T05:22:03Z</time>
      </trkpt>
      <trkpt lat="44.07931" lon="6.26741">
        <ele>675</ele>
        <time>2011-08-18T05:22:07Z</time>
      </trkpt>
      <trkpt lat="44.07924" lon="6.26751">
        <ele>676</ele>
        <time>2011-08-18T05:22:19Z</time>
      </trkpt>
      <trkpt lat="44.07923" lon="6.26762">
        <ele>679</ele>
        <time>2011-08-18T05:22:32Z</time>
      </trkpt>
      <trkpt lat="44.07914" lon="6.26775">
        <ele>675</ele>
        <time>2011-08-18T05:22:43Z</time>
      </trkpt>
      <trkpt lat="44.07909" lon="6.26782">
        <ele>676</ele>
        <time>2011-08-18T05:22:47Z</time>
      </trkpt>
      <trkpt lat="44.07872" lon="6.26814">
        <ele>676</ele>
        <time>2011-08-18T05:23:01Z</time>
      </trkpt>
      <trkpt lat="44.07862" lon="6.26854">
        <ele>679</ele>
        <time>2011-08-18T05:23:12Z</time>
      </trkpt>
      <trkpt lat="44.07867" lon="6.26906">
        <ele>682</ele>
        <time>2011-08-18T05:23:23Z</time>
      </trkpt>
      <trkpt lat="44.07857" lon="6.26924">
        <ele>689</ele>
        <time>2011-08-18T05:23:27Z</time>
      </trkpt>
      <trkpt lat="44.07791" lon="6.26963">
        <ele>683</ele>
        <time>2011-08-18T05:23:47Z</time>
      </trkpt>
      <trkpt lat="44.07768" lon="6.26976">
        <ele>684</ele>
        <time>2011-08-18T05:23:59Z</time>
      </trkpt>
      <trkpt lat="44.07758" lon="6.26996">
        <ele>687</ele>
        <time>2011-08-18T05:24:10Z</time>
      </trkpt>
      <trkpt lat="44.07747" lon="6.27017">
        <ele>702</ele>
        <time>2011-08-18T05:24:28Z</time>
      </trkpt>
      <trkpt lat="44.07741" lon="6.27027">
        <ele>707</ele>
        <time>2011-08-18T05:24:45Z</time>
      </trkpt>
      <trkpt lat="44.07741" lon="6.27034">
        <ele>709</ele>
        <time>2011-08-18T05:25:00Z</time>
      </trkpt>
      <trkpt lat="44.07746" lon="6.27036">
        <ele>709</ele>
        <time>2011-08-18T05:25:04Z</time>
      </trkpt>
      <trkpt lat="44.07752" lon="6.27041">
        <ele>704</ele>
        <time>2011-08-18T05:25:17Z</time>
      </trkpt>
      <trkpt lat="44.07748" lon="6.27047">
        <ele>711</ele>
        <time>2011-08-18T05:25:25Z</time>
      </trkpt>
      <trkpt lat="44.07746" lon="6.27046">
        <ele>711</ele>
        <time>2011-08-18T05:25:28Z</time>
      </trkpt>
      <trkpt lat="44.0774" lon="6.27043">
        <ele>711</ele>
        <time>2011-08-18T05:25:33Z</time>
      </trkpt>
      <trkpt lat="44.07719" lon="6.27015">
        <ele>710</ele>
        <time>2011-08-18T05:25:49Z</time>
      </trkpt>
      <trkpt lat="44.07714" lon="6.26963">
        <ele>695</ele>
        <time>2011-08-18T05:26:06Z</time>
      </trkpt>
      <trkpt lat="44.07682" lon="6.26925">
        <ele>695</ele>
        <time>2011-08-18T05:26:22Z</time>
      </trkpt>
      <trkpt lat="44.07647" lon="6.26885">
        <ele>691</ele>
        <time>2011-08-18T05:26:41Z</time>
      </trkpt>
      <trkpt lat="44.07616" lon="6.26892">
        <ele>691</ele>
        <time>2011-08-18T05:26:55Z</time>
      </trkpt>
      <trkpt lat="44.07611" lon="6.26899">
        <ele>691</ele>
        <time>2011-08-18T05:26:57Z</time>
      </trkpt>
      <trkpt lat="44.07601" lon="6.26923">
        <ele>698</ele>
        <time>2011-08-18T05:27:01Z</time>
      </trkpt>
      <trkpt lat="44.07583" lon="6.26938">
        <ele>699</ele>
        <time>2011-08-18T05:27:05Z</time>
      </trkpt>
      <trkpt lat="44.07549" lon="6.26992">
        <ele>695</ele>
        <time>2011-08-18T05:27:14Z</time>
      </trkpt>
      <trkpt lat="44.07546" lon="6.27022">
        <ele>698</ele>
        <time>2011-08-18T05:27:17Z</time>
      </trkpt>
      <trkpt lat="44.07533" lon="6.27071">
        <ele>697</ele>
        <time>2011-08-18T05:27:22Z</time>
      </trkpt>
      <trkpt lat="44.07487" lon="6.27093">
        <ele>691</ele>
        <time>2011-08-18T05:27:29Z</time>
      </trkpt>
      <trkpt lat="44.07472" lon="6.27088">
        <ele>693</ele>
        <time>2011-08-18T05:27:31Z</time>
      </trkpt>
      <trkpt lat="44.07416" lon="6.27088">
        <ele>691</ele>
        <time>2011-08-18T05:27:40Z</time>
      </trkpt>
      <trkpt lat="44.07371" lon="6.27115">
        <ele>701</ele>
        <time>2011-08-18T05:27:51Z</time>
      </trkpt>
      <trkpt lat="44.07293" lon="6.27128">
        <ele>701</ele>
        <time>2011-08-18T05:28:09Z</time>
      </trkpt>
      <trkpt lat="44.07252" lon="6.27118">
        <ele>698</ele>
        <time>2011-08-18T05:28:19Z</time>
      </trkpt>
      <trkpt lat="44.07233" lon="6.2714">
        <ele>698</ele>
        <time>2011-08-18T05:28:25Z</time>
      </trkpt>
      <trkpt lat="44.07208" lon="6.27187">
        <ele>714</ele>
        <time>2011-08-18T05:28:35Z</time>
      </trkpt>
      <trkpt lat="44.07148" lon="6.27233">
        <ele>709</ele>
        <time>2011-08-18T05:28:52Z</time>
      </trkpt>
      <trkpt lat="44.07103" lon="6.27237">
        <ele>704</ele>
        <time>2011-08-18T05:29:05Z</time>
      </trkpt>
      <trkpt lat="44.07078" lon="6.27228">
        <ele>702</ele>
        <time>2011-08-18T05:29:12Z</time>
      </trkpt>
      <trkpt lat="44.0707" lon="6.27171">
        <ele>697</ele>
        <time>2011-08-18T05:29:24Z</time>
      </trkpt>
      <trkpt lat="44.07069" lon="6.2714">
        <ele>702</ele>
        <time>2011-08-18T05:29:35Z</time>
      </trkpt>
      <trkpt lat="44.07093" lon="6.27124">
        <ele>699</ele>
        <time>2011-08-18T05:29:48Z</time>
      </trkpt>
      <trkpt lat="44.07117" lon="6.27087">
        <ele>700</ele>
        <time>2011-08-18T05:30:05Z</time>
      </trkpt>
      <trkpt lat="44.07144" lon="6.27036">
        <ele>710</ele>
        <time>2011-08-18T05:30:27Z</time>
      </trkpt>
      <trkpt lat="44.07179" lon="6.26997">
        <ele>717</ele>
        <time>2011-08-18T05:30:49Z</time>
      </trkpt>
      <trkpt lat="44.0721" lon="6.26984">
        <ele>719</ele>
        <time>2011-08-18T05:31:06Z</time>
      </trkpt>
      <trkpt lat="44.07247" lon="6.26968">
        <ele>719</ele>
        <time>2011-08-18T05:31:26Z</time>
      </trkpt>
      <trkpt lat="44.07276" lon="6.26945">
        <ele>718</ele>
        <time>2011-08-18T05:31:45Z</time>
      </trkpt>
      <trkpt lat="44.07278" lon="6.26937">
        <ele>719</ele>
        <time>2011-08-18T05:31:49Z</time>
      </trkpt>
      <trkpt lat="44.07285" lon="6.26911">
        <ele>737</ele>
        <time>2011-08-18T05:32:03Z</time>
      </trkpt>
      <trkpt lat="44.0732" lon="6.26921">
        <ele>721</ele>
        <time>2011-08-18T05:32:25Z</time>
      </trkpt>
      <trkpt lat="44.07332" lon="6.26911">
        <ele>729</ele>
        <time>2011-08-18T05:32:40Z</time>
      </trkpt>
      <trkpt lat="44.07334" lon="6.2691">
        <ele>728</ele>
        <time>2011-08-18T05:33:13Z</time>
      </trkpt>
      <trkpt lat="44.07336" lon="6.2691">
        <ele>728</ele>
        <time>2011-08-18T05:34:30Z</time>
      </trkpt>
      <trkpt lat="44.07339" lon="6.26908">
        <ele>729</ele>
        <time>2011-08-18T05:34:39Z</time>
      </trkpt>
      <trkpt lat="44.07377" lon="6.26885">
        <ele>733</ele>
        <time>2011-08-18T05:35:02Z</time>
      </trkpt>
      <trkpt lat="44.07416" lon="6.2686">
        <ele>736</ele>
        <time>2011-08-18T05:35:25Z</time>
      </trkpt>
      <trkpt lat="44.07448" lon="6.26827">
        <ele>738</ele>
        <time>2011-08-18T05:35:47Z</time>
      </trkpt>
      <trkpt lat="44.07458" lon="6.26789">
        <ele>740</ele>
        <time>2011-08-18T05:36:05Z</time>
      </trkpt>
      <trkpt lat="44.07449" lon="6.26738">
        <ele>761</ele>
        <time>2011-08-18T05:36:27Z</time>
      </trkpt>
      <trkpt lat="44.07442" lon="6.2669">
        <ele>767</ele>
        <time>2011-08-18T05:36:47Z</time>
      </trkpt>
      <trkpt lat="44.07454" lon="6.2669">
        <ele>766</ele>
        <time>2011-08-18T05:36:55Z</time>
      </trkpt>
      <trkpt lat="44.07488" lon="6.26703">
        <ele>762</ele>
        <time>2011-08-18T05:37:16Z</time>
      </trkpt>
      <trkpt lat="44.07516" lon="6.26678">
        <ele>756</ele>
        <time>2011-08-18T05:37:36Z</time>
      </trkpt>
      <trkpt lat="44.07551" lon="6.26663">
        <ele>757</ele>
        <time>2011-08-18T05:38:00Z</time>
      </trkpt>
      <trkpt lat="44.07556" lon="6.26652">
        <ele>755</ele>
        <time>2011-08-18T05:38:06Z</time>
      </trkpt>
      <trkpt lat="44.07554" lon="6.26647">
        <ele>756</ele>
        <time>2011-08-18T05:38:10Z</time>
      </trkpt>
      <trkpt lat="44.07528" lon="6.26657">
        <ele>763</ele>
        <time>2011-08-18T05:38:27Z</time>
      </trkpt>
      <trkpt lat="44.07499" lon="6.26661">
        <ele>775</ele>
        <time>2011-08-18T05:38:46Z</time>
      </trkpt>
      <trkpt lat="44.07487" lon="6.26645">
        <ele>780</ele>
        <time>2011-08-18T05:39:02Z</time>
      </trkpt>
      <trkpt lat="44.07491" lon="6.2664">
        <ele>781</ele>
        <time>2011-08-18T05:39:05Z</time>
      </trkpt>
      <trkpt lat="44.07522" lon="6.26622">
        <ele>765</ele>
        <time>2011-08-18T05:39:27Z</time>
      </trkpt>
      <trkpt lat="44.07525" lon="6.26615">
        <ele>765</ele>
        <time>2011-08-18T05:39:30Z</time>
      </trkpt>
      <trkpt lat="44.07527" lon="6.2656">
        <ele>763</ele>
        <time>2011-08-18T05:39:50Z</time>
      </trkpt>
      <trkpt lat="44.07508" lon="6.26545">
        <ele>764</ele>
        <time>2011-08-18T05:39:56Z</time>
      </trkpt>
      <trkpt lat="44.07485" lon="6.26503">
        <ele>779</ele>
        <time>2011-08-18T05:40:02Z</time>
      </trkpt>
      <trkpt lat="44.0745" lon="6.26453">
        <ele>780</ele>
        <time>2011-08-18T05:40:13Z</time>
      </trkpt>
      <trkpt lat="44.07422" lon="6.26416">
        <ele>784</ele>
        <time>2011-08-18T05:40:32Z</time>
      </trkpt>
      <trkpt lat="44.07393" lon="6.26372">
        <ele>800</ele>
        <time>2011-08-18T05:40:54Z</time>
      </trkpt>
      <trkpt lat="44.07368" lon="6.26327">
        <ele>798</ele>
        <time>2011-08-18T05:41:15Z</time>
      </trkpt>
      <trkpt lat="44.07341" lon="6.26277">
        <ele>797</ele>
        <time>2011-08-18T05:41:38Z</time>
      </trkpt>
      <trkpt lat="44.07318" lon="6.2623">
        <ele>813</ele>
        <time>2011-08-18T05:42:01Z</time>
      </trkpt>
      <trkpt lat="44.07294" lon="6.26192">
        <ele>819</ele>
        <time>2011-08-18T05:42:21Z</time>
      </trkpt>
      <trkpt lat="44.07268" lon="6.26144">
        <ele>821</ele>
        <time>2011-08-18T05:42:43Z</time>
      </trkpt>
      <trkpt lat="44.07246" lon="6.26098">
        <ele>837</ele>
        <time>2011-08-18T05:43:05Z</time>
      </trkpt>
      <trkpt lat="44.07225" lon="6.26044">
        <ele>842</ele>
        <time>2011-08-18T05:43:29Z</time>
      </trkpt>
      <trkpt lat="44.07211" lon="6.25988">
        <ele>844</ele>
        <time>2011-08-18T05:43:53Z</time>
      </trkpt>
      <trkpt lat="44.07195" lon="6.2593">
        <ele>848</ele>
        <time>2011-08-18T05:44:17Z</time>
      </trkpt>
      <trkpt lat="44.0718" lon="6.25882">
        <ele>848</ele>
        <time>2011-08-18T05:44:37Z</time>
      </trkpt>
      <trkpt lat="44.07159" lon="6.25831">
        <ele>849</ele>
        <time>2011-08-18T05:45:00Z</time>
      </trkpt>
      <trkpt lat="44.07131" lon="6.25797">
        <ele>862</ele>
        <time>2011-08-18T05:45:18Z</time>
      </trkpt>
      <trkpt lat="44.07106" lon="6.25742">
        <ele>867</ele>
        <time>2011-08-18T05:45:40Z</time>
      </trkpt>
      <trkpt lat="44.07094" lon="6.25688">
        <ele>866</ele>
        <time>2011-08-18T05:46:00Z</time>
      </trkpt>
      <trkpt lat="44.07081" lon="6.25636">
        <ele>883</ele>
        <time>2011-08-18T05:46:22Z</time>
      </trkpt>
      <trkpt lat="44.07082" lon="6.25635">
        <ele>883</ele>
        <time>2011-08-18T05:46:23Z</time>
      </trkpt>
      <trkpt lat="44.07091" lon="6.25651">
        <ele>870</ele>
        <time>2011-08-18T05:46:31Z</time>
      </trkpt>
      <trkpt lat="44.071" lon="6.25658">
        <ele>870</ele>
        <time>2011-08-18T05:46:35Z</time>
      </trkpt>
      <trkpt lat="44.07109" lon="6.25666">
        <ele>871</ele>
        <time>2011-08-18T05:46:38Z</time>
      </trkpt>
      <trkpt lat="44.07107" lon="6.25693">
        <ele>866</ele>
        <time>2011-08-18T05:46:45Z</time>
      </trkpt>
      <trkpt lat="44.07126" lon="6.25709">
        <ele>864</ele>
        <time>2011-08-18T05:46:56Z</time>
      </trkpt>
      <trkpt lat="44.07152" lon="6.25719">
        <ele>861</ele>
        <time>2011-08-18T05:47:10Z</time>
      </trkpt>
      <trkpt lat="44.07184" lon="6.25742">
        <ele>861</ele>
        <time>2011-08-18T05:47:29Z</time>
      </trkpt>
      <trkpt lat="44.07216" lon="6.25768">
        <ele>858</ele>
        <time>2011-08-18T05:47:48Z</time>
      </trkpt>
      <trkpt lat="44.07223" lon="6.25773">
        <ele>859</ele>
        <time>2011-08-18T05:47:53Z</time>
      </trkpt>
      <trkpt lat="44.07237" lon="6.25776">
        <ele>860</ele>
        <time>2011-08-18T05:48:00Z</time>
      </trkpt>
      <trkpt lat="44.07263" lon="6.25798">
        <ele>875</ele>
        <time>2011-08-18T05:48:17Z</time>
      </trkpt>
      <trkpt lat="44.07277" lon="6.25821">
        <ele>874</ele>
        <time>2011-08-18T05:48:27Z</time>
      </trkpt>
      <trkpt lat="44.07282" lon="6.25824">
        <ele>875</ele>
        <time>2011-08-18T05:48:40Z</time>
      </trkpt>
      <trkpt lat="44.07285" lon="6.25814">
        <ele>878</ele>
        <time>2011-08-18T05:48:56Z</time>
      </trkpt>
      <trkpt lat="44.07285" lon="6.25809">
        <ele>878</ele>
        <time>2011-08-18T05:49:00Z</time>
      </trkpt>
      <trkpt lat="44.07275" lon="6.25794">
        <ele>879</ele>
        <time>2011-08-18T05:49:16Z</time>
      </trkpt>
      <trkpt lat="44.07274" lon="6.25792">
        <ele>879</ele>
        <time>2011-08-18T05:49:18Z</time>
      </trkpt>
      <trkpt lat="44.07267" lon="6.25785">
        <ele>879</ele>
        <time>2011-08-18T05:49:33Z</time>
      </trkpt>
      <trkpt lat="44.07259" lon="6.25765">
        <ele>879</ele>
        <time>2011-08-18T05:49:43Z</time>
      </trkpt>
      <trkpt lat="44.07259" lon="6.25759">
        <ele>879</ele>
        <time>2011-08-18T05:49:45Z</time>
      </trkpt>
      <trkpt lat="44.07248" lon="6.25751">
        <ele>874</ele>
        <time>2011-08-18T05:49:50Z</time>
      </trkpt>
      <trkpt lat="44.07239" lon="6.25745">
        <ele>875</ele>
        <time>2011-08-18T05:49:55Z</time>
      </trkpt>
      <trkpt lat="44.07225" lon="6.25705">
        <ele>877</ele>
        <time>2011-08-18T05:50:13Z</time>
      </trkpt>
      <trkpt lat="44.07217" lon="6.25693">
        <ele>877</ele>
        <time>2011-08-18T05:50:18Z</time>
      </trkpt>
      <trkpt lat="44.07202" lon="6.25669">
        <ele>876</ele>
        <time>2011-08-18T05:50:32Z</time>
      </trkpt>
      <trkpt lat="44.0718" lon="6.25633">
        <ele>891</ele>
        <time>2011-08-18T05:50:49Z</time>
      </trkpt>
      <trkpt lat="44.07168" lon="6.25602">
        <ele>894</ele>
        <time>2011-08-18T05:51:06Z</time>
      </trkpt>
      <trkpt lat="44.07166" lon="6.256">
        <ele>883</ele>
        <time>2011-08-18T05:51:08Z</time>
      </trkpt>
      <trkpt lat="44.07154" lon="6.25569">
        <ele>888</ele>
        <time>2011-08-18T05:51:24Z</time>
      </trkpt>
      <trkpt lat="44.07147" lon="6.25557">
        <ele>887</ele>
        <time>2011-08-18T05:51:32Z</time>
      </trkpt>
      <trkpt lat="44.07143" lon="6.25548">
        <ele>887</ele>
        <time>2011-08-18T05:51:37Z</time>
      </trkpt>
      <trkpt lat="44.07142" lon="6.25539">
        <ele>887</ele>
        <time>2011-08-18T05:51:41Z</time>
      </trkpt>
      <trkpt lat="44.07142" lon="6.25529">
        <ele>888</ele>
        <time>2011-08-18T05:51:47Z</time>
      </trkpt>
      <trkpt lat="44.07145" lon="6.25523">
        <ele>890</ele>
        <time>2011-08-18T05:51:50Z</time>
      </trkpt>
      <trkpt lat="44.07147" lon="6.25516">
        <ele>891</ele>
        <time>2011-08-18T05:51:53Z</time>
      </trkpt>
      <trkpt lat="44.07146" lon="6.25511">
        <ele>892</ele>
        <time>2011-08-18T05:51:55Z</time>
      </trkpt>
      <trkpt lat="44.07137" lon="6.25484">
        <ele>897</ele>
        <time>2011-08-18T05:52:09Z</time>
      </trkpt>
      <trkpt lat="44.07128" lon="6.25456">
        <ele>897</ele>
        <time>2011-08-18T05:52:24Z</time>
      </trkpt>
      <trkpt lat="44.07127" lon="6.25443">
        <ele>898</ele>
        <time>2011-08-18T05:52:30Z</time>
      </trkpt>
      <trkpt lat="44.07124" lon="6.25435">
        <ele>897</ele>
        <time>2011-08-18T05:52:35Z</time>
      </trkpt>
      <trkpt lat="44.07122" lon="6.25422">
        <ele>898</ele>
        <time>2011-08-18T05:52:40Z</time>
      </trkpt>
      <trkpt lat="44.07121" lon="6.25409">
        <ele>907</ele>
        <time>2011-08-18T05:52:45Z</time>
      </trkpt>
      <trkpt lat="44.0712" lon="6.254">
        <ele>908</ele>
        <time>2011-08-18T05:52:49Z</time>
      </trkpt>
      <trkpt lat="44.07118" lon="6.25383">
        <ele>909</ele>
        <time>2011-08-18T05:52:56Z</time>
      </trkpt>
      <trkpt lat="44.07112" lon="6.25365">
        <ele>910</ele>
        <time>2011-08-18T05:53:06Z</time>
      </trkpt>
      <trkpt lat="44.0711" lon="6.25357">
        <ele>910</ele>
        <time>2011-08-18T05:53:10Z</time>
      </trkpt>
      <trkpt lat="44.07098" lon="6.25325">
        <ele>915</ele>
        <time>2011-08-18T05:53:25Z</time>
      </trkpt>
      <trkpt lat="44.0709" lon="6.25308">
        <ele>918</ele>
        <time>2011-08-18T05:53:41Z</time>
      </trkpt>
      <trkpt lat="44.07077" lon="6.25286">
        <ele>905</ele>
        <time>2011-08-18T05:53:58Z</time>
      </trkpt>
      <trkpt lat="44.07073" lon="6.25275">
        <ele>907</ele>
        <time>2011-08-18T05:54:20Z</time>
      </trkpt>
      <trkpt lat="44.07061" lon="6.25255">
        <ele>908</ele>
        <time>2011-08-18T05:54:32Z</time>
      </trkpt>
      <trkpt lat="44.07059" lon="6.25252">
        <ele>908</ele>
        <time>2011-08-18T05:54:34Z</time>
      </trkpt>
      <trkpt lat="44.07062" lon="6.25243">
        <ele>916</ele>
        <time>2011-08-18T05:54:40Z</time>
      </trkpt>
      <trkpt lat="44.0707" lon="6.25199">
        <ele>921</ele>
        <time>2011-08-18T05:54:59Z</time>
      </trkpt>
      <trkpt lat="44.07067" lon="6.25193">
        <ele>922</ele>
        <time>2011-08-18T05:55:03Z</time>
      </trkpt>
      <trkpt lat="44.07066" lon="6.25181">
        <ele>924</ele>
        <time>2011-08-18T05:55:12Z</time>
      </trkpt>
      <trkpt lat="44.07056" lon="6.25177">
        <ele>922</ele>
        <time>2011-08-18T05:55:22Z</time>
      </trkpt>
      <trkpt lat="44.07041" lon="6.25188">
        <ele>918</ele>
        <time>2011-08-18T05:55:39Z</time>
      </trkpt>
      <trkpt lat="44.07038" lon="6.25189">
        <ele>918</ele>
        <time>2011-08-18T05:55:42Z</time>
      </trkpt>
      <trkpt lat="44.07036" lon="6.25183">
        <ele>918</ele>
        <time>2011-08-18T05:55:46Z</time>
      </trkpt>
      <trkpt lat="44.07035" lon="6.25176">
        <ele>918</ele>
        <time>2011-08-18T05:55:50Z</time>
      </trkpt>
      <trkpt lat="44.07031" lon="6.25167">
        <ele>932</ele>
        <time>2011-08-18T05:55:55Z</time>
      </trkpt>
      <trkpt lat="44.07031" lon="6.25153">
        <ele>934</ele>
        <time>2011-08-18T05:56:01Z</time>
      </trkpt>
      <trkpt lat="44.0703" lon="6.25144">
        <ele>935</ele>
        <time>2011-08-18T05:56:05Z</time>
      </trkpt>
      <trkpt lat="44.07025" lon="6.25129">
        <ele>937</ele>
        <time>2011-08-18T05:56:14Z</time>
      </trkpt>
      <trkpt lat="44.07018" lon="6.25106">
        <ele>941</ele>
        <time>2011-08-18T05:56:25Z</time>
      </trkpt>
      <trkpt lat="44.07007" lon="6.25092">
        <ele>942</ele>
        <time>2011-08-18T05:56:35Z</time>
      </trkpt>
      <trkpt lat="44.06991" lon="6.25069">
        <ele>951</ele>
        <time>2011-08-18T05:56:51Z</time>
      </trkpt>
      <trkpt lat="44.06988" lon="6.25063">
        <ele>953</ele>
        <time>2011-08-18T05:56:55Z</time>
      </trkpt>
      <trkpt lat="44.06974" lon="6.25053">
        <ele>956</ele>
        <time>2011-08-18T05:57:06Z</time>
      </trkpt>
      <trkpt lat="44.06965" lon="6.25049">
        <ele>957</ele>
        <time>2011-08-18T05:57:12Z</time>
      </trkpt>
      <trkpt lat="44.06949" lon="6.25042">
        <ele>957</ele>
        <time>2011-08-18T05:57:25Z</time>
      </trkpt>
      <trkpt lat="44.06921" lon="6.25031">
        <ele>959</ele>
        <time>2011-08-18T05:57:45Z</time>
      </trkpt>
      <trkpt lat="44.06902" lon="6.25025">
        <ele>958</ele>
        <time>2011-08-18T05:58:00Z</time>
      </trkpt>
      <trkpt lat="44.06895" lon="6.25009">
        <ele>961</ele>
        <time>2011-08-18T05:58:17Z</time>
      </trkpt>
      <trkpt lat="44.06886" lon="6.25004">
        <ele>960</ele>
        <time>2011-08-18T05:58:23Z</time>
      </trkpt>
      <trkpt lat="44.06904" lon="6.25002">
        <ele>964</ele>
        <time>2011-08-18T05:58:38Z</time>
      </trkpt>
      <trkpt lat="44.06922" lon="6.25">
        <ele>979</ele>
        <time>2011-08-18T05:58:51Z</time>
      </trkpt>
      <trkpt lat="44.06926" lon="6.24999">
        <ele>983</ele>
        <time>2011-08-18T05:58:54Z</time>
      </trkpt>
      <trkpt lat="44.0693" lon="6.24991">
        <ele>989</ele>
        <time>2011-08-18T05:59:05Z</time>
      </trkpt>
      <trkpt lat="44.06922" lon="6.24983">
        <ele>990</ele>
        <time>2011-08-18T05:59:18Z</time>
      </trkpt>
      <trkpt lat="44.06916" lon="6.2498">
        <ele>987</ele>
        <time>2011-08-18T05:59:34Z</time>
      </trkpt>
      <trkpt lat="44.06899" lon="6.2497">
        <ele>992</ele>
        <time>2011-08-18T05:59:46Z</time>
      </trkpt>
      <trkpt lat="44.06883" lon="6.24964">
        <ele>995</ele>
        <time>2011-08-18T05:59:56Z</time>
      </trkpt>
      <trkpt lat="44.06876" lon="6.24965">
        <ele>994</ele>
        <time>2011-08-18T06:00:09Z</time>
      </trkpt>
      <trkpt lat="44.06867" lon="6.24956">
        <ele>996</ele>
        <time>2011-08-18T06:00:22Z</time>
      </trkpt>
      <trkpt lat="44.06861" lon="6.24956">
        <ele>995</ele>
        <time>2011-08-18T06:00:27Z</time>
      </trkpt>
      <trkpt lat="44.06852" lon="6.2495">
        <ele>996</ele>
        <time>2011-08-18T06:00:33Z</time>
      </trkpt>
      <trkpt lat="44.06838" lon="6.24948">
        <ele>997</ele>
        <time>2011-08-18T06:00:41Z</time>
      </trkpt>
      <trkpt lat="44.06827" lon="6.24953">
        <ele>981</ele>
        <time>2011-08-18T06:00:48Z</time>
      </trkpt>
      <trkpt lat="44.06809" lon="6.24956">
        <ele>978</ele>
        <time>2011-08-18T06:01:02Z</time>
      </trkpt>
      <trkpt lat="44.06807" lon="6.24957">
        <ele>977</ele>
        <time>2011-08-18T06:01:03Z</time>
      </trkpt>
      <trkpt lat="44.06796" lon="6.24953">
        <ele>976</ele>
        <time>2011-08-18T06:01:10Z</time>
      </trkpt>
      <trkpt lat="44.06783" lon="6.2496">
        <ele>972</ele>
        <time>2011-08-18T06:01:19Z</time>
      </trkpt>
      <trkpt lat="44.06777" lon="6.24959">
        <ele>972</ele>
        <time>2011-08-18T06:01:22Z</time>
      </trkpt>
      <trkpt lat="44.06774" lon="6.24951">
        <ele>972</ele>
        <time>2011-08-18T06:01:27Z</time>
      </trkpt>
      <trkpt lat="44.06771" lon="6.24937">
        <ele>973</ele>
        <time>2011-08-18T06:01:33Z</time>
      </trkpt>
      <trkpt lat="44.06768" lon="6.24933">
        <ele>972</ele>
        <time>2011-08-18T06:01:36Z</time>
      </trkpt>
      <trkpt lat="44.06765" lon="6.24906">
        <ele>985</ele>
        <time>2011-08-18T06:01:50Z</time>
      </trkpt>
      <trkpt lat="44.06766" lon="6.24883">
        <ele>994</ele>
        <time>2011-08-18T06:02:02Z</time>
      </trkpt>
      <trkpt lat="44.06756" lon="6.24861">
        <ele>998</ele>
        <time>2011-08-18T06:02:15Z</time>
      </trkpt>
      <trkpt lat="44.06753" lon="6.24847">
        <ele>999</ele>
        <time>2011-08-18T06:02:20Z</time>
      </trkpt>
      <trkpt lat="44.06745" lon="6.24838">
        <ele>993</ele>
        <time>2011-08-18T06:02:29Z</time>
      </trkpt>
      <trkpt lat="44.0673" lon="6.24836">
        <ele>987</ele>
        <time>2011-08-18T06:02:39Z</time>
      </trkpt>
      <trkpt lat="44.06714" lon="6.24812">
        <ele>1000</ele>
        <time>2011-08-18T06:02:55Z</time>
      </trkpt>
      <trkpt lat="44.06713" lon="6.24807">
        <ele>1001</ele>
        <time>2011-08-18T06:02:58Z</time>
      </trkpt>
      <trkpt lat="44.06708" lon="6.24799">
        <ele>1001</ele>
        <time>2011-08-18T06:03:03Z</time>
      </trkpt>
      <trkpt lat="44.06704" lon="6.24791">
        <ele>1002</ele>
        <time>2011-08-18T06:03:07Z</time>
      </trkpt>
      <trkpt lat="44.06703" lon="6.24782">
        <ele>1003</ele>
        <time>2011-08-18T06:03:11Z</time>
      </trkpt>
      <trkpt lat="44.06707" lon="6.24768">
        <ele>1005</ele>
        <time>2011-08-18T06:03:26Z</time>
      </trkpt>
      <trkpt lat="44.0671" lon="6.2475">
        <ele>1025</ele>
        <time>2011-08-18T06:03:45Z</time>
      </trkpt>
      <trkpt lat="44.0671" lon="6.24748">
        <ele>1025</ele>
        <time>2011-08-18T06:03:46Z</time>
      </trkpt>
      <trkpt lat="44.06709" lon="6.24744">
        <ele>1025</ele>
        <time>2011-08-18T06:03:48Z</time>
      </trkpt>
      <trkpt lat="44.06711" lon="6.24728">
        <ele>1027</ele>
        <time>2011-08-18T06:03:59Z</time>
      </trkpt>
      <trkpt lat="44.06712" lon="6.24722">
        <ele>1028</ele>
        <time>2011-08-18T06:04:01Z</time>
      </trkpt>
      <trkpt lat="44.06709" lon="6.24718">
        <ele>1029</ele>
        <time>2011-08-18T06:04:05Z</time>
      </trkpt>
      <trkpt lat="44.06703" lon="6.24718">
        <ele>1028</ele>
        <time>2011-08-18T06:04:10Z</time>
      </trkpt>
      <trkpt lat="44.06698" lon="6.2472">
        <ele>1027</ele>
        <time>2011-08-18T06:04:13Z</time>
      </trkpt>
      <trkpt lat="44.06685" lon="6.24718">
        <ele>1025</ele>
        <time>2011-08-18T06:04:26Z</time>
      </trkpt>
      <trkpt lat="44.06675" lon="6.2472">
        <ele>1023</ele>
        <time>2011-08-18T06:04:39Z</time>
      </trkpt>
      <trkpt lat="44.06662" lon="6.24729">
        <ele>1008</ele>
        <time>2011-08-18T06:04:54Z</time>
      </trkpt>
      <trkpt lat="44.06658" lon="6.24733">
        <ele>1007</ele>
        <time>2011-08-18T06:04:57Z</time>
      </trkpt>
      <trkpt lat="44.06651" lon="6.24734">
        <ele>1007</ele>
        <time>2011-08-18T06:05:01Z</time>
      </trkpt>
      <trkpt lat="44.06648" lon="6.24733">
        <ele>1007</ele>
        <time>2011-08-18T06:05:03Z</time>
      </trkpt>
      <trkpt lat="44.06637" lon="6.24708">
        <ele>1011</ele>
        <time>2011-08-18T06:05:17Z</time>
      </trkpt>
      <trkpt lat="44.06621" lon="6.24679">
        <ele>1013</ele>
        <time>2011-08-18T06:05:34Z</time>
      </trkpt>
      <trkpt lat="44.06608" lon="6.24674">
        <ele>1012</ele>
        <time>2011-08-18T06:05:43Z</time>
      </trkpt>
      <trkpt lat="44.06609" lon="6.24669">
        <ele>1013</ele>
        <time>2011-08-18T06:05:56Z</time>
      </trkpt>
      <trkpt lat="44.06617" lon="6.24663">
        <ele>1033</ele>
        <time>2011-08-18T06:06:13Z</time>
      </trkpt>
      <trkpt lat="44.06618" lon="6.24663">
        <ele>1033</ele>
        <time>2011-08-18T06:06:17Z</time>
      </trkpt>
      <trkpt lat="44.06627" lon="6.24674">
        <ele>1015</ele>
        <time>2011-08-18T06:06:26Z</time>
      </trkpt>
      <trkpt lat="44.06644" lon="6.24684">
        <ele>1018</ele>
        <time>2011-08-18T06:06:39Z</time>
      </trkpt>
      <trkpt lat="44.0665" lon="6.24685">
        <ele>1019</ele>
        <time>2011-08-18T06:06:43Z</time>
      </trkpt>
      <trkpt lat="44.06667" lon="6.24676">
        <ele>1034</ele>
        <time>2011-08-18T06:06:56Z</time>
      </trkpt>
      <trkpt lat="44.06675" lon="6.24676">
        <ele>1034</ele>
        <time>2011-08-18T06:07:07Z</time>
      </trkpt>
      <trkpt lat="44.06669" lon="6.24672">
        <ele>1035</ele>
        <time>2011-08-18T06:07:18Z</time>
      </trkpt>
      <trkpt lat="44.06663" lon="6.24671">
        <ele>1031</ele>
        <time>2011-08-18T06:07:29Z</time>
      </trkpt>
      <trkpt lat="44.06651" lon="6.24657">
        <ele>1038</ele>
        <time>2011-08-18T06:07:43Z</time>
      </trkpt>
      <trkpt lat="44.06637" lon="6.24638">
        <ele>1039</ele>
        <time>2011-08-18T06:07:57Z</time>
      </trkpt>
      <trkpt lat="44.06622" lon="6.24618">
        <ele>1041</ele>
        <time>2011-08-18T06:08:13Z</time>
      </trkpt>
      <trkpt lat="44.06613" lon="6.24607">
        <ele>1042</ele>
        <time>2011-08-18T06:08:30Z</time>
      </trkpt>
      <trkpt lat="44.06614" lon="6.24606">
        <ele>1042</ele>
        <time>2011-08-18T06:08:31Z</time>
      </trkpt>
      <trkpt lat="44.06621" lon="6.24602">
        <ele>1044</ele>
        <time>2011-08-18T06:08:45Z</time>
      </trkpt>
      <trkpt lat="44.06624" lon="6.24602">
        <ele>1044</ele>
        <time>2011-08-18T06:08:49Z</time>
      </trkpt>
      <trkpt lat="44.06633" lon="6.24602">
        <ele>1045</ele>
        <time>2011-08-18T06:09:01Z</time>
      </trkpt>
      <trkpt lat="44.06639" lon="6.246">
        <ele>1047</ele>
        <time>2011-08-18T06:09:16Z</time>
      </trkpt>
      <trkpt lat="44.06633" lon="6.24596">
        <ele>1046</ele>
        <time>2011-08-18T06:09:26Z</time>
      </trkpt>
      <trkpt lat="44.06625" lon="6.24589">
        <ele>1046</ele>
        <time>2011-08-18T06:09:44Z</time>
      </trkpt>
      <trkpt lat="44.06614" lon="6.24585">
        <ele>1045</ele>
        <time>2011-08-18T06:09:50Z</time>
      </trkpt>
      <trkpt lat="44.06609" lon="6.2458">
        <ele>1059</ele>
        <time>2011-08-18T06:09:55Z</time>
      </trkpt>
      <trkpt lat="44.06605" lon="6.24554">
        <ele>1063</ele>
        <time>2011-08-18T06:10:07Z</time>
      </trkpt>
      <trkpt lat="44.06591" lon="6.24545">
        <ele>1064</ele>
        <time>2011-08-18T06:10:17Z</time>
      </trkpt>
      <trkpt lat="44.06578" lon="6.24541">
        <ele>1058</ele>
        <time>2011-08-18T06:10:24Z</time>
      </trkpt>
      <trkpt lat="44.06574" lon="6.24534">
        <ele>1060</ele>
        <time>2011-08-18T06:10:28Z</time>
      </trkpt>
      <trkpt lat="44.06565" lon="6.24528">
        <ele>1060</ele>
        <time>2011-08-18T06:10:33Z</time>
      </trkpt>
      <trkpt lat="44.06559" lon="6.24524">
        <ele>1061</ele>
        <time>2011-08-18T06:10:37Z</time>
      </trkpt>
      <trkpt lat="44.0655" lon="6.24519">
        <ele>1061</ele>
        <time>2011-08-18T06:10:44Z</time>
      </trkpt>
      <trkpt lat="44.06547" lon="6.24515">
        <ele>1061</ele>
        <time>2011-08-18T06:10:46Z</time>
      </trkpt>
      <trkpt lat="44.06537" lon="6.24498">
        <ele>1079</ele>
        <time>2011-08-18T06:10:55Z</time>
      </trkpt>
      <trkpt lat="44.06514" lon="6.24493">
        <ele>1077</ele>
        <time>2011-08-18T06:11:08Z</time>
      </trkpt>
      <trkpt lat="44.06496" lon="6.24485">
        <ele>1077</ele>
        <time>2011-08-18T06:11:20Z</time>
      </trkpt>
      <trkpt lat="44.06564" lon="6.24592">
        <ele>1036</ele>
        <time>2011-08-18T06:11:28Z</time>
      </trkpt>
      <trkpt lat="44.06572" lon="6.24593">
        <ele>1038</ele>
        <time>2011-08-18T06:11:49Z</time>
      </trkpt>
      <trkpt lat="44.06595" lon="6.24582">
        <ele>1054</ele>
        <time>2011-08-18T06:12:04Z</time>
      </trkpt>
      <trkpt lat="44.06601" lon="6.24584">
        <ele>1044</ele>
        <time>2011-08-18T06:12:09Z</time>
      </trkpt>
      <trkpt lat="44.06605" lon="6.24588">
        <ele>1044</ele>
        <time>2011-08-18T06:12:13Z</time>
      </trkpt>
      <trkpt lat="44.06619" lon="6.24588">
        <ele>1045</ele>
        <time>2011-08-18T06:12:22Z</time>
      </trkpt>
      <trkpt lat="44.06628" lon="6.2459">
        <ele>1046</ele>
        <time>2011-08-18T06:12:28Z</time>
      </trkpt>
      <trkpt lat="44.06655" lon="6.24602">
        <ele>1050</ele>
        <time>2011-08-18T06:12:43Z</time>
      </trkpt>
      <trkpt lat="44.06678" lon="6.24607">
        <ele>1059</ele>
        <time>2011-08-18T06:12:58Z</time>
      </trkpt>
      <trkpt lat="44.06712" lon="6.24617">
        <ele>1060</ele>
        <time>2011-08-18T06:13:19Z</time>
      </trkpt>
      <trkpt lat="44.06731" lon="6.24637">
        <ele>1059</ele>
        <time>2011-08-18T06:13:34Z</time>
      </trkpt>
      <trkpt lat="44.06736" lon="6.24642">
        <ele>1058</ele>
        <time>2011-08-18T06:13:44Z</time>
      </trkpt>
      <trkpt lat="44.06745" lon="6.24643">
        <ele>1058</ele>
        <time>2011-08-18T06:14:01Z</time>
      </trkpt>
      <trkpt lat="44.06758" lon="6.2464">
        <ele>1069</ele>
        <time>2011-08-18T06:14:22Z</time>
      </trkpt>
      <trkpt lat="44.06762" lon="6.24636">
        <ele>1070</ele>
        <time>2011-08-18T06:14:36Z</time>
      </trkpt>
      <trkpt lat="44.06761" lon="6.24635">
        <ele>1070</ele>
        <time>2011-08-18T06:14:37Z</time>
      </trkpt>
      <trkpt lat="44.06754" lon="6.24618">
        <ele>1073</ele>
        <time>2011-08-18T06:14:53Z</time>
      </trkpt>
      <trkpt lat="44.06751" lon="6.24613">
        <ele>1074</ele>
        <time>2011-08-18T06:14:57Z</time>
      </trkpt>
      <trkpt lat="44.06757" lon="6.24606">
        <ele>1075</ele>
        <time>2011-08-18T06:15:10Z</time>
      </trkpt>
      <trkpt lat="44.06763" lon="6.24602">
        <ele>1076</ele>
        <time>2011-08-18T06:15:18Z</time>
      </trkpt>
      <trkpt lat="44.06767" lon="6.24596">
        <ele>1076</ele>
        <time>2011-08-18T06:15:30Z</time>
      </trkpt>
      <trkpt lat="44.06767" lon="6.24595">
        <ele>1076</ele>
        <time>2011-08-18T06:15:37Z</time>
      </trkpt>
      <trkpt lat="44.06771" lon="6.24583">
        <ele>1083</ele>
        <time>2011-08-18T06:15:56Z</time>
      </trkpt>
      <trkpt lat="44.06767" lon="6.24571">
        <ele>1083</ele>
        <time>2011-08-18T06:16:16Z</time>
      </trkpt>
      <trkpt lat="44.06759" lon="6.24566">
        <ele>1083</ele>
        <time>2011-08-18T06:16:36Z</time>
      </trkpt>
      <trkpt lat="44.06746" lon="6.24557">
        <ele>1080</ele>
        <time>2011-08-18T06:16:51Z</time>
      </trkpt>
      <trkpt lat="44.06743" lon="6.24553">
        <ele>1080</ele>
        <time>2011-08-18T06:16:54Z</time>
      </trkpt>
      <trkpt lat="44.06699" lon="6.24528">
        <ele>1081</ele>
        <time>2011-08-18T06:17:13Z</time>
      </trkpt>
      <trkpt lat="44.0665" lon="6.24499">
        <ele>1086</ele>
        <time>2011-08-18T06:17:29Z</time>
      </trkpt>
      <trkpt lat="44.06602" lon="6.24464">
        <ele>1086</ele>
        <time>2011-08-18T06:17:46Z</time>
      </trkpt>
      <trkpt lat="44.06552" lon="6.24459">
        <ele>1083</ele>
        <time>2011-08-18T06:18:01Z</time>
      </trkpt>
      <trkpt lat="44.06523" lon="6.24471">
        <ele>1081</ele>
        <time>2011-08-18T06:18:11Z</time>
      </trkpt>
      <trkpt lat="44.06519" lon="6.24475">
        <ele>1081</ele>
        <time>2011-08-18T06:18:15Z</time>
      </trkpt>
      <trkpt lat="44.06522" lon="6.24473">
        <ele>1081</ele>
        <time>2011-08-18T06:18:24Z</time>
      </trkpt>
      <trkpt lat="44.06483" lon="6.24485">
        <ele>1079</ele>
        <time>2011-08-18T06:18:35Z</time>
      </trkpt>
      <trkpt lat="44.06409" lon="6.24485">
        <ele>1078</ele>
        <time>2011-08-18T06:18:47Z</time>
      </trkpt>
      <trkpt lat="44.06329" lon="6.24531">
        <ele>1064</ele>
        <time>2011-08-18T06:18:58Z</time>
      </trkpt>
      <trkpt lat="44.06322" lon="6.24537">
        <ele>1062</ele>
        <time>2011-08-18T06:18:59Z</time>
      </trkpt>
      <trkpt lat="44.06296" lon="6.2455">
        <ele>1060</ele>
        <time>2011-08-18T06:19:03Z</time>
      </trkpt>
      <trkpt lat="44.06217" lon="6.24565">
        <ele>1059</ele>
        <time>2011-08-18T06:19:15Z</time>
      </trkpt>
      <trkpt lat="44.06144" lon="6.24572">
        <ele>1056</ele>
        <time>2011-08-18T06:19:27Z</time>
      </trkpt>
      <trkpt lat="44.06136" lon="6.24572">
        <ele>1058</ele>
        <time>2011-08-18T06:19:34Z</time>
      </trkpt>
      <trkpt lat="44.06118" lon="6.24583">
        <ele>1057</ele>
        <time>2011-08-18T06:19:45Z</time>
      </trkpt>
      <trkpt lat="44.06066" lon="6.24628">
        <ele>1045</ele>
        <time>2011-08-18T06:19:54Z</time>
      </trkpt>
      <trkpt lat="44.06045" lon="6.24642">
        <ele>1045</ele>
        <time>2011-08-18T06:19:57Z</time>
      </trkpt>
      <trkpt lat="44.0601" lon="6.24687">
        <ele>1034</ele>
        <time>2011-08-18T06:20:03Z</time>
      </trkpt>
      <trkpt lat="44.05998" lon="6.24703">
        <ele>1049</ele>
        <time>2011-08-18T06:20:05Z</time>
      </trkpt>
      <trkpt lat="44.05973" lon="6.2475">
        <ele>1045</ele>
        <time>2011-08-18T06:20:10Z</time>
      </trkpt>
      <trkpt lat="44.0596" lon="6.24804">
        <ele>1035</ele>
        <time>2011-08-18T06:20:15Z</time>
      </trkpt>
      <trkpt lat="44.05948" lon="6.24836">
        <ele>1034</ele>
        <time>2011-08-18T06:20:19Z</time>
      </trkpt>
      <trkpt lat="44.05945" lon="6.24866">
        <ele>1035</ele>
        <time>2011-08-18T06:20:23Z</time>
      </trkpt>
      <trkpt lat="44.05948" lon="6.24878">
        <ele>1035</ele>
        <time>2011-08-18T06:20:25Z</time>
      </trkpt>
      <trkpt lat="44.05944" lon="6.24901">
        <ele>1036</ele>
        <time>2011-08-18T06:20:32Z</time>
      </trkpt>
      <trkpt lat="44.0594" lon="6.2491">
        <ele>1036</ele>
        <time>2011-08-18T06:20:40Z</time>
      </trkpt>
      <trkpt lat="44.05917" lon="6.24921">
        <ele>1041</ele>
        <time>2011-08-18T06:20:54Z</time>
      </trkpt>
      <trkpt lat="44.05911" lon="6.24926">
        <ele>1043</ele>
        <time>2011-08-18T06:20:59Z</time>
      </trkpt>
      <trkpt lat="44.05878" lon="6.24932">
        <ele>1050</ele>
        <time>2011-08-18T06:21:17Z</time>
      </trkpt>
      <trkpt lat="44.05847" lon="6.24942">
        <ele>1052</ele>
        <time>2011-08-18T06:21:39Z</time>
      </trkpt>
      <trkpt lat="44.05821" lon="6.24948">
        <ele>1060</ele>
        <time>2011-08-18T06:21:57Z</time>
      </trkpt>
      <trkpt lat="44.05794" lon="6.24957">
        <ele>1064</ele>
        <time>2011-08-18T06:22:14Z</time>
      </trkpt>
      <trkpt lat="44.05777" lon="6.24965">
        <ele>1065</ele>
        <time>2011-08-18T06:22:27Z</time>
      </trkpt>
      <trkpt lat="44.05751" lon="6.24982">
        <ele>1066</ele>
        <time>2011-08-18T06:22:47Z</time>
      </trkpt>
      <trkpt lat="44.05745" lon="6.24991">
        <ele>1074</ele>
        <time>2011-08-18T06:22:54Z</time>
      </trkpt>
      <trkpt lat="44.05739" lon="6.24994">
        <ele>1075</ele>
        <time>2011-08-18T06:22:59Z</time>
      </trkpt>
      <trkpt lat="44.05736" lon="6.24994">
        <ele>1076</ele>
        <time>2011-08-18T06:23:01Z</time>
      </trkpt>
      <trkpt lat="44.05721" lon="6.25003">
        <ele>1080</ele>
        <time>2011-08-18T06:23:15Z</time>
      </trkpt>
      <trkpt lat="44.05711" lon="6.2501">
        <ele>1082</ele>
        <time>2011-08-18T06:23:25Z</time>
      </trkpt>
      <trkpt lat="44.05708" lon="6.2502">
        <ele>1083</ele>
        <time>2011-08-18T06:23:32Z</time>
      </trkpt>
      <trkpt lat="44.05705" lon="6.25024">
        <ele>1084</ele>
        <time>2011-08-18T06:23:35Z</time>
      </trkpt>
      <trkpt lat="44.05702" lon="6.25029">
        <ele>1084</ele>
        <time>2011-08-18T06:23:39Z</time>
      </trkpt>
      <trkpt lat="44.05696" lon="6.25033">
        <ele>1085</ele>
        <time>2011-08-18T06:23:43Z</time>
      </trkpt>
      <trkpt lat="44.05665" lon="6.2505">
        <ele>1091</ele>
        <time>2011-08-18T06:24:03Z</time>
      </trkpt>
      <trkpt lat="44.05634" lon="6.25061">
        <ele>1091</ele>
        <time>2011-08-18T06:24:26Z</time>
      </trkpt>
      <trkpt lat="44.05616" lon="6.25064">
        <ele>1092</ele>
        <time>2011-08-18T06:24:41Z</time>
      </trkpt>
      <trkpt lat="44.05603" lon="6.25069">
        <ele>1093</ele>
        <time>2011-08-18T06:24:57Z</time>
      </trkpt>
      <trkpt lat="44.0559" lon="6.25074">
        <ele>1093</ele>
        <time>2011-08-18T06:25:13Z</time>
      </trkpt>
      <trkpt lat="44.05588" lon="6.25074">
        <ele>1093</ele>
        <time>2011-08-18T06:25:17Z</time>
      </trkpt>
      <trkpt lat="44.05562" lon="6.25064">
        <ele>1099</ele>
        <time>2011-08-18T06:25:35Z</time>
      </trkpt>
      <trkpt lat="44.0553" lon="6.25043">
        <ele>1102</ele>
        <time>2011-08-18T06:25:59Z</time>
      </trkpt>
      <trkpt lat="44.05494" lon="6.25042">
        <ele>1110</ele>
        <time>2011-08-18T06:26:23Z</time>
      </trkpt>
      <trkpt lat="44.05464" lon="6.25046">
        <ele>1111</ele>
        <time>2011-08-18T06:26:44Z</time>
      </trkpt>
      <trkpt lat="44.05436" lon="6.25044">
        <ele>1113</ele>
        <time>2011-08-18T06:27:04Z</time>
      </trkpt>
      <trkpt lat="44.05403" lon="6.25043">
        <ele>1120</ele>
        <time>2011-08-18T06:27:27Z</time>
      </trkpt>
      <trkpt lat="44.05374" lon="6.2505">
        <ele>1121</ele>
        <time>2011-08-18T06:27:47Z</time>
      </trkpt>
      <trkpt lat="44.05345" lon="6.25052">
        <ele>1123</ele>
        <time>2011-08-18T06:28:08Z</time>
      </trkpt>
      <trkpt lat="44.05315" lon="6.25055">
        <ele>1130</ele>
        <time>2011-08-18T06:28:31Z</time>
      </trkpt>
      <trkpt lat="44.05289" lon="6.25053">
        <ele>1132</ele>
        <time>2011-08-18T06:28:50Z</time>
      </trkpt>
      <trkpt lat="44.0527" lon="6.2505">
        <ele>1133</ele>
        <time>2011-08-18T06:29:07Z</time>
      </trkpt>
      <trkpt lat="44.05254" lon="6.25051">
        <ele>1134</ele>
        <time>2011-08-18T06:29:25Z</time>
      </trkpt>
      <trkpt lat="44.0524" lon="6.25054">
        <ele>1140</ele>
        <time>2011-08-18T06:29:39Z</time>
      </trkpt>
      <trkpt lat="44.05225" lon="6.25054">
        <ele>1141</ele>
        <time>2011-08-18T06:29:56Z</time>
      </trkpt>
      <trkpt lat="44.05212" lon="6.25052">
        <ele>1142</ele>
        <time>2011-08-18T06:30:10Z</time>
      </trkpt>
      <trkpt lat="44.05199" lon="6.2505">
        <ele>1142</ele>
        <time>2011-08-18T06:30:27Z</time>
      </trkpt>
      <trkpt lat="44.05194" lon="6.25046">
        <ele>1142</ele>
        <time>2011-08-18T06:30:45Z</time>
      </trkpt>
      <trkpt lat="44.05192" lon="6.25046">
        <ele>1142</ele>
        <time>2011-08-18T06:30:48Z</time>
      </trkpt>
      <trkpt lat="44.05178" lon="6.2504">
        <ele>1143</ele>
        <time>2011-08-18T06:30:59Z</time>
      </trkpt>
      <trkpt lat="44.0516" lon="6.25036">
        <ele>1152</ele>
        <time>2011-08-18T06:31:11Z</time>
      </trkpt>
      <trkpt lat="44.05139" lon="6.25034">
        <ele>1154</ele>
        <time>2011-08-18T06:31:26Z</time>
      </trkpt>
      <trkpt lat="44.05137" lon="6.25033">
        <ele>1154</ele>
        <time>2011-08-18T06:31:28Z</time>
      </trkpt>
      <trkpt lat="44.05118" lon="6.25018">
        <ele>1155</ele>
        <time>2011-08-18T06:31:45Z</time>
      </trkpt>
      <trkpt lat="44.05113" lon="6.25014">
        <ele>1155</ele>
        <time>2011-08-18T06:31:49Z</time>
      </trkpt>
      <trkpt lat="44.05096" lon="6.24999">
        <ele>1158</ele>
        <time>2011-08-18T06:32:04Z</time>
      </trkpt>
      <trkpt lat="44.05081" lon="6.24991">
        <ele>1163</ele>
        <time>2011-08-18T06:32:21Z</time>
      </trkpt>
      <trkpt lat="44.05069" lon="6.24984">
        <ele>1168</ele>
        <time>2011-08-18T06:32:38Z</time>
      </trkpt>
      <trkpt lat="44.05064" lon="6.24979">
        <ele>1170</ele>
        <time>2011-08-18T06:32:45Z</time>
      </trkpt>
      <trkpt lat="44.05046" lon="6.24958">
        <ele>1175</ele>
        <time>2011-08-18T06:33:09Z</time>
      </trkpt>
      <trkpt lat="44.05037" lon="6.24946">
        <ele>1176</ele>
        <time>2011-08-18T06:33:23Z</time>
      </trkpt>
      <trkpt lat="44.05033" lon="6.24954">
        <ele>1177</ele>
        <time>2011-08-18T06:33:32Z</time>
      </trkpt>
      <trkpt lat="44.05033" lon="6.2497">
        <ele>1177</ele>
        <time>2011-08-18T06:33:44Z</time>
      </trkpt>
      <trkpt lat="44.05035" lon="6.24975">
        <ele>1177</ele>
        <time>2011-08-18T06:33:48Z</time>
      </trkpt>
      <trkpt lat="44.05035" lon="6.24988">
        <ele>1178</ele>
        <time>2011-08-18T06:33:57Z</time>
      </trkpt>
      <trkpt lat="44.05037" lon="6.25002">
        <ele>1184</ele>
        <time>2011-08-18T06:34:12Z</time>
      </trkpt>
      <trkpt lat="44.05052" lon="6.25025">
        <ele>1181</ele>
        <time>2011-08-18T06:34:26Z</time>
      </trkpt>
      <trkpt lat="44.0506" lon="6.25035">
        <ele>1181</ele>
        <time>2011-08-18T06:34:41Z</time>
      </trkpt>
      <trkpt lat="44.05068" lon="6.25051">
        <ele>1182</ele>
        <time>2011-08-18T06:34:59Z</time>
      </trkpt>
      <trkpt lat="44.05075" lon="6.25066">
        <ele>1181</ele>
        <time>2011-08-18T06:35:11Z</time>
      </trkpt>
      <trkpt lat="44.05082" lon="6.25079">
        <ele>1178</ele>
        <time>2011-08-18T06:35:27Z</time>
      </trkpt>
      <trkpt lat="44.05082" lon="6.2508">
        <ele>1177</ele>
        <time>2011-08-18T06:35:28Z</time>
      </trkpt>
      <trkpt lat="44.05086" lon="6.25095">
        <ele>1178</ele>
        <time>2011-08-18T06:35:41Z</time>
      </trkpt>
      <trkpt lat="44.05089" lon="6.25097">
        <ele>1178</ele>
        <time>2011-08-18T06:35:42Z</time>
      </trkpt>
      <trkpt lat="44.05104" lon="6.25111">
        <ele>1180</ele>
        <time>2011-08-18T06:35:55Z</time>
      </trkpt>
      <trkpt lat="44.05113" lon="6.25124">
        <ele>1182</ele>
        <time>2011-08-18T06:36:06Z</time>
      </trkpt>
      <trkpt lat="44.05118" lon="6.25138">
        <ele>1184</ele>
        <time>2011-08-18T06:36:16Z</time>
      </trkpt>
      <trkpt lat="44.05122" lon="6.25139">
        <ele>1183</ele>
        <time>2011-08-18T06:36:27Z</time>
      </trkpt>
      <trkpt lat="44.05133" lon="6.25145">
        <ele>1183</ele>
        <time>2011-08-18T06:36:40Z</time>
      </trkpt>
      <trkpt lat="44.0514" lon="6.2515">
        <ele>1183</ele>
        <time>2011-08-18T06:36:48Z</time>
      </trkpt>
      <trkpt lat="44.05154" lon="6.25157">
        <ele>1183</ele>
        <time>2011-08-18T06:37:02Z</time>
      </trkpt>
      <trkpt lat="44.05168" lon="6.25161">
        <ele>1181</ele>
        <time>2011-08-18T06:37:14Z</time>
      </trkpt>
      <trkpt lat="44.05179" lon="6.25168">
        <ele>1190</ele>
        <time>2011-08-18T06:37:26Z</time>
      </trkpt>
      <trkpt lat="44.05181" lon="6.25169">
        <ele>1191</ele>
        <time>2011-08-18T06:37:27Z</time>
      </trkpt>
      <trkpt lat="44.05202" lon="6.25169">
        <ele>1192</ele>
        <time>2011-08-18T06:37:46Z</time>
      </trkpt>
      <trkpt lat="44.05217" lon="6.25166">
        <ele>1168</ele>
        <time>2011-08-18T06:37:59Z</time>
      </trkpt>
      <trkpt lat="44.05239" lon="6.25175">
        <ele>1184</ele>
        <time>2011-08-18T06:38:12Z</time>
      </trkpt>
      <trkpt lat="44.05245" lon="6.25178">
        <ele>1183</ele>
        <time>2011-08-18T06:38:25Z</time>
      </trkpt>
      <trkpt lat="44.05248" lon="6.2518">
        <ele>1184</ele>
        <time>2011-08-18T06:38:35Z</time>
      </trkpt>
      <trkpt lat="44.05253" lon="6.25186">
        <ele>1182</ele>
        <time>2011-08-18T06:38:48Z</time>
      </trkpt>
      <trkpt lat="44.05255" lon="6.25189">
        <ele>1183</ele>
        <time>2011-08-18T06:39:11Z</time>
      </trkpt>
      <trkpt lat="44.05255" lon="6.25189">
        <ele>1183</ele>
        <time>2011-08-18T06:44:27Z</time>
      </trkpt>
      <trkpt lat="44.05263" lon="6.25195">
        <ele>1185</ele>
        <time>2011-08-18T06:49:16Z</time>
      </trkpt>
      <trkpt lat="44.05276" lon="6.25205">
        <ele>1188</ele>
        <time>2011-08-18T06:49:36Z</time>
      </trkpt>
      <trkpt lat="44.05291" lon="6.25214">
        <ele>1189</ele>
        <time>2011-08-18T06:49:57Z</time>
      </trkpt>
      <trkpt lat="44.05309" lon="6.2523">
        <ele>1192</ele>
        <time>2011-08-18T06:50:22Z</time>
      </trkpt>
      <trkpt lat="44.0532" lon="6.25239">
        <ele>1194</ele>
        <time>2011-08-18T06:50:40Z</time>
      </trkpt>
      <trkpt lat="44.05328" lon="6.25242">
        <ele>1196</ele>
        <time>2011-08-18T06:50:54Z</time>
      </trkpt>
      <trkpt lat="44.05349" lon="6.25252">
        <ele>1198</ele>
        <time>2011-08-18T06:51:08Z</time>
      </trkpt>
      <trkpt lat="44.05358" lon="6.25258">
        <ele>1197</ele>
        <time>2011-08-18T06:51:19Z</time>
      </trkpt>
      <trkpt lat="44.05359" lon="6.25267">
        <ele>1197</ele>
        <time>2011-08-18T06:51:35Z</time>
      </trkpt>
      <trkpt lat="44.05359" lon="6.25267">
        <ele>1197</ele>
        <time>2011-08-18T06:51:40Z</time>
      </trkpt>
      <trkpt lat="44.0535" lon="6.25274">
        <ele>1197</ele>
        <time>2011-08-18T06:51:54Z</time>
      </trkpt>
      <trkpt lat="44.05349" lon="6.25277">
        <ele>1197</ele>
        <time>2011-08-18T06:52:17Z</time>
      </trkpt>
      <trkpt lat="44.05349" lon="6.25277">
        <ele>1197</ele>
        <time>2011-08-18T06:52:36Z</time>
      </trkpt>
      <trkpt lat="44.05358" lon="6.2529">
        <ele>1196</ele>
        <time>2011-08-18T06:52:47Z</time>
      </trkpt>
      <trkpt lat="44.05363" lon="6.25293">
        <ele>1196</ele>
        <time>2011-08-18T06:52:58Z</time>
      </trkpt>
      <trkpt lat="44.05363" lon="6.25292">
        <ele>1196</ele>
        <time>2011-08-18T06:53:46Z</time>
      </trkpt>
      <trkpt lat="44.05384" lon="6.25302">
        <ele>1195</ele>
        <time>2011-08-18T06:55:29Z</time>
      </trkpt>
      <trkpt lat="44.05415" lon="6.25319">
        <ele>1194</ele>
        <time>2011-08-18T06:55:41Z</time>
      </trkpt>
      <trkpt lat="44.05423" lon="6.25324">
        <ele>1192</ele>
        <time>2011-08-18T06:55:51Z</time>
      </trkpt>
      <trkpt lat="44.05448" lon="6.25336">
        <ele>1185</ele>
        <time>2011-08-18T06:56:04Z</time>
      </trkpt>
      <trkpt lat="44.05448" lon="6.25336">
        <ele>1185</ele>
        <time>2011-08-18T06:56:20Z</time>
      </trkpt>
      <trkpt lat="44.05452" lon="6.25338">
        <ele>1185</ele>
        <time>2011-08-18T06:56:38Z</time>
      </trkpt>
      <trkpt lat="44.05468" lon="6.25348">
        <ele>1185</ele>
        <time>2011-08-18T06:56:49Z</time>
      </trkpt>
      <trkpt lat="44.05479" lon="6.25356">
        <ele>1185</ele>
        <time>2011-08-18T06:57:01Z</time>
      </trkpt>
      <trkpt lat="44.05479" lon="6.25356">
        <ele>1185</ele>
        <time>2011-08-18T06:57:02Z</time>
      </trkpt>
      <trkpt lat="44.05483" lon="6.2536">
        <ele>1184</ele>
        <time>2011-08-18T06:57:05Z</time>
      </trkpt>
      <trkpt lat="44.05495" lon="6.25368">
        <ele>1183</ele>
        <time>2011-08-18T06:57:18Z</time>
      </trkpt>
      <trkpt lat="44.05503" lon="6.25374">
        <ele>1188</ele>
        <time>2011-08-18T06:57:33Z</time>
      </trkpt>
      <trkpt lat="44.055" lon="6.25374">
        <ele>1188</ele>
        <time>2011-08-18T06:57:48Z</time>
      </trkpt>
      <trkpt lat="44.05499" lon="6.25373">
        <ele>1182</ele>
        <time>2011-08-18T06:58:17Z</time>
      </trkpt>
      <trkpt lat="44.05499" lon="6.25373">
        <ele>1182</ele>
        <time>2011-08-18T07:00:58Z</time>
      </trkpt>
      <trkpt lat="44.05488" lon="6.25375">
        <ele>1181</ele>
        <time>2011-08-18T07:01:10Z</time>
      </trkpt>
      <trkpt lat="44.05486" lon="6.25376">
        <ele>1181</ele>
        <time>2011-08-18T07:01:13Z</time>
      </trkpt>
      <trkpt lat="44.05483" lon="6.25376">
        <ele>1180</ele>
        <time>2011-08-18T07:01:15Z</time>
      </trkpt>
      <trkpt lat="44.05461" lon="6.2538">
        <ele>1179</ele>
        <time>2011-08-18T07:01:28Z</time>
      </trkpt>
      <trkpt lat="44.05438" lon="6.25383">
        <ele>1176</ele>
        <time>2011-08-18T07:01:41Z</time>
      </trkpt>
      <trkpt lat="44.05427" lon="6.25387">
        <ele>1174</ele>
        <time>2011-08-18T07:01:52Z</time>
      </trkpt>
      <trkpt lat="44.05416" lon="6.25389">
        <ele>1171</ele>
        <time>2011-08-18T07:02:04Z</time>
      </trkpt>
      <trkpt lat="44.05414" lon="6.2539">
        <ele>1171</ele>
        <time>2011-08-18T07:02:06Z</time>
      </trkpt>
      <trkpt lat="44.05403" lon="6.25395">
        <ele>1170</ele>
        <time>2011-08-18T07:02:20Z</time>
      </trkpt>
      <trkpt lat="44.05394" lon="6.25397">
        <ele>1170</ele>
        <time>2011-08-18T07:02:36Z</time>
      </trkpt>
      <trkpt lat="44.05373" lon="6.25405">
        <ele>1170</ele>
        <time>2011-08-18T07:02:49Z</time>
      </trkpt>
      <trkpt lat="44.05354" lon="6.25418">
        <ele>1148</ele>
        <time>2011-08-18T07:02:58Z</time>
      </trkpt>
      <trkpt lat="44.05318" lon="6.25436">
        <ele>1144</ele>
        <time>2011-08-18T07:03:12Z</time>
      </trkpt>
      <trkpt lat="44.05305" lon="6.25431">
        <ele>1143</ele>
        <time>2011-08-18T07:03:22Z</time>
      </trkpt>
      <trkpt lat="44.05303" lon="6.25431">
        <ele>1143</ele>
        <time>2011-08-18T07:03:25Z</time>
      </trkpt>
      <trkpt lat="44.05297" lon="6.25432">
        <ele>1143</ele>
        <time>2011-08-18T07:03:39Z</time>
      </trkpt>
      <trkpt lat="44.05284" lon="6.25441">
        <ele>1141</ele>
        <time>2011-08-18T07:03:52Z</time>
      </trkpt>
      <trkpt lat="44.05245" lon="6.25455">
        <ele>1137</ele>
        <time>2011-08-18T07:04:07Z</time>
      </trkpt>
      <trkpt lat="44.05236" lon="6.25462">
        <ele>1134</ele>
        <time>2011-08-18T07:04:11Z</time>
      </trkpt>
      <trkpt lat="44.05221" lon="6.25472">
        <ele>1132</ele>
        <time>2011-08-18T07:04:19Z</time>
      </trkpt>
      <trkpt lat="44.05197" lon="6.25497">
        <ele>1127</ele>
        <time>2011-08-18T07:04:30Z</time>
      </trkpt>
      <trkpt lat="44.0519" lon="6.255">
        <ele>1106</ele>
        <time>2011-08-18T07:04:33Z</time>
      </trkpt>
      <trkpt lat="44.05155" lon="6.25524">
        <ele>1104</ele>
        <time>2011-08-18T07:04:46Z</time>
      </trkpt>
      <trkpt lat="44.05119" lon="6.25544">
        <ele>1097</ele>
        <time>2011-08-18T07:04:58Z</time>
      </trkpt>
      <trkpt lat="44.05079" lon="6.25563">
        <ele>1090</ele>
        <time>2011-08-18T07:05:10Z</time>
      </trkpt>
      <trkpt lat="44.05042" lon="6.25582">
        <ele>1091</ele>
        <time>2011-08-18T07:05:21Z</time>
      </trkpt>
      <trkpt lat="44.05009" lon="6.25607">
        <ele>1071</ele>
        <time>2011-08-18T07:05:32Z</time>
      </trkpt>
      <trkpt lat="44.04999" lon="6.25613">
        <ele>1072</ele>
        <time>2011-08-18T07:05:34Z</time>
      </trkpt>
      <trkpt lat="44.0498" lon="6.25623">
        <ele>1070</ele>
        <time>2011-08-18T07:05:39Z</time>
      </trkpt>
      <trkpt lat="44.0495" lon="6.2566">
        <ele>1067</ele>
        <time>2011-08-18T07:05:49Z</time>
      </trkpt>
      <trkpt lat="44.04941" lon="6.2567">
        <ele>1057</ele>
        <time>2011-08-18T07:05:53Z</time>
      </trkpt>
      <trkpt lat="44.04919" lon="6.25716">
        <ele>1053</ele>
        <time>2011-08-18T07:06:03Z</time>
      </trkpt>
      <trkpt lat="44.04862" lon="6.25772">
        <ele>1050</ele>
        <time>2011-08-18T07:06:18Z</time>
      </trkpt>
      <trkpt lat="44.04846" lon="6.25788">
        <ele>1049</ele>
        <time>2011-08-18T07:06:23Z</time>
      </trkpt>
      <trkpt lat="44.04834" lon="6.25794">
        <ele>1049</ele>
        <time>2011-08-18T07:06:26Z</time>
      </trkpt>
      <trkpt lat="44.04827" lon="6.25814">
        <ele>1052</ele>
        <time>2011-08-18T07:06:31Z</time>
      </trkpt>
      <trkpt lat="44.04831" lon="6.25833">
        <ele>1045</ele>
        <time>2011-08-18T07:06:35Z</time>
      </trkpt>
      <trkpt lat="44.04827" lon="6.25859">
        <ele>1041</ele>
        <time>2011-08-18T07:06:39Z</time>
      </trkpt>
      <trkpt lat="44.04809" lon="6.25919">
        <ele>1026</ele>
        <time>2011-08-18T07:06:50Z</time>
      </trkpt>
      <trkpt lat="44.04797" lon="6.25933">
        <ele>1026</ele>
        <time>2011-08-18T07:06:53Z</time>
      </trkpt>
      <trkpt lat="44.04784" lon="6.25952">
        <ele>1025</ele>
        <time>2011-08-18T07:06:56Z</time>
      </trkpt>
      <trkpt lat="44.04752" lon="6.25969">
        <ele>1024</ele>
        <time>2011-08-18T07:07:01Z</time>
      </trkpt>
      <trkpt lat="44.04717" lon="6.25971">
        <ele>1028</ele>
        <time>2011-08-18T07:07:07Z</time>
      </trkpt>
      <trkpt lat="44.04701" lon="6.25989">
        <ele>1027</ele>
        <time>2011-08-18T07:07:12Z</time>
      </trkpt>
      <trkpt lat="44.04701" lon="6.26002">
        <ele>1015</ele>
        <time>2011-08-18T07:07:14Z</time>
      </trkpt>
      <trkpt lat="44.04681" lon="6.26037">
        <ele>1012</ele>
        <time>2011-08-18T07:07:21Z</time>
      </trkpt>
      <trkpt lat="44.04627" lon="6.26049">
        <ele>1013</ele>
        <time>2011-08-18T07:07:32Z</time>
      </trkpt>
      <trkpt lat="44.04598" lon="6.26045">
        <ele>1014</ele>
        <time>2011-08-18T07:07:38Z</time>
      </trkpt>
      <trkpt lat="44.0459" lon="6.26042">
        <ele>1014</ele>
        <time>2011-08-18T07:07:40Z</time>
      </trkpt>
      <trkpt lat="44.04583" lon="6.26056">
        <ele>1018</ele>
        <time>2011-08-18T07:07:48Z</time>
      </trkpt>
      <trkpt lat="44.04593" lon="6.26073">
        <ele>1010</ele>
        <time>2011-08-18T07:07:59Z</time>
      </trkpt>
      <trkpt lat="44.04615" lon="6.26102">
        <ele>999</ele>
        <time>2011-08-18T07:08:07Z</time>
      </trkpt>
      <trkpt lat="44.04633" lon="6.26159">
        <ele>993</ele>
        <time>2011-08-18T07:08:17Z</time>
      </trkpt>
      <trkpt lat="44.04629" lon="6.26168">
        <ele>983</ele>
        <time>2011-08-18T07:08:28Z</time>
      </trkpt>
      <trkpt lat="44.04617" lon="6.26197">
        <ele>982</ele>
        <time>2011-08-18T07:08:39Z</time>
      </trkpt>
      <trkpt lat="44.04613" lon="6.26246">
        <ele>978</ele>
        <time>2011-08-18T07:08:49Z</time>
      </trkpt>
      <trkpt lat="44.0461" lon="6.26263">
        <ele>969</ele>
        <time>2011-08-18T07:08:52Z</time>
      </trkpt>
      <trkpt lat="44.04601" lon="6.26295">
        <ele>967</ele>
        <time>2011-08-18T07:09:00Z</time>
      </trkpt>
      <trkpt lat="44.04594" lon="6.26303">
        <ele>966</ele>
        <time>2011-08-18T07:09:04Z</time>
      </trkpt>
      <trkpt lat="44.04587" lon="6.26309">
        <ele>966</ele>
        <time>2011-08-18T07:09:06Z</time>
      </trkpt>
      <trkpt lat="44.04584" lon="6.26334">
        <ele>965</ele>
        <time>2011-08-18T07:09:11Z</time>
      </trkpt>
      <trkpt lat="44.04587" lon="6.26347">
        <ele>961</ele>
        <time>2011-08-18T07:09:13Z</time>
      </trkpt>
      <trkpt lat="44.04581" lon="6.26407">
        <ele>965</ele>
        <time>2011-08-18T07:09:22Z</time>
      </trkpt>
      <trkpt lat="44.04573" lon="6.26443">
        <ele>965</ele>
        <time>2011-08-18T07:09:28Z</time>
      </trkpt>
      <trkpt lat="44.0456" lon="6.26523">
        <ele>964</ele>
        <time>2011-08-18T07:09:44Z</time>
      </trkpt>
      <trkpt lat="44.04566" lon="6.26573">
        <ele>965</ele>
        <time>2011-08-18T07:09:59Z</time>
      </trkpt>
      <trkpt lat="44.0455" lon="6.26582">
        <ele>965</ele>
        <time>2011-08-18T07:10:10Z</time>
      </trkpt>
      <trkpt lat="44.04551" lon="6.2658">
        <ele>965</ele>
        <time>2011-08-18T07:10:15Z</time>
      </trkpt>
      <trkpt lat="44.04555" lon="6.26576">
        <ele>965</ele>
        <time>2011-08-18T07:10:33Z</time>
      </trkpt>
      <trkpt lat="44.04556" lon="6.26577">
        <ele>965</ele>
        <time>2011-08-18T07:16:33Z</time>
      </trkpt>
      <trkpt lat="44.04555" lon="6.26578">
        <ele>965</ele>
        <time>2011-08-18T07:16:39Z</time>
      </trkpt>
      <trkpt lat="44.04508" lon="6.26594">
        <ele>962</ele>
        <time>2011-08-18T07:16:51Z</time>
      </trkpt>
      <trkpt lat="44.04473" lon="6.26607">
        <ele>966</ele>
        <time>2011-08-18T07:16:59Z</time>
      </trkpt>
      <trkpt lat="44.0446" lon="6.26621">
        <ele>966</ele>
        <time>2011-08-18T07:17:03Z</time>
      </trkpt>
      <trkpt lat="44.04432" lon="6.26673">
        <ele>963</ele>
        <time>2011-08-18T07:17:16Z</time>
      </trkpt>
      <trkpt lat="44.04409" lon="6.2673">
        <ele>968</ele>
        <time>2011-08-18T07:17:31Z</time>
      </trkpt>
      <trkpt lat="44.04379" lon="6.26771">
        <ele>967</ele>
        <time>2011-08-18T07:17:44Z</time>
      </trkpt>
      <trkpt lat="44.04351" lon="6.26811">
        <ele>969</ele>
        <time>2011-08-18T07:18:04Z</time>
      </trkpt>
      <trkpt lat="44.04335" lon="6.26837">
        <ele>972</ele>
        <time>2011-08-18T07:18:16Z</time>
      </trkpt>
      <trkpt lat="44.04327" lon="6.26881">
        <ele>976</ele>
        <time>2011-08-18T07:18:26Z</time>
      </trkpt>
      <trkpt lat="44.04323" lon="6.26905">
        <ele>973</ele>
        <time>2011-08-18T07:18:32Z</time>
      </trkpt>
      <trkpt lat="44.04328" lon="6.26922">
        <ele>967</ele>
        <time>2011-08-18T07:18:35Z</time>
      </trkpt>
      <trkpt lat="44.04329" lon="6.26936">
        <ele>968</ele>
        <time>2011-08-18T07:18:37Z</time>
      </trkpt>
      <trkpt lat="44.04325" lon="6.26972">
        <ele>966</ele>
        <time>2011-08-18T07:18:42Z</time>
      </trkpt>
      <trkpt lat="44.04297" lon="6.27029">
        <ele>963</ele>
        <time>2011-08-18T07:18:55Z</time>
      </trkpt>
      <trkpt lat="44.04273" lon="6.2707">
        <ele>965</ele>
        <time>2011-08-18T07:19:06Z</time>
      </trkpt>
      <trkpt lat="44.04264" lon="6.27099">
        <ele>965</ele>
        <time>2011-08-18T07:19:18Z</time>
      </trkpt>
      <trkpt lat="44.04261" lon="6.27105">
        <ele>964</ele>
        <time>2011-08-18T07:19:21Z</time>
      </trkpt>
      <trkpt lat="44.04266" lon="6.27148">
        <ele>963</ele>
        <time>2011-08-18T07:19:31Z</time>
      </trkpt>
      <trkpt lat="44.04265" lon="6.27163">
        <ele>964</ele>
        <time>2011-08-18T07:19:34Z</time>
      </trkpt>
      <trkpt lat="44.04272" lon="6.2717">
        <ele>966</ele>
        <time>2011-08-18T07:19:39Z</time>
      </trkpt>
      <trkpt lat="44.04276" lon="6.27172">
        <ele>966</ele>
        <time>2011-08-18T07:19:41Z</time>
      </trkpt>
      <trkpt lat="44.04278" lon="6.27179">
        <ele>966</ele>
        <time>2011-08-18T07:19:52Z</time>
      </trkpt>
      <trkpt lat="44.04272" lon="6.27189">
        <ele>967</ele>
        <time>2011-08-18T07:20:04Z</time>
      </trkpt>
      <trkpt lat="44.04264" lon="6.27197">
        <ele>968</ele>
        <time>2011-08-18T07:20:20Z</time>
      </trkpt>
      <trkpt lat="44.04246" lon="6.2721">
        <ele>974</ele>
        <time>2011-08-18T07:20:42Z</time>
      </trkpt>
      <trkpt lat="44.04236" lon="6.27221">
        <ele>975</ele>
        <time>2011-08-18T07:20:59Z</time>
      </trkpt>
      <trkpt lat="44.04223" lon="6.27228">
        <ele>976</ele>
        <time>2011-08-18T07:21:17Z</time>
      </trkpt>
      <trkpt lat="44.04228" lon="6.27234">
        <ele>976</ele>
        <time>2011-08-18T07:21:32Z</time>
      </trkpt>
      <trkpt lat="44.04241" lon="6.27242">
        <ele>976</ele>
        <time>2011-08-18T07:21:49Z</time>
      </trkpt>
      <trkpt lat="44.04242" lon="6.27255">
        <ele>978</ele>
        <time>2011-08-18T07:22:03Z</time>
      </trkpt>
      <trkpt lat="44.04238" lon="6.27269">
        <ele>980</ele>
        <time>2011-08-18T07:22:16Z</time>
      </trkpt>
      <trkpt lat="44.04235" lon="6.27302">
        <ele>983</ele>
        <time>2011-08-18T07:22:39Z</time>
      </trkpt>
      <trkpt lat="44.04231" lon="6.27318">
        <ele>984</ele>
        <time>2011-08-18T07:22:56Z</time>
      </trkpt>
      <trkpt lat="44.04229" lon="6.27336">
        <ele>988</ele>
        <time>2011-08-18T07:23:10Z</time>
      </trkpt>
      <trkpt lat="44.04221" lon="6.27387">
        <ele>990</ele>
        <time>2011-08-18T07:23:33Z</time>
      </trkpt>
      <trkpt lat="44.04218" lon="6.27433">
        <ele>991</ele>
        <time>2011-08-18T07:23:51Z</time>
      </trkpt>
      <trkpt lat="44.04215" lon="6.27441">
        <ele>992</ele>
        <time>2011-08-18T07:23:54Z</time>
      </trkpt>
      <trkpt lat="44.04214" lon="6.27478">
        <ele>991</ele>
        <time>2011-08-18T07:24:09Z</time>
      </trkpt>
      <trkpt lat="44.04212" lon="6.27512">
        <ele>990</ele>
        <time>2011-08-18T07:24:18Z</time>
      </trkpt>
      <trkpt lat="44.04199" lon="6.27548">
        <ele>990</ele>
        <time>2011-08-18T07:24:29Z</time>
      </trkpt>
      <trkpt lat="44.04181" lon="6.27597">
        <ele>988</ele>
        <time>2011-08-18T07:24:45Z</time>
      </trkpt>
      <trkpt lat="44.04179" lon="6.27602">
        <ele>988</ele>
        <time>2011-08-18T07:24:46Z</time>
      </trkpt>
      <trkpt lat="44.04168" lon="6.27634">
        <ele>984</ele>
        <time>2011-08-18T07:24:51Z</time>
      </trkpt>
      <trkpt lat="44.04149" lon="6.27686">
        <ele>986</ele>
        <time>2011-08-18T07:25:01Z</time>
      </trkpt>
      <trkpt lat="44.04142" lon="6.27699">
        <ele>987</ele>
        <time>2011-08-18T07:25:04Z</time>
      </trkpt>
      <trkpt lat="44.04111" lon="6.27725">
        <ele>989</ele>
        <time>2011-08-18T07:25:19Z</time>
      </trkpt>
      <trkpt lat="44.04071" lon="6.27761">
        <ele>992</ele>
        <time>2011-08-18T07:25:37Z</time>
      </trkpt>
      <trkpt lat="44.04063" lon="6.27769">
        <ele>993</ele>
        <time>2011-08-18T07:25:51Z</time>
      </trkpt>
      <trkpt lat="44.04063" lon="6.2777">
        <ele>993</ele>
        <time>2011-08-18T07:25:52Z</time>
      </trkpt>
      <trkpt lat="44.04033" lon="6.27794">
        <ele>995</ele>
        <time>2011-08-18T07:26:09Z</time>
      </trkpt>
      <trkpt lat="44.04003" lon="6.27824">
        <ele>996</ele>
        <time>2011-08-18T07:26:27Z</time>
      </trkpt>
      <trkpt lat="44.03985" lon="6.27853">
        <ele>998</ele>
        <time>2011-08-18T07:26:44Z</time>
      </trkpt>
      <trkpt lat="44.03965" lon="6.2787">
        <ele>998</ele>
        <time>2011-08-18T07:26:58Z</time>
      </trkpt>
      <trkpt lat="44.03939" lon="6.27874">
        <ele>998</ele>
        <time>2011-08-18T07:27:10Z</time>
      </trkpt>
      <trkpt lat="44.03897" lon="6.27884">
        <ele>996</ele>
        <time>2011-08-18T07:27:22Z</time>
      </trkpt>
      <trkpt lat="44.03873" lon="6.27896">
        <ele>995</ele>
        <time>2011-08-18T07:27:29Z</time>
      </trkpt>
      <trkpt lat="44.03859" lon="6.27903">
        <ele>994</ele>
        <time>2011-08-18T07:27:32Z</time>
      </trkpt>
      <trkpt lat="44.03813" lon="6.2792">
        <ele>991</ele>
        <time>2011-08-18T07:27:41Z</time>
      </trkpt>
      <trkpt lat="44.03796" lon="6.27928">
        <ele>991</ele>
        <time>2011-08-18T07:27:44Z</time>
      </trkpt>
      <trkpt lat="44.0376" lon="6.27946">
        <ele>990</ele>
        <time>2011-08-18T07:27:55Z</time>
      </trkpt>
      <trkpt lat="44.03712" lon="6.27994">
        <ele>987</ele>
        <time>2011-08-18T07:28:15Z</time>
      </trkpt>
      <trkpt lat="44.0366" lon="6.28047">
        <ele>990</ele>
        <time>2011-08-18T07:28:30Z</time>
      </trkpt>
      <trkpt lat="44.03619" lon="6.28087">
        <ele>993</ele>
        <time>2011-08-18T07:28:40Z</time>
      </trkpt>
      <trkpt lat="44.0361" lon="6.28091">
        <ele>993</ele>
        <time>2011-08-18T07:28:48Z</time>
      </trkpt>
      <trkpt lat="44.03599" lon="6.28096">
        <ele>994</ele>
        <time>2011-08-18T07:28:52Z</time>
      </trkpt>
      <trkpt lat="44.03593" lon="6.28105">
        <ele>994</ele>
        <time>2011-08-18T07:28:56Z</time>
      </trkpt>
      <trkpt lat="44.03568" lon="6.28139">
        <ele>998</ele>
        <time>2011-08-18T07:29:09Z</time>
      </trkpt>
      <trkpt lat="44.03539" lon="6.28152">
        <ele>999</ele>
        <time>2011-08-18T07:29:20Z</time>
      </trkpt>
      <trkpt lat="44.03514" lon="6.28169">
        <ele>1001</ele>
        <time>2011-08-18T07:29:35Z</time>
      </trkpt>
      <trkpt lat="44.035" lon="6.28171">
        <ele>1001</ele>
        <time>2011-08-18T07:29:42Z</time>
      </trkpt>
      <trkpt lat="44.03492" lon="6.28175">
        <ele>1003</ele>
        <time>2011-08-18T07:29:46Z</time>
      </trkpt>
      <trkpt lat="44.03483" lon="6.28187">
        <ele>1005</ele>
        <time>2011-08-18T07:29:54Z</time>
      </trkpt>
      <trkpt lat="44.03454" lon="6.28213">
        <ele>1007</ele>
        <time>2011-08-18T07:30:11Z</time>
      </trkpt>
      <trkpt lat="44.03432" lon="6.2824">
        <ele>1008</ele>
        <time>2011-08-18T07:30:29Z</time>
      </trkpt>
      <trkpt lat="44.03428" lon="6.28245">
        <ele>1008</ele>
        <time>2011-08-18T07:30:32Z</time>
      </trkpt>
      <trkpt lat="44.03428" lon="6.2825">
        <ele>1011</ele>
        <time>2011-08-18T07:30:34Z</time>
      </trkpt>
      <trkpt lat="44.03421" lon="6.28256">
        <ele>1010</ele>
        <time>2011-08-18T07:30:38Z</time>
      </trkpt>
      <trkpt lat="44.03415" lon="6.28256">
        <ele>1011</ele>
        <time>2011-08-18T07:30:41Z</time>
      </trkpt>
      <trkpt lat="44.03398" lon="6.28259">
        <ele>1014</ele>
        <time>2011-08-18T07:30:50Z</time>
      </trkpt>
      <trkpt lat="44.03368" lon="6.28275">
        <ele>1017</ele>
        <time>2011-08-18T07:31:10Z</time>
      </trkpt>
      <trkpt lat="44.03351" lon="6.28276">
        <ele>1018</ele>
        <time>2011-08-18T07:31:21Z</time>
      </trkpt>
      <trkpt lat="44.03341" lon="6.28278">
        <ele>1018</ele>
        <time>2011-08-18T07:31:27Z</time>
      </trkpt>
      <trkpt lat="44.03316" lon="6.28289">
        <ele>1022</ele>
        <time>2011-08-18T07:31:44Z</time>
      </trkpt>
      <trkpt lat="44.03295" lon="6.28301">
        <ele>1022</ele>
        <time>2011-08-18T07:31:57Z</time>
      </trkpt>
      <trkpt lat="44.03275" lon="6.28322">
        <ele>1022</ele>
        <time>2011-08-18T07:32:12Z</time>
      </trkpt>
      <trkpt lat="44.03236" lon="6.28354">
        <ele>1022</ele>
        <time>2011-08-18T07:32:31Z</time>
      </trkpt>
      <trkpt lat="44.03231" lon="6.28358">
        <ele>1022</ele>
        <time>2011-08-18T07:32:33Z</time>
      </trkpt>
      <trkpt lat="44.03193" lon="6.28386">
        <ele>1022</ele>
        <time>2011-08-18T07:32:46Z</time>
      </trkpt>
      <trkpt lat="44.03155" lon="6.28415">
        <ele>1019</ele>
        <time>2011-08-18T07:32:58Z</time>
      </trkpt>
      <trkpt lat="44.03134" lon="6.28447">
        <ele>1020</ele>
        <time>2011-08-18T07:33:03Z</time>
      </trkpt>
      <trkpt lat="44.03103" lon="6.28473">
        <ele>1019</ele>
        <time>2011-08-18T07:33:12Z</time>
      </trkpt>
      <trkpt lat="44.03097" lon="6.28482">
        <ele>1019</ele>
        <time>2011-08-18T07:33:16Z</time>
      </trkpt>
      <trkpt lat="44.03097" lon="6.28497">
        <ele>1018</ele>
        <time>2011-08-18T07:33:20Z</time>
      </trkpt>
      <trkpt lat="44.03098" lon="6.28515">
        <ele>1023</ele>
        <time>2011-08-18T07:33:23Z</time>
      </trkpt>
      <trkpt lat="44.031" lon="6.28532">
        <ele>1026</ele>
        <time>2011-08-18T07:33:26Z</time>
      </trkpt>
      <trkpt lat="44.03093" lon="6.28542">
        <ele>1026</ele>
        <time>2011-08-18T07:33:30Z</time>
      </trkpt>
      <trkpt lat="44.03064" lon="6.28543">
        <ele>1018</ele>
        <time>2011-08-18T07:33:43Z</time>
      </trkpt>
      <trkpt lat="44.03058" lon="6.28547">
        <ele>1017</ele>
        <time>2011-08-18T07:33:46Z</time>
      </trkpt>
      <trkpt lat="44.03037" lon="6.2859">
        <ele>1024</ele>
        <time>2011-08-18T07:33:58Z</time>
      </trkpt>
      <trkpt lat="44.03018" lon="6.28601">
        <ele>1023</ele>
        <time>2011-08-18T07:34:06Z</time>
      </trkpt>
      <trkpt lat="44.03012" lon="6.28605">
        <ele>1023</ele>
        <time>2011-08-18T07:34:09Z</time>
      </trkpt>
      <trkpt lat="44.02984" lon="6.28625">
        <ele>1022</ele>
        <time>2011-08-18T07:34:23Z</time>
      </trkpt>
      <trkpt lat="44.02951" lon="6.28646">
        <ele>1023</ele>
        <time>2011-08-18T07:34:38Z</time>
      </trkpt>
      <trkpt lat="44.02939" lon="6.28657">
        <ele>1023</ele>
        <time>2011-08-18T07:34:44Z</time>
      </trkpt>
      <trkpt lat="44.02911" lon="6.28667">
        <ele>1027</ele>
        <time>2011-08-18T07:34:57Z</time>
      </trkpt>
      <trkpt lat="44.02908" lon="6.2867">
        <ele>1028</ele>
        <time>2011-08-18T07:34:59Z</time>
      </trkpt>
      <trkpt lat="44.0289" lon="6.28685">
        <ele>1032</ele>
        <time>2011-08-18T07:35:14Z</time>
      </trkpt>
      <trkpt lat="44.02865" lon="6.28699">
        <ele>1034</ele>
        <time>2011-08-18T07:35:29Z</time>
      </trkpt>
      <trkpt lat="44.0286" lon="6.28706">
        <ele>1035</ele>
        <time>2011-08-18T07:35:33Z</time>
      </trkpt>
      <trkpt lat="44.02843" lon="6.28734">
        <ele>1038</ele>
        <time>2011-08-18T07:35:49Z</time>
      </trkpt>
      <trkpt lat="44.02827" lon="6.28744">
        <ele>1038</ele>
        <time>2011-08-18T07:35:59Z</time>
      </trkpt>
      <trkpt lat="44.02812" lon="6.28757">
        <ele>1042</ele>
        <time>2011-08-18T07:36:09Z</time>
      </trkpt>
      <trkpt lat="44.02802" lon="6.2878">
        <ele>1044</ele>
        <time>2011-08-18T07:36:20Z</time>
      </trkpt>
      <trkpt lat="44.02796" lon="6.28788">
        <ele>1044</ele>
        <time>2011-08-18T07:36:25Z</time>
      </trkpt>
      <trkpt lat="44.02783" lon="6.28802">
        <ele>1045</ele>
        <time>2011-08-18T07:36:36Z</time>
      </trkpt>
      <trkpt lat="44.02763" lon="6.28828">
        <ele>1046</ele>
        <time>2011-08-18T07:36:52Z</time>
      </trkpt>
      <trkpt lat="44.02733" lon="6.28846">
        <ele>1048</ele>
        <time>2011-08-18T07:37:10Z</time>
      </trkpt>
      <trkpt lat="44.02702" lon="6.28877">
        <ele>1049</ele>
        <time>2011-08-18T07:37:28Z</time>
      </trkpt>
      <trkpt lat="44.02674" lon="6.28928">
        <ele>1055</ele>
        <time>2011-08-18T07:37:50Z</time>
      </trkpt>
      <trkpt lat="44.0266" lon="6.28988">
        <ele>1056</ele>
        <time>2011-08-18T07:38:12Z</time>
      </trkpt>
      <trkpt lat="44.02663" lon="6.29061">
        <ele>1064</ele>
        <time>2011-08-18T07:38:38Z</time>
      </trkpt>
      <trkpt lat="44.02653" lon="6.29106">
        <ele>1071</ele>
        <time>2011-08-18T07:38:56Z</time>
      </trkpt>
      <trkpt lat="44.02635" lon="6.29159">
        <ele>1074</ele>
        <time>2011-08-18T07:39:19Z</time>
      </trkpt>
      <trkpt lat="44.02617" lon="6.29207">
        <ele>1081</ele>
        <time>2011-08-18T07:39:40Z</time>
      </trkpt>
      <trkpt lat="44.02601" lon="6.29263">
        <ele>1085</ele>
        <time>2011-08-18T07:40:04Z</time>
      </trkpt>
      <trkpt lat="44.02602" lon="6.29321">
        <ele>1088</ele>
        <time>2011-08-18T07:40:27Z</time>
      </trkpt>
      <trkpt lat="44.02621" lon="6.29376">
        <ele>1096</ele>
        <time>2011-08-18T07:40:51Z</time>
      </trkpt>
      <trkpt lat="44.02648" lon="6.29425">
        <ele>1103</ele>
        <time>2011-08-18T07:41:15Z</time>
      </trkpt>
      <trkpt lat="44.0263" lon="6.29461">
        <ele>1103</ele>
        <time>2011-08-18T07:41:31Z</time>
      </trkpt>
      <trkpt lat="44.02625" lon="6.29484">
        <ele>1105</ele>
        <time>2011-08-18T07:41:42Z</time>
      </trkpt>
      <trkpt lat="44.02615" lon="6.29523">
        <ele>1110</ele>
        <time>2011-08-18T07:41:58Z</time>
      </trkpt>
      <trkpt lat="44.02591" lon="6.29583">
        <ele>1111</ele>
        <time>2011-08-18T07:42:22Z</time>
      </trkpt>
      <trkpt lat="44.02561" lon="6.29619">
        <ele>1110</ele>
        <time>2011-08-18T07:42:41Z</time>
      </trkpt>
      <trkpt lat="44.0256" lon="6.29622">
        <ele>1110</ele>
        <time>2011-08-18T07:42:42Z</time>
      </trkpt>
      <trkpt lat="44.02574" lon="6.29655">
        <ele>1104</ele>
        <time>2011-08-18T07:42:51Z</time>
      </trkpt>
      <trkpt lat="44.02627" lon="6.29666">
        <ele>1103</ele>
        <time>2011-08-18T07:42:59Z</time>
      </trkpt>
      <trkpt lat="44.02668" lon="6.2966">
        <ele>1099</ele>
        <time>2011-08-18T07:43:04Z</time>
      </trkpt>
      <trkpt lat="44.02788" lon="6.29663">
        <ele>1095</ele>
        <time>2011-08-18T07:43:17Z</time>
      </trkpt>
      <trkpt lat="44.02884" lon="6.29672">
        <ele>1075</ele>
        <time>2011-08-18T07:43:27Z</time>
      </trkpt>
      <trkpt lat="44.02906" lon="6.29673">
        <ele>1075</ele>
        <time>2011-08-18T07:43:30Z</time>
      </trkpt>
      <trkpt lat="44.02934" lon="6.2971">
        <ele>1070</ele>
        <time>2011-08-18T07:43:38Z</time>
      </trkpt>
      <trkpt lat="44.02934" lon="6.29715">
        <ele>1070</ele>
        <time>2011-08-18T07:43:39Z</time>
      </trkpt>
      <trkpt lat="44.02934" lon="6.29724">
        <ele>1070</ele>
        <time>2011-08-18T07:43:41Z</time>
      </trkpt>
      <trkpt lat="44.02948" lon="6.29732">
        <ele>1069</ele>
        <time>2011-08-18T07:43:48Z</time>
      </trkpt>
      <trkpt lat="44.02978" lon="6.29716">
        <ele>1069</ele>
        <time>2011-08-18T07:43:54Z</time>
      </trkpt>
      <trkpt lat="44.03014" lon="6.29712">
        <ele>1063</ele>
        <time>2011-08-18T07:44:02Z</time>
      </trkpt>
      <trkpt lat="44.03017" lon="6.29715">
        <ele>1063</ele>
        <time>2011-08-18T07:44:49Z</time>
      </trkpt>
      <trkpt lat="44.0304" lon="6.29717">
        <ele>1061</ele>
        <time>2011-08-18T07:44:58Z</time>
      </trkpt>
      <trkpt lat="44.03044" lon="6.29715">
        <ele>1061</ele>
        <time>2011-08-18T07:45:00Z</time>
      </trkpt>
      <trkpt lat="44.03053" lon="6.29711">
        <ele>1060</ele>
        <time>2011-08-18T07:45:04Z</time>
      </trkpt>
      <trkpt lat="44.03076" lon="6.29713">
        <ele>1059</ele>
        <time>2011-08-18T07:45:12Z</time>
      </trkpt>
      <trkpt lat="44.03078" lon="6.29712">
        <ele>1059</ele>
        <time>2011-08-18T07:45:13Z</time>
      </trkpt>
      <trkpt lat="44.03095" lon="6.29712">
        <ele>1049</ele>
        <time>2011-08-18T07:45:22Z</time>
      </trkpt>
      <trkpt lat="44.03106" lon="6.29707">
        <ele>1048</ele>
        <time>2011-08-18T07:45:28Z</time>
      </trkpt>
      <trkpt lat="44.03126" lon="6.29709">
        <ele>1046</ele>
        <time>2011-08-18T07:45:37Z</time>
      </trkpt>
      <trkpt lat="44.03129" lon="6.29704">
        <ele>1046</ele>
        <time>2011-08-18T07:45:39Z</time>
      </trkpt>
      <trkpt lat="44.03142" lon="6.29691">
        <ele>1045</ele>
        <time>2011-08-18T07:45:48Z</time>
      </trkpt>
      <trkpt lat="44.03144" lon="6.29693">
        <ele>1044</ele>
        <time>2011-08-18T07:46:09Z</time>
      </trkpt>
      <trkpt lat="44.03163" lon="6.29701">
        <ele>1043</ele>
        <time>2011-08-18T07:46:21Z</time>
      </trkpt>
      <trkpt lat="44.0317" lon="6.29705">
        <ele>1035</ele>
        <time>2011-08-18T07:46:24Z</time>
      </trkpt>
      <trkpt lat="44.03201" lon="6.29707">
        <ele>1033</ele>
        <time>2011-08-18T07:46:32Z</time>
      </trkpt>
      <trkpt lat="44.03214" lon="6.29702">
        <ele>1033</ele>
        <time>2011-08-18T07:46:41Z</time>
      </trkpt>
      <trkpt lat="44.03215" lon="6.29703">
        <ele>1033</ele>
        <time>2011-08-18T07:46:42Z</time>
      </trkpt>
      <trkpt lat="44.03224" lon="6.29714">
        <ele>1031</ele>
        <time>2011-08-18T07:46:49Z</time>
      </trkpt>
      <trkpt lat="44.03236" lon="6.2972">
        <ele>1030</ele>
        <time>2011-08-18T07:46:52Z</time>
      </trkpt>
      <trkpt lat="44.03266" lon="6.29719">
        <ele>1025</ele>
        <time>2011-08-18T07:47:00Z</time>
      </trkpt>
      <trkpt lat="44.03276" lon="6.29718">
        <ele>1025</ele>
        <time>2011-08-18T07:47:04Z</time>
      </trkpt>
      <trkpt lat="44.03289" lon="6.29708">
        <ele>1025</ele>
        <time>2011-08-18T07:47:13Z</time>
      </trkpt>
      <trkpt lat="44.0332" lon="6.2971">
        <ele>1023</ele>
        <time>2011-08-18T07:47:25Z</time>
      </trkpt>
      <trkpt lat="44.03337" lon="6.29708">
        <ele>1017</ele>
        <time>2011-08-18T07:47:30Z</time>
      </trkpt>
      <trkpt lat="44.03342" lon="6.29707">
        <ele>1017</ele>
        <time>2011-08-18T07:47:35Z</time>
      </trkpt>
      <trkpt lat="44.03359" lon="6.29704">
        <ele>1016</ele>
        <time>2011-08-18T07:47:42Z</time>
      </trkpt>
      <trkpt lat="44.03381" lon="6.29693">
        <ele>1015</ele>
        <time>2011-08-18T07:47:50Z</time>
      </trkpt>
      <trkpt lat="44.03386" lon="6.2969">
        <ele>1014</ele>
        <time>2011-08-18T07:47:52Z</time>
      </trkpt>
      <trkpt lat="44.03401" lon="6.29695">
        <ele>1013</ele>
        <time>2011-08-18T07:47:59Z</time>
      </trkpt>
      <trkpt lat="44.0341" lon="6.29716">
        <ele>1012</ele>
        <time>2011-08-18T07:48:11Z</time>
      </trkpt>
      <trkpt lat="44.03411" lon="6.29717">
        <ele>1012</ele>
        <time>2011-08-18T07:48:16Z</time>
      </trkpt>
      <trkpt lat="44.03406" lon="6.29724">
        <ele>1012</ele>
        <time>2011-08-18T07:48:27Z</time>
      </trkpt>
      <trkpt lat="44.03419" lon="6.29734">
        <ele>1007</ele>
        <time>2011-08-18T07:48:40Z</time>
      </trkpt>
      <trkpt lat="44.03432" lon="6.29737">
        <ele>1007</ele>
        <time>2011-08-18T07:48:51Z</time>
      </trkpt>
      <trkpt lat="44.03467" lon="6.29759">
        <ele>1009</ele>
        <time>2011-08-18T07:49:05Z</time>
      </trkpt>
      <trkpt lat="44.03477" lon="6.29762">
        <ele>1008</ele>
        <time>2011-08-18T07:49:08Z</time>
      </trkpt>
      <trkpt lat="44.03503" lon="6.29773">
        <ele>1006</ele>
        <time>2011-08-18T07:49:17Z</time>
      </trkpt>
      <trkpt lat="44.0351" lon="6.29778">
        <ele>1006</ele>
        <time>2011-08-18T07:49:20Z</time>
      </trkpt>
      <trkpt lat="44.03524" lon="6.29781">
        <ele>1006</ele>
        <time>2011-08-18T07:49:25Z</time>
      </trkpt>
      <trkpt lat="44.03551" lon="6.29788">
        <ele>1006</ele>
        <time>2011-08-18T07:49:33Z</time>
      </trkpt>
      <trkpt lat="44.03599" lon="6.29813">
        <ele>1001</ele>
        <time>2011-08-18T07:49:45Z</time>
      </trkpt>
      <trkpt lat="44.03609" lon="6.29817">
        <ele>1001</ele>
        <time>2011-08-18T07:49:48Z</time>
      </trkpt>
      <trkpt lat="44.03649" lon="6.2985">
        <ele>1002</ele>
        <time>2011-08-18T07:49:58Z</time>
      </trkpt>
      <trkpt lat="44.03675" lon="6.29843">
        <ele>997</ele>
        <time>2011-08-18T07:50:06Z</time>
      </trkpt>
      <trkpt lat="44.03707" lon="6.29837">
        <ele>997</ele>
        <time>2011-08-18T07:50:13Z</time>
      </trkpt>
      <trkpt lat="44.03722" lon="6.29841">
        <ele>996</ele>
        <time>2011-08-18T07:50:17Z</time>
      </trkpt>
      <trkpt lat="44.03754" lon="6.29865">
        <ele>992</ele>
        <time>2011-08-18T07:50:27Z</time>
      </trkpt>
      <trkpt lat="44.03805" lon="6.29898">
        <ele>992</ele>
        <time>2011-08-18T07:50:48Z</time>
      </trkpt>
      <trkpt lat="44.03817" lon="6.29939">
        <ele>997</ele>
        <time>2011-08-18T07:51:03Z</time>
      </trkpt>
      <trkpt lat="44.03805" lon="6.29994">
        <ele>1000</ele>
        <time>2011-08-18T07:51:21Z</time>
      </trkpt>
      <trkpt lat="44.03826" lon="6.30053">
        <ele>1004</ele>
        <time>2011-08-18T07:51:40Z</time>
      </trkpt>
      <trkpt lat="44.03841" lon="6.30123">
        <ele>1001</ele>
        <time>2011-08-18T07:52:02Z</time>
      </trkpt>
      <trkpt lat="44.03853" lon="6.30177">
        <ele>1007</ele>
        <time>2011-08-18T07:52:15Z</time>
      </trkpt>
      <trkpt lat="44.03906" lon="6.30218">
        <ele>1007</ele>
        <time>2011-08-18T07:52:31Z</time>
      </trkpt>
      <trkpt lat="44.03918" lon="6.30234">
        <ele>1008</ele>
        <time>2011-08-18T07:52:35Z</time>
      </trkpt>
      <trkpt lat="44.03946" lon="6.30242">
        <ele>1008</ele>
        <time>2011-08-18T07:52:42Z</time>
      </trkpt>
      <trkpt lat="44.03971" lon="6.30223">
        <ele>1007</ele>
        <time>2011-08-18T07:52:48Z</time>
      </trkpt>
      <trkpt lat="44.03984" lon="6.30211">
        <ele>1007</ele>
        <time>2011-08-18T07:52:51Z</time>
      </trkpt>
      <trkpt lat="44.03996" lon="6.30193">
        <ele>1004</ele>
        <time>2011-08-18T07:52:55Z</time>
      </trkpt>
      <trkpt lat="44.04008" lon="6.3018">
        <ele>1003</ele>
        <time>2011-08-18T07:52:58Z</time>
      </trkpt>
      <trkpt lat="44.04031" lon="6.30175">
        <ele>1004</ele>
        <time>2011-08-18T07:53:03Z</time>
      </trkpt>
      <trkpt lat="44.04084" lon="6.30199">
        <ele>1005</ele>
        <time>2011-08-18T07:53:13Z</time>
      </trkpt>
      <trkpt lat="44.0411" lon="6.30213">
        <ele>1005</ele>
        <time>2011-08-18T07:53:18Z</time>
      </trkpt>
      <trkpt lat="44.0413" lon="6.3022">
        <ele>1006</ele>
        <time>2011-08-18T07:53:22Z</time>
      </trkpt>
      <trkpt lat="44.0416" lon="6.3022">
        <ele>1006</ele>
        <time>2011-08-18T07:53:28Z</time>
      </trkpt>
      <trkpt lat="44.042" lon="6.30199">
        <ele>1005</ele>
        <time>2011-08-18T07:53:39Z</time>
      </trkpt>
      <trkpt lat="44.04235" lon="6.30194">
        <ele>1004</ele>
        <time>2011-08-18T07:53:46Z</time>
      </trkpt>
      <trkpt lat="44.04272" lon="6.30192">
        <ele>1001</ele>
        <time>2011-08-18T07:53:54Z</time>
      </trkpt>
      <trkpt lat="44.04281" lon="6.3019">
        <ele>1001</ele>
        <time>2011-08-18T07:53:56Z</time>
      </trkpt>
      <trkpt lat="44.04321" lon="6.30201">
        <ele>999</ele>
        <time>2011-08-18T07:54:04Z</time>
      </trkpt>
      <trkpt lat="44.04344" lon="6.30214">
        <ele>987</ele>
        <time>2011-08-18T07:54:08Z</time>
      </trkpt>
      <trkpt lat="44.04345" lon="6.30248">
        <ele>992</ele>
        <time>2011-08-18T07:54:14Z</time>
      </trkpt>
      <trkpt lat="44.0434" lon="6.30272">
        <ele>988</ele>
        <time>2011-08-18T07:54:17Z</time>
      </trkpt>
      <trkpt lat="44.04341" lon="6.30327">
        <ele>992</ele>
        <time>2011-08-18T07:54:23Z</time>
      </trkpt>
      <trkpt lat="44.04336" lon="6.30436">
        <ele>980</ele>
        <time>2011-08-18T07:54:33Z</time>
      </trkpt>
      <trkpt lat="44.04334" lon="6.30447">
        <ele>978</ele>
        <time>2011-08-18T07:54:34Z</time>
      </trkpt>
      <trkpt lat="44.04326" lon="6.30525">
        <ele>993</ele>
        <time>2011-08-18T07:54:41Z</time>
      </trkpt>
      <trkpt lat="44.04324" lon="6.30559">
        <ele>991</ele>
        <time>2011-08-18T07:54:44Z</time>
      </trkpt>
      <trkpt lat="44.04311" lon="6.30603">
        <ele>987</ele>
        <time>2011-08-18T07:54:48Z</time>
      </trkpt>
      <trkpt lat="44.043" lon="6.30678">
        <ele>983</ele>
        <time>2011-08-18T07:54:55Z</time>
      </trkpt>
      <trkpt lat="44.04303" lon="6.30714">
        <ele>983</ele>
        <time>2011-08-18T07:54:58Z</time>
      </trkpt>
      <trkpt lat="44.04315" lon="6.30757">
        <ele>982</ele>
        <time>2011-08-18T07:55:03Z</time>
      </trkpt>
      <trkpt lat="44.04351" lon="6.30816">
        <ele>978</ele>
        <time>2011-08-18T07:55:14Z</time>
      </trkpt>
      <trkpt lat="44.04364" lon="6.30864">
        <ele>982</ele>
        <time>2011-08-18T07:55:22Z</time>
      </trkpt>
      <trkpt lat="44.04369" lon="6.30877">
        <ele>982</ele>
        <time>2011-08-18T07:55:24Z</time>
      </trkpt>
      <trkpt lat="44.04377" lon="6.30893">
        <ele>983</ele>
        <time>2011-08-18T07:55:27Z</time>
      </trkpt>
      <trkpt lat="44.04382" lon="6.30902">
        <ele>983</ele>
        <time>2011-08-18T07:55:29Z</time>
      </trkpt>
      <trkpt lat="44.04405" lon="6.30921">
        <ele>986</ele>
        <time>2011-08-18T07:55:35Z</time>
      </trkpt>
      <trkpt lat="44.04442" lon="6.30924">
        <ele>990</ele>
        <time>2011-08-18T07:55:44Z</time>
      </trkpt>
      <trkpt lat="44.04475" lon="6.30894">
        <ele>987</ele>
        <time>2011-08-18T07:55:57Z</time>
      </trkpt>
      <trkpt lat="44.04493" lon="6.30834">
        <ele>990</ele>
        <time>2011-08-18T07:56:17Z</time>
      </trkpt>
      <trkpt lat="44.04488" lon="6.30791">
        <ele>984</ele>
        <time>2011-08-18T07:56:34Z</time>
      </trkpt>
      <trkpt lat="44.04494" lon="6.30767">
        <ele>986</ele>
        <time>2011-08-18T07:56:45Z</time>
      </trkpt>
      <trkpt lat="44.04496" lon="6.3076">
        <ele>987</ele>
        <time>2011-08-18T07:56:48Z</time>
      </trkpt>
      <trkpt lat="44.04501" lon="6.30738">
        <ele>991</ele>
        <time>2011-08-18T07:56:58Z</time>
      </trkpt>
      <trkpt lat="44.04508" lon="6.30711">
        <ele>990</ele>
        <time>2011-08-18T07:57:15Z</time>
      </trkpt>
      <trkpt lat="44.04509" lon="6.30706">
        <ele>989</ele>
        <time>2011-08-18T07:57:25Z</time>
      </trkpt>
      <trkpt lat="44.04518" lon="6.30703">
        <ele>989</ele>
        <time>2011-08-18T07:57:46Z</time>
      </trkpt>
      <trkpt lat="44.04549" lon="6.3071">
        <ele>993</ele>
        <time>2011-08-18T07:58:02Z</time>
      </trkpt>
      <trkpt lat="44.04575" lon="6.30699">
        <ele>994</ele>
        <time>2011-08-18T07:58:16Z</time>
      </trkpt>
      <trkpt lat="44.04593" lon="6.30703">
        <ele>1006</ele>
        <time>2011-08-18T07:58:25Z</time>
      </trkpt>
      <trkpt lat="44.04618" lon="6.30708">
        <ele>1008</ele>
        <time>2011-08-18T07:58:37Z</time>
      </trkpt>
      <trkpt lat="44.04645" lon="6.30699">
        <ele>1010</ele>
        <time>2011-08-18T07:58:50Z</time>
      </trkpt>
      <trkpt lat="44.0468" lon="6.30679">
        <ele>1017</ele>
        <time>2011-08-18T07:59:08Z</time>
      </trkpt>
      <trkpt lat="44.04691" lon="6.30669">
        <ele>1018</ele>
        <time>2011-08-18T07:59:15Z</time>
      </trkpt>
      <trkpt lat="44.04698" lon="6.30652">
        <ele>1012</ele>
        <time>2011-08-18T07:59:23Z</time>
      </trkpt>
      <trkpt lat="44.04724" lon="6.30637">
        <ele>1015</ele>
        <time>2011-08-18T07:59:40Z</time>
      </trkpt>
      <trkpt lat="44.04746" lon="6.30624">
        <ele>1016</ele>
        <time>2011-08-18T07:59:54Z</time>
      </trkpt>
      <trkpt lat="44.04764" lon="6.30606">
        <ele>1024</ele>
        <time>2011-08-18T08:00:07Z</time>
      </trkpt>
      <trkpt lat="44.04777" lon="6.30595">
        <ele>1025</ele>
        <time>2011-08-18T08:00:16Z</time>
      </trkpt>
      <trkpt lat="44.048" lon="6.30576">
        <ele>1020</ele>
        <time>2011-08-18T08:00:30Z</time>
      </trkpt>
      <trkpt lat="44.0483" lon="6.30578">
        <ele>1026</ele>
        <time>2011-08-18T08:00:46Z</time>
      </trkpt>
      <trkpt lat="44.04836" lon="6.306">
        <ele>1026</ele>
        <time>2011-08-18T08:00:56Z</time>
      </trkpt>
      <trkpt lat="44.04819" lon="6.3064">
        <ele>1030</ele>
        <time>2011-08-18T08:01:14Z</time>
      </trkpt>
      <trkpt lat="44.04821" lon="6.30652">
        <ele>1031</ele>
        <time>2011-08-18T08:01:26Z</time>
      </trkpt>
      <trkpt lat="44.04823" lon="6.30653">
        <ele>1032</ele>
        <time>2011-08-18T08:03:13Z</time>
      </trkpt>
      <trkpt lat="44.04823" lon="6.30654">
        <ele>1032</ele>
        <time>2011-08-18T08:03:45Z</time>
      </trkpt>
      <trkpt lat="44.04829" lon="6.30666">
        <ele>1034</ele>
        <time>2011-08-18T08:03:51Z</time>
      </trkpt>
      <trkpt lat="44.04836" lon="6.30692">
        <ele>1034</ele>
        <time>2011-08-18T08:04:03Z</time>
      </trkpt>
      <trkpt lat="44.04846" lon="6.30722">
        <ele>1036</ele>
        <time>2011-08-18T08:04:14Z</time>
      </trkpt>
      <trkpt lat="44.04869" lon="6.30735">
        <ele>1034</ele>
        <time>2011-08-18T08:04:26Z</time>
      </trkpt>
      <trkpt lat="44.04873" lon="6.30737">
        <ele>1033</ele>
        <time>2011-08-18T08:04:28Z</time>
      </trkpt>
      <trkpt lat="44.04892" lon="6.30763">
        <ele>1036</ele>
        <time>2011-08-18T08:04:40Z</time>
      </trkpt>
      <trkpt lat="44.04895" lon="6.30768">
        <ele>1036</ele>
        <time>2011-08-18T08:04:42Z</time>
      </trkpt>
      <trkpt lat="44.04896" lon="6.30772">
        <ele>1037</ele>
        <time>2011-08-18T08:04:44Z</time>
      </trkpt>
      <trkpt lat="44.049" lon="6.30802">
        <ele>1038</ele>
        <time>2011-08-18T08:04:55Z</time>
      </trkpt>
      <trkpt lat="44.049" lon="6.30834">
        <ele>1041</ele>
        <time>2011-08-18T08:05:04Z</time>
      </trkpt>
      <trkpt lat="44.0489" lon="6.30859">
        <ele>1045</ele>
        <time>2011-08-18T08:05:13Z</time>
      </trkpt>
      <trkpt lat="44.04879" lon="6.309">
        <ele>1048</ele>
        <time>2011-08-18T08:05:26Z</time>
      </trkpt>
      <trkpt lat="44.04875" lon="6.30931">
        <ele>1054</ele>
        <time>2011-08-18T08:05:36Z</time>
      </trkpt>
      <trkpt lat="44.0487" lon="6.30947">
        <ele>1055</ele>
        <time>2011-08-18T08:05:42Z</time>
      </trkpt>
      <trkpt lat="44.04887" lon="6.30995">
        <ele>1055</ele>
        <time>2011-08-18T08:05:57Z</time>
      </trkpt>
      <trkpt lat="44.04896" lon="6.31006">
        <ele>1061</ele>
        <time>2011-08-18T08:06:01Z</time>
      </trkpt>
      <trkpt lat="44.04929" lon="6.31022">
        <ele>1055</ele>
        <time>2011-08-18T08:06:10Z</time>
      </trkpt>
      <trkpt lat="44.04967" lon="6.3101">
        <ele>1054</ele>
        <time>2011-08-18T08:06:21Z</time>
      </trkpt>
      <trkpt lat="44.0498" lon="6.31019">
        <ele>1054</ele>
        <time>2011-08-18T08:06:25Z</time>
      </trkpt>
      <trkpt lat="44.05005" lon="6.31017">
        <ele>1052</ele>
        <time>2011-08-18T08:06:34Z</time>
      </trkpt>
      <trkpt lat="44.05022" lon="6.30995">
        <ele>1043</ele>
        <time>2011-08-18T08:06:46Z</time>
      </trkpt>
      <trkpt lat="44.05057" lon="6.30991">
        <ele>1043</ele>
        <time>2011-08-18T08:06:58Z</time>
      </trkpt>
      <trkpt lat="44.05072" lon="6.3099">
        <ele>1044</ele>
        <time>2011-08-18T08:07:05Z</time>
      </trkpt>
      <trkpt lat="44.05099" lon="6.30998">
        <ele>1047</ele>
        <time>2011-08-18T08:07:15Z</time>
      </trkpt>
      <trkpt lat="44.05108" lon="6.31008">
        <ele>1059</ele>
        <time>2011-08-18T08:07:21Z</time>
      </trkpt>
      <trkpt lat="44.05112" lon="6.31013">
        <ele>1060</ele>
        <time>2011-08-18T08:07:28Z</time>
      </trkpt>
      <trkpt lat="44.05124" lon="6.31023">
        <ele>1062</ele>
        <time>2011-08-18T08:07:42Z</time>
      </trkpt>
      <trkpt lat="44.05136" lon="6.31023">
        <ele>1063</ele>
        <time>2011-08-18T08:07:56Z</time>
      </trkpt>
      <trkpt lat="44.05144" lon="6.31017">
        <ele>1062</ele>
        <time>2011-08-18T08:08:02Z</time>
      </trkpt>
      <trkpt lat="44.05152" lon="6.31006">
        <ele>1061</ele>
        <time>2011-08-18T08:08:10Z</time>
      </trkpt>
      <trkpt lat="44.05161" lon="6.30998">
        <ele>1055</ele>
        <time>2011-08-18T08:08:17Z</time>
      </trkpt>
      <trkpt lat="44.0517" lon="6.30992">
        <ele>1058</ele>
        <time>2011-08-18T08:08:24Z</time>
      </trkpt>
      <trkpt lat="44.05186" lon="6.30973">
        <ele>1059</ele>
        <time>2011-08-18T08:08:38Z</time>
      </trkpt>
      <trkpt lat="44.05207" lon="6.30939">
        <ele>1058</ele>
        <time>2011-08-18T08:09:00Z</time>
      </trkpt>
      <trkpt lat="44.05231" lon="6.30912">
        <ele>1053</ele>
        <time>2011-08-18T08:09:18Z</time>
      </trkpt>
      <trkpt lat="44.05249" lon="6.30882">
        <ele>1050</ele>
        <time>2011-08-18T08:09:31Z</time>
      </trkpt>
      <trkpt lat="44.05256" lon="6.30873">
        <ele>1056</ele>
        <time>2011-08-18T08:09:35Z</time>
      </trkpt>
      <trkpt lat="44.05266" lon="6.30881">
        <ele>1057</ele>
        <time>2011-08-18T08:09:43Z</time>
      </trkpt>
      <trkpt lat="44.05268" lon="6.30902">
        <ele>1059</ele>
        <time>2011-08-18T08:09:49Z</time>
      </trkpt>
      <trkpt lat="44.05309" lon="6.30953">
        <ele>1065</ele>
        <time>2011-08-18T08:10:04Z</time>
      </trkpt>
      <trkpt lat="44.05316" lon="6.30958">
        <ele>1064</ele>
        <time>2011-08-18T08:10:06Z</time>
      </trkpt>
      <trkpt lat="44.05333" lon="6.30982">
        <ele>1065</ele>
        <time>2011-08-18T08:10:12Z</time>
      </trkpt>
      <trkpt lat="44.05341" lon="6.31026">
        <ele>1060</ele>
        <time>2011-08-18T08:10:23Z</time>
      </trkpt>
      <trkpt lat="44.05344" lon="6.31062">
        <ele>1063</ele>
        <time>2011-08-18T08:10:32Z</time>
      </trkpt>
      <trkpt lat="44.05348" lon="6.3108">
        <ele>1065</ele>
        <time>2011-08-18T08:10:35Z</time>
      </trkpt>
      <trkpt lat="44.05353" lon="6.31092">
        <ele>1068</ele>
        <time>2011-08-18T08:10:37Z</time>
      </trkpt>
      <trkpt lat="44.05385" lon="6.31125">
        <ele>1065</ele>
        <time>2011-08-18T08:10:44Z</time>
      </trkpt>
      <trkpt lat="44.05409" lon="6.31135">
        <ele>1063</ele>
        <time>2011-08-18T08:10:49Z</time>
      </trkpt>
      <trkpt lat="44.05434" lon="6.31161">
        <ele>1058</ele>
        <time>2011-08-18T08:10:55Z</time>
      </trkpt>
      <trkpt lat="44.0545" lon="6.31179">
        <ele>1063</ele>
        <time>2011-08-18T08:11:01Z</time>
      </trkpt>
      <trkpt lat="44.05457" lon="6.31162">
        <ele>1056</ele>
        <time>2011-08-18T08:11:06Z</time>
      </trkpt>
      <trkpt lat="44.05469" lon="6.31139">
        <ele>1055</ele>
        <time>2011-08-18T08:11:12Z</time>
      </trkpt>
      <trkpt lat="44.05472" lon="6.31119">
        <ele>1054</ele>
        <time>2011-08-18T08:11:16Z</time>
      </trkpt>
      <trkpt lat="44.05475" lon="6.31087">
        <ele>1053</ele>
        <time>2011-08-18T08:11:22Z</time>
      </trkpt>
      <trkpt lat="44.05506" lon="6.31031">
        <ele>1041</ele>
        <time>2011-08-18T08:11:33Z</time>
      </trkpt>
      <trkpt lat="44.0553" lon="6.31035">
        <ele>1041</ele>
        <time>2011-08-18T08:11:40Z</time>
      </trkpt>
      <trkpt lat="44.05536" lon="6.31046">
        <ele>1042</ele>
        <time>2011-08-18T08:11:42Z</time>
      </trkpt>
      <trkpt lat="44.05542" lon="6.31069">
        <ele>1043</ele>
        <time>2011-08-18T08:11:46Z</time>
      </trkpt>
      <trkpt lat="44.05556" lon="6.31095">
        <ele>1048</ele>
        <time>2011-08-18T08:11:52Z</time>
      </trkpt>
      <trkpt lat="44.05573" lon="6.31093">
        <ele>1046</ele>
        <time>2011-08-18T08:11:56Z</time>
      </trkpt>
      <trkpt lat="44.0559" lon="6.31095">
        <ele>1045</ele>
        <time>2011-08-18T08:11:59Z</time>
      </trkpt>
      <trkpt lat="44.05607" lon="6.31076">
        <ele>1041</ele>
        <time>2011-08-18T08:12:03Z</time>
      </trkpt>
      <trkpt lat="44.05618" lon="6.31051">
        <ele>1040</ele>
        <time>2011-08-18T08:12:07Z</time>
      </trkpt>
      <trkpt lat="44.05634" lon="6.3104">
        <ele>1039</ele>
        <time>2011-08-18T08:12:11Z</time>
      </trkpt>
      <trkpt lat="44.05649" lon="6.3104">
        <ele>1039</ele>
        <time>2011-08-18T08:12:14Z</time>
      </trkpt>
      <trkpt lat="44.05681" lon="6.31044">
        <ele>1041</ele>
        <time>2011-08-18T08:12:21Z</time>
      </trkpt>
      <trkpt lat="44.05698" lon="6.31039">
        <ele>1041</ele>
        <time>2011-08-18T08:12:25Z</time>
      </trkpt>
      <trkpt lat="44.05728" lon="6.31021">
        <ele>1042</ele>
        <time>2011-08-18T08:12:37Z</time>
      </trkpt>
      <trkpt lat="44.05742" lon="6.31022">
        <ele>1042</ele>
        <time>2011-08-18T08:12:43Z</time>
      </trkpt>
      <trkpt lat="44.05773" lon="6.3101">
        <ele>1041</ele>
        <time>2011-08-18T08:12:55Z</time>
      </trkpt>
      <trkpt lat="44.05789" lon="6.3102">
        <ele>1041</ele>
        <time>2011-08-18T08:12:59Z</time>
      </trkpt>
      <trkpt lat="44.05829" lon="6.3105">
        <ele>1042</ele>
        <time>2011-08-18T08:13:10Z</time>
      </trkpt>
      <trkpt lat="44.05842" lon="6.31088">
        <ele>1043</ele>
        <time>2011-08-18T08:13:22Z</time>
      </trkpt>
      <trkpt lat="44.05858" lon="6.3113">
        <ele>1044</ele>
        <time>2011-08-18T08:13:40Z</time>
      </trkpt>
      <trkpt lat="44.05882" lon="6.31156">
        <ele>1043</ele>
        <time>2011-08-18T08:13:54Z</time>
      </trkpt>
      <trkpt lat="44.05889" lon="6.31161">
        <ele>1042</ele>
        <time>2011-08-18T08:13:56Z</time>
      </trkpt>
      <trkpt lat="44.05902" lon="6.31187">
        <ele>1049</ele>
        <time>2011-08-18T08:14:02Z</time>
      </trkpt>
      <trkpt lat="44.05903" lon="6.31197">
        <ele>1051</ele>
        <time>2011-08-18T08:14:04Z</time>
      </trkpt>
      <trkpt lat="44.05916" lon="6.31232">
        <ele>1052</ele>
        <time>2011-08-18T08:14:11Z</time>
      </trkpt>
      <trkpt lat="44.05919" lon="6.31249">
        <ele>1048</ele>
        <time>2011-08-18T08:14:14Z</time>
      </trkpt>
      <trkpt lat="44.05945" lon="6.31301">
        <ele>1049</ele>
        <time>2011-08-18T08:14:25Z</time>
      </trkpt>
      <trkpt lat="44.05986" lon="6.31338">
        <ele>1049</ele>
        <time>2011-08-18T08:14:37Z</time>
      </trkpt>
      <trkpt lat="44.05996" lon="6.31358">
        <ele>1051</ele>
        <time>2011-08-18T08:14:40Z</time>
      </trkpt>
      <trkpt lat="44.06017" lon="6.31372">
        <ele>1040</ele>
        <time>2011-08-18T08:14:44Z</time>
      </trkpt>
      <trkpt lat="44.06037" lon="6.314">
        <ele>1040</ele>
        <time>2011-08-18T08:14:49Z</time>
      </trkpt>
      <trkpt lat="44.06066" lon="6.31433">
        <ele>1042</ele>
        <time>2011-08-18T08:14:55Z</time>
      </trkpt>
      <trkpt lat="44.06085" lon="6.31463">
        <ele>1040</ele>
        <time>2011-08-18T08:14:59Z</time>
      </trkpt>
      <trkpt lat="44.06096" lon="6.31493">
        <ele>1043</ele>
        <time>2011-08-18T08:15:03Z</time>
      </trkpt>
      <trkpt lat="44.06129" lon="6.31498">
        <ele>1043</ele>
        <time>2011-08-18T08:15:12Z</time>
      </trkpt>
      <trkpt lat="44.06134" lon="6.31487">
        <ele>1043</ele>
        <time>2011-08-18T08:15:14Z</time>
      </trkpt>
      <trkpt lat="44.06163" lon="6.31432">
        <ele>1039</ele>
        <time>2011-08-18T08:15:28Z</time>
      </trkpt>
      <trkpt lat="44.06208" lon="6.31399">
        <ele>1041</ele>
        <time>2011-08-18T08:15:47Z</time>
      </trkpt>
      <trkpt lat="44.06241" lon="6.31367">
        <ele>1041</ele>
        <time>2011-08-18T08:16:02Z</time>
      </trkpt>
      <trkpt lat="44.06253" lon="6.31363">
        <ele>1046</ele>
        <time>2011-08-18T08:16:06Z</time>
      </trkpt>
      <trkpt lat="44.06289" lon="6.31361">
        <ele>1046</ele>
        <time>2011-08-18T08:16:13Z</time>
      </trkpt>
      <trkpt lat="44.06339" lon="6.31348">
        <ele>1047</ele>
        <time>2011-08-18T08:16:26Z</time>
      </trkpt>
      <trkpt lat="44.06363" lon="6.31341">
        <ele>1049</ele>
        <time>2011-08-18T08:16:30Z</time>
      </trkpt>
      <trkpt lat="44.06412" lon="6.31309">
        <ele>1043</ele>
        <time>2011-08-18T08:16:37Z</time>
      </trkpt>
      <trkpt lat="44.0644" lon="6.31282">
        <ele>1047</ele>
        <time>2011-08-18T08:16:42Z</time>
      </trkpt>
      <trkpt lat="44.06487" lon="6.31255">
        <ele>1048</ele>
        <time>2011-08-18T08:16:54Z</time>
      </trkpt>
      <trkpt lat="44.06543" lon="6.31213">
        <ele>1043</ele>
        <time>2011-08-18T08:17:10Z</time>
      </trkpt>
      <trkpt lat="44.06556" lon="6.31204">
        <ele>1043</ele>
        <time>2011-08-18T08:17:13Z</time>
      </trkpt>
      <trkpt lat="44.06581" lon="6.31167">
        <ele>1038</ele>
        <time>2011-08-18T08:17:19Z</time>
      </trkpt>
      <trkpt lat="44.06597" lon="6.31041">
        <ele>1028</ele>
        <time>2011-08-18T08:17:31Z</time>
      </trkpt>
      <trkpt lat="44.06599" lon="6.31016">
        <ele>1027</ele>
        <time>2011-08-18T08:17:34Z</time>
      </trkpt>
      <trkpt lat="44.06598" lon="6.30992">
        <ele>1025</ele>
        <time>2011-08-18T08:17:39Z</time>
      </trkpt>
      <trkpt lat="44.06593" lon="6.30979">
        <ele>1025</ele>
        <time>2011-08-18T08:17:45Z</time>
      </trkpt>
      <trkpt lat="44.06587" lon="6.30977">
        <ele>1025</ele>
        <time>2011-08-18T08:17:48Z</time>
      </trkpt>
      <trkpt lat="44.0658" lon="6.30969">
        <ele>1029</ele>
        <time>2011-08-18T08:17:52Z</time>
      </trkpt>
      <trkpt lat="44.06579" lon="6.30968">
        <ele>1029</ele>
        <time>2011-08-18T08:18:02Z</time>
      </trkpt>
      <trkpt lat="44.0658" lon="6.30971">
        <ele>1028</ele>
        <time>2011-08-18T08:18:04Z</time>
      </trkpt>
      <trkpt lat="44.06577" lon="6.30991">
        <ele>1028</ele>
        <time>2011-08-18T08:18:25Z</time>
      </trkpt>
      <trkpt lat="44.06578" lon="6.3099">
        <ele>1028</ele>
        <time>2011-08-18T08:29:33Z</time>
      </trkpt>
      <trkpt lat="44.06586" lon="6.30989">
        <ele>1026</ele>
        <time>2011-08-18T08:29:38Z</time>
      </trkpt>
      <trkpt lat="44.06587" lon="6.30983">
        <ele>1025</ele>
        <time>2011-08-18T08:29:42Z</time>
      </trkpt>
      <trkpt lat="44.06587" lon="6.3098">
        <ele>1025</ele>
        <time>2011-08-18T08:29:44Z</time>
      </trkpt>
      <trkpt lat="44.06596" lon="6.3099">
        <ele>1025</ele>
        <time>2011-08-18T08:29:50Z</time>
      </trkpt>
      <trkpt lat="44.06638" lon="6.31029">
        <ele>1026</ele>
        <time>2011-08-18T08:30:05Z</time>
      </trkpt>
      <trkpt lat="44.06681" lon="6.31069">
        <ele>1024</ele>
        <time>2011-08-18T08:30:19Z</time>
      </trkpt>
      <trkpt lat="44.06695" lon="6.31092">
        <ele>1028</ele>
        <time>2011-08-18T08:30:25Z</time>
      </trkpt>
      <trkpt lat="44.06716" lon="6.31118">
        <ele>1028</ele>
        <time>2011-08-18T08:30:30Z</time>
      </trkpt>
      <trkpt lat="44.06733" lon="6.31157">
        <ele>1028</ele>
        <time>2011-08-18T08:30:35Z</time>
      </trkpt>
      <trkpt lat="44.06766" lon="6.31181">
        <ele>1034</ele>
        <time>2011-08-18T08:30:42Z</time>
      </trkpt>
      <trkpt lat="44.06807" lon="6.31154">
        <ele>1029</ele>
        <time>2011-08-18T08:30:57Z</time>
      </trkpt>
      <trkpt lat="44.0681" lon="6.3112">
        <ele>1027</ele>
        <time>2011-08-18T08:31:06Z</time>
      </trkpt>
      <trkpt lat="44.06807" lon="6.31121">
        <ele>1027</ele>
        <time>2011-08-18T08:31:17Z</time>
      </trkpt>
      <trkpt lat="44.06802" lon="6.31111">
        <ele>1026</ele>
        <time>2011-08-18T08:31:52Z</time>
      </trkpt>
      <trkpt lat="44.06803" lon="6.31108">
        <ele>1026</ele>
        <time>2011-08-18T08:32:07Z</time>
      </trkpt>
      <trkpt lat="44.06808" lon="6.31081">
        <ele>1019</ele>
        <time>2011-08-18T08:32:20Z</time>
      </trkpt>
      <trkpt lat="44.06808" lon="6.31075">
        <ele>1019</ele>
        <time>2011-08-18T08:32:28Z</time>
      </trkpt>
      <trkpt lat="44.06801" lon="6.3106">
        <ele>1018</ele>
        <time>2011-08-18T08:32:39Z</time>
      </trkpt>
      <trkpt lat="44.0679" lon="6.3102">
        <ele>1015</ele>
        <time>2011-08-18T08:32:50Z</time>
      </trkpt>
      <trkpt lat="44.06773" lon="6.30973">
        <ele>1007</ele>
        <time>2011-08-18T08:33:03Z</time>
      </trkpt>
      <trkpt lat="44.06765" lon="6.30949">
        <ele>1005</ele>
        <time>2011-08-18T08:33:12Z</time>
      </trkpt>
      <trkpt lat="44.06765" lon="6.30946">
        <ele>1005</ele>
        <time>2011-08-18T08:33:40Z</time>
      </trkpt>
      <trkpt lat="44.06766" lon="6.30941">
        <ele>1005</ele>
        <time>2011-08-18T08:35:02Z</time>
      </trkpt>
      <trkpt lat="44.06768" lon="6.30928">
        <ele>1003</ele>
        <time>2011-08-18T08:35:14Z</time>
      </trkpt>
      <trkpt lat="44.06804" lon="6.30911">
        <ele>1001</ele>
        <time>2011-08-18T08:35:31Z</time>
      </trkpt>
      <trkpt lat="44.06812" lon="6.30908">
        <ele>1002</ele>
        <time>2011-08-18T08:35:42Z</time>
      </trkpt>
      <trkpt lat="44.06815" lon="6.30904">
        <ele>1002</ele>
        <time>2011-08-18T08:35:52Z</time>
      </trkpt>
      <trkpt lat="44.06826" lon="6.30907">
        <ele>1004</ele>
        <time>2011-08-18T08:36:06Z</time>
      </trkpt>
      <trkpt lat="44.06848" lon="6.30915">
        <ele>1004</ele>
        <time>2011-08-18T08:36:15Z</time>
      </trkpt>
      <trkpt lat="44.06876" lon="6.30923">
        <ele>1008</ele>
        <time>2011-08-18T08:36:25Z</time>
      </trkpt>
      <trkpt lat="44.06881" lon="6.30929">
        <ele>1008</ele>
        <time>2011-08-18T08:36:29Z</time>
      </trkpt>
      <trkpt lat="44.06906" lon="6.30915">
        <ele>1003</ele>
        <time>2011-08-18T08:36:42Z</time>
      </trkpt>
      <trkpt lat="44.06941" lon="6.30917">
        <ele>1003</ele>
        <time>2011-08-18T08:36:56Z</time>
      </trkpt>
      <trkpt lat="44.06959" lon="6.30914">
        <ele>995</ele>
        <time>2011-08-18T08:37:03Z</time>
      </trkpt>
      <trkpt lat="44.06974" lon="6.30933">
        <ele>1000</ele>
        <time>2011-08-18T08:37:09Z</time>
      </trkpt>
      <trkpt lat="44.06981" lon="6.30952">
        <ele>1001</ele>
        <time>2011-08-18T08:37:13Z</time>
      </trkpt>
      <trkpt lat="44.06994" lon="6.30966">
        <ele>1002</ele>
        <time>2011-08-18T08:37:17Z</time>
      </trkpt>
      <trkpt lat="44.07008" lon="6.30975">
        <ele>995</ele>
        <time>2011-08-18T08:37:21Z</time>
      </trkpt>
      <trkpt lat="44.07015" lon="6.30978">
        <ele>995</ele>
        <time>2011-08-18T08:37:23Z</time>
      </trkpt>
      <trkpt lat="44.07029" lon="6.31016">
        <ele>1002</ele>
        <time>2011-08-18T08:37:33Z</time>
      </trkpt>
      <trkpt lat="44.07032" lon="6.31019">
        <ele>1002</ele>
        <time>2011-08-18T08:37:34Z</time>
      </trkpt>
      <trkpt lat="44.07057" lon="6.31012">
        <ele>998</ele>
        <time>2011-08-18T08:37:46Z</time>
      </trkpt>
      <trkpt lat="44.07066" lon="6.31006">
        <ele>995</ele>
        <time>2011-08-18T08:37:57Z</time>
      </trkpt>
      <trkpt lat="44.0708" lon="6.31003">
        <ele>990</ele>
        <time>2011-08-18T08:38:03Z</time>
      </trkpt>
      <trkpt lat="44.07095" lon="6.31011">
        <ele>990</ele>
        <time>2011-08-18T08:38:14Z</time>
      </trkpt>
      <trkpt lat="44.07097" lon="6.3101">
        <ele>990</ele>
        <time>2011-08-18T08:38:17Z</time>
      </trkpt>
      <trkpt lat="44.0711" lon="6.31007">
        <ele>991</ele>
        <time>2011-08-18T08:38:31Z</time>
      </trkpt>
      <trkpt lat="44.07109" lon="6.31007">
        <ele>990</ele>
        <time>2011-08-18T08:38:38Z</time>
      </trkpt>
      <trkpt lat="44.0712" lon="6.30997">
        <ele>983</ele>
        <time>2011-08-18T08:38:45Z</time>
      </trkpt>
      <trkpt lat="44.0714" lon="6.30998">
        <ele>982</ele>
        <time>2011-08-18T08:38:53Z</time>
      </trkpt>
      <trkpt lat="44.07147" lon="6.30999">
        <ele>982</ele>
        <time>2011-08-18T08:39:01Z</time>
      </trkpt>
      <trkpt lat="44.0715" lon="6.30997">
        <ele>982</ele>
        <time>2011-08-18T08:39:09Z</time>
      </trkpt>
      <trkpt lat="44.07177" lon="6.30984">
        <ele>981</ele>
        <time>2011-08-18T08:39:23Z</time>
      </trkpt>
      <trkpt lat="44.07214" lon="6.30968">
        <ele>980</ele>
        <time>2011-08-18T08:39:37Z</time>
      </trkpt>
      <trkpt lat="44.0724" lon="6.30961">
        <ele>980</ele>
        <time>2011-08-18T08:39:47Z</time>
      </trkpt>
      <trkpt lat="44.07248" lon="6.30963">
        <ele>980</ele>
        <time>2011-08-18T08:39:50Z</time>
      </trkpt>
      <trkpt lat="44.07265" lon="6.3095">
        <ele>981</ele>
        <time>2011-08-18T08:39:57Z</time>
      </trkpt>
      <trkpt lat="44.07298" lon="6.30914">
        <ele>971</ele>
        <time>2011-08-18T08:40:10Z</time>
      </trkpt>
      <trkpt lat="44.07305" lon="6.30909">
        <ele>971</ele>
        <time>2011-08-18T08:40:12Z</time>
      </trkpt>
      <trkpt lat="44.07315" lon="6.30898">
        <ele>972</ele>
        <time>2011-08-18T08:40:15Z</time>
      </trkpt>
      <trkpt lat="44.07351" lon="6.30888">
        <ele>967</ele>
        <time>2011-08-18T08:40:25Z</time>
      </trkpt>
      <trkpt lat="44.07385" lon="6.30936">
        <ele>977</ele>
        <time>2011-08-18T08:40:38Z</time>
      </trkpt>
      <trkpt lat="44.07419" lon="6.30969">
        <ele>973</ele>
        <time>2011-08-18T08:40:50Z</time>
      </trkpt>
      <trkpt lat="44.07431" lon="6.30965">
        <ele>972</ele>
        <time>2011-08-18T08:40:54Z</time>
      </trkpt>
      <trkpt lat="44.0747" lon="6.30964">
        <ele>970</ele>
        <time>2011-08-18T08:41:07Z</time>
      </trkpt>
      <trkpt lat="44.07496" lon="6.3099">
        <ele>973</ele>
        <time>2011-08-18T08:41:16Z</time>
      </trkpt>
      <trkpt lat="44.075" lon="6.31007">
        <ele>977</ele>
        <time>2011-08-18T08:41:19Z</time>
      </trkpt>
      <trkpt lat="44.07514" lon="6.31037">
        <ele>982</ele>
        <time>2011-08-18T08:41:24Z</time>
      </trkpt>
      <trkpt lat="44.07518" lon="6.31064">
        <ele>985</ele>
        <time>2011-08-18T08:41:28Z</time>
      </trkpt>
      <trkpt lat="44.07538" lon="6.31079">
        <ele>986</ele>
        <time>2011-08-18T08:41:35Z</time>
      </trkpt>
      <trkpt lat="44.07552" lon="6.31054">
        <ele>986</ele>
        <time>2011-08-18T08:41:40Z</time>
      </trkpt>
      <trkpt lat="44.07566" lon="6.30996">
        <ele>977</ele>
        <time>2011-08-18T08:41:56Z</time>
      </trkpt>
      <trkpt lat="44.07581" lon="6.30937">
        <ele>974</ele>
        <time>2011-08-18T08:42:17Z</time>
      </trkpt>
      <trkpt lat="44.07607" lon="6.3093">
        <ele>983</ele>
        <time>2011-08-18T08:42:32Z</time>
      </trkpt>
      <trkpt lat="44.07621" lon="6.30931">
        <ele>985</ele>
        <time>2011-08-18T08:42:41Z</time>
      </trkpt>
      <trkpt lat="44.07628" lon="6.30944">
        <ele>987</ele>
        <time>2011-08-18T08:42:49Z</time>
      </trkpt>
      <trkpt lat="44.07614" lon="6.30982">
        <ele>987</ele>
        <time>2011-08-18T08:43:09Z</time>
      </trkpt>
      <trkpt lat="44.07615" lon="6.3099">
        <ele>987</ele>
        <time>2011-08-18T08:43:13Z</time>
      </trkpt>
      <trkpt lat="44.0762" lon="6.30995">
        <ele>988</ele>
        <time>2011-08-18T08:43:17Z</time>
      </trkpt>
      <trkpt lat="44.07652" lon="6.31">
        <ele>995</ele>
        <time>2011-08-18T08:43:35Z</time>
      </trkpt>
      <trkpt lat="44.07658" lon="6.31005">
        <ele>1001</ele>
        <time>2011-08-18T08:43:39Z</time>
      </trkpt>
      <trkpt lat="44.07687" lon="6.3099">
        <ele>1005</ele>
        <time>2011-08-18T08:43:55Z</time>
      </trkpt>
      <trkpt lat="44.07713" lon="6.30969">
        <ele>1008</ele>
        <time>2011-08-18T08:44:11Z</time>
      </trkpt>
      <trkpt lat="44.07736" lon="6.30941">
        <ele>1008</ele>
        <time>2011-08-18T08:44:30Z</time>
      </trkpt>
      <trkpt lat="44.07754" lon="6.30911">
        <ele>1010</ele>
        <time>2011-08-18T08:44:47Z</time>
      </trkpt>
      <trkpt lat="44.07761" lon="6.30896">
        <ele>1010</ele>
        <time>2011-08-18T08:45:03Z</time>
      </trkpt>
      <trkpt lat="44.07763" lon="6.30893">
        <ele>1010</ele>
        <time>2011-08-18T08:45:06Z</time>
      </trkpt>
      <trkpt lat="44.07785" lon="6.30856">
        <ele>1009</ele>
        <time>2011-08-18T08:45:23Z</time>
      </trkpt>
      <trkpt lat="44.07809" lon="6.30811">
        <ele>1004</ele>
        <time>2011-08-18T08:45:37Z</time>
      </trkpt>
      <trkpt lat="44.07831" lon="6.30767">
        <ele>1005</ele>
        <time>2011-08-18T08:45:50Z</time>
      </trkpt>
      <trkpt lat="44.07844" lon="6.30737">
        <ele>1005</ele>
        <time>2011-08-18T08:45:57Z</time>
      </trkpt>
      <trkpt lat="44.07845" lon="6.30712">
        <ele>1003</ele>
        <time>2011-08-18T08:46:01Z</time>
      </trkpt>
      <trkpt lat="44.07857" lon="6.30678">
        <ele>1001</ele>
        <time>2011-08-18T08:46:08Z</time>
      </trkpt>
      <trkpt lat="44.07868" lon="6.3068">
        <ele>1001</ele>
        <time>2011-08-18T08:46:10Z</time>
      </trkpt>
      <trkpt lat="44.07879" lon="6.30684">
        <ele>1001</ele>
        <time>2011-08-18T08:46:12Z</time>
      </trkpt>
      <trkpt lat="44.07908" lon="6.30708">
        <ele>1001</ele>
        <time>2011-08-18T08:46:18Z</time>
      </trkpt>
      <trkpt lat="44.07925" lon="6.30687">
        <ele>994</ele>
        <time>2011-08-18T08:46:24Z</time>
      </trkpt>
      <trkpt lat="44.07925" lon="6.30666">
        <ele>996</ele>
        <time>2011-08-18T08:46:27Z</time>
      </trkpt>
      <trkpt lat="44.07949" lon="6.30636">
        <ele>988</ele>
        <time>2011-08-18T08:46:34Z</time>
      </trkpt>
      <trkpt lat="44.07975" lon="6.30679">
        <ele>986</ele>
        <time>2011-08-18T08:46:40Z</time>
      </trkpt>
      <trkpt lat="44.07981" lon="6.30731">
        <ele>984</ele>
        <time>2011-08-18T08:46:45Z</time>
      </trkpt>
      <trkpt lat="44.07979" lon="6.30754">
        <ele>982</ele>
        <time>2011-08-18T08:46:47Z</time>
      </trkpt>
      <trkpt lat="44.07989" lon="6.30829">
        <ele>978</ele>
        <time>2011-08-18T08:46:53Z</time>
      </trkpt>
      <trkpt lat="44.0799" lon="6.30872">
        <ele>982</ele>
        <time>2011-08-18T08:46:57Z</time>
      </trkpt>
      <trkpt lat="44.08" lon="6.30901">
        <ele>979</ele>
        <time>2011-08-18T08:47:00Z</time>
      </trkpt>
      <trkpt lat="44.08009" lon="6.30937">
        <ele>975</ele>
        <time>2011-08-18T08:47:04Z</time>
      </trkpt>
      <trkpt lat="44.08023" lon="6.30974">
        <ele>978</ele>
        <time>2011-08-18T08:47:11Z</time>
      </trkpt>
      <trkpt lat="44.0805" lon="6.30986">
        <ele>977</ele>
        <time>2011-08-18T08:47:18Z</time>
      </trkpt>
      <trkpt lat="44.08056" lon="6.30973">
        <ele>976</ele>
        <time>2011-08-18T08:47:20Z</time>
      </trkpt>
      <trkpt lat="44.08082" lon="6.30958">
        <ele>974</ele>
        <time>2011-08-18T08:47:25Z</time>
      </trkpt>
      <trkpt lat="44.0811" lon="6.30928">
        <ele>974</ele>
        <time>2011-08-18T08:47:30Z</time>
      </trkpt>
      <trkpt lat="44.08127" lon="6.30913">
        <ele>965</ele>
        <time>2011-08-18T08:47:33Z</time>
      </trkpt>
      <trkpt lat="44.08148" lon="6.30883">
        <ele>964</ele>
        <time>2011-08-18T08:47:37Z</time>
      </trkpt>
      <trkpt lat="44.08174" lon="6.3087">
        <ele>966</ele>
        <time>2011-08-18T08:47:41Z</time>
      </trkpt>
      <trkpt lat="44.0819" lon="6.30861">
        <ele>966</ele>
        <time>2011-08-18T08:47:44Z</time>
      </trkpt>
      <trkpt lat="44.08216" lon="6.30855">
        <ele>966</ele>
        <time>2011-08-18T08:47:48Z</time>
      </trkpt>
      <trkpt lat="44.08246" lon="6.30835">
        <ele>960</ele>
        <time>2011-08-18T08:47:53Z</time>
      </trkpt>
      <trkpt lat="44.08255" lon="6.30822">
        <ele>955</ele>
        <time>2011-08-18T08:47:55Z</time>
      </trkpt>
      <trkpt lat="44.08276" lon="6.30815">
        <ele>952</ele>
        <time>2011-08-18T08:47:59Z</time>
      </trkpt>
      <trkpt lat="44.08329" lon="6.30831">
        <ele>956</ele>
        <time>2011-08-18T08:48:11Z</time>
      </trkpt>
      <trkpt lat="44.08363" lon="6.30855">
        <ele>958</ele>
        <time>2011-08-18T08:48:26Z</time>
      </trkpt>
      <trkpt lat="44.08381" lon="6.30889">
        <ele>960</ele>
        <time>2011-08-18T08:48:37Z</time>
      </trkpt>
      <trkpt lat="44.08389" lon="6.30899">
        <ele>960</ele>
        <time>2011-08-18T08:48:41Z</time>
      </trkpt>
      <trkpt lat="44.08425" lon="6.30938">
        <ele>959</ele>
        <time>2011-08-18T08:48:56Z</time>
      </trkpt>
      <trkpt lat="44.08465" lon="6.30973">
        <ele>960</ele>
        <time>2011-08-18T08:49:11Z</time>
      </trkpt>
      <trkpt lat="44.08497" lon="6.31002">
        <ele>960</ele>
        <time>2011-08-18T08:49:21Z</time>
      </trkpt>
      <trkpt lat="44.085" lon="6.31009">
        <ele>959</ele>
        <time>2011-08-18T08:49:25Z</time>
      </trkpt>
      <trkpt lat="44.08509" lon="6.31073">
        <ele>966</ele>
        <time>2011-08-18T08:49:48Z</time>
      </trkpt>
      <trkpt lat="44.08514" lon="6.31083">
        <ele>966</ele>
        <time>2011-08-18T08:49:50Z</time>
      </trkpt>
      <trkpt lat="44.08551" lon="6.31127">
        <ele>971</ele>
        <time>2011-08-18T08:50:06Z</time>
      </trkpt>
      <trkpt lat="44.08594" lon="6.31129">
        <ele>968</ele>
        <time>2011-08-18T08:50:21Z</time>
      </trkpt>
      <trkpt lat="44.08638" lon="6.31115">
        <ele>967</ele>
        <time>2011-08-18T08:50:36Z</time>
      </trkpt>
      <trkpt lat="44.08676" lon="6.31153">
        <ele>970</ele>
        <time>2011-08-18T08:50:53Z</time>
      </trkpt>
      <trkpt lat="44.08693" lon="6.31182">
        <ele>977</ele>
        <time>2011-08-18T08:51:07Z</time>
      </trkpt>
      <trkpt lat="44.0872" lon="6.31182">
        <ele>978</ele>
        <time>2011-08-18T08:51:21Z</time>
      </trkpt>
      <trkpt lat="44.08721" lon="6.31181">
        <ele>978</ele>
        <time>2011-08-18T08:51:22Z</time>
      </trkpt>
      <trkpt lat="44.08724" lon="6.31189">
        <ele>979</ele>
        <time>2011-08-18T08:51:30Z</time>
      </trkpt>
      <trkpt lat="44.08701" lon="6.31209">
        <ele>979</ele>
        <time>2011-08-18T08:51:44Z</time>
      </trkpt>
      <trkpt lat="44.0872" lon="6.31213">
        <ele>980</ele>
        <time>2011-08-18T08:51:53Z</time>
      </trkpt>
      <trkpt lat="44.08756" lon="6.31191">
        <ele>983</ele>
        <time>2011-08-18T08:52:12Z</time>
      </trkpt>
      <trkpt lat="44.08787" lon="6.31163">
        <ele>978</ele>
        <time>2011-08-18T08:52:30Z</time>
      </trkpt>
      <trkpt lat="44.08829" lon="6.31176">
        <ele>986</ele>
        <time>2011-08-18T08:52:49Z</time>
      </trkpt>
      <trkpt lat="44.08867" lon="6.31202">
        <ele>990</ele>
        <time>2011-08-18T08:53:07Z</time>
      </trkpt>
      <trkpt lat="44.08917" lon="6.31216">
        <ele>993</ele>
        <time>2011-08-18T08:53:30Z</time>
      </trkpt>
      <trkpt lat="44.08931" lon="6.31241">
        <ele>994</ele>
        <time>2011-08-18T08:53:42Z</time>
      </trkpt>
      <trkpt lat="44.08942" lon="6.31284">
        <ele>1000</ele>
        <time>2011-08-18T08:53:58Z</time>
      </trkpt>
      <trkpt lat="44.08923" lon="6.31333">
        <ele>1003</ele>
        <time>2011-08-18T08:54:15Z</time>
      </trkpt>
      <trkpt lat="44.08889" lon="6.31345">
        <ele>1007</ele>
        <time>2011-08-18T08:54:32Z</time>
      </trkpt>
      <trkpt lat="44.08849" lon="6.31345">
        <ele>1007</ele>
        <time>2011-08-18T08:54:50Z</time>
      </trkpt>
      <trkpt lat="44.08856" lon="6.3137">
        <ele>1009</ele>
        <time>2011-08-18T08:55:01Z</time>
      </trkpt>
      <trkpt lat="44.08892" lon="6.31401">
        <ele>1011</ele>
        <time>2011-08-18T08:55:21Z</time>
      </trkpt>
      <trkpt lat="44.08931" lon="6.31429">
        <ele>1018</ele>
        <time>2011-08-18T08:55:41Z</time>
      </trkpt>
      <trkpt lat="44.08985" lon="6.31426">
        <ele>1019</ele>
        <time>2011-08-18T08:56:04Z</time>
      </trkpt>
      <trkpt lat="44.09018" lon="6.31438">
        <ele>1020</ele>
        <time>2011-08-18T08:56:19Z</time>
      </trkpt>
      <trkpt lat="44.0906" lon="6.31426">
        <ele>1020</ele>
        <time>2011-08-18T08:56:34Z</time>
      </trkpt>
      <trkpt lat="44.09108" lon="6.31398">
        <ele>1015</ele>
        <time>2011-08-18T08:56:52Z</time>
      </trkpt>
      <trkpt lat="44.09122" lon="6.31408">
        <ele>1015</ele>
        <time>2011-08-18T08:56:57Z</time>
      </trkpt>
      <trkpt lat="44.09144" lon="6.31461">
        <ele>1021</ele>
        <time>2011-08-18T08:57:12Z</time>
      </trkpt>
      <trkpt lat="44.09193" lon="6.3149">
        <ele>1021</ele>
        <time>2011-08-18T08:57:28Z</time>
      </trkpt>
      <trkpt lat="44.09234" lon="6.31506">
        <ele>1025</ele>
        <time>2011-08-18T08:57:42Z</time>
      </trkpt>
      <trkpt lat="44.09261" lon="6.31539">
        <ele>1022</ele>
        <time>2011-08-18T08:57:52Z</time>
      </trkpt>
      <trkpt lat="44.09288" lon="6.31589">
        <ele>1027</ele>
        <time>2011-08-18T08:58:06Z</time>
      </trkpt>
      <trkpt lat="44.09313" lon="6.31607">
        <ele>1026</ele>
        <time>2011-08-18T08:58:15Z</time>
      </trkpt>
      <trkpt lat="44.09339" lon="6.31587">
        <ele>1017</ele>
        <time>2011-08-18T08:58:21Z</time>
      </trkpt>
      <trkpt lat="44.09367" lon="6.31587">
        <ele>1009</ele>
        <time>2011-08-18T08:58:28Z</time>
      </trkpt>
      <trkpt lat="44.09366" lon="6.31627">
        <ele>1010</ele>
        <time>2011-08-18T08:58:34Z</time>
      </trkpt>
      <trkpt lat="44.09362" lon="6.31669">
        <ele>1018</ele>
        <time>2011-08-18T08:58:39Z</time>
      </trkpt>
      <trkpt lat="44.09369" lon="6.31696">
        <ele>1017</ele>
        <time>2011-08-18T08:58:42Z</time>
      </trkpt>
      <trkpt lat="44.09392" lon="6.3172">
        <ele>1015</ele>
        <time>2011-08-18T08:58:47Z</time>
      </trkpt>
      <trkpt lat="44.09404" lon="6.31722">
        <ele>1014</ele>
        <time>2011-08-18T08:58:49Z</time>
      </trkpt>
      <trkpt lat="44.09429" lon="6.31743">
        <ele>1000</ele>
        <time>2011-08-18T08:58:54Z</time>
      </trkpt>
      <trkpt lat="44.09432" lon="6.31783">
        <ele>999</ele>
        <time>2011-08-18T08:59:01Z</time>
      </trkpt>
      <trkpt lat="44.09428" lon="6.31797">
        <ele>999</ele>
        <time>2011-08-18T08:59:03Z</time>
      </trkpt>
      <trkpt lat="44.09427" lon="6.31825">
        <ele>1004</ele>
        <time>2011-08-18T08:59:07Z</time>
      </trkpt>
      <trkpt lat="44.09427" lon="6.3184">
        <ele>1005</ele>
        <time>2011-08-18T08:59:09Z</time>
      </trkpt>
      <trkpt lat="44.09417" lon="6.31871">
        <ele>1001</ele>
        <time>2011-08-18T08:59:13Z</time>
      </trkpt>
      <trkpt lat="44.09423" lon="6.31908">
        <ele>1004</ele>
        <time>2011-08-18T08:59:18Z</time>
      </trkpt>
      <trkpt lat="44.09415" lon="6.31935">
        <ele>1018</ele>
        <time>2011-08-18T08:59:22Z</time>
      </trkpt>
      <trkpt lat="44.09415" lon="6.31961">
        <ele>1022</ele>
        <time>2011-08-18T08:59:28Z</time>
      </trkpt>
      <trkpt lat="44.09441" lon="6.31972">
        <ele>1002</ele>
        <time>2011-08-18T08:59:33Z</time>
      </trkpt>
      <trkpt lat="44.09456" lon="6.3199">
        <ele>1000</ele>
        <time>2011-08-18T08:59:37Z</time>
      </trkpt>
      <trkpt lat="44.09465" lon="6.32021">
        <ele>1004</ele>
        <time>2011-08-18T08:59:41Z</time>
      </trkpt>
      <trkpt lat="44.09484" lon="6.32039">
        <ele>1003</ele>
        <time>2011-08-18T08:59:46Z</time>
      </trkpt>
      <trkpt lat="44.0953" lon="6.32049">
        <ele>995</ele>
        <time>2011-08-18T08:59:55Z</time>
      </trkpt>
      <trkpt lat="44.09561" lon="6.32053">
        <ele>996</ele>
        <time>2011-08-18T09:00:05Z</time>
      </trkpt>
      <trkpt lat="44.09607" lon="6.32057">
        <ele>999</ele>
        <time>2011-08-18T09:00:18Z</time>
      </trkpt>
      <trkpt lat="44.09642" lon="6.32032">
        <ele>999</ele>
        <time>2011-08-18T09:00:29Z</time>
      </trkpt>
      <trkpt lat="44.09634" lon="6.31974">
        <ele>988</ele>
        <time>2011-08-18T09:00:41Z</time>
      </trkpt>
      <trkpt lat="44.09632" lon="6.3197">
        <ele>988</ele>
        <time>2011-08-18T09:00:42Z</time>
      </trkpt>
      <trkpt lat="44.0965" lon="6.31962">
        <ele>988</ele>
        <time>2011-08-18T09:00:50Z</time>
      </trkpt>
      <trkpt lat="44.09671" lon="6.31983">
        <ele>994</ele>
        <time>2011-08-18T09:01:00Z</time>
      </trkpt>
      <trkpt lat="44.09695" lon="6.32011">
        <ele>1003</ele>
        <time>2011-08-18T09:01:10Z</time>
      </trkpt>
      <trkpt lat="44.0974" lon="6.32012">
        <ele>1002</ele>
        <time>2011-08-18T09:01:24Z</time>
      </trkpt>
      <trkpt lat="44.09782" lon="6.32016">
        <ele>1004</ele>
        <time>2011-08-18T09:01:38Z</time>
      </trkpt>
      <trkpt lat="44.09802" lon="6.32034">
        <ele>1005</ele>
        <time>2011-08-18T09:01:47Z</time>
      </trkpt>
      <trkpt lat="44.09812" lon="6.32063">
        <ele>1007</ele>
        <time>2011-08-18T09:01:55Z</time>
      </trkpt>
      <trkpt lat="44.09819" lon="6.32086">
        <ele>1012</ele>
        <time>2011-08-18T09:02:01Z</time>
      </trkpt>
      <trkpt lat="44.09838" lon="6.32106">
        <ele>1012</ele>
        <time>2011-08-18T09:02:09Z</time>
      </trkpt>
      <trkpt lat="44.09845" lon="6.32109">
        <ele>1013</ele>
        <time>2011-08-18T09:02:13Z</time>
      </trkpt>
      <trkpt lat="44.09871" lon="6.32127">
        <ele>1015</ele>
        <time>2011-08-18T09:02:25Z</time>
      </trkpt>
      <trkpt lat="44.09876" lon="6.3213">
        <ele>1015</ele>
        <time>2011-08-18T09:02:27Z</time>
      </trkpt>
      <trkpt lat="44.09884" lon="6.32126">
        <ele>1015</ele>
        <time>2011-08-18T09:02:31Z</time>
      </trkpt>
      <trkpt lat="44.09889" lon="6.32092">
        <ele>1015</ele>
        <time>2011-08-18T09:02:43Z</time>
      </trkpt>
      <trkpt lat="44.099" lon="6.32054">
        <ele>1013</ele>
        <time>2011-08-18T09:02:59Z</time>
      </trkpt>
      <trkpt lat="44.09904" lon="6.32048">
        <ele>1013</ele>
        <time>2011-08-18T09:03:02Z</time>
      </trkpt>
      <trkpt lat="44.09905" lon="6.32035">
        <ele>1013</ele>
        <time>2011-08-18T09:03:06Z</time>
      </trkpt>
      <trkpt lat="44.09906" lon="6.3199">
        <ele>1011</ele>
        <time>2011-08-18T09:03:22Z</time>
      </trkpt>
      <trkpt lat="44.0993" lon="6.31958">
        <ele>1020</ele>
        <time>2011-08-18T09:03:39Z</time>
      </trkpt>
      <trkpt lat="44.09945" lon="6.31923">
        <ele>1019</ele>
        <time>2011-08-18T09:03:53Z</time>
      </trkpt>
      <trkpt lat="44.09977" lon="6.31896">
        <ele>1016</ele>
        <time>2011-08-18T09:04:11Z</time>
      </trkpt>
      <trkpt lat="44.09992" lon="6.31877">
        <ele>1015</ele>
        <time>2011-08-18T09:04:24Z</time>
      </trkpt>
      <trkpt lat="44.09991" lon="6.31877">
        <ele>1014</ele>
        <time>2011-08-18T09:04:51Z</time>
      </trkpt>
      <trkpt lat="44.09992" lon="6.31876">
        <ele>1014</ele>
        <time>2011-08-18T09:09:12Z</time>
      </trkpt>
      <trkpt lat="44.09994" lon="6.31876">
        <ele>1015</ele>
        <time>2011-08-18T09:09:14Z</time>
      </trkpt>
      <trkpt lat="44.10012" lon="6.31845">
        <ele>1025</ele>
        <time>2011-08-18T09:09:29Z</time>
      </trkpt>
      <trkpt lat="44.10024" lon="6.31786">
        <ele>1019</ele>
        <time>2011-08-18T09:09:44Z</time>
      </trkpt>
      <trkpt lat="44.10025" lon="6.31772">
        <ele>1018</ele>
        <time>2011-08-18T09:09:47Z</time>
      </trkpt>
      <trkpt lat="44.10038" lon="6.31729">
        <ele>1009</ele>
        <time>2011-08-18T09:09:55Z</time>
      </trkpt>
      <trkpt lat="44.10066" lon="6.31704">
        <ele>1009</ele>
        <time>2011-08-18T09:10:05Z</time>
      </trkpt>
      <trkpt lat="44.10085" lon="6.31716">
        <ele>1017</ele>
        <time>2011-08-18T09:10:13Z</time>
      </trkpt>
      <trkpt lat="44.10094" lon="6.31731">
        <ele>1019</ele>
        <time>2011-08-18T09:10:20Z</time>
      </trkpt>
      <trkpt lat="44.10117" lon="6.31777">
        <ele>1026</ele>
        <time>2011-08-18T09:10:33Z</time>
      </trkpt>
      <trkpt lat="44.10134" lon="6.31806">
        <ele>1026</ele>
        <time>2011-08-18T09:10:42Z</time>
      </trkpt>
      <trkpt lat="44.1016" lon="6.31829">
        <ele>1026</ele>
        <time>2011-08-18T09:10:49Z</time>
      </trkpt>
      <trkpt lat="44.10185" lon="6.31831">
        <ele>1026</ele>
        <time>2011-08-18T09:10:55Z</time>
      </trkpt>
      <trkpt lat="44.10194" lon="6.31833">
        <ele>1027</ele>
        <time>2011-08-18T09:10:57Z</time>
      </trkpt>
      <trkpt lat="44.10207" lon="6.31844">
        <ele>1032</ele>
        <time>2011-08-18T09:11:01Z</time>
      </trkpt>
      <trkpt lat="44.10221" lon="6.31838">
        <ele>1032</ele>
        <time>2011-08-18T09:11:07Z</time>
      </trkpt>
      <trkpt lat="44.10221" lon="6.31808">
        <ele>1028</ele>
        <time>2011-08-18T09:11:18Z</time>
      </trkpt>
      <trkpt lat="44.10218" lon="6.31774">
        <ele>1027</ele>
        <time>2011-08-18T09:11:32Z</time>
      </trkpt>
      <trkpt lat="44.10215" lon="6.31753">
        <ele>1026</ele>
        <time>2011-08-18T09:11:41Z</time>
      </trkpt>
      <trkpt lat="44.10238" lon="6.31733">
        <ele>1025</ele>
        <time>2011-08-18T09:11:58Z</time>
      </trkpt>
      <trkpt lat="44.10241" lon="6.31729">
        <ele>1024</ele>
        <time>2011-08-18T09:12:00Z</time>
      </trkpt>
      <trkpt lat="44.1026" lon="6.31719">
        <ele>1026</ele>
        <time>2011-08-18T09:12:11Z</time>
      </trkpt>
      <trkpt lat="44.10293" lon="6.31718">
        <ele>1025</ele>
        <time>2011-08-18T09:12:29Z</time>
      </trkpt>
      <trkpt lat="44.10308" lon="6.31757">
        <ele>1034</ele>
        <time>2011-08-18T09:12:42Z</time>
      </trkpt>
      <trkpt lat="44.1033" lon="6.31805">
        <ele>1037</ele>
        <time>2011-08-18T09:13:01Z</time>
      </trkpt>
      <trkpt lat="44.10354" lon="6.3183">
        <ele>1043</ele>
        <time>2011-08-18T09:13:18Z</time>
      </trkpt>
      <trkpt lat="44.10374" lon="6.31813">
        <ele>1044</ele>
        <time>2011-08-18T09:13:32Z</time>
      </trkpt>
      <trkpt lat="44.10398" lon="6.31796">
        <ele>1044</ele>
        <time>2011-08-18T09:13:48Z</time>
      </trkpt>
      <trkpt lat="44.10435" lon="6.31785">
        <ele>1048</ele>
        <time>2011-08-18T09:14:10Z</time>
      </trkpt>
      <trkpt lat="44.10467" lon="6.31795">
        <ele>1050</ele>
        <time>2011-08-18T09:14:29Z</time>
      </trkpt>
      <trkpt lat="44.10491" lon="6.31823">
        <ele>1055</ele>
        <time>2011-08-18T09:14:46Z</time>
      </trkpt>
      <trkpt lat="44.10496" lon="6.31826">
        <ele>1057</ele>
        <time>2011-08-18T09:14:49Z</time>
      </trkpt>
      <trkpt lat="44.10514" lon="6.31833">
        <ele>1065</ele>
        <time>2011-08-18T09:15:00Z</time>
      </trkpt>
      <trkpt lat="44.1052" lon="6.31834">
        <ele>1066</ele>
        <time>2011-08-18T09:15:04Z</time>
      </trkpt>
      <trkpt lat="44.10533" lon="6.31841">
        <ele>1068</ele>
        <time>2011-08-18T09:15:19Z</time>
      </trkpt>
      <trkpt lat="44.10547" lon="6.31848">
        <ele>1070</ele>
        <time>2011-08-18T09:15:42Z</time>
      </trkpt>
      <trkpt lat="44.1057" lon="6.31847">
        <ele>1069</ele>
        <time>2011-08-18T09:16:04Z</time>
      </trkpt>
      <trkpt lat="44.10585" lon="6.31847">
        <ele>1074</ele>
        <time>2011-08-18T09:16:20Z</time>
      </trkpt>
      <trkpt lat="44.10586" lon="6.31847">
        <ele>1074</ele>
        <time>2011-08-18T09:16:21Z</time>
      </trkpt>
      <trkpt lat="44.10589" lon="6.31843">
        <ele>1073</ele>
        <time>2011-08-18T09:16:26Z</time>
      </trkpt>
      <trkpt lat="44.10596" lon="6.31842">
        <ele>1075</ele>
        <time>2011-08-18T09:16:33Z</time>
      </trkpt>
      <trkpt lat="44.10609" lon="6.31843">
        <ele>1079</ele>
        <time>2011-08-18T09:16:49Z</time>
      </trkpt>
      <trkpt lat="44.10621" lon="6.31837">
        <ele>1081</ele>
        <time>2011-08-18T09:17:05Z</time>
      </trkpt>
      <trkpt lat="44.10623" lon="6.31838">
        <ele>1082</ele>
        <time>2011-08-18T09:17:07Z</time>
      </trkpt>
      <trkpt lat="44.10634" lon="6.31835">
        <ele>1083</ele>
        <time>2011-08-18T09:17:19Z</time>
      </trkpt>
      <trkpt lat="44.10651" lon="6.31826">
        <ele>1076</ele>
        <time>2011-08-18T09:17:39Z</time>
      </trkpt>
      <trkpt lat="44.10658" lon="6.31821">
        <ele>1076</ele>
        <time>2011-08-18T09:17:48Z</time>
      </trkpt>
      <trkpt lat="44.10676" lon="6.31807">
        <ele>1084</ele>
        <time>2011-08-18T09:18:09Z</time>
      </trkpt>
      <trkpt lat="44.10692" lon="6.31805">
        <ele>1084</ele>
        <time>2011-08-18T09:18:26Z</time>
      </trkpt>
      <trkpt lat="44.10705" lon="6.31809">
        <ele>1086</ele>
        <time>2011-08-18T09:18:44Z</time>
      </trkpt>
      <trkpt lat="44.10715" lon="6.31804">
        <ele>1086</ele>
        <time>2011-08-18T09:18:57Z</time>
      </trkpt>
      <trkpt lat="44.10719" lon="6.31801">
        <ele>1086</ele>
        <time>2011-08-18T09:19:02Z</time>
      </trkpt>
      <trkpt lat="44.10735" lon="6.31787">
        <ele>1086</ele>
        <time>2011-08-18T09:19:21Z</time>
      </trkpt>
      <trkpt lat="44.10736" lon="6.31786">
        <ele>1086</ele>
        <time>2011-08-18T09:19:22Z</time>
      </trkpt>
      <trkpt lat="44.10749" lon="6.31782">
        <ele>1087</ele>
        <time>2011-08-18T09:19:35Z</time>
      </trkpt>
      <trkpt lat="44.10765" lon="6.31794">
        <ele>1090</ele>
        <time>2011-08-18T09:19:54Z</time>
      </trkpt>
      <trkpt lat="44.10768" lon="6.31796">
        <ele>1090</ele>
        <time>2011-08-18T09:20:00Z</time>
      </trkpt>
      <trkpt lat="44.10784" lon="6.31811">
        <ele>1091</ele>
        <time>2011-08-18T09:20:12Z</time>
      </trkpt>
      <trkpt lat="44.10799" lon="6.31836">
        <ele>1097</ele>
        <time>2011-08-18T09:20:27Z</time>
      </trkpt>
      <trkpt lat="44.10802" lon="6.3186">
        <ele>1097</ele>
        <time>2011-08-18T09:20:39Z</time>
      </trkpt>
      <trkpt lat="44.10808" lon="6.31894">
        <ele>1098</ele>
        <time>2011-08-18T09:20:51Z</time>
      </trkpt>
      <trkpt lat="44.10808" lon="6.31901">
        <ele>1098</ele>
        <time>2011-08-18T09:20:54Z</time>
      </trkpt>
      <trkpt lat="44.10815" lon="6.31938">
        <ele>1103</ele>
        <time>2011-08-18T09:21:07Z</time>
      </trkpt>
      <trkpt lat="44.10816" lon="6.31943">
        <ele>1104</ele>
        <time>2011-08-18T09:21:09Z</time>
      </trkpt>
      <trkpt lat="44.1082" lon="6.31947">
        <ele>1104</ele>
        <time>2011-08-18T09:21:12Z</time>
      </trkpt>
      <trkpt lat="44.1082" lon="6.31954">
        <ele>1104</ele>
        <time>2011-08-18T09:21:17Z</time>
      </trkpt>
      <trkpt lat="44.1082" lon="6.31983">
        <ele>1105</ele>
        <time>2011-08-18T09:21:28Z</time>
      </trkpt>
      <trkpt lat="44.10823" lon="6.32014">
        <ele>1109</ele>
        <time>2011-08-18T09:21:38Z</time>
      </trkpt>
      <trkpt lat="44.10827" lon="6.32044">
        <ele>1112</ele>
        <time>2011-08-18T09:21:48Z</time>
      </trkpt>
      <trkpt lat="44.10828" lon="6.32071">
        <ele>1112</ele>
        <time>2011-08-18T09:21:58Z</time>
      </trkpt>
      <trkpt lat="44.10829" lon="6.32079">
        <ele>1111</ele>
        <time>2011-08-18T09:22:01Z</time>
      </trkpt>
      <trkpt lat="44.10835" lon="6.32094">
        <ele>1111</ele>
        <time>2011-08-18T09:22:07Z</time>
      </trkpt>
      <trkpt lat="44.1084" lon="6.32098">
        <ele>1112</ele>
        <time>2011-08-18T09:22:13Z</time>
      </trkpt>
      <trkpt lat="44.10845" lon="6.32104">
        <ele>1112</ele>
        <time>2011-08-18T09:22:24Z</time>
      </trkpt>
      <trkpt lat="44.10866" lon="6.32111">
        <ele>1112</ele>
        <time>2011-08-18T09:22:43Z</time>
      </trkpt>
      <trkpt lat="44.10868" lon="6.32111">
        <ele>1112</ele>
        <time>2011-08-18T09:22:44Z</time>
      </trkpt>
      <trkpt lat="44.10895" lon="6.32086">
        <ele>1109</ele>
        <time>2011-08-18T09:22:58Z</time>
      </trkpt>
      <trkpt lat="44.10917" lon="6.32059">
        <ele>1098</ele>
        <time>2011-08-18T09:23:07Z</time>
      </trkpt>
      <trkpt lat="44.10931" lon="6.32064">
        <ele>1098</ele>
        <time>2011-08-18T09:23:11Z</time>
      </trkpt>
      <trkpt lat="44.10942" lon="6.32077">
        <ele>1098</ele>
        <time>2011-08-18T09:23:14Z</time>
      </trkpt>
      <trkpt lat="44.10965" lon="6.32098">
        <ele>1103</ele>
        <time>2011-08-18T09:23:19Z</time>
      </trkpt>
      <trkpt lat="44.11017" lon="6.3212">
        <ele>1093</ele>
        <time>2011-08-18T09:23:30Z</time>
      </trkpt>
      <trkpt lat="44.1104" lon="6.3211">
        <ele>1091</ele>
        <time>2011-08-18T09:23:36Z</time>
      </trkpt>
      <trkpt lat="44.11052" lon="6.32104">
        <ele>1089</ele>
        <time>2011-08-18T09:23:39Z</time>
      </trkpt>
      <trkpt lat="44.11063" lon="6.32121">
        <ele>1088</ele>
        <time>2011-08-18T09:23:45Z</time>
      </trkpt>
      <trkpt lat="44.11058" lon="6.32156">
        <ele>1088</ele>
        <time>2011-08-18T09:23:57Z</time>
      </trkpt>
      <trkpt lat="44.11057" lon="6.32189">
        <ele>1090</ele>
        <time>2011-08-18T09:24:06Z</time>
      </trkpt>
      <trkpt lat="44.11057" lon="6.32196">
        <ele>1090</ele>
        <time>2011-08-18T09:24:07Z</time>
      </trkpt>
      <trkpt lat="44.11056" lon="6.32234">
        <ele>1090</ele>
        <time>2011-08-18T09:24:13Z</time>
      </trkpt>
      <trkpt lat="44.1105" lon="6.32247">
        <ele>1091</ele>
        <time>2011-08-18T09:24:16Z</time>
      </trkpt>
      <trkpt lat="44.11067" lon="6.3227">
        <ele>1090</ele>
        <time>2011-08-18T09:24:26Z</time>
      </trkpt>
      <trkpt lat="44.11076" lon="6.32288">
        <ele>1091</ele>
        <time>2011-08-18T09:24:31Z</time>
      </trkpt>
      <trkpt lat="44.11092" lon="6.32289">
        <ele>1080</ele>
        <time>2011-08-18T09:24:36Z</time>
      </trkpt>
      <trkpt lat="44.11109" lon="6.3229">
        <ele>1079</ele>
        <time>2011-08-18T09:24:41Z</time>
      </trkpt>
      <trkpt lat="44.11129" lon="6.32304">
        <ele>1078</ele>
        <time>2011-08-18T09:24:54Z</time>
      </trkpt>
      <trkpt lat="44.11131" lon="6.32304">
        <ele>1078</ele>
        <time>2011-08-18T09:25:12Z</time>
      </trkpt>
    </trkseg>
  </trk>
  <trk>
    <name><![CDATA[ACTIVE LOG113619]]></name>
    <trkseg>
      <trkpt lat="44.1113" lon="6.32309">
        <ele>1078</ele>
        <time>2011-08-18T09:36:18Z</time>
      </trkpt>
      <trkpt lat="44.11134" lon="6.32313">
        <ele>1078</ele>
        <time>2011-08-18T09:36:21Z</time>
      </trkpt>
      <trkpt lat="44.11139" lon="6.32315">
        <ele>1077</ele>
        <time>2011-08-18T09:36:23Z</time>
      </trkpt>
      <trkpt lat="44.11147" lon="6.3233">
        <ele>1076</ele>
        <time>2011-08-18T09:36:29Z</time>
      </trkpt>
      <trkpt lat="44.11156" lon="6.32362">
        <ele>1075</ele>
        <time>2011-08-18T09:36:40Z</time>
      </trkpt>
      <trkpt lat="44.1117" lon="6.3237">
        <ele>1071</ele>
        <time>2011-08-18T09:36:51Z</time>
      </trkpt>
      <trkpt lat="44.11176" lon="6.32377">
        <ele>1070</ele>
        <time>2011-08-18T09:37:02Z</time>
      </trkpt>
      <trkpt lat="44.11181" lon="6.32389">
        <ele>1070</ele>
        <time>2011-08-18T09:37:15Z</time>
      </trkpt>
      <trkpt lat="44.11185" lon="6.324">
        <ele>1069</ele>
        <time>2011-08-18T09:37:29Z</time>
      </trkpt>
      <trkpt lat="44.1119" lon="6.32408">
        <ele>1069</ele>
        <time>2011-08-18T09:37:34Z</time>
      </trkpt>
      <trkpt lat="44.11191" lon="6.32429">
        <ele>1059</ele>
        <time>2011-08-18T09:37:43Z</time>
      </trkpt>
      <trkpt lat="44.11188" lon="6.3244">
        <ele>1058</ele>
        <time>2011-08-18T09:37:47Z</time>
      </trkpt>
      <trkpt lat="44.11175" lon="6.32445">
        <ele>1058</ele>
        <time>2011-08-18T09:37:58Z</time>
      </trkpt>
      <trkpt lat="44.11169" lon="6.32445">
        <ele>1058</ele>
        <time>2011-08-18T09:38:11Z</time>
      </trkpt>
      <trkpt lat="44.11164" lon="6.32447">
        <ele>1062</ele>
        <time>2011-08-18T09:38:28Z</time>
      </trkpt>
      <trkpt lat="44.11163" lon="6.32448">
        <ele>1062</ele>
        <time>2011-08-18T09:38:29Z</time>
      </trkpt>
      <trkpt lat="44.11153" lon="6.32461">
        <ele>1060</ele>
        <time>2011-08-18T09:38:36Z</time>
      </trkpt>
      <trkpt lat="44.11157" lon="6.32476">
        <ele>1057</ele>
        <time>2011-08-18T09:38:41Z</time>
      </trkpt>
      <trkpt lat="44.11158" lon="6.32498">
        <ele>1052</ele>
        <time>2011-08-18T09:38:47Z</time>
      </trkpt>
      <trkpt lat="44.11138" lon="6.32509">
        <ele>1043</ele>
        <time>2011-08-18T09:38:57Z</time>
      </trkpt>
      <trkpt lat="44.11137" lon="6.32525">
        <ele>1042</ele>
        <time>2011-08-18T09:39:05Z</time>
      </trkpt>
      <trkpt lat="44.11138" lon="6.32534">
        <ele>1040</ele>
        <time>2011-08-18T09:39:08Z</time>
      </trkpt>
      <trkpt lat="44.11138" lon="6.3254">
        <ele>1040</ele>
        <time>2011-08-18T09:39:10Z</time>
      </trkpt>
      <trkpt lat="44.11147" lon="6.32559">
        <ele>1037</ele>
        <time>2011-08-18T09:39:20Z</time>
      </trkpt>
      <trkpt lat="44.1115" lon="6.32573">
        <ele>1034</ele>
        <time>2011-08-18T09:39:29Z</time>
      </trkpt>
      <trkpt lat="44.11147" lon="6.32579">
        <ele>1034</ele>
        <time>2011-08-18T09:39:36Z</time>
      </trkpt>
      <trkpt lat="44.11147" lon="6.32588">
        <ele>1026</ele>
        <time>2011-08-18T09:39:49Z</time>
      </trkpt>
      <trkpt lat="44.11151" lon="6.32588">
        <ele>1026</ele>
        <time>2011-08-18T09:40:05Z</time>
      </trkpt>
      <trkpt lat="44.11153" lon="6.32593">
        <ele>1026</ele>
        <time>2011-08-18T09:40:13Z</time>
      </trkpt>
      <trkpt lat="44.11154" lon="6.32599">
        <ele>1026</ele>
        <time>2011-08-18T09:40:29Z</time>
      </trkpt>
      <trkpt lat="44.11154" lon="6.32599">
        <ele>1026</ele>
        <time>2011-08-18T09:40:31Z</time>
      </trkpt>
      <trkpt lat="44.11159" lon="6.32617">
        <ele>1024</ele>
        <time>2011-08-18T09:40:41Z</time>
      </trkpt>
      <trkpt lat="44.11159" lon="6.3263">
        <ele>1022</ele>
        <time>2011-08-18T09:40:51Z</time>
      </trkpt>
      <trkpt lat="44.11155" lon="6.32632">
        <ele>1022</ele>
        <time>2011-08-18T09:40:54Z</time>
      </trkpt>
      <trkpt lat="44.11151" lon="6.32666">
        <ele>1018</ele>
        <time>2011-08-18T09:41:05Z</time>
      </trkpt>
      <trkpt lat="44.1116" lon="6.32691">
        <ele>1015</ele>
        <time>2011-08-18T09:41:12Z</time>
      </trkpt>
      <trkpt lat="44.11157" lon="6.32723">
        <ele>1014</ele>
        <time>2011-08-18T09:41:23Z</time>
      </trkpt>
      <trkpt lat="44.11154" lon="6.32728">
        <ele>1013</ele>
        <time>2011-08-18T09:41:25Z</time>
      </trkpt>
      <trkpt lat="44.1114" lon="6.3273">
        <ele>1015</ele>
        <time>2011-08-18T09:41:31Z</time>
      </trkpt>
      <trkpt lat="44.11131" lon="6.32728">
        <ele>1016</ele>
        <time>2011-08-18T09:41:41Z</time>
      </trkpt>
      <trkpt lat="44.11125" lon="6.32726">
        <ele>1017</ele>
        <time>2011-08-18T09:41:58Z</time>
      </trkpt>
      <trkpt lat="44.11123" lon="6.32719">
        <ele>1017</ele>
        <time>2011-08-18T09:42:13Z</time>
      </trkpt>
      <trkpt lat="44.11121" lon="6.32722">
        <ele>1017</ele>
        <time>2011-08-18T09:42:17Z</time>
      </trkpt>
      <trkpt lat="44.11121" lon="6.32726">
        <ele>1017</ele>
        <time>2011-08-18T09:42:23Z</time>
      </trkpt>
      <trkpt lat="44.1112" lon="6.32732">
        <ele>1018</ele>
        <time>2011-08-18T09:42:29Z</time>
      </trkpt>
      <trkpt lat="44.11119" lon="6.3274">
        <ele>1018</ele>
        <time>2011-08-18T09:42:36Z</time>
      </trkpt>
      <trkpt lat="44.11123" lon="6.32751">
        <ele>1018</ele>
        <time>2011-08-18T09:42:46Z</time>
      </trkpt>
      <trkpt lat="44.11126" lon="6.32759">
        <ele>1018</ele>
        <time>2011-08-18T09:42:51Z</time>
      </trkpt>
      <trkpt lat="44.11135" lon="6.32771">
        <ele>1017</ele>
        <time>2011-08-18T09:43:03Z</time>
      </trkpt>
      <trkpt lat="44.11136" lon="6.32778">
        <ele>1017</ele>
        <time>2011-08-18T09:43:14Z</time>
      </trkpt>
      <trkpt lat="44.11138" lon="6.32781">
        <ele>1017</ele>
        <time>2011-08-18T09:43:16Z</time>
      </trkpt>
      <trkpt lat="44.1115" lon="6.32784">
        <ele>1016</ele>
        <time>2011-08-18T09:43:26Z</time>
      </trkpt>
      <trkpt lat="44.11169" lon="6.32797">
        <ele>1006</ele>
        <time>2011-08-18T09:43:37Z</time>
      </trkpt>
      <trkpt lat="44.11177" lon="6.32811">
        <ele>1007</ele>
        <time>2011-08-18T09:43:43Z</time>
      </trkpt>
      <trkpt lat="44.11184" lon="6.32835">
        <ele>1009</ele>
        <time>2011-08-18T09:43:54Z</time>
      </trkpt>
      <trkpt lat="44.11187" lon="6.32868">
        <ele>1009</ele>
        <time>2011-08-18T09:44:05Z</time>
      </trkpt>
      <trkpt lat="44.11194" lon="6.32904">
        <ele>1011</ele>
        <time>2011-08-18T09:44:16Z</time>
      </trkpt>
      <trkpt lat="44.11199" lon="6.32938">
        <ele>1012</ele>
        <time>2011-08-18T09:44:25Z</time>
      </trkpt>
      <trkpt lat="44.11195" lon="6.32961">
        <ele>1013</ele>
        <time>2011-08-18T09:44:31Z</time>
      </trkpt>
      <trkpt lat="44.11194" lon="6.32975">
        <ele>1014</ele>
        <time>2011-08-18T09:44:37Z</time>
      </trkpt>
      <trkpt lat="44.11188" lon="6.32987">
        <ele>1015</ele>
        <time>2011-08-18T09:44:50Z</time>
      </trkpt>
      <trkpt lat="44.11189" lon="6.32989">
        <ele>1015</ele>
        <time>2011-08-18T09:44:59Z</time>
      </trkpt>
      <trkpt lat="44.11211" lon="6.33006">
        <ele>1018</ele>
        <time>2011-08-18T09:45:10Z</time>
      </trkpt>
      <trkpt lat="44.11219" lon="6.3301">
        <ele>1017</ele>
        <time>2011-08-18T09:45:14Z</time>
      </trkpt>
      <trkpt lat="44.11256" lon="6.33011">
        <ele>1008</ele>
        <time>2011-08-18T09:45:31Z</time>
      </trkpt>
      <trkpt lat="44.11295" lon="6.33018">
        <ele>1008</ele>
        <time>2011-08-18T09:45:44Z</time>
      </trkpt>
      <trkpt lat="44.11332" lon="6.33028">
        <ele>1007</ele>
        <time>2011-08-18T09:45:57Z</time>
      </trkpt>
      <trkpt lat="44.11357" lon="6.3304">
        <ele>1002</ele>
        <time>2011-08-18T09:46:04Z</time>
      </trkpt>
      <trkpt lat="44.11378" lon="6.33055">
        <ele>1002</ele>
        <time>2011-08-18T09:46:09Z</time>
      </trkpt>
      <trkpt lat="44.11413" lon="6.33084">
        <ele>1000</ele>
        <time>2011-08-18T09:46:20Z</time>
      </trkpt>
      <trkpt lat="44.11421" lon="6.33098">
        <ele>998</ele>
        <time>2011-08-18T09:46:23Z</time>
      </trkpt>
      <trkpt lat="44.11464" lon="6.33168">
        <ele>999</ele>
        <time>2011-08-18T09:46:39Z</time>
      </trkpt>
      <trkpt lat="44.11472" lon="6.33186">
        <ele>999</ele>
        <time>2011-08-18T09:46:43Z</time>
      </trkpt>
      <trkpt lat="44.11493" lon="6.33224">
        <ele>998</ele>
        <time>2011-08-18T09:46:53Z</time>
      </trkpt>
      <trkpt lat="44.11504" lon="6.33233">
        <ele>991</ele>
        <time>2011-08-18T09:46:57Z</time>
      </trkpt>
      <trkpt lat="44.1153" lon="6.33279">
        <ele>989</ele>
        <time>2011-08-18T09:47:09Z</time>
      </trkpt>
      <trkpt lat="44.11534" lon="6.33287">
        <ele>988</ele>
        <time>2011-08-18T09:47:11Z</time>
      </trkpt>
      <trkpt lat="44.11557" lon="6.33304">
        <ele>986</ele>
        <time>2011-08-18T09:47:19Z</time>
      </trkpt>
      <trkpt lat="44.11572" lon="6.33302">
        <ele>985</ele>
        <time>2011-08-18T09:47:26Z</time>
      </trkpt>
      <trkpt lat="44.116" lon="6.33306">
        <ele>977</ele>
        <time>2011-08-18T09:47:34Z</time>
      </trkpt>
      <trkpt lat="44.11621" lon="6.33294">
        <ele>975</ele>
        <time>2011-08-18T09:47:43Z</time>
      </trkpt>
      <trkpt lat="44.1163" lon="6.33288">
        <ele>975</ele>
        <time>2011-08-18T09:47:47Z</time>
      </trkpt>
      <trkpt lat="44.11637" lon="6.33279">
        <ele>974</ele>
        <time>2011-08-18T09:47:56Z</time>
      </trkpt>
      <trkpt lat="44.11638" lon="6.33284">
        <ele>974</ele>
        <time>2011-08-18T09:48:05Z</time>
      </trkpt>
      <trkpt lat="44.11637" lon="6.33289">
        <ele>974</ele>
        <time>2011-08-18T09:48:10Z</time>
      </trkpt>
      <trkpt lat="44.11635" lon="6.33299">
        <ele>974</ele>
        <time>2011-08-18T09:48:24Z</time>
      </trkpt>
      <trkpt lat="44.11635" lon="6.33299">
        <ele>974</ele>
        <time>2011-08-18T09:48:26Z</time>
      </trkpt>
      <trkpt lat="44.11638" lon="6.33302">
        <ele>974</ele>
        <time>2011-08-18T09:48:29Z</time>
      </trkpt>
      <trkpt lat="44.11654" lon="6.33308">
        <ele>973</ele>
        <time>2011-08-18T09:48:35Z</time>
      </trkpt>
      <trkpt lat="44.11667" lon="6.33309">
        <ele>967</ele>
        <time>2011-08-18T09:48:38Z</time>
      </trkpt>
      <trkpt lat="44.11696" lon="6.33335">
        <ele>970</ele>
        <time>2011-08-18T09:48:50Z</time>
      </trkpt>
      <trkpt lat="44.11699" lon="6.33336">
        <ele>970</ele>
        <time>2011-08-18T09:48:51Z</time>
      </trkpt>
      <trkpt lat="44.11722" lon="6.33333">
        <ele>968</ele>
        <time>2011-08-18T09:48:56Z</time>
      </trkpt>
      <trkpt lat="44.11742" lon="6.33342">
        <ele>965</ele>
        <time>2011-08-18T09:49:02Z</time>
      </trkpt>
      <trkpt lat="44.11759" lon="6.33344">
        <ele>960</ele>
        <time>2011-08-18T09:49:06Z</time>
      </trkpt>
      <trkpt lat="44.11796" lon="6.3334">
        <ele>957</ele>
        <time>2011-08-18T09:49:15Z</time>
      </trkpt>
      <trkpt lat="44.11835" lon="6.33332">
        <ele>950</ele>
        <time>2011-08-18T09:49:23Z</time>
      </trkpt>
      <trkpt lat="44.1185" lon="6.33322">
        <ele>947</ele>
        <time>2011-08-18T09:49:27Z</time>
      </trkpt>
      <trkpt lat="44.11869" lon="6.33337">
        <ele>948</ele>
        <time>2011-08-18T09:49:34Z</time>
      </trkpt>
      <trkpt lat="44.11887" lon="6.33347">
        <ele>947</ele>
        <time>2011-08-18T09:49:38Z</time>
      </trkpt>
      <trkpt lat="44.1191" lon="6.33355">
        <ele>946</ele>
        <time>2011-08-18T09:49:42Z</time>
      </trkpt>
      <trkpt lat="44.1196" lon="6.33403">
        <ele>941</ele>
        <time>2011-08-18T09:49:51Z</time>
      </trkpt>
      <trkpt lat="44.11976" lon="6.3342">
        <ele>943</ele>
        <time>2011-08-18T09:49:54Z</time>
      </trkpt>
      <trkpt lat="44.12009" lon="6.33433">
        <ele>944</ele>
        <time>2011-08-18T09:50:03Z</time>
      </trkpt>
      <trkpt lat="44.12036" lon="6.33437">
        <ele>946</ele>
        <time>2011-08-18T09:50:14Z</time>
      </trkpt>
      <trkpt lat="44.12069" lon="6.33437">
        <ele>947</ele>
        <time>2011-08-18T09:50:28Z</time>
      </trkpt>
      <trkpt lat="44.12095" lon="6.33439">
        <ele>953</ele>
        <time>2011-08-18T09:50:41Z</time>
      </trkpt>
      <trkpt lat="44.12102" lon="6.33443">
        <ele>954</ele>
        <time>2011-08-18T09:50:46Z</time>
      </trkpt>
      <trkpt lat="44.12107" lon="6.33419">
        <ele>953</ele>
        <time>2011-08-18T09:50:56Z</time>
      </trkpt>
      <trkpt lat="44.12117" lon="6.33407">
        <ele>948</ele>
        <time>2011-08-18T09:51:02Z</time>
      </trkpt>
      <trkpt lat="44.12135" lon="6.33398">
        <ele>949</ele>
        <time>2011-08-18T09:51:12Z</time>
      </trkpt>
      <trkpt lat="44.12163" lon="6.33411">
        <ele>955</ele>
        <time>2011-08-18T09:51:30Z</time>
      </trkpt>
      <trkpt lat="44.12185" lon="6.33414">
        <ele>954</ele>
        <time>2011-08-18T09:51:42Z</time>
      </trkpt>
      <trkpt lat="44.12225" lon="6.33428">
        <ele>963</ele>
        <time>2011-08-18T09:52:02Z</time>
      </trkpt>
      <trkpt lat="44.12258" lon="6.33437">
        <ele>964</ele>
        <time>2011-08-18T09:52:18Z</time>
      </trkpt>
      <trkpt lat="44.12281" lon="6.33429">
        <ele>965</ele>
        <time>2011-08-18T09:52:28Z</time>
      </trkpt>
      <trkpt lat="44.12321" lon="6.33422">
        <ele>963</ele>
        <time>2011-08-18T09:52:41Z</time>
      </trkpt>
      <trkpt lat="44.12358" lon="6.33405">
        <ele>955</ele>
        <time>2011-08-18T09:52:52Z</time>
      </trkpt>
      <trkpt lat="44.12369" lon="6.33404">
        <ele>954</ele>
        <time>2011-08-18T09:52:55Z</time>
      </trkpt>
      <trkpt lat="44.12392" lon="6.33417">
        <ele>964</ele>
        <time>2011-08-18T09:53:00Z</time>
      </trkpt>
      <trkpt lat="44.12436" lon="6.33441">
        <ele>964</ele>
        <time>2011-08-18T09:53:12Z</time>
      </trkpt>
      <trkpt lat="44.12444" lon="6.33445">
        <ele>965</ele>
        <time>2011-08-18T09:53:16Z</time>
      </trkpt>
      <trkpt lat="44.1245" lon="6.33455">
        <ele>965</ele>
        <time>2011-08-18T09:53:20Z</time>
      </trkpt>
      <trkpt lat="44.12459" lon="6.33483">
        <ele>965</ele>
        <time>2011-08-18T09:53:25Z</time>
      </trkpt>
      <trkpt lat="44.12466" lon="6.33505">
        <ele>968</ele>
        <time>2011-08-18T09:53:28Z</time>
      </trkpt>
      <trkpt lat="44.12509" lon="6.33561">
        <ele>963</ele>
        <time>2011-08-18T09:53:41Z</time>
      </trkpt>
      <trkpt lat="44.12517" lon="6.33571">
        <ele>964</ele>
        <time>2011-08-18T09:53:44Z</time>
      </trkpt>
      <trkpt lat="44.12526" lon="6.33578">
        <ele>963</ele>
        <time>2011-08-18T09:53:55Z</time>
      </trkpt>
      <trkpt lat="44.12528" lon="6.33581">
        <ele>963</ele>
        <time>2011-08-18T09:54:25Z</time>
      </trkpt>
      <trkpt lat="44.12542" lon="6.33577">
        <ele>962</ele>
        <time>2011-08-18T09:54:41Z</time>
      </trkpt>
      <trkpt lat="44.12543" lon="6.33577">
        <ele>962</ele>
        <time>2011-08-18T09:54:43Z</time>
      </trkpt>
      <trkpt lat="44.12574" lon="6.33583">
        <ele>960</ele>
        <time>2011-08-18T09:54:54Z</time>
      </trkpt>
      <trkpt lat="44.12618" lon="6.33606">
        <ele>961</ele>
        <time>2011-08-18T09:55:08Z</time>
      </trkpt>
      <trkpt lat="44.12649" lon="6.33641">
        <ele>961</ele>
        <time>2011-08-18T09:55:21Z</time>
      </trkpt>
      <trkpt lat="44.12666" lon="6.33658">
        <ele>961</ele>
        <time>2011-08-18T09:55:31Z</time>
      </trkpt>
      <trkpt lat="44.12678" lon="6.33667">
        <ele>961</ele>
        <time>2011-08-18T09:55:37Z</time>
      </trkpt>
      <trkpt lat="44.12695" lon="6.33705">
        <ele>963</ele>
        <time>2011-08-18T09:55:45Z</time>
      </trkpt>
      <trkpt lat="44.12695" lon="6.3374">
        <ele>966</ele>
        <time>2011-08-18T09:55:53Z</time>
      </trkpt>
      <trkpt lat="44.12703" lon="6.33748">
        <ele>966</ele>
        <time>2011-08-18T09:56:02Z</time>
      </trkpt>
      <trkpt lat="44.12719" lon="6.33738">
        <ele>965</ele>
        <time>2011-08-18T09:56:18Z</time>
      </trkpt>
      <trkpt lat="44.12724" lon="6.33732">
        <ele>964</ele>
        <time>2011-08-18T09:56:36Z</time>
      </trkpt>
      <trkpt lat="44.12734" lon="6.33728">
        <ele>964</ele>
        <time>2011-08-18T09:56:46Z</time>
      </trkpt>
      <trkpt lat="44.12751" lon="6.33724">
        <ele>966</ele>
        <time>2011-08-18T09:57:03Z</time>
      </trkpt>
      <trkpt lat="44.12758" lon="6.33724">
        <ele>967</ele>
        <time>2011-08-18T09:57:08Z</time>
      </trkpt>
      <trkpt lat="44.12773" lon="6.33718">
        <ele>967</ele>
        <time>2011-08-18T09:57:16Z</time>
      </trkpt>
      <trkpt lat="44.12782" lon="6.33714">
        <ele>967</ele>
        <time>2011-08-18T09:57:22Z</time>
      </trkpt>
      <trkpt lat="44.128" lon="6.33701">
        <ele>968</ele>
        <time>2011-08-18T09:57:34Z</time>
      </trkpt>
      <trkpt lat="44.12815" lon="6.3369">
        <ele>968</ele>
        <time>2011-08-18T09:57:45Z</time>
      </trkpt>
      <trkpt lat="44.12835" lon="6.33675">
        <ele>970</ele>
        <time>2011-08-18T09:58:00Z</time>
      </trkpt>
      <trkpt lat="44.12851" lon="6.33662">
        <ele>964</ele>
        <time>2011-08-18T09:58:12Z</time>
      </trkpt>
      <trkpt lat="44.12877" lon="6.33638">
        <ele>964</ele>
        <time>2011-08-18T09:58:33Z</time>
      </trkpt>
      <trkpt lat="44.12885" lon="6.33635">
        <ele>964</ele>
        <time>2011-08-18T09:58:41Z</time>
      </trkpt>
      <trkpt lat="44.12888" lon="6.33636">
        <ele>964</ele>
        <time>2011-08-18T09:58:44Z</time>
      </trkpt>
      <trkpt lat="44.12914" lon="6.33656">
        <ele>973</ele>
        <time>2011-08-18T09:58:59Z</time>
      </trkpt>
      <trkpt lat="44.12919" lon="6.33663">
        <ele>978</ele>
        <time>2011-08-18T09:59:01Z</time>
      </trkpt>
      <trkpt lat="44.12938" lon="6.33646">
        <ele>974</ele>
        <time>2011-08-18T09:59:11Z</time>
      </trkpt>
      <trkpt lat="44.12962" lon="6.33616">
        <ele>971</ele>
        <time>2011-08-18T09:59:22Z</time>
      </trkpt>
      <trkpt lat="44.12975" lon="6.3361">
        <ele>971</ele>
        <time>2011-08-18T09:59:26Z</time>
      </trkpt>
      <trkpt lat="44.12991" lon="6.33612">
        <ele>972</ele>
        <time>2011-08-18T09:59:31Z</time>
      </trkpt>
      <trkpt lat="44.13008" lon="6.33614">
        <ele>972</ele>
        <time>2011-08-18T09:59:37Z</time>
      </trkpt>
      <trkpt lat="44.13022" lon="6.33612">
        <ele>972</ele>
        <time>2011-08-18T09:59:41Z</time>
      </trkpt>
      <trkpt lat="44.1305" lon="6.3363">
        <ele>972</ele>
        <time>2011-08-18T09:59:47Z</time>
      </trkpt>
      <trkpt lat="44.13068" lon="6.33647">
        <ele>971</ele>
        <time>2011-08-18T09:59:50Z</time>
      </trkpt>
      <trkpt lat="44.13099" lon="6.33651">
        <ele>967</ele>
        <time>2011-08-18T09:59:56Z</time>
      </trkpt>
      <trkpt lat="44.13107" lon="6.33647">
        <ele>967</ele>
        <time>2011-08-18T09:59:58Z</time>
      </trkpt>
      <trkpt lat="44.13133" lon="6.33655">
        <ele>965</ele>
        <time>2011-08-18T10:00:04Z</time>
      </trkpt>
      <trkpt lat="44.13167" lon="6.33685">
        <ele>962</ele>
        <time>2011-08-18T10:00:10Z</time>
      </trkpt>
      <trkpt lat="44.13205" lon="6.33704">
        <ele>961</ele>
        <time>2011-08-18T10:00:15Z</time>
      </trkpt>
      <trkpt lat="44.13246" lon="6.33698">
        <ele>958</ele>
        <time>2011-08-18T10:00:20Z</time>
      </trkpt>
      <trkpt lat="44.1328" lon="6.33689">
        <ele>951</ele>
        <time>2011-08-18T10:00:24Z</time>
      </trkpt>
      <trkpt lat="44.13366" lon="6.33689">
        <ele>941</ele>
        <time>2011-08-18T10:00:35Z</time>
      </trkpt>
      <trkpt lat="44.13373" lon="6.33689">
        <ele>941</ele>
        <time>2011-08-18T10:00:36Z</time>
      </trkpt>
      <trkpt lat="44.13421" lon="6.33691">
        <ele>932</ele>
        <time>2011-08-18T10:00:45Z</time>
      </trkpt>
      <trkpt lat="44.13423" lon="6.33699">
        <ele>932</ele>
        <time>2011-08-18T10:00:49Z</time>
      </trkpt>
      <trkpt lat="44.13428" lon="6.33764">
        <ele>928</ele>
        <time>2011-08-18T10:01:07Z</time>
      </trkpt>
      <trkpt lat="44.1341" lon="6.33809">
        <ele>932</ele>
        <time>2011-08-18T10:01:19Z</time>
      </trkpt>
      <trkpt lat="44.13381" lon="6.33845">
        <ele>921</ele>
        <time>2011-08-18T10:01:30Z</time>
      </trkpt>
      <trkpt lat="44.1336" lon="6.33883">
        <ele>918</ele>
        <time>2011-08-18T10:01:42Z</time>
      </trkpt>
      <trkpt lat="44.13357" lon="6.33899">
        <ele>916</ele>
        <time>2011-08-18T10:01:47Z</time>
      </trkpt>
      <trkpt lat="44.13344" lon="6.33917">
        <ele>907</ele>
        <time>2011-08-18T10:01:51Z</time>
      </trkpt>
      <trkpt lat="44.13324" lon="6.33934">
        <ele>912</ele>
        <time>2011-08-18T10:01:56Z</time>
      </trkpt>
      <trkpt lat="44.13307" lon="6.33962">
        <ele>910</ele>
        <time>2011-08-18T10:02:04Z</time>
      </trkpt>
      <trkpt lat="44.13284" lon="6.33994">
        <ele>910</ele>
        <time>2011-08-18T10:02:12Z</time>
      </trkpt>
      <trkpt lat="44.13269" lon="6.34037">
        <ele>894</ele>
        <time>2011-08-18T10:02:22Z</time>
      </trkpt>
      <trkpt lat="44.13267" lon="6.34058">
        <ele>891</ele>
        <time>2011-08-18T10:02:26Z</time>
      </trkpt>
      <trkpt lat="44.13263" lon="6.34092">
        <ele>882</ele>
        <time>2011-08-18T10:02:34Z</time>
      </trkpt>
      <trkpt lat="44.13255" lon="6.34128">
        <ele>877</ele>
        <time>2011-08-18T10:02:40Z</time>
      </trkpt>
      <trkpt lat="44.13248" lon="6.3416">
        <ele>879</ele>
        <time>2011-08-18T10:02:47Z</time>
      </trkpt>
      <trkpt lat="44.13259" lon="6.34164">
        <ele>874</ele>
        <time>2011-08-18T10:02:52Z</time>
      </trkpt>
      <trkpt lat="44.13276" lon="6.3416">
        <ele>874</ele>
        <time>2011-08-18T10:02:57Z</time>
      </trkpt>
      <trkpt lat="44.1329" lon="6.34155">
        <ele>874</ele>
        <time>2011-08-18T10:03:00Z</time>
      </trkpt>
      <trkpt lat="44.13315" lon="6.34162">
        <ele>871</ele>
        <time>2011-08-18T10:03:05Z</time>
      </trkpt>
      <trkpt lat="44.13332" lon="6.34165">
        <ele>867</ele>
        <time>2011-08-18T10:03:08Z</time>
      </trkpt>
      <trkpt lat="44.13347" lon="6.3418">
        <ele>864</ele>
        <time>2011-08-18T10:03:13Z</time>
      </trkpt>
      <trkpt lat="44.13352" lon="6.34196">
        <ele>864</ele>
        <time>2011-08-18T10:03:16Z</time>
      </trkpt>
      <trkpt lat="44.13365" lon="6.34213">
        <ele>864</ele>
        <time>2011-08-18T10:03:21Z</time>
      </trkpt>
      <trkpt lat="44.13407" lon="6.34233">
        <ele>864</ele>
        <time>2011-08-18T10:03:38Z</time>
      </trkpt>
      <trkpt lat="44.13422" lon="6.34241">
        <ele>863</ele>
        <time>2011-08-18T10:03:46Z</time>
      </trkpt>
      <trkpt lat="44.13427" lon="6.34241">
        <ele>863</ele>
        <time>2011-08-18T10:04:02Z</time>
      </trkpt>
      <trkpt lat="44.13426" lon="6.34242">
        <ele>863</ele>
        <time>2011-08-18T10:04:26Z</time>
      </trkpt>
      <trkpt lat="44.13428" lon="6.34247">
        <ele>863</ele>
        <time>2011-08-18T10:04:30Z</time>
      </trkpt>
      <trkpt lat="44.13454" lon="6.3427">
        <ele>867</ele>
        <time>2011-08-18T10:04:45Z</time>
      </trkpt>
      <trkpt lat="44.13447" lon="6.34291">
        <ele>867</ele>
        <time>2011-08-18T10:04:58Z</time>
      </trkpt>
      <trkpt lat="44.13445" lon="6.34292">
        <ele>867</ele>
        <time>2011-08-18T10:05:49Z</time>
      </trkpt>
      <trkpt lat="44.13445" lon="6.34292">
        <ele>867</ele>
        <time>2011-08-18T10:06:18Z</time>
      </trkpt>
    </trkseg>
  </trk>
  <trk>
    <name><![CDATA[ACTIVE LOG122315]]></name>
    <trkseg>
      <trkpt lat="44.13445" lon="6.34292">
        <ele>867</ele>
        <time>2011-08-18T10:23:14Z</time>
      </trkpt>
      <trkpt lat="44.13445" lon="6.34291">
        <ele>867</ele>
        <time>2011-08-18T10:23:26Z</time>
      </trkpt>
      <trkpt lat="44.13449" lon="6.34317">
        <ele>868</ele>
        <time>2011-08-18T10:23:37Z</time>
      </trkpt>
      <trkpt lat="44.13452" lon="6.34327">
        <ele>868</ele>
        <time>2011-08-18T10:23:41Z</time>
      </trkpt>
      <trkpt lat="44.13435" lon="6.34363">
        <ele>870</ele>
        <time>2011-08-18T10:23:55Z</time>
      </trkpt>
      <trkpt lat="44.13429" lon="6.34373">
        <ele>870</ele>
        <time>2011-08-18T10:23:59Z</time>
      </trkpt>
      <trkpt lat="44.13395" lon="6.34411">
        <ele>872</ele>
        <time>2011-08-18T10:24:16Z</time>
      </trkpt>
      <trkpt lat="44.13368" lon="6.34442">
        <ele>872</ele>
        <time>2011-08-18T10:24:31Z</time>
      </trkpt>
      <trkpt lat="44.13341" lon="6.34486">
        <ele>872</ele>
        <time>2011-08-18T10:24:41Z</time>
      </trkpt>
      <trkpt lat="44.13315" lon="6.34531">
        <ele>875</ele>
        <time>2011-08-18T10:24:48Z</time>
      </trkpt>
      <trkpt lat="44.13277" lon="6.34539">
        <ele>876</ele>
        <time>2011-08-18T10:24:55Z</time>
      </trkpt>
      <trkpt lat="44.13265" lon="6.34534">
        <ele>876</ele>
        <time>2011-08-18T10:24:57Z</time>
      </trkpt>
      <trkpt lat="44.13254" lon="6.3454">
        <ele>877</ele>
        <time>2011-08-18T10:25:01Z</time>
      </trkpt>
      <trkpt lat="44.13258" lon="6.34572">
        <ele>877</ele>
        <time>2011-08-18T10:25:14Z</time>
      </trkpt>
      <trkpt lat="44.13294" lon="6.34621">
        <ele>882</ele>
        <time>2011-08-18T10:25:36Z</time>
      </trkpt>
      <trkpt lat="44.13319" lon="6.34608">
        <ele>880</ele>
        <time>2011-08-18T10:25:47Z</time>
      </trkpt>
      <trkpt lat="44.13345" lon="6.34587">
        <ele>877</ele>
        <time>2011-08-18T10:26:02Z</time>
      </trkpt>
      <trkpt lat="44.13375" lon="6.34607">
        <ele>880</ele>
        <time>2011-08-18T10:26:19Z</time>
      </trkpt>
      <trkpt lat="44.13389" lon="6.34613">
        <ele>880</ele>
        <time>2011-08-18T10:26:27Z</time>
      </trkpt>
      <trkpt lat="44.13398" lon="6.34618">
        <ele>880</ele>
        <time>2011-08-18T10:26:32Z</time>
      </trkpt>
      <trkpt lat="44.13425" lon="6.3465">
        <ele>880</ele>
        <time>2011-08-18T10:26:52Z</time>
      </trkpt>
      <trkpt lat="44.13435" lon="6.34705">
        <ele>886</ele>
        <time>2011-08-18T10:27:14Z</time>
      </trkpt>
      <trkpt lat="44.13445" lon="6.34747">
        <ele>889</ele>
        <time>2011-08-18T10:27:34Z</time>
      </trkpt>
      <trkpt lat="44.13452" lon="6.34778">
        <ele>897</ele>
        <time>2011-08-18T10:27:53Z</time>
      </trkpt>
      <trkpt lat="44.13455" lon="6.3479">
        <ele>897</ele>
        <time>2011-08-18T10:28:06Z</time>
      </trkpt>
      <trkpt lat="44.1346" lon="6.34805">
        <ele>898</ele>
        <time>2011-08-18T10:28:17Z</time>
      </trkpt>
      <trkpt lat="44.13465" lon="6.34829">
        <ele>898</ele>
        <time>2011-08-18T10:28:35Z</time>
      </trkpt>
      <trkpt lat="44.13468" lon="6.34835">
        <ele>906</ele>
        <time>2011-08-18T10:28:50Z</time>
      </trkpt>
      <trkpt lat="44.13472" lon="6.34847">
        <ele>906</ele>
        <time>2011-08-18T10:29:04Z</time>
      </trkpt>
      <trkpt lat="44.13484" lon="6.34875">
        <ele>908</ele>
        <time>2011-08-18T10:29:19Z</time>
      </trkpt>
      <trkpt lat="44.13493" lon="6.34896">
        <ele>908</ele>
        <time>2011-08-18T10:29:30Z</time>
      </trkpt>
      <trkpt lat="44.13485" lon="6.34913">
        <ele>909</ele>
        <time>2011-08-18T10:29:40Z</time>
      </trkpt>
      <trkpt lat="44.13458" lon="6.34893">
        <ele>911</ele>
        <time>2011-08-18T10:29:58Z</time>
      </trkpt>
      <trkpt lat="44.13433" lon="6.34871">
        <ele>913</ele>
        <time>2011-08-18T10:30:16Z</time>
      </trkpt>
      <trkpt lat="44.13422" lon="6.34863">
        <ele>913</ele>
        <time>2011-08-18T10:30:23Z</time>
      </trkpt>
      <trkpt lat="44.13384" lon="6.34864">
        <ele>919</ele>
        <time>2011-08-18T10:30:46Z</time>
      </trkpt>
      <trkpt lat="44.13376" lon="6.34866">
        <ele>919</ele>
        <time>2011-08-18T10:31:01Z</time>
      </trkpt>
      <trkpt lat="44.1336" lon="6.34885">
        <ele>920</ele>
        <time>2011-08-18T10:31:15Z</time>
      </trkpt>
      <trkpt lat="44.13376" lon="6.34914">
        <ele>921</ele>
        <time>2011-08-18T10:31:31Z</time>
      </trkpt>
      <trkpt lat="44.13397" lon="6.3496">
        <ele>929</ele>
        <time>2011-08-18T10:31:54Z</time>
      </trkpt>
      <trkpt lat="44.13395" lon="6.35">
        <ele>936</ele>
        <time>2011-08-18T10:32:11Z</time>
      </trkpt>
      <trkpt lat="44.13384" lon="6.35038">
        <ele>939</ele>
        <time>2011-08-18T10:32:28Z</time>
      </trkpt>
      <trkpt lat="44.1338" lon="6.35055">
        <ele>940</ele>
        <time>2011-08-18T10:32:35Z</time>
      </trkpt>
      <trkpt lat="44.13378" lon="6.35064">
        <ele>940</ele>
        <time>2011-08-18T10:32:39Z</time>
      </trkpt>
      <trkpt lat="44.13381" lon="6.35109">
        <ele>947</ele>
        <time>2011-08-18T10:32:56Z</time>
      </trkpt>
      <trkpt lat="44.13397" lon="6.35153">
        <ele>947</ele>
        <time>2011-08-18T10:33:11Z</time>
      </trkpt>
      <trkpt lat="44.13421" lon="6.35197">
        <ele>940</ele>
        <time>2011-08-18T10:33:28Z</time>
      </trkpt>
      <trkpt lat="44.13439" lon="6.35247">
        <ele>942</ele>
        <time>2011-08-18T10:33:47Z</time>
      </trkpt>
      <trkpt lat="44.13429" lon="6.35288">
        <ele>943</ele>
        <time>2011-08-18T10:34:02Z</time>
      </trkpt>
      <trkpt lat="44.13403" lon="6.35308">
        <ele>957</ele>
        <time>2011-08-18T10:34:18Z</time>
      </trkpt>
      <trkpt lat="44.13398" lon="6.35311">
        <ele>957</ele>
        <time>2011-08-18T10:34:21Z</time>
      </trkpt>
      <trkpt lat="44.13391" lon="6.35328">
        <ele>957</ele>
        <time>2011-08-18T10:34:28Z</time>
      </trkpt>
      <trkpt lat="44.13386" lon="6.35386">
        <ele>961</ele>
        <time>2011-08-18T10:34:51Z</time>
      </trkpt>
      <trkpt lat="44.13391" lon="6.35419">
        <ele>957</ele>
        <time>2011-08-18T10:35:05Z</time>
      </trkpt>
      <trkpt lat="44.13375" lon="6.35441">
        <ele>959</ele>
        <time>2011-08-18T10:35:21Z</time>
      </trkpt>
      <trkpt lat="44.1334" lon="6.35435">
        <ele>966</ele>
        <time>2011-08-18T10:35:41Z</time>
      </trkpt>
      <trkpt lat="44.13306" lon="6.35445">
        <ele>976</ele>
        <time>2011-08-18T10:36:00Z</time>
      </trkpt>
      <trkpt lat="44.13271" lon="6.35458">
        <ele>979</ele>
        <time>2011-08-18T10:36:21Z</time>
      </trkpt>
      <trkpt lat="44.13246" lon="6.35439">
        <ele>989</ele>
        <time>2011-08-18T10:36:37Z</time>
      </trkpt>
      <trkpt lat="44.13226" lon="6.35415">
        <ele>986</ele>
        <time>2011-08-18T10:36:53Z</time>
      </trkpt>
      <trkpt lat="44.13184" lon="6.35377">
        <ele>989</ele>
        <time>2011-08-18T10:37:20Z</time>
      </trkpt>
      <trkpt lat="44.13144" lon="6.35368">
        <ele>992</ele>
        <time>2011-08-18T10:37:42Z</time>
      </trkpt>
      <trkpt lat="44.13106" lon="6.3537">
        <ele>993</ele>
        <time>2011-08-18T10:37:58Z</time>
      </trkpt>
      <trkpt lat="44.13077" lon="6.35383">
        <ele>994</ele>
        <time>2011-08-18T10:38:12Z</time>
      </trkpt>
      <trkpt lat="44.1305" lon="6.3543">
        <ele>1002</ele>
        <time>2011-08-18T10:38:29Z</time>
      </trkpt>
      <trkpt lat="44.13022" lon="6.3547">
        <ele>1003</ele>
        <time>2011-08-18T10:38:46Z</time>
      </trkpt>
      <trkpt lat="44.12998" lon="6.35509">
        <ele>1008</ele>
        <time>2011-08-18T10:39:02Z</time>
      </trkpt>
      <trkpt lat="44.12965" lon="6.35525">
        <ele>1012</ele>
        <time>2011-08-18T10:39:18Z</time>
      </trkpt>
      <trkpt lat="44.12948" lon="6.3552">
        <ele>1013</ele>
        <time>2011-08-18T10:39:30Z</time>
      </trkpt>
      <trkpt lat="44.12932" lon="6.35513">
        <ele>1012</ele>
        <time>2011-08-18T10:39:47Z</time>
      </trkpt>
      <trkpt lat="44.12898" lon="6.35484">
        <ele>1013</ele>
        <time>2011-08-18T10:40:04Z</time>
      </trkpt>
      <trkpt lat="44.12871" lon="6.35487">
        <ele>1015</ele>
        <time>2011-08-18T10:40:16Z</time>
      </trkpt>
      <trkpt lat="44.12868" lon="6.35486">
        <ele>1015</ele>
        <time>2011-08-18T10:40:17Z</time>
      </trkpt>
      <trkpt lat="44.12862" lon="6.35462">
        <ele>1015</ele>
        <time>2011-08-18T10:40:24Z</time>
      </trkpt>
      <trkpt lat="44.12868" lon="6.35412">
        <ele>1015</ele>
        <time>2011-08-18T10:40:40Z</time>
      </trkpt>
      <trkpt lat="44.12868" lon="6.35409">
        <ele>1015</ele>
        <time>2011-08-18T10:40:41Z</time>
      </trkpt>
      <trkpt lat="44.12849" lon="6.35366">
        <ele>1016</ele>
        <time>2011-08-18T10:40:59Z</time>
      </trkpt>
      <trkpt lat="44.12825" lon="6.35336">
        <ele>1022</ele>
        <time>2011-08-18T10:41:19Z</time>
      </trkpt>
      <trkpt lat="44.12807" lon="6.3535">
        <ele>1024</ele>
        <time>2011-08-18T10:41:34Z</time>
      </trkpt>
      <trkpt lat="44.128" lon="6.35359">
        <ele>1025</ele>
        <time>2011-08-18T10:41:40Z</time>
      </trkpt>
      <trkpt lat="44.12759" lon="6.3536">
        <ele>1027</ele>
        <time>2011-08-18T10:42:01Z</time>
      </trkpt>
      <trkpt lat="44.12722" lon="6.35341">
        <ele>1029</ele>
        <time>2011-08-18T10:42:22Z</time>
      </trkpt>
      <trkpt lat="44.12718" lon="6.35346">
        <ele>1030</ele>
        <time>2011-08-18T10:42:25Z</time>
      </trkpt>
      <trkpt lat="44.12719" lon="6.35368">
        <ele>1031</ele>
        <time>2011-08-18T10:42:40Z</time>
      </trkpt>
      <trkpt lat="44.12717" lon="6.35393">
        <ele>1033</ele>
        <time>2011-08-18T10:43:01Z</time>
      </trkpt>
      <trkpt lat="44.12713" lon="6.35415">
        <ele>1033</ele>
        <time>2011-08-18T10:43:21Z</time>
      </trkpt>
      <trkpt lat="44.12705" lon="6.35462">
        <ele>1040</ele>
        <time>2011-08-18T10:43:42Z</time>
      </trkpt>
      <trkpt lat="44.12703" lon="6.35503">
        <ele>1043</ele>
        <time>2011-08-18T10:44:03Z</time>
      </trkpt>
      <trkpt lat="44.12677" lon="6.35496">
        <ele>1046</ele>
        <time>2011-08-18T10:44:19Z</time>
      </trkpt>
      <trkpt lat="44.12656" lon="6.35482">
        <ele>1048</ele>
        <time>2011-08-18T10:44:36Z</time>
      </trkpt>
      <trkpt lat="44.1265" lon="6.3549">
        <ele>1049</ele>
        <time>2011-08-18T10:44:41Z</time>
      </trkpt>
      <trkpt lat="44.12643" lon="6.35515">
        <ele>1054</ele>
        <time>2011-08-18T10:44:52Z</time>
      </trkpt>
      <trkpt lat="44.12639" lon="6.35533">
        <ele>1055</ele>
        <time>2011-08-18T10:45:00Z</time>
      </trkpt>
      <trkpt lat="44.12638" lon="6.35537">
        <ele>1055</ele>
        <time>2011-08-18T10:45:02Z</time>
      </trkpt>
      <trkpt lat="44.12626" lon="6.35575">
        <ele>1057</ele>
        <time>2011-08-18T10:45:20Z</time>
      </trkpt>
      <trkpt lat="44.12606" lon="6.35612">
        <ele>1058</ele>
        <time>2011-08-18T10:45:42Z</time>
      </trkpt>
      <trkpt lat="44.12584" lon="6.35633">
        <ele>1059</ele>
        <time>2011-08-18T10:46:01Z</time>
      </trkpt>
      <trkpt lat="44.12555" lon="6.35656">
        <ele>1071</ele>
        <time>2011-08-18T10:46:21Z</time>
      </trkpt>
      <trkpt lat="44.12543" lon="6.35676">
        <ele>1077</ele>
        <time>2011-08-18T10:46:31Z</time>
      </trkpt>
      <trkpt lat="44.12547" lon="6.35711">
        <ele>1078</ele>
        <time>2011-08-18T10:46:44Z</time>
      </trkpt>
      <trkpt lat="44.12573" lon="6.35725">
        <ele>1075</ele>
        <time>2011-08-18T10:46:59Z</time>
      </trkpt>
      <trkpt lat="44.1259" lon="6.35745">
        <ele>1068</ele>
        <time>2011-08-18T10:47:11Z</time>
      </trkpt>
      <trkpt lat="44.12589" lon="6.3576">
        <ele>1069</ele>
        <time>2011-08-18T10:47:16Z</time>
      </trkpt>
      <trkpt lat="44.12573" lon="6.35803">
        <ele>1082</ele>
        <time>2011-08-18T10:47:32Z</time>
      </trkpt>
      <trkpt lat="44.12565" lon="6.35824">
        <ele>1082</ele>
        <time>2011-08-18T10:47:38Z</time>
      </trkpt>
      <trkpt lat="44.12559" lon="6.35843">
        <ele>1085</ele>
        <time>2011-08-18T10:47:44Z</time>
      </trkpt>
      <trkpt lat="44.12564" lon="6.35903">
        <ele>1085</ele>
        <time>2011-08-18T10:47:59Z</time>
      </trkpt>
      <trkpt lat="44.12539" lon="6.35935">
        <ele>1091</ele>
        <time>2011-08-18T10:48:14Z</time>
      </trkpt>
      <trkpt lat="44.12513" lon="6.35977">
        <ele>1093</ele>
        <time>2011-08-18T10:48:30Z</time>
      </trkpt>
      <trkpt lat="44.12517" lon="6.36027">
        <ele>1093</ele>
        <time>2011-08-18T10:48:44Z</time>
      </trkpt>
      <trkpt lat="44.1252" lon="6.36092">
        <ele>1095</ele>
        <time>2011-08-18T10:49:01Z</time>
      </trkpt>
      <trkpt lat="44.12539" lon="6.36131">
        <ele>1094</ele>
        <time>2011-08-18T10:49:14Z</time>
      </trkpt>
      <trkpt lat="44.12546" lon="6.36153">
        <ele>1094</ele>
        <time>2011-08-18T10:49:26Z</time>
      </trkpt>
      <trkpt lat="44.12556" lon="6.36193">
        <ele>1098</ele>
        <time>2011-08-18T10:49:43Z</time>
      </trkpt>
      <trkpt lat="44.12573" lon="6.36249">
        <ele>1096</ele>
        <time>2011-08-18T10:50:08Z</time>
      </trkpt>
      <trkpt lat="44.12572" lon="6.3625">
        <ele>1099</ele>
        <time>2011-08-18T10:50:42Z</time>
      </trkpt>
      <trkpt lat="44.12568" lon="6.36301">
        <ele>1107</ele>
        <time>2011-08-18T10:51:01Z</time>
      </trkpt>
      <trkpt lat="44.12573" lon="6.36344">
        <ele>1107</ele>
        <time>2011-08-18T10:51:18Z</time>
      </trkpt>
      <trkpt lat="44.12577" lon="6.36368">
        <ele>1112</ele>
        <time>2011-08-18T10:51:26Z</time>
      </trkpt>
      <trkpt lat="44.12589" lon="6.36403">
        <ele>1096</ele>
        <time>2011-08-18T10:51:39Z</time>
      </trkpt>
      <trkpt lat="44.12584" lon="6.36417">
        <ele>1106</ele>
        <time>2011-08-18T10:51:44Z</time>
      </trkpt>
      <trkpt lat="44.12557" lon="6.36446">
        <ele>1118</ele>
        <time>2011-08-18T10:51:59Z</time>
      </trkpt>
      <trkpt lat="44.1253" lon="6.36477">
        <ele>1123</ele>
        <time>2011-08-18T10:52:14Z</time>
      </trkpt>
      <trkpt lat="44.12531" lon="6.3649">
        <ele>1123</ele>
        <time>2011-08-18T10:52:18Z</time>
      </trkpt>
      <trkpt lat="44.1255" lon="6.36532">
        <ele>1129</ele>
        <time>2011-08-18T10:52:35Z</time>
      </trkpt>
      <trkpt lat="44.12573" lon="6.36578">
        <ele>1129</ele>
        <time>2011-08-18T10:52:57Z</time>
      </trkpt>
      <trkpt lat="44.12577" lon="6.3659">
        <ele>1132</ele>
        <time>2011-08-18T10:53:02Z</time>
      </trkpt>
      <trkpt lat="44.12585" lon="6.36614">
        <ele>1121</ele>
        <time>2011-08-18T10:53:13Z</time>
      </trkpt>
      <trkpt lat="44.12592" lon="6.36637">
        <ele>1122</ele>
        <time>2011-08-18T10:53:25Z</time>
      </trkpt>
      <trkpt lat="44.12596" lon="6.3665">
        <ele>1124</ele>
        <time>2011-08-18T10:53:31Z</time>
      </trkpt>
      <trkpt lat="44.12594" lon="6.36671">
        <ele>1128</ele>
        <time>2011-08-18T10:53:42Z</time>
      </trkpt>
      <trkpt lat="44.12577" lon="6.3669">
        <ele>1140</ele>
        <time>2011-08-18T10:53:58Z</time>
      </trkpt>
      <trkpt lat="44.12564" lon="6.36705">
        <ele>1141</ele>
        <time>2011-08-18T10:54:09Z</time>
      </trkpt>
      <trkpt lat="44.12563" lon="6.36711">
        <ele>1141</ele>
        <time>2011-08-18T10:54:12Z</time>
      </trkpt>
      <trkpt lat="44.1254" lon="6.36745">
        <ele>1144</ele>
        <time>2011-08-18T10:54:35Z</time>
      </trkpt>
      <trkpt lat="44.12539" lon="6.36744">
        <ele>1144</ele>
        <time>2011-08-18T10:54:52Z</time>
      </trkpt>
      <trkpt lat="44.12533" lon="6.3675">
        <ele>1145</ele>
        <time>2011-08-18T10:59:38Z</time>
      </trkpt>
      <trkpt lat="44.12509" lon="6.3678">
        <ele>1143</ele>
        <time>2011-08-18T10:59:58Z</time>
      </trkpt>
      <trkpt lat="44.12491" lon="6.36795">
        <ele>1160</ele>
        <time>2011-08-18T11:00:14Z</time>
      </trkpt>
      <trkpt lat="44.12464" lon="6.36798">
        <ele>1163</ele>
        <time>2011-08-18T11:00:32Z</time>
      </trkpt>
      <trkpt lat="44.12444" lon="6.36825">
        <ele>1166</ele>
        <time>2011-08-18T11:00:50Z</time>
      </trkpt>
      <trkpt lat="44.12422" lon="6.36843">
        <ele>1168</ele>
        <time>2011-08-18T11:01:07Z</time>
      </trkpt>
      <trkpt lat="44.12414" lon="6.36855">
        <ele>1180</ele>
        <time>2011-08-18T11:01:14Z</time>
      </trkpt>
      <trkpt lat="44.12416" lon="6.36892">
        <ele>1180</ele>
        <time>2011-08-18T11:01:33Z</time>
      </trkpt>
      <trkpt lat="44.12413" lon="6.36948">
        <ele>1182</ele>
        <time>2011-08-18T11:01:57Z</time>
      </trkpt>
      <trkpt lat="44.12404" lon="6.36986">
        <ele>1181</ele>
        <time>2011-08-18T11:02:15Z</time>
      </trkpt>
      <trkpt lat="44.12401" lon="6.36997">
        <ele>1181</ele>
        <time>2011-08-18T11:02:20Z</time>
      </trkpt>
      <trkpt lat="44.12394" lon="6.37048">
        <ele>1188</ele>
        <time>2011-08-18T11:02:44Z</time>
      </trkpt>
      <trkpt lat="44.12388" lon="6.37081">
        <ele>1188</ele>
        <time>2011-08-18T11:02:58Z</time>
      </trkpt>
      <trkpt lat="44.12385" lon="6.37115">
        <ele>1191</ele>
        <time>2011-08-18T11:03:16Z</time>
      </trkpt>
      <trkpt lat="44.12386" lon="6.37119">
        <ele>1191</ele>
        <time>2011-08-18T11:03:18Z</time>
      </trkpt>
      <trkpt lat="44.12384" lon="6.37128">
        <ele>1191</ele>
        <time>2011-08-18T11:03:23Z</time>
      </trkpt>
      <trkpt lat="44.1238" lon="6.37151">
        <ele>1192</ele>
        <time>2011-08-18T11:03:35Z</time>
      </trkpt>
      <trkpt lat="44.12378" lon="6.37175">
        <ele>1189</ele>
        <time>2011-08-18T11:03:45Z</time>
      </trkpt>
      <trkpt lat="44.12361" lon="6.37205">
        <ele>1191</ele>
        <time>2011-08-18T11:04:04Z</time>
      </trkpt>
      <trkpt lat="44.12341" lon="6.37224">
        <ele>1193</ele>
        <time>2011-08-18T11:04:19Z</time>
      </trkpt>
      <trkpt lat="44.1234" lon="6.37227">
        <ele>1193</ele>
        <time>2011-08-18T11:04:21Z</time>
      </trkpt>
      <trkpt lat="44.1232" lon="6.37254">
        <ele>1199</ele>
        <time>2011-08-18T11:04:39Z</time>
      </trkpt>
      <trkpt lat="44.12294" lon="6.37287">
        <ele>1199</ele>
        <time>2011-08-18T11:05:01Z</time>
      </trkpt>
      <trkpt lat="44.12264" lon="6.37303">
        <ele>1201</ele>
        <time>2011-08-18T11:05:19Z</time>
      </trkpt>
      <trkpt lat="44.12253" lon="6.3731">
        <ele>1201</ele>
        <time>2011-08-18T11:05:32Z</time>
      </trkpt>
      <trkpt lat="44.12218" lon="6.37345">
        <ele>1204</ele>
        <time>2011-08-18T11:05:48Z</time>
      </trkpt>
      <trkpt lat="44.12209" lon="6.37352">
        <ele>1205</ele>
        <time>2011-08-18T11:05:50Z</time>
      </trkpt>
      <trkpt lat="44.12186" lon="6.37382">
        <ele>1204</ele>
        <time>2011-08-18T11:05:55Z</time>
      </trkpt>
      <trkpt lat="44.1217" lon="6.37413">
        <ele>1200</ele>
        <time>2011-08-18T11:05:59Z</time>
      </trkpt>
      <trkpt lat="44.12143" lon="6.37419">
        <ele>1192</ele>
        <time>2011-08-18T11:06:04Z</time>
      </trkpt>
      <trkpt lat="44.12126" lon="6.37427">
        <ele>1191</ele>
        <time>2011-08-18T11:06:08Z</time>
      </trkpt>
      <trkpt lat="44.1211" lon="6.37425">
        <ele>1194</ele>
        <time>2011-08-18T11:06:11Z</time>
      </trkpt>
      <trkpt lat="44.12072" lon="6.37439">
        <ele>1213</ele>
        <time>2011-08-18T11:06:17Z</time>
      </trkpt>
      <trkpt lat="44.12007" lon="6.37494">
        <ele>1216</ele>
        <time>2011-08-18T11:06:26Z</time>
      </trkpt>
      <trkpt lat="44.11988" lon="6.37523">
        <ele>1238</ele>
        <time>2011-08-18T11:06:30Z</time>
      </trkpt>
      <trkpt lat="44.11993" lon="6.37554">
        <ele>1239</ele>
        <time>2011-08-18T11:06:37Z</time>
      </trkpt>
      <trkpt lat="44.11994" lon="6.37556">
        <ele>1239</ele>
        <time>2011-08-18T11:06:38Z</time>
      </trkpt>
      <trkpt lat="44.12013" lon="6.37585">
        <ele>1214</ele>
        <time>2011-08-18T11:06:49Z</time>
      </trkpt>
      <trkpt lat="44.12041" lon="6.37622">
        <ele>1203</ele>
        <time>2011-08-18T11:07:02Z</time>
      </trkpt>
      <trkpt lat="44.12059" lon="6.37663">
        <ele>1198</ele>
        <time>2011-08-18T11:07:18Z</time>
      </trkpt>
      <trkpt lat="44.12064" lon="6.37675">
        <ele>1208</ele>
        <time>2011-08-18T11:07:23Z</time>
      </trkpt>
      <trkpt lat="44.12078" lon="6.37707">
        <ele>1214</ele>
        <time>2011-08-18T11:07:38Z</time>
      </trkpt>
      <trkpt lat="44.12088" lon="6.37743">
        <ele>1192</ele>
        <time>2011-08-18T11:07:54Z</time>
      </trkpt>
      <trkpt lat="44.12089" lon="6.37745">
        <ele>1193</ele>
        <time>2011-08-18T11:07:55Z</time>
      </trkpt>
      <trkpt lat="44.12105" lon="6.37789">
        <ele>1190</ele>
        <time>2011-08-18T11:08:15Z</time>
      </trkpt>
      <trkpt lat="44.12107" lon="6.37828">
        <ele>1198</ele>
        <time>2011-08-18T11:08:32Z</time>
      </trkpt>
      <trkpt lat="44.12113" lon="6.37858">
        <ele>1200</ele>
        <time>2011-08-18T11:08:45Z</time>
      </trkpt>
      <trkpt lat="44.12115" lon="6.37867">
        <ele>1199</ele>
        <time>2011-08-18T11:08:49Z</time>
      </trkpt>
      <trkpt lat="44.12122" lon="6.37902">
        <ele>1198</ele>
        <time>2011-08-18T11:09:04Z</time>
      </trkpt>
      <trkpt lat="44.12118" lon="6.3791">
        <ele>1201</ele>
        <time>2011-08-18T11:09:08Z</time>
      </trkpt>
      <trkpt lat="44.12095" lon="6.37943">
        <ele>1209</ele>
        <time>2011-08-18T11:09:30Z</time>
      </trkpt>
      <trkpt lat="44.12073" lon="6.37986">
        <ele>1239</ele>
        <time>2011-08-18T11:09:53Z</time>
      </trkpt>
      <trkpt lat="44.12054" lon="6.3803">
        <ele>1245</ele>
        <time>2011-08-18T11:10:15Z</time>
      </trkpt>
      <trkpt lat="44.12048" lon="6.38049">
        <ele>1247</ele>
        <time>2011-08-18T11:10:24Z</time>
      </trkpt>
      <trkpt lat="44.12053" lon="6.38061">
        <ele>1245</ele>
        <time>2011-08-18T11:10:30Z</time>
      </trkpt>
      <trkpt lat="44.12058" lon="6.38068">
        <ele>1242</ele>
        <time>2011-08-18T11:10:34Z</time>
      </trkpt>
      <trkpt lat="44.12068" lon="6.38108">
        <ele>1236</ele>
        <time>2011-08-18T11:10:52Z</time>
      </trkpt>
      <trkpt lat="44.12047" lon="6.38133">
        <ele>1242</ele>
        <time>2011-08-18T11:11:10Z</time>
      </trkpt>
      <trkpt lat="44.12025" lon="6.38166">
        <ele>1253</ele>
        <time>2011-08-18T11:11:30Z</time>
      </trkpt>
      <trkpt lat="44.12016" lon="6.38205">
        <ele>1240</ele>
        <time>2011-08-18T11:11:48Z</time>
      </trkpt>
      <trkpt lat="44.11997" lon="6.38245">
        <ele>1261</ele>
        <time>2011-08-18T11:12:10Z</time>
      </trkpt>
      <trkpt lat="44.11983" lon="6.38287">
        <ele>1267</ele>
        <time>2011-08-18T11:12:31Z</time>
      </trkpt>
      <trkpt lat="44.11969" lon="6.38323">
        <ele>1267</ele>
        <time>2011-08-18T11:12:52Z</time>
      </trkpt>
      <trkpt lat="44.11952" lon="6.38352">
        <ele>1261</ele>
        <time>2011-08-18T11:13:12Z</time>
      </trkpt>
      <trkpt lat="44.11946" lon="6.38366">
        <ele>1261</ele>
        <time>2011-08-18T11:13:28Z</time>
      </trkpt>
      <trkpt lat="44.11934" lon="6.38402">
        <ele>1262</ele>
        <time>2011-08-18T11:13:55Z</time>
      </trkpt>
      <trkpt lat="44.11916" lon="6.38428">
        <ele>1281</ele>
        <time>2011-08-18T11:14:18Z</time>
      </trkpt>
      <trkpt lat="44.11903" lon="6.38458">
        <ele>1291</ele>
        <time>2011-08-18T11:14:42Z</time>
      </trkpt>
      <trkpt lat="44.11886" lon="6.3849">
        <ele>1293</ele>
        <time>2011-08-18T11:15:11Z</time>
      </trkpt>
      <trkpt lat="44.11881" lon="6.38505">
        <ele>1291</ele>
        <time>2011-08-18T11:15:30Z</time>
      </trkpt>
      <trkpt lat="44.11874" lon="6.38531">
        <ele>1295</ele>
        <time>2011-08-18T11:15:55Z</time>
      </trkpt>
      <trkpt lat="44.11874" lon="6.38548">
        <ele>1295</ele>
        <time>2011-08-18T11:16:05Z</time>
      </trkpt>
      <trkpt lat="44.11874" lon="6.38557">
        <ele>1295</ele>
        <time>2011-08-18T11:16:09Z</time>
      </trkpt>
      <trkpt lat="44.11876" lon="6.3857">
        <ele>1294</ele>
        <time>2011-08-18T11:16:15Z</time>
      </trkpt>
      <trkpt lat="44.11876" lon="6.38583">
        <ele>1294</ele>
        <time>2011-08-18T11:16:21Z</time>
      </trkpt>
      <trkpt lat="44.11876" lon="6.38591">
        <ele>1292</ele>
        <time>2011-08-18T11:16:25Z</time>
      </trkpt>
      <trkpt lat="44.11876" lon="6.386">
        <ele>1292</ele>
        <time>2011-08-18T11:16:29Z</time>
      </trkpt>
      <trkpt lat="44.11883" lon="6.38656">
        <ele>1288</ele>
        <time>2011-08-18T11:16:54Z</time>
      </trkpt>
      <trkpt lat="44.11876" lon="6.38707">
        <ele>1283</ele>
        <time>2011-08-18T11:17:17Z</time>
      </trkpt>
      <trkpt lat="44.11863" lon="6.38735">
        <ele>1285</ele>
        <time>2011-08-18T11:17:34Z</time>
      </trkpt>
      <trkpt lat="44.11835" lon="6.38754">
        <ele>1292</ele>
        <time>2011-08-18T11:17:53Z</time>
      </trkpt>
      <trkpt lat="44.11807" lon="6.38767">
        <ele>1296</ele>
        <time>2011-08-18T11:18:11Z</time>
      </trkpt>
      <trkpt lat="44.11778" lon="6.38763">
        <ele>1303</ele>
        <time>2011-08-18T11:18:30Z</time>
      </trkpt>
      <trkpt lat="44.11762" lon="6.38765">
        <ele>1309</ele>
        <time>2011-08-18T11:18:41Z</time>
      </trkpt>
      <trkpt lat="44.11758" lon="6.3877">
        <ele>1308</ele>
        <time>2011-08-18T11:18:45Z</time>
      </trkpt>
      <trkpt lat="44.11727" lon="6.38797">
        <ele>1323</ele>
        <time>2011-08-18T11:19:10Z</time>
      </trkpt>
      <trkpt lat="44.11701" lon="6.38829">
        <ele>1325</ele>
        <time>2011-08-18T11:19:33Z</time>
      </trkpt>
      <trkpt lat="44.11692" lon="6.38841">
        <ele>1308</ele>
        <time>2011-08-18T11:19:42Z</time>
      </trkpt>
      <trkpt lat="44.11673" lon="6.3887">
        <ele>1304</ele>
        <time>2011-08-18T11:20:02Z</time>
      </trkpt>
      <trkpt lat="44.1164" lon="6.38892">
        <ele>1324</ele>
        <time>2011-08-18T11:20:27Z</time>
      </trkpt>
      <trkpt lat="44.11639" lon="6.38892">
        <ele>1324</ele>
        <time>2011-08-18T11:20:28Z</time>
      </trkpt>
      <trkpt lat="44.11601" lon="6.38911">
        <ele>1328</ele>
        <time>2011-08-18T11:20:54Z</time>
      </trkpt>
      <trkpt lat="44.11571" lon="6.38898">
        <ele>1346</ele>
        <time>2011-08-18T11:21:14Z</time>
      </trkpt>
      <trkpt lat="44.11558" lon="6.38901">
        <ele>1350</ele>
        <time>2011-08-18T11:21:24Z</time>
      </trkpt>
      <trkpt lat="44.11545" lon="6.38911">
        <ele>1353</ele>
        <time>2011-08-18T11:21:33Z</time>
      </trkpt>
      <trkpt lat="44.11521" lon="6.3894">
        <ele>1341</ele>
        <time>2011-08-18T11:21:54Z</time>
      </trkpt>
      <trkpt lat="44.11505" lon="6.38974">
        <ele>1337</ele>
        <time>2011-08-18T11:22:10Z</time>
      </trkpt>
      <trkpt lat="44.11483" lon="6.39011">
        <ele>1337</ele>
        <time>2011-08-18T11:22:31Z</time>
      </trkpt>
      <trkpt lat="44.11444" lon="6.39016">
        <ele>1340</ele>
        <time>2011-08-18T11:22:55Z</time>
      </trkpt>
      <trkpt lat="44.11423" lon="6.39011">
        <ele>1348</ele>
        <time>2011-08-18T11:23:10Z</time>
      </trkpt>
      <trkpt lat="44.11407" lon="6.39004">
        <ele>1353</ele>
        <time>2011-08-18T11:23:25Z</time>
      </trkpt>
      <trkpt lat="44.11401" lon="6.39003">
        <ele>1352</ele>
        <time>2011-08-18T11:23:49Z</time>
      </trkpt>
      <trkpt lat="44.114" lon="6.39003">
        <ele>1352</ele>
        <time>2011-08-18T11:23:51Z</time>
      </trkpt>
      <trkpt lat="44.11387" lon="6.39002">
        <ele>1351</ele>
        <time>2011-08-18T11:24:09Z</time>
      </trkpt>
      <trkpt lat="44.1137" lon="6.38997">
        <ele>1369</ele>
        <time>2011-08-18T11:24:27Z</time>
      </trkpt>
      <trkpt lat="44.11332" lon="6.38988">
        <ele>1369</ele>
        <time>2011-08-18T11:24:49Z</time>
      </trkpt>
      <trkpt lat="44.11314" lon="6.3897">
        <ele>1378</ele>
        <time>2011-08-18T11:25:02Z</time>
      </trkpt>
      <trkpt lat="44.11308" lon="6.38957">
        <ele>1382</ele>
        <time>2011-08-18T11:25:10Z</time>
      </trkpt>
      <trkpt lat="44.11299" lon="6.38958">
        <ele>1382</ele>
        <time>2011-08-18T11:25:15Z</time>
      </trkpt>
      <trkpt lat="44.11272" lon="6.38978">
        <ele>1380</ele>
        <time>2011-08-18T11:25:32Z</time>
      </trkpt>
      <trkpt lat="44.11231" lon="6.38983">
        <ele>1393</ele>
        <time>2011-08-18T11:25:49Z</time>
      </trkpt>
      <trkpt lat="44.11225" lon="6.38989">
        <ele>1394</ele>
        <time>2011-08-18T11:25:51Z</time>
      </trkpt>
      <trkpt lat="44.11227" lon="6.39021">
        <ele>1396</ele>
        <time>2011-08-18T11:26:02Z</time>
      </trkpt>
      <trkpt lat="44.11245" lon="6.39047">
        <ele>1398</ele>
        <time>2011-08-18T11:26:16Z</time>
      </trkpt>
      <trkpt lat="44.11247" lon="6.39049">
        <ele>1398</ele>
        <time>2011-08-18T11:26:17Z</time>
      </trkpt>
      <trkpt lat="44.1127" lon="6.39087">
        <ele>1384</ele>
        <time>2011-08-18T11:26:33Z</time>
      </trkpt>
      <trkpt lat="44.11295" lon="6.39129">
        <ele>1378</ele>
        <time>2011-08-18T11:26:51Z</time>
      </trkpt>
      <trkpt lat="44.11315" lon="6.39182">
        <ele>1383</ele>
        <time>2011-08-18T11:27:11Z</time>
      </trkpt>
      <trkpt lat="44.11322" lon="6.39235">
        <ele>1389</ele>
        <time>2011-08-18T11:27:28Z</time>
      </trkpt>
      <trkpt lat="44.11327" lon="6.39296">
        <ele>1399</ele>
        <time>2011-08-18T11:27:49Z</time>
      </trkpt>
      <trkpt lat="44.11328" lon="6.39304">
        <ele>1398</ele>
        <time>2011-08-18T11:27:52Z</time>
      </trkpt>
      <trkpt lat="44.11328" lon="6.39315">
        <ele>1396</ele>
        <time>2011-08-18T11:27:57Z</time>
      </trkpt>
      <trkpt lat="44.11327" lon="6.39366">
        <ele>1399</ele>
        <time>2011-08-18T11:28:16Z</time>
      </trkpt>
      <trkpt lat="44.1132" lon="6.39424">
        <ele>1395</ele>
        <time>2011-08-18T11:28:38Z</time>
      </trkpt>
      <trkpt lat="44.11308" lon="6.39453">
        <ele>1403</ele>
        <time>2011-08-18T11:28:52Z</time>
      </trkpt>
      <trkpt lat="44.11285" lon="6.39505">
        <ele>1411</ele>
        <time>2011-08-18T11:29:17Z</time>
      </trkpt>
      <trkpt lat="44.11287" lon="6.39525">
        <ele>1411</ele>
        <time>2011-08-18T11:29:35Z</time>
      </trkpt>
      <trkpt lat="44.11289" lon="6.39531">
        <ele>1411</ele>
        <time>2011-08-18T11:29:39Z</time>
      </trkpt>
      <trkpt lat="44.1129" lon="6.39534">
        <ele>1411</ele>
        <time>2011-08-18T11:29:42Z</time>
      </trkpt>
      <trkpt lat="44.1129" lon="6.39554">
        <ele>1412</ele>
        <time>2011-08-18T11:29:55Z</time>
      </trkpt>
      <trkpt lat="44.11288" lon="6.39559">
        <ele>1412</ele>
        <time>2011-08-18T11:29:59Z</time>
      </trkpt>
      <trkpt lat="44.11288" lon="6.39572">
        <ele>1413</ele>
        <time>2011-08-18T11:30:08Z</time>
      </trkpt>
      <trkpt lat="44.11294" lon="6.39581">
        <ele>1412</ele>
        <time>2011-08-18T11:30:21Z</time>
      </trkpt>
      <trkpt lat="44.113" lon="6.39583">
        <ele>1411</ele>
        <time>2011-08-18T11:30:27Z</time>
      </trkpt>
      <trkpt lat="44.11315" lon="6.3959">
        <ele>1414</ele>
        <time>2011-08-18T11:30:50Z</time>
      </trkpt>
      <trkpt lat="44.11336" lon="6.39616">
        <ele>1413</ele>
        <time>2011-08-18T11:31:16Z</time>
      </trkpt>
      <trkpt lat="44.11347" lon="6.39626">
        <ele>1415</ele>
        <time>2011-08-18T11:31:34Z</time>
      </trkpt>
      <trkpt lat="44.11373" lon="6.39619">
        <ele>1415</ele>
        <time>2011-08-18T11:31:50Z</time>
      </trkpt>
      <trkpt lat="44.11379" lon="6.39618">
        <ele>1415</ele>
        <time>2011-08-18T11:31:54Z</time>
      </trkpt>
      <trkpt lat="44.11379" lon="6.39635">
        <ele>1417</ele>
        <time>2011-08-18T11:32:02Z</time>
      </trkpt>
      <trkpt lat="44.11351" lon="6.39654">
        <ele>1419</ele>
        <time>2011-08-18T11:32:19Z</time>
      </trkpt>
      <trkpt lat="44.11341" lon="6.39657">
        <ele>1420</ele>
        <time>2011-08-18T11:32:25Z</time>
      </trkpt>
      <trkpt lat="44.11308" lon="6.39645">
        <ele>1421</ele>
        <time>2011-08-18T11:32:46Z</time>
      </trkpt>
      <trkpt lat="44.11307" lon="6.39644">
        <ele>1421</ele>
        <time>2011-08-18T11:32:47Z</time>
      </trkpt>
      <trkpt lat="44.11302" lon="6.39659">
        <ele>1422</ele>
        <time>2011-08-18T11:32:57Z</time>
      </trkpt>
      <trkpt lat="44.11337" lon="6.39686">
        <ele>1430</ele>
        <time>2011-08-18T11:33:21Z</time>
      </trkpt>
      <trkpt lat="44.11363" lon="6.39703">
        <ele>1435</ele>
        <time>2011-08-18T11:33:40Z</time>
      </trkpt>
      <trkpt lat="44.11385" lon="6.39715">
        <ele>1437</ele>
        <time>2011-08-18T11:33:55Z</time>
      </trkpt>
      <trkpt lat="44.11411" lon="6.3971">
        <ele>1437</ele>
        <time>2011-08-18T11:34:12Z</time>
      </trkpt>
      <trkpt lat="44.11413" lon="6.39711">
        <ele>1437</ele>
        <time>2011-08-18T11:34:13Z</time>
      </trkpt>
      <trkpt lat="44.11437" lon="6.39689">
        <ele>1435</ele>
        <time>2011-08-18T11:34:34Z</time>
      </trkpt>
      <trkpt lat="44.11442" lon="6.39674">
        <ele>1434</ele>
        <time>2011-08-18T11:34:42Z</time>
      </trkpt>
      <trkpt lat="44.11458" lon="6.39644">
        <ele>1426</ele>
        <time>2011-08-18T11:34:59Z</time>
      </trkpt>
      <trkpt lat="44.11462" lon="6.39646">
        <ele>1426</ele>
        <time>2011-08-18T11:35:03Z</time>
      </trkpt>
      <trkpt lat="44.11461" lon="6.39653">
        <ele>1427</ele>
        <time>2011-08-18T11:35:07Z</time>
      </trkpt>
      <trkpt lat="44.11459" lon="6.39676">
        <ele>1435</ele>
        <time>2011-08-18T11:35:18Z</time>
      </trkpt>
      <trkpt lat="44.11459" lon="6.39685">
        <ele>1435</ele>
        <time>2011-08-18T11:35:22Z</time>
      </trkpt>
      <trkpt lat="44.11464" lon="6.39722">
        <ele>1437</ele>
        <time>2011-08-18T11:35:39Z</time>
      </trkpt>
      <trkpt lat="44.11465" lon="6.39724">
        <ele>1437</ele>
        <time>2011-08-18T11:35:40Z</time>
      </trkpt>
      <trkpt lat="44.11457" lon="6.3975">
        <ele>1438</ele>
        <time>2011-08-18T11:35:54Z</time>
      </trkpt>
      <trkpt lat="44.11449" lon="6.39763">
        <ele>1446</ele>
        <time>2011-08-18T11:36:09Z</time>
      </trkpt>
      <trkpt lat="44.11438" lon="6.3977">
        <ele>1447</ele>
        <time>2011-08-18T11:36:23Z</time>
      </trkpt>
      <trkpt lat="44.11423" lon="6.39778">
        <ele>1448</ele>
        <time>2011-08-18T11:36:38Z</time>
      </trkpt>
      <trkpt lat="44.11404" lon="6.39783">
        <ele>1458</ele>
        <time>2011-08-18T11:36:57Z</time>
      </trkpt>
      <trkpt lat="44.11387" lon="6.39785">
        <ele>1459</ele>
        <time>2011-08-18T11:37:18Z</time>
      </trkpt>
      <trkpt lat="44.11353" lon="6.39788">
        <ele>1461</ele>
        <time>2011-08-18T11:37:40Z</time>
      </trkpt>
      <trkpt lat="44.11328" lon="6.39787">
        <ele>1466</ele>
        <time>2011-08-18T11:37:55Z</time>
      </trkpt>
      <trkpt lat="44.11298" lon="6.39799">
        <ele>1469</ele>
        <time>2011-08-18T11:38:15Z</time>
      </trkpt>
      <trkpt lat="44.1127" lon="6.39807">
        <ele>1472</ele>
        <time>2011-08-18T11:38:35Z</time>
      </trkpt>
      <trkpt lat="44.1123" lon="6.39813">
        <ele>1480</ele>
        <time>2011-08-18T11:39:01Z</time>
      </trkpt>
      <trkpt lat="44.11206" lon="6.39817">
        <ele>1481</ele>
        <time>2011-08-18T11:39:18Z</time>
      </trkpt>
      <trkpt lat="44.11184" lon="6.39817">
        <ele>1485</ele>
        <time>2011-08-18T11:39:33Z</time>
      </trkpt>
      <trkpt lat="44.11154" lon="6.39814">
        <ele>1493</ele>
        <time>2011-08-18T11:39:53Z</time>
      </trkpt>
      <trkpt lat="44.11123" lon="6.39792">
        <ele>1491</ele>
        <time>2011-08-18T11:40:14Z</time>
      </trkpt>
      <trkpt lat="44.11096" lon="6.39797">
        <ele>1495</ele>
        <time>2011-08-18T11:40:32Z</time>
      </trkpt>
      <trkpt lat="44.1109" lon="6.39802">
        <ele>1496</ele>
        <time>2011-08-18T11:40:37Z</time>
      </trkpt>
      <trkpt lat="44.11067" lon="6.39822">
        <ele>1505</ele>
        <time>2011-08-18T11:40:54Z</time>
      </trkpt>
      <trkpt lat="44.11035" lon="6.39849">
        <ele>1511</ele>
        <time>2011-08-18T11:41:17Z</time>
      </trkpt>
      <trkpt lat="44.11007" lon="6.39861">
        <ele>1511</ele>
        <time>2011-08-18T11:41:37Z</time>
      </trkpt>
      <trkpt lat="44.10996" lon="6.39875">
        <ele>1506</ele>
        <time>2011-08-18T11:41:47Z</time>
      </trkpt>
      <trkpt lat="44.10989" lon="6.39883">
        <ele>1506</ele>
        <time>2011-08-18T11:42:00Z</time>
      </trkpt>
      <trkpt lat="44.1098" lon="6.39893">
        <ele>1506</ele>
        <time>2011-08-18T11:42:38Z</time>
      </trkpt>
      <trkpt lat="44.1098" lon="6.39896">
        <ele>1506</ele>
        <time>2011-08-18T11:42:52Z</time>
      </trkpt>
      <trkpt lat="44.10981" lon="6.39897">
        <ele>1506</ele>
        <time>2011-08-18T11:51:44Z</time>
      </trkpt>
      <trkpt lat="44.10981" lon="6.39897">
        <ele>1506</ele>
        <time>2011-08-18T11:54:24Z</time>
      </trkpt>
      <trkpt lat="44.10951" lon="6.39877">
        <ele>1503</ele>
        <time>2011-08-18T11:54:36Z</time>
      </trkpt>
      <trkpt lat="44.10938" lon="6.39871">
        <ele>1502</ele>
        <time>2011-08-18T11:54:46Z</time>
      </trkpt>
      <trkpt lat="44.10933" lon="6.3987">
        <ele>1502</ele>
        <time>2011-08-18T11:55:17Z</time>
      </trkpt>
      <trkpt lat="44.10904" lon="6.39865">
        <ele>1495</ele>
        <time>2011-08-18T11:55:28Z</time>
      </trkpt>
      <trkpt lat="44.10891" lon="6.39864">
        <ele>1494</ele>
        <time>2011-08-18T11:55:33Z</time>
      </trkpt>
      <trkpt lat="44.10872" lon="6.39856">
        <ele>1493</ele>
        <time>2011-08-18T11:55:39Z</time>
      </trkpt>
      <trkpt lat="44.10845" lon="6.39858">
        <ele>1492</ele>
        <time>2011-08-18T11:55:50Z</time>
      </trkpt>
      <trkpt lat="44.10826" lon="6.39853">
        <ele>1484</ele>
        <time>2011-08-18T11:55:59Z</time>
      </trkpt>
      <trkpt lat="44.10819" lon="6.39853">
        <ele>1484</ele>
        <time>2011-08-18T11:56:02Z</time>
      </trkpt>
      <trkpt lat="44.10767" lon="6.39859">
        <ele>1478</ele>
        <time>2011-08-18T11:56:16Z</time>
      </trkpt>
      <trkpt lat="44.10764" lon="6.39857">
        <ele>1478</ele>
        <time>2011-08-18T11:56:17Z</time>
      </trkpt>
      <trkpt lat="44.10732" lon="6.39861">
        <ele>1463</ele>
        <time>2011-08-18T11:56:26Z</time>
      </trkpt>
      <trkpt lat="44.10705" lon="6.39866">
        <ele>1458</ele>
        <time>2011-08-18T11:56:37Z</time>
      </trkpt>
      <trkpt lat="44.10679" lon="6.39858">
        <ele>1455</ele>
        <time>2011-08-18T11:56:47Z</time>
      </trkpt>
      <trkpt lat="44.10675" lon="6.39853">
        <ele>1455</ele>
        <time>2011-08-18T11:56:49Z</time>
      </trkpt>
      <trkpt lat="44.1065" lon="6.39836">
        <ele>1442</ele>
        <time>2011-08-18T11:57:00Z</time>
      </trkpt>
      <trkpt lat="44.10642" lon="6.39837">
        <ele>1439</ele>
        <time>2011-08-18T11:57:04Z</time>
      </trkpt>
      <trkpt lat="44.10616" lon="6.3983">
        <ele>1444</ele>
        <time>2011-08-18T11:57:16Z</time>
      </trkpt>
      <trkpt lat="44.1061" lon="6.39831">
        <ele>1442</ele>
        <time>2011-08-18T11:57:30Z</time>
      </trkpt>
      <trkpt lat="44.10603" lon="6.39833">
        <ele>1439</ele>
        <time>2011-08-18T11:57:44Z</time>
      </trkpt>
      <trkpt lat="44.10586" lon="6.39831">
        <ele>1427</ele>
        <time>2011-08-18T11:57:55Z</time>
      </trkpt>
      <trkpt lat="44.10573" lon="6.39825">
        <ele>1423</ele>
        <time>2011-08-18T11:58:07Z</time>
      </trkpt>
      <trkpt lat="44.10564" lon="6.39818">
        <ele>1423</ele>
        <time>2011-08-18T11:58:13Z</time>
      </trkpt>
      <trkpt lat="44.10558" lon="6.39811">
        <ele>1423</ele>
        <time>2011-08-18T11:58:16Z</time>
      </trkpt>
      <trkpt lat="44.10548" lon="6.3981">
        <ele>1421</ele>
        <time>2011-08-18T11:58:20Z</time>
      </trkpt>
      <trkpt lat="44.10538" lon="6.39807">
        <ele>1420</ele>
        <time>2011-08-18T11:58:33Z</time>
      </trkpt>
      <trkpt lat="44.10531" lon="6.39811">
        <ele>1417</ele>
        <time>2011-08-18T11:58:40Z</time>
      </trkpt>
      <trkpt lat="44.10521" lon="6.39812">
        <ele>1415</ele>
        <time>2011-08-18T11:58:52Z</time>
      </trkpt>
      <trkpt lat="44.10521" lon="6.39812">
        <ele>1415</ele>
        <time>2011-08-18T11:59:14Z</time>
      </trkpt>
      <trkpt lat="44.10521" lon="6.39812">
        <ele>1415</ele>
        <time>2011-08-18T11:59:19Z</time>
      </trkpt>
      <trkpt lat="44.10519" lon="6.39809">
        <ele>1415</ele>
        <time>2011-08-18T11:59:34Z</time>
      </trkpt>
      <trkpt lat="44.10518" lon="6.39807">
        <ele>1415</ele>
        <time>2011-08-18T11:59:46Z</time>
      </trkpt>
      <trkpt lat="44.10513" lon="6.39803">
        <ele>1416</ele>
        <time>2011-08-18T12:00:01Z</time>
      </trkpt>
      <trkpt lat="44.10505" lon="6.39801">
        <ele>1415</ele>
        <time>2011-08-18T12:00:17Z</time>
      </trkpt>
      <trkpt lat="44.105" lon="6.398">
        <ele>1415</ele>
        <time>2011-08-18T12:00:40Z</time>
      </trkpt>
      <trkpt lat="44.10493" lon="6.39804">
        <ele>1395</ele>
        <time>2011-08-18T12:00:57Z</time>
      </trkpt>
      <trkpt lat="44.10488" lon="6.39803">
        <ele>1394</ele>
        <time>2011-08-18T12:01:10Z</time>
      </trkpt>
      <trkpt lat="44.1048" lon="6.39801">
        <ele>1393</ele>
        <time>2011-08-18T12:01:20Z</time>
      </trkpt>
      <trkpt lat="44.10476" lon="6.39802">
        <ele>1393</ele>
        <time>2011-08-18T12:01:23Z</time>
      </trkpt>
      <trkpt lat="44.1047" lon="6.39798">
        <ele>1392</ele>
        <time>2011-08-18T12:01:36Z</time>
      </trkpt>
      <trkpt lat="44.10463" lon="6.39797">
        <ele>1391</ele>
        <time>2011-08-18T12:02:06Z</time>
      </trkpt>
      <trkpt lat="44.10458" lon="6.39793">
        <ele>1390</ele>
        <time>2011-08-18T12:02:20Z</time>
      </trkpt>
      <trkpt lat="44.1045" lon="6.3981">
        <ele>1386</ele>
        <time>2011-08-18T12:02:39Z</time>
      </trkpt>
      <trkpt lat="44.10443" lon="6.39807">
        <ele>1384</ele>
        <time>2011-08-18T12:02:53Z</time>
      </trkpt>
      <trkpt lat="44.10442" lon="6.39806">
        <ele>1384</ele>
        <time>2011-08-18T12:02:56Z</time>
      </trkpt>
      <trkpt lat="44.10437" lon="6.39786">
        <ele>1386</ele>
        <time>2011-08-18T12:03:15Z</time>
      </trkpt>
      <trkpt lat="44.10427" lon="6.39782">
        <ele>1385</ele>
        <time>2011-08-18T12:03:36Z</time>
      </trkpt>
      <trkpt lat="44.10427" lon="6.39783">
        <ele>1385</ele>
        <time>2011-08-18T12:03:37Z</time>
      </trkpt>
      <trkpt lat="44.10419" lon="6.39798">
        <ele>1382</ele>
        <time>2011-08-18T12:03:55Z</time>
      </trkpt>
      <trkpt lat="44.10419" lon="6.39796">
        <ele>1382</ele>
        <time>2011-08-18T12:03:58Z</time>
      </trkpt>
      <trkpt lat="44.1041" lon="6.39779">
        <ele>1363</ele>
        <time>2011-08-18T12:04:18Z</time>
      </trkpt>
      <trkpt lat="44.10407" lon="6.39776">
        <ele>1364</ele>
        <time>2011-08-18T12:04:26Z</time>
      </trkpt>
      <trkpt lat="44.10399" lon="6.39769">
        <ele>1364</ele>
        <time>2011-08-18T12:04:40Z</time>
      </trkpt>
      <trkpt lat="44.10378" lon="6.39768">
        <ele>1358</ele>
        <time>2011-08-18T12:04:50Z</time>
      </trkpt>
      <trkpt lat="44.10348" lon="6.39754">
        <ele>1350</ele>
        <time>2011-08-18T12:05:01Z</time>
      </trkpt>
      <trkpt lat="44.10328" lon="6.39724">
        <ele>1340</ele>
        <time>2011-08-18T12:05:11Z</time>
      </trkpt>
      <trkpt lat="44.10306" lon="6.39723">
        <ele>1338</ele>
        <time>2011-08-18T12:05:22Z</time>
      </trkpt>
      <trkpt lat="44.1028" lon="6.39713">
        <ele>1334</ele>
        <time>2011-08-18T12:05:32Z</time>
      </trkpt>
      <trkpt lat="44.1027" lon="6.39706">
        <ele>1333</ele>
        <time>2011-08-18T12:05:36Z</time>
      </trkpt>
      <trkpt lat="44.10246" lon="6.39697">
        <ele>1317</ele>
        <time>2011-08-18T12:05:46Z</time>
      </trkpt>
      <trkpt lat="44.10246" lon="6.39696">
        <ele>1317</ele>
        <time>2011-08-18T12:05:51Z</time>
      </trkpt>
      <trkpt lat="44.10239" lon="6.39698">
        <ele>1316</ele>
        <time>2011-08-18T12:05:56Z</time>
      </trkpt>
      <trkpt lat="44.10229" lon="6.39694">
        <ele>1315</ele>
        <time>2011-08-18T12:06:02Z</time>
      </trkpt>
      <trkpt lat="44.10225" lon="6.39697">
        <ele>1315</ele>
        <time>2011-08-18T12:06:05Z</time>
      </trkpt>
      <trkpt lat="44.10225" lon="6.39707">
        <ele>1314</ele>
        <time>2011-08-18T12:06:10Z</time>
      </trkpt>
      <trkpt lat="44.1022" lon="6.39712">
        <ele>1313</ele>
        <time>2011-08-18T12:06:15Z</time>
      </trkpt>
      <trkpt lat="44.10196" lon="6.39693">
        <ele>1311</ele>
        <time>2011-08-18T12:06:27Z</time>
      </trkpt>
      <trkpt lat="44.10181" lon="6.39665">
        <ele>1312</ele>
        <time>2011-08-18T12:06:37Z</time>
      </trkpt>
      <trkpt lat="44.10171" lon="6.39658">
        <ele>1310</ele>
        <time>2011-08-18T12:06:40Z</time>
      </trkpt>
      <trkpt lat="44.10145" lon="6.39643">
        <ele>1302</ele>
        <time>2011-08-18T12:06:45Z</time>
      </trkpt>
      <trkpt lat="44.10087" lon="6.3964">
        <ele>1296</ele>
        <time>2011-08-18T12:06:56Z</time>
      </trkpt>
      <trkpt lat="44.10068" lon="6.39633">
        <ele>1285</ele>
        <time>2011-08-18T12:07:02Z</time>
      </trkpt>
      <trkpt lat="44.10047" lon="6.39633">
        <ele>1283</ele>
        <time>2011-08-18T12:07:06Z</time>
      </trkpt>
      <trkpt lat="44.10029" lon="6.39621">
        <ele>1282</ele>
        <time>2011-08-18T12:07:11Z</time>
      </trkpt>
      <trkpt lat="44.09999" lon="6.39603">
        <ele>1273</ele>
        <time>2011-08-18T12:07:20Z</time>
      </trkpt>
      <trkpt lat="44.09999" lon="6.39604">
        <ele>1273</ele>
        <time>2011-08-18T12:07:35Z</time>
      </trkpt>
      <trkpt lat="44.09999" lon="6.39601">
        <ele>1273</ele>
        <time>2011-08-18T12:10:21Z</time>
      </trkpt>
      <trkpt lat="44.09978" lon="6.3957">
        <ele>1277</ele>
        <time>2011-08-18T12:10:31Z</time>
      </trkpt>
      <trkpt lat="44.09974" lon="6.39569">
        <ele>1277</ele>
        <time>2011-08-18T12:10:45Z</time>
      </trkpt>
      <trkpt lat="44.09959" lon="6.39565">
        <ele>1275</ele>
        <time>2011-08-18T12:10:50Z</time>
      </trkpt>
      <trkpt lat="44.09948" lon="6.39551">
        <ele>1275</ele>
        <time>2011-08-18T12:10:54Z</time>
      </trkpt>
      <trkpt lat="44.09942" lon="6.3954">
        <ele>1275</ele>
        <time>2011-08-18T12:10:56Z</time>
      </trkpt>
      <trkpt lat="44.09921" lon="6.39524">
        <ele>1275</ele>
        <time>2011-08-18T12:11:02Z</time>
      </trkpt>
      <trkpt lat="44.0988" lon="6.39524">
        <ele>1261</ele>
        <time>2011-08-18T12:11:11Z</time>
      </trkpt>
      <trkpt lat="44.09868" lon="6.39524">
        <ele>1260</ele>
        <time>2011-08-18T12:11:14Z</time>
      </trkpt>
      <trkpt lat="44.09848" lon="6.39512">
        <ele>1258</ele>
        <time>2011-08-18T12:11:18Z</time>
      </trkpt>
      <trkpt lat="44.09794" lon="6.39502">
        <ele>1249</ele>
        <time>2011-08-18T12:11:27Z</time>
      </trkpt>
      <trkpt lat="44.09773" lon="6.39488">
        <ele>1246</ele>
        <time>2011-08-18T12:11:34Z</time>
      </trkpt>
      <trkpt lat="44.0977" lon="6.39478">
        <ele>1247</ele>
        <time>2011-08-18T12:11:37Z</time>
      </trkpt>
      <trkpt lat="44.09751" lon="6.39455">
        <ele>1249</ele>
        <time>2011-08-18T12:11:47Z</time>
      </trkpt>
      <trkpt lat="44.09728" lon="6.39449">
        <ele>1239</ele>
        <time>2011-08-18T12:11:57Z</time>
      </trkpt>
      <trkpt lat="44.09695" lon="6.39431">
        <ele>1236</ele>
        <time>2011-08-18T12:12:05Z</time>
      </trkpt>
      <trkpt lat="44.09666" lon="6.39411">
        <ele>1230</ele>
        <time>2011-08-18T12:12:12Z</time>
      </trkpt>
      <trkpt lat="44.09641" lon="6.39391">
        <ele>1236</ele>
        <time>2011-08-18T12:12:19Z</time>
      </trkpt>
      <trkpt lat="44.09617" lon="6.39379">
        <ele>1236</ele>
        <time>2011-08-18T12:12:26Z</time>
      </trkpt>
      <trkpt lat="44.09606" lon="6.39372">
        <ele>1236</ele>
        <time>2011-08-18T12:12:31Z</time>
      </trkpt>
      <trkpt lat="44.0959" lon="6.3938">
        <ele>1235</ele>
        <time>2011-08-18T12:12:45Z</time>
      </trkpt>
      <trkpt lat="44.0958" lon="6.39393">
        <ele>1230</ele>
        <time>2011-08-18T12:13:03Z</time>
      </trkpt>
      <trkpt lat="44.09576" lon="6.39396">
        <ele>1230</ele>
        <time>2011-08-18T12:13:13Z</time>
      </trkpt>
      <trkpt lat="44.09577" lon="6.3936">
        <ele>1226</ele>
        <time>2011-08-18T12:13:26Z</time>
      </trkpt>
      <trkpt lat="44.09576" lon="6.39357">
        <ele>1226</ele>
        <time>2011-08-18T12:13:31Z</time>
      </trkpt>
      <trkpt lat="44.09575" lon="6.39326">
        <ele>1227</ele>
        <time>2011-08-18T12:13:41Z</time>
      </trkpt>
      <trkpt lat="44.0955" lon="6.39295">
        <ele>1231</ele>
        <time>2011-08-18T12:13:51Z</time>
      </trkpt>
      <trkpt lat="44.09527" lon="6.3928">
        <ele>1227</ele>
        <time>2011-08-18T12:13:57Z</time>
      </trkpt>
      <trkpt lat="44.09512" lon="6.39273">
        <ele>1225</ele>
        <time>2011-08-18T12:14:00Z</time>
      </trkpt>
      <trkpt lat="44.09454" lon="6.39272">
        <ele>1201</ele>
        <time>2011-08-18T12:14:12Z</time>
      </trkpt>
      <trkpt lat="44.09449" lon="6.39274">
        <ele>1200</ele>
        <time>2011-08-18T12:14:13Z</time>
      </trkpt>
      <trkpt lat="44.09431" lon="6.39282">
        <ele>1198</ele>
        <time>2011-08-18T12:14:17Z</time>
      </trkpt>
      <trkpt lat="44.09407" lon="6.39276">
        <ele>1190</ele>
        <time>2011-08-18T12:14:21Z</time>
      </trkpt>
      <trkpt lat="44.09387" lon="6.39264">
        <ele>1189</ele>
        <time>2011-08-18T12:14:25Z</time>
      </trkpt>
      <trkpt lat="44.09359" lon="6.39257">
        <ele>1186</ele>
        <time>2011-08-18T12:14:32Z</time>
      </trkpt>
      <trkpt lat="44.09352" lon="6.3925">
        <ele>1186</ele>
        <time>2011-08-18T12:14:34Z</time>
      </trkpt>
      <trkpt lat="44.09323" lon="6.39239">
        <ele>1179</ele>
        <time>2011-08-18T12:14:40Z</time>
      </trkpt>
      <trkpt lat="44.09315" lon="6.39239">
        <ele>1179</ele>
        <time>2011-08-18T12:14:42Z</time>
      </trkpt>
      <trkpt lat="44.09283" lon="6.3922">
        <ele>1178</ele>
        <time>2011-08-18T12:14:51Z</time>
      </trkpt>
      <trkpt lat="44.09257" lon="6.39219">
        <ele>1176</ele>
        <time>2011-08-18T12:14:57Z</time>
      </trkpt>
      <trkpt lat="44.09233" lon="6.39213">
        <ele>1168</ele>
        <time>2011-08-18T12:15:02Z</time>
      </trkpt>
      <trkpt lat="44.09215" lon="6.39193">
        <ele>1168</ele>
        <time>2011-08-18T12:15:07Z</time>
      </trkpt>
      <trkpt lat="44.09192" lon="6.39186">
        <ele>1166</ele>
        <time>2011-08-18T12:15:12Z</time>
      </trkpt>
      <trkpt lat="44.09144" lon="6.39193">
        <ele>1160</ele>
        <time>2011-08-18T12:15:20Z</time>
      </trkpt>
      <trkpt lat="44.09098" lon="6.39186">
        <ele>1157</ele>
        <time>2011-08-18T12:15:27Z</time>
      </trkpt>
      <trkpt lat="44.09072" lon="6.39176">
        <ele>1153</ele>
        <time>2011-08-18T12:15:31Z</time>
      </trkpt>
      <trkpt lat="44.0905" lon="6.39173">
        <ele>1151</ele>
        <time>2011-08-18T12:15:35Z</time>
      </trkpt>
      <trkpt lat="44.0904" lon="6.39149">
        <ele>1147</ele>
        <time>2011-08-18T12:15:40Z</time>
      </trkpt>
      <trkpt lat="44.0904" lon="6.39135">
        <ele>1148</ele>
        <time>2011-08-18T12:15:43Z</time>
      </trkpt>
      <trkpt lat="44.09032" lon="6.39113">
        <ele>1148</ele>
        <time>2011-08-18T12:15:47Z</time>
      </trkpt>
      <trkpt lat="44.0902" lon="6.39088">
        <ele>1146</ele>
        <time>2011-08-18T12:15:51Z</time>
      </trkpt>
      <trkpt lat="44.08997" lon="6.39054">
        <ele>1136</ele>
        <time>2011-08-18T12:16:02Z</time>
      </trkpt>
      <trkpt lat="44.08986" lon="6.39046">
        <ele>1136</ele>
        <time>2011-08-18T12:16:06Z</time>
      </trkpt>
      <trkpt lat="44.08946" lon="6.39002">
        <ele>1129</ele>
        <time>2011-08-18T12:16:16Z</time>
      </trkpt>
      <trkpt lat="44.0894" lon="6.38973">
        <ele>1131</ele>
        <time>2011-08-18T12:16:22Z</time>
      </trkpt>
      <trkpt lat="44.08953" lon="6.38918">
        <ele>1136</ele>
        <time>2011-08-18T12:16:33Z</time>
      </trkpt>
      <trkpt lat="44.08952" lon="6.38894">
        <ele>1136</ele>
        <time>2011-08-18T12:16:37Z</time>
      </trkpt>
      <trkpt lat="44.08947" lon="6.38869">
        <ele>1135</ele>
        <time>2011-08-18T12:16:41Z</time>
      </trkpt>
      <trkpt lat="44.08951" lon="6.38837">
        <ele>1135</ele>
        <time>2011-08-18T12:16:47Z</time>
      </trkpt>
      <trkpt lat="44.08947" lon="6.38819">
        <ele>1132</ele>
        <time>2011-08-18T12:16:51Z</time>
      </trkpt>
      <trkpt lat="44.08945" lon="6.38798">
        <ele>1133</ele>
        <time>2011-08-18T12:16:55Z</time>
      </trkpt>
      <trkpt lat="44.08928" lon="6.38747">
        <ele>1125</ele>
        <time>2011-08-18T12:17:05Z</time>
      </trkpt>
      <trkpt lat="44.08929" lon="6.38743">
        <ele>1126</ele>
        <time>2011-08-18T12:17:06Z</time>
      </trkpt>
      <trkpt lat="44.08921" lon="6.38732">
        <ele>1126</ele>
        <time>2011-08-18T12:17:11Z</time>
      </trkpt>
      <trkpt lat="44.08913" lon="6.38732">
        <ele>1116</ele>
        <time>2011-08-18T12:17:13Z</time>
      </trkpt>
      <trkpt lat="44.08895" lon="6.38727">
        <ele>1114</ele>
        <time>2011-08-18T12:17:17Z</time>
      </trkpt>
      <trkpt lat="44.08861" lon="6.38699">
        <ele>1111</ele>
        <time>2011-08-18T12:17:26Z</time>
      </trkpt>
      <trkpt lat="44.08849" lon="6.38716">
        <ele>1109</ele>
        <time>2011-08-18T12:17:33Z</time>
      </trkpt>
      <trkpt lat="44.08845" lon="6.38732">
        <ele>1107</ele>
        <time>2011-08-18T12:17:36Z</time>
      </trkpt>
      <trkpt lat="44.08833" lon="6.38782">
        <ele>1095</ele>
        <time>2011-08-18T12:17:44Z</time>
      </trkpt>
      <trkpt lat="44.08827" lon="6.38817">
        <ele>1095</ele>
        <time>2011-08-18T12:17:49Z</time>
      </trkpt>
      <trkpt lat="44.08828" lon="6.38843">
        <ele>1097</ele>
        <time>2011-08-18T12:17:53Z</time>
      </trkpt>
      <trkpt lat="44.08832" lon="6.38879">
        <ele>1098</ele>
        <time>2011-08-18T12:17:57Z</time>
      </trkpt>
      <trkpt lat="44.08814" lon="6.38911">
        <ele>1098</ele>
        <time>2011-08-18T12:18:05Z</time>
      </trkpt>
      <trkpt lat="44.08808" lon="6.38907">
        <ele>1098</ele>
        <time>2011-08-18T12:18:07Z</time>
      </trkpt>
      <trkpt lat="44.08769" lon="6.38848">
        <ele>1096</ele>
        <time>2011-08-18T12:18:22Z</time>
      </trkpt>
      <trkpt lat="44.08734" lon="6.38812">
        <ele>1089</ele>
        <time>2011-08-18T12:18:34Z</time>
      </trkpt>
      <trkpt lat="44.08719" lon="6.38798">
        <ele>1088</ele>
        <time>2011-08-18T12:18:38Z</time>
      </trkpt>
      <trkpt lat="44.08699" lon="6.38773">
        <ele>1087</ele>
        <time>2011-08-18T12:18:44Z</time>
      </trkpt>
      <trkpt lat="44.08628" lon="6.38714">
        <ele>1078</ele>
        <time>2011-08-18T12:18:56Z</time>
      </trkpt>
      <trkpt lat="44.0855" lon="6.3863">
        <ele>1069</ele>
        <time>2011-08-18T12:19:09Z</time>
      </trkpt>
      <trkpt lat="44.08519" lon="6.38603">
        <ele>1067</ele>
        <time>2011-08-18T12:19:13Z</time>
      </trkpt>
      <trkpt lat="44.08492" lon="6.38572">
        <ele>1061</ele>
        <time>2011-08-18T12:19:17Z</time>
      </trkpt>
      <trkpt lat="44.08458" lon="6.3855">
        <ele>1059</ele>
        <time>2011-08-18T12:19:22Z</time>
      </trkpt>
      <trkpt lat="44.08402" lon="6.38542">
        <ele>1060</ele>
        <time>2011-08-18T12:19:33Z</time>
      </trkpt>
      <trkpt lat="44.08379" lon="6.38545">
        <ele>1060</ele>
        <time>2011-08-18T12:19:39Z</time>
      </trkpt>
      <trkpt lat="44.08362" lon="6.38554">
        <ele>1061</ele>
        <time>2011-08-18T12:19:43Z</time>
      </trkpt>
      <trkpt lat="44.08305" lon="6.38608">
        <ele>1069</ele>
        <time>2011-08-18T12:19:59Z</time>
      </trkpt>
      <trkpt lat="44.08292" lon="6.38629">
        <ele>1070</ele>
        <time>2011-08-18T12:20:04Z</time>
      </trkpt>
      <trkpt lat="44.08256" lon="6.38626">
        <ele>1069</ele>
        <time>2011-08-18T12:20:14Z</time>
      </trkpt>
      <trkpt lat="44.08252" lon="6.38624">
        <ele>1069</ele>
        <time>2011-08-18T12:20:15Z</time>
      </trkpt>
      <trkpt lat="44.08207" lon="6.38576">
        <ele>1057</ele>
        <time>2011-08-18T12:20:25Z</time>
      </trkpt>
      <trkpt lat="44.08196" lon="6.38562">
        <ele>1057</ele>
        <time>2011-08-18T12:20:28Z</time>
      </trkpt>
      <trkpt lat="44.08178" lon="6.38511">
        <ele>1053</ele>
        <time>2011-08-18T12:20:34Z</time>
      </trkpt>
      <trkpt lat="44.08166" lon="6.38489">
        <ele>1047</ele>
        <time>2011-08-18T12:20:37Z</time>
      </trkpt>
      <trkpt lat="44.08141" lon="6.38488">
        <ele>1043</ele>
        <time>2011-08-18T12:20:44Z</time>
      </trkpt>
      <trkpt lat="44.08139" lon="6.38494">
        <ele>1043</ele>
        <time>2011-08-18T12:20:45Z</time>
      </trkpt>
      <trkpt lat="44.08112" lon="6.38504">
        <ele>1046</ele>
        <time>2011-08-18T12:20:52Z</time>
      </trkpt>
      <trkpt lat="44.08096" lon="6.38489">
        <ele>1039</ele>
        <time>2011-08-18T12:20:55Z</time>
      </trkpt>
      <trkpt lat="44.08071" lon="6.38481">
        <ele>1031</ele>
        <time>2011-08-18T12:20:59Z</time>
      </trkpt>
      <trkpt lat="44.0805" lon="6.38459">
        <ele>1027</ele>
        <time>2011-08-18T12:21:04Z</time>
      </trkpt>
      <trkpt lat="44.08051" lon="6.384">
        <ele>1020</ele>
        <time>2011-08-18T12:21:12Z</time>
      </trkpt>
      <trkpt lat="44.08055" lon="6.38396">
        <ele>1020</ele>
        <time>2011-08-18T12:21:13Z</time>
      </trkpt>
      <trkpt lat="44.08109" lon="6.38368">
        <ele>1024</ele>
        <time>2011-08-18T12:21:21Z</time>
      </trkpt>
      <trkpt lat="44.0814" lon="6.38348">
        <ele>1023</ele>
        <time>2011-08-18T12:21:29Z</time>
      </trkpt>
      <trkpt lat="44.08133" lon="6.38343">
        <ele>1023</ele>
        <time>2011-08-18T12:21:31Z</time>
      </trkpt>
      <trkpt lat="44.08048" lon="6.38312">
        <ele>1009</ele>
        <time>2011-08-18T12:21:48Z</time>
      </trkpt>
      <trkpt lat="44.07997" lon="6.38308">
        <ele>1003</ele>
        <time>2011-08-18T12:21:55Z</time>
      </trkpt>
      <trkpt lat="44.07955" lon="6.38329">
        <ele>1001</ele>
        <time>2011-08-18T12:22:01Z</time>
      </trkpt>
      <trkpt lat="44.07927" lon="6.38359">
        <ele>1003</ele>
        <time>2011-08-18T12:22:06Z</time>
      </trkpt>
      <trkpt lat="44.07914" lon="6.38386">
        <ele>1002</ele>
        <time>2011-08-18T12:22:10Z</time>
      </trkpt>
      <trkpt lat="44.0791" lon="6.38399">
        <ele>1003</ele>
        <time>2011-08-18T12:22:12Z</time>
      </trkpt>
      <trkpt lat="44.07878" lon="6.38397">
        <ele>1004</ele>
        <time>2011-08-18T12:22:19Z</time>
      </trkpt>
      <trkpt lat="44.07859" lon="6.3836">
        <ele>1002</ele>
        <time>2011-08-18T12:22:27Z</time>
      </trkpt>
      <trkpt lat="44.07846" lon="6.38337">
        <ele>999</ele>
        <time>2011-08-18T12:22:32Z</time>
      </trkpt>
      <trkpt lat="44.07808" lon="6.38313">
        <ele>994</ele>
        <time>2011-08-18T12:22:44Z</time>
      </trkpt>
      <trkpt lat="44.07768" lon="6.38302">
        <ele>994</ele>
        <time>2011-08-18T12:22:53Z</time>
      </trkpt>
      <trkpt lat="44.07683" lon="6.38288">
        <ele>989</ele>
        <time>2011-08-18T12:23:05Z</time>
      </trkpt>
      <trkpt lat="44.0765" lon="6.3829">
        <ele>984</ele>
        <time>2011-08-18T12:23:09Z</time>
      </trkpt>
      <trkpt lat="44.07617" lon="6.38286">
        <ele>983</ele>
        <time>2011-08-18T12:23:13Z</time>
      </trkpt>
      <trkpt lat="44.0758" lon="6.38307">
        <ele>979</ele>
        <time>2011-08-18T12:23:18Z</time>
      </trkpt>
      <trkpt lat="44.07569" lon="6.38323">
        <ele>980</ele>
        <time>2011-08-18T12:23:20Z</time>
      </trkpt>
      <trkpt lat="44.07526" lon="6.38326">
        <ele>976</ele>
        <time>2011-08-18T12:23:26Z</time>
      </trkpt>
      <trkpt lat="44.07499" lon="6.38341">
        <ele>974</ele>
        <time>2011-08-18T12:23:30Z</time>
      </trkpt>
      <trkpt lat="44.07481" lon="6.38369">
        <ele>974</ele>
        <time>2011-08-18T12:23:34Z</time>
      </trkpt>
      <trkpt lat="44.07472" lon="6.38381">
        <ele>975</ele>
        <time>2011-08-18T12:23:36Z</time>
      </trkpt>
      <trkpt lat="44.07446" lon="6.384">
        <ele>975</ele>
        <time>2011-08-18T12:23:41Z</time>
      </trkpt>
      <trkpt lat="44.07354" lon="6.38439">
        <ele>978</ele>
        <time>2011-08-18T12:23:59Z</time>
      </trkpt>
      <trkpt lat="44.07298" lon="6.38456">
        <ele>975</ele>
        <time>2011-08-18T12:24:10Z</time>
      </trkpt>
      <trkpt lat="44.0728" lon="6.38465">
        <ele>975</ele>
        <time>2011-08-18T12:24:14Z</time>
      </trkpt>
      <trkpt lat="44.07256" lon="6.38467">
        <ele>975</ele>
        <time>2011-08-18T12:24:19Z</time>
      </trkpt>
      <trkpt lat="44.07236" lon="6.38472">
        <ele>971</ele>
        <time>2011-08-18T12:24:23Z</time>
      </trkpt>
      <trkpt lat="44.07166" lon="6.38509">
        <ele>970</ele>
        <time>2011-08-18T12:24:37Z</time>
      </trkpt>
      <trkpt lat="44.07106" lon="6.38567">
        <ele>968</ele>
        <time>2011-08-18T12:24:51Z</time>
      </trkpt>
      <trkpt lat="44.07091" lon="6.38589">
        <ele>967</ele>
        <time>2011-08-18T12:24:54Z</time>
      </trkpt>
      <trkpt lat="44.07035" lon="6.38691">
        <ele>958</ele>
        <time>2011-08-18T12:25:05Z</time>
      </trkpt>
      <trkpt lat="44.07021" lon="6.38714">
        <ele>958</ele>
        <time>2011-08-18T12:25:09Z</time>
      </trkpt>
      <trkpt lat="44.07016" lon="6.38714">
        <ele>958</ele>
        <time>2011-08-18T12:25:12Z</time>
      </trkpt>
      <trkpt lat="44.07011" lon="6.3872">
        <ele>958</ele>
        <time>2011-08-18T12:25:22Z</time>
      </trkpt>
      <trkpt lat="44.07005" lon="6.38727">
        <ele>957</ele>
        <time>2011-08-18T12:26:30Z</time>
      </trkpt>
      <trkpt lat="44.06987" lon="6.38725">
        <ele>954</ele>
        <time>2011-08-18T12:26:35Z</time>
      </trkpt>
      <trkpt lat="44.06969" lon="6.38731">
        <ele>954</ele>
        <time>2011-08-18T12:26:39Z</time>
      </trkpt>
      <trkpt lat="44.06934" lon="6.38757">
        <ele>954</ele>
        <time>2011-08-18T12:26:46Z</time>
      </trkpt>
      <trkpt lat="44.06908" lon="6.38763">
        <ele>952</ele>
        <time>2011-08-18T12:26:52Z</time>
      </trkpt>
      <trkpt lat="44.06876" lon="6.38752">
        <ele>951</ele>
        <time>2011-08-18T12:26:59Z</time>
      </trkpt>
      <trkpt lat="44.06862" lon="6.38751">
        <ele>951</ele>
        <time>2011-08-18T12:27:02Z</time>
      </trkpt>
      <trkpt lat="44.06787" lon="6.38716">
        <ele>947</ele>
        <time>2011-08-18T12:27:18Z</time>
      </trkpt>
      <trkpt lat="44.06769" lon="6.38727">
        <ele>947</ele>
        <time>2011-08-18T12:27:24Z</time>
      </trkpt>
      <trkpt lat="44.06742" lon="6.38785">
        <ele>945</ele>
        <time>2011-08-18T12:27:40Z</time>
      </trkpt>
      <trkpt lat="44.06716" lon="6.38837">
        <ele>944</ele>
        <time>2011-08-18T12:27:49Z</time>
      </trkpt>
      <trkpt lat="44.06699" lon="6.38849">
        <ele>943</ele>
        <time>2011-08-18T12:27:53Z</time>
      </trkpt>
      <trkpt lat="44.06684" lon="6.38869">
        <ele>942</ele>
        <time>2011-08-18T12:27:57Z</time>
      </trkpt>
      <trkpt lat="44.0668" lon="6.38911">
        <ele>942</ele>
        <time>2011-08-18T12:28:06Z</time>
      </trkpt>
      <trkpt lat="44.06703" lon="6.38938">
        <ele>942</ele>
        <time>2011-08-18T12:28:15Z</time>
      </trkpt>
      <trkpt lat="44.06695" lon="6.38953">
        <ele>942</ele>
        <time>2011-08-18T12:28:21Z</time>
      </trkpt>
      <trkpt lat="44.06675" lon="6.38952">
        <ele>941</ele>
        <time>2011-08-18T12:28:27Z</time>
      </trkpt>
      <trkpt lat="44.06672" lon="6.38954">
        <ele>941</ele>
        <time>2011-08-18T12:28:38Z</time>
      </trkpt>
      <trkpt lat="44.0666" lon="6.38946">
        <ele>940</ele>
        <time>2011-08-18T12:28:46Z</time>
      </trkpt>
      <trkpt lat="44.06651" lon="6.38948">
        <ele>939</ele>
        <time>2011-08-18T12:28:57Z</time>
      </trkpt>
      <trkpt lat="44.06653" lon="6.38949">
        <ele>939</ele>
        <time>2011-08-18T12:29:03Z</time>
      </trkpt>
      <trkpt lat="44.06677" lon="6.3896">
        <ele>941</ele>
        <time>2011-08-18T12:29:14Z</time>
      </trkpt>
      <trkpt lat="44.06692" lon="6.38975">
        <ele>941</ele>
        <time>2011-08-18T12:29:19Z</time>
      </trkpt>
      <trkpt lat="44.06707" lon="6.38972">
        <ele>942</ele>
        <time>2011-08-18T12:29:23Z</time>
      </trkpt>
      <trkpt lat="44.06717" lon="6.38966">
        <ele>942</ele>
        <time>2011-08-18T12:29:26Z</time>
      </trkpt>
      <trkpt lat="44.06724" lon="6.38969">
        <ele>942</ele>
        <time>2011-08-18T12:29:30Z</time>
      </trkpt>
      <trkpt lat="44.0672" lon="6.38973">
        <ele>942</ele>
        <time>2011-08-18T12:29:32Z</time>
      </trkpt>
      <trkpt lat="44.06663" lon="6.3904">
        <ele>938</ele>
        <time>2011-08-18T12:29:46Z</time>
      </trkpt>
      <trkpt lat="44.0661" lon="6.39103">
        <ele>936</ele>
        <time>2011-08-18T12:29:57Z</time>
      </trkpt>
      <trkpt lat="44.06599" lon="6.39137">
        <ele>935</ele>
        <time>2011-08-18T12:30:03Z</time>
      </trkpt>
      <trkpt lat="44.06594" lon="6.39176">
        <ele>932</ele>
        <time>2011-08-18T12:30:08Z</time>
      </trkpt>
      <trkpt lat="44.06581" lon="6.39216">
        <ele>929</ele>
        <time>2011-08-18T12:30:13Z</time>
      </trkpt>
      <trkpt lat="44.06559" lon="6.39262">
        <ele>929</ele>
        <time>2011-08-18T12:30:20Z</time>
      </trkpt>
      <trkpt lat="44.06551" lon="6.39285">
        <ele>929</ele>
        <time>2011-08-18T12:30:24Z</time>
      </trkpt>
      <trkpt lat="44.06533" lon="6.39303">
        <ele>929</ele>
        <time>2011-08-18T12:30:29Z</time>
      </trkpt>
      <trkpt lat="44.06515" lon="6.39359">
        <ele>931</ele>
        <time>2011-08-18T12:30:40Z</time>
      </trkpt>
      <trkpt lat="44.06499" lon="6.39479">
        <ele>933</ele>
        <time>2011-08-18T12:31:03Z</time>
      </trkpt>
      <trkpt lat="44.06477" lon="6.39522">
        <ele>935</ele>
        <time>2011-08-18T12:31:16Z</time>
      </trkpt>
      <trkpt lat="44.06459" lon="6.39526">
        <ele>935</ele>
        <time>2011-08-18T12:31:21Z</time>
      </trkpt>
      <trkpt lat="44.06434" lon="6.39533">
        <ele>935</ele>
        <time>2011-08-18T12:31:27Z</time>
      </trkpt>
      <trkpt lat="44.06419" lon="6.3953">
        <ele>935</ele>
        <time>2011-08-18T12:31:31Z</time>
      </trkpt>
      <trkpt lat="44.06407" lon="6.39522">
        <ele>934</ele>
        <time>2011-08-18T12:31:35Z</time>
      </trkpt>
      <trkpt lat="44.06386" lon="6.39528">
        <ele>934</ele>
        <time>2011-08-18T12:31:41Z</time>
      </trkpt>
      <trkpt lat="44.06345" lon="6.39604">
        <ele>936</ele>
        <time>2011-08-18T12:32:01Z</time>
      </trkpt>
      <trkpt lat="44.06319" lon="6.39702">
        <ele>941</ele>
        <time>2011-08-18T12:32:23Z</time>
      </trkpt>
      <trkpt lat="44.06316" lon="6.39751">
        <ele>941</ele>
        <time>2011-08-18T12:32:34Z</time>
      </trkpt>
      <trkpt lat="44.0631" lon="6.39839">
        <ele>944</ele>
        <time>2011-08-18T12:32:54Z</time>
      </trkpt>
      <trkpt lat="44.06316" lon="6.39896">
        <ele>945</ele>
        <time>2011-08-18T12:33:07Z</time>
      </trkpt>
      <trkpt lat="44.06302" lon="6.3995">
        <ele>947</ele>
        <time>2011-08-18T12:33:20Z</time>
      </trkpt>
      <trkpt lat="44.06279" lon="6.40001">
        <ele>948</ele>
        <time>2011-08-18T12:33:34Z</time>
      </trkpt>
      <trkpt lat="44.06267" lon="6.40064">
        <ele>949</ele>
        <time>2011-08-18T12:33:50Z</time>
      </trkpt>
      <trkpt lat="44.06262" lon="6.40129">
        <ele>951</ele>
        <time>2011-08-18T12:34:06Z</time>
      </trkpt>
      <trkpt lat="44.06253" lon="6.40184">
        <ele>953</ele>
        <time>2011-08-18T12:34:21Z</time>
      </trkpt>
      <trkpt lat="44.06252" lon="6.40249">
        <ele>955</ele>
        <time>2011-08-18T12:34:38Z</time>
      </trkpt>
      <trkpt lat="44.06266" lon="6.40314">
        <ele>958</ele>
        <time>2011-08-18T12:34:54Z</time>
      </trkpt>
      <trkpt lat="44.06274" lon="6.40374">
        <ele>962</ele>
        <time>2011-08-18T12:35:10Z</time>
      </trkpt>
      <trkpt lat="44.06298" lon="6.40424">
        <ele>967</ele>
        <time>2011-08-18T12:35:27Z</time>
      </trkpt>
      <trkpt lat="44.06315" lon="6.4048">
        <ele>970</ele>
        <time>2011-08-18T12:35:44Z</time>
      </trkpt>
      <trkpt lat="44.06325" lon="6.40536">
        <ele>973</ele>
        <time>2011-08-18T12:36:01Z</time>
      </trkpt>
      <trkpt lat="44.06327" lon="6.40604">
        <ele>974</ele>
        <time>2011-08-18T12:36:19Z</time>
      </trkpt>
      <trkpt lat="44.06332" lon="6.40663">
        <ele>974</ele>
        <time>2011-08-18T12:36:35Z</time>
      </trkpt>
      <trkpt lat="44.06325" lon="6.40696">
        <ele>975</ele>
        <time>2011-08-18T12:36:46Z</time>
      </trkpt>
      <trkpt lat="44.06305" lon="6.40711">
        <ele>975</ele>
        <time>2011-08-18T12:36:57Z</time>
      </trkpt>
      <trkpt lat="44.06296" lon="6.4072">
        <ele>975</ele>
        <time>2011-08-18T12:37:10Z</time>
      </trkpt>
      <trkpt lat="44.06295" lon="6.40721">
        <ele>975</ele>
        <time>2011-08-18T12:37:13Z</time>
      </trkpt>
      <trkpt lat="44.06282" lon="6.40768">
        <ele>978</ele>
        <time>2011-08-18T12:37:30Z</time>
      </trkpt>
      <trkpt lat="44.06285" lon="6.40786">
        <ele>978</ele>
        <time>2011-08-18T12:37:43Z</time>
      </trkpt>
      <trkpt lat="44.06284" lon="6.40791">
        <ele>978</ele>
        <time>2011-08-18T12:37:59Z</time>
      </trkpt>
      <trkpt lat="44.06285" lon="6.40797">
        <ele>979</ele>
        <time>2011-08-18T12:38:14Z</time>
      </trkpt>
      <trkpt lat="44.06285" lon="6.40817">
        <ele>979</ele>
        <time>2011-08-18T12:38:27Z</time>
      </trkpt>
      <trkpt lat="44.0629" lon="6.4087">
        <ele>984</ele>
        <time>2011-08-18T12:38:49Z</time>
      </trkpt>
      <trkpt lat="44.06331" lon="6.40878">
        <ele>984</ele>
        <time>2011-08-18T12:39:04Z</time>
      </trkpt>
      <trkpt lat="44.06368" lon="6.40894">
        <ele>985</ele>
        <time>2011-08-18T12:39:19Z</time>
      </trkpt>
      <trkpt lat="44.06391" lon="6.4089">
        <ele>985</ele>
        <time>2011-08-18T12:39:28Z</time>
      </trkpt>
      <trkpt lat="44.06417" lon="6.40871">
        <ele>985</ele>
        <time>2011-08-18T12:39:38Z</time>
      </trkpt>
      <trkpt lat="44.06444" lon="6.40878">
        <ele>986</ele>
        <time>2011-08-18T12:39:51Z</time>
      </trkpt>
      <trkpt lat="44.06457" lon="6.40915">
        <ele>987</ele>
        <time>2011-08-18T12:40:05Z</time>
      </trkpt>
      <trkpt lat="44.06494" lon="6.40963">
        <ele>991</ele>
        <time>2011-08-18T12:40:27Z</time>
      </trkpt>
      <trkpt lat="44.06529" lon="6.40994">
        <ele>994</ele>
        <time>2011-08-18T12:40:48Z</time>
      </trkpt>
      <trkpt lat="44.06564" lon="6.41012">
        <ele>999</ele>
        <time>2011-08-18T12:41:07Z</time>
      </trkpt>
      <trkpt lat="44.06606" lon="6.41031">
        <ele>1002</ele>
        <time>2011-08-18T12:41:27Z</time>
      </trkpt>
      <trkpt lat="44.06646" lon="6.41042">
        <ele>1003</ele>
        <time>2011-08-18T12:41:46Z</time>
      </trkpt>
      <trkpt lat="44.06672" lon="6.41066">
        <ele>1007</ele>
        <time>2011-08-18T12:42:02Z</time>
      </trkpt>
      <trkpt lat="44.06692" lon="6.41098">
        <ele>1010</ele>
        <time>2011-08-18T12:42:17Z</time>
      </trkpt>
      <trkpt lat="44.06717" lon="6.41128">
        <ele>1012</ele>
        <time>2011-08-18T12:42:34Z</time>
      </trkpt>
      <trkpt lat="44.06725" lon="6.41139">
        <ele>1012</ele>
        <time>2011-08-18T12:42:40Z</time>
      </trkpt>
      <trkpt lat="44.06729" lon="6.41144">
        <ele>1012</ele>
        <time>2011-08-18T12:42:44Z</time>
      </trkpt>
      <trkpt lat="44.06738" lon="6.41151">
        <ele>1013</ele>
        <time>2011-08-18T12:42:57Z</time>
      </trkpt>
      <trkpt lat="44.06745" lon="6.41156">
        <ele>1013</ele>
        <time>2011-08-18T12:43:04Z</time>
      </trkpt>
      <trkpt lat="44.06747" lon="6.41156">
        <ele>1013</ele>
        <time>2011-08-18T12:43:06Z</time>
      </trkpt>
      <trkpt lat="44.06753" lon="6.41158">
        <ele>1015</ele>
        <time>2011-08-18T12:43:12Z</time>
      </trkpt>
      <trkpt lat="44.06771" lon="6.41167">
        <ele>1017</ele>
        <time>2011-08-18T12:43:32Z</time>
      </trkpt>
      <trkpt lat="44.06781" lon="6.41175">
        <ele>1018</ele>
        <time>2011-08-18T12:43:44Z</time>
      </trkpt>
      <trkpt lat="44.06787" lon="6.4118">
        <ele>1018</ele>
        <time>2011-08-18T12:43:55Z</time>
      </trkpt>
      <trkpt lat="44.06789" lon="6.41183">
        <ele>1018</ele>
        <time>2011-08-18T12:43:58Z</time>
      </trkpt>
      <trkpt lat="44.06793" lon="6.41185">
        <ele>1018</ele>
        <time>2011-08-18T12:44:02Z</time>
      </trkpt>
      <trkpt lat="44.06793" lon="6.41187">
        <ele>1019</ele>
        <time>2011-08-18T12:44:04Z</time>
      </trkpt>
      <trkpt lat="44.06802" lon="6.41192">
        <ele>1019</ele>
        <time>2011-08-18T12:44:14Z</time>
      </trkpt>
      <trkpt lat="44.06808" lon="6.41195">
        <ele>1019</ele>
        <time>2011-08-18T12:44:21Z</time>
      </trkpt>
      <trkpt lat="44.06817" lon="6.41198">
        <ele>1019</ele>
        <time>2011-08-18T12:44:37Z</time>
      </trkpt>
      <trkpt lat="44.06845" lon="6.41217">
        <ele>1027</ele>
        <time>2011-08-18T12:44:54Z</time>
      </trkpt>
      <trkpt lat="44.06878" lon="6.41242">
        <ele>1029</ele>
        <time>2011-08-18T12:45:13Z</time>
      </trkpt>
      <trkpt lat="44.06909" lon="6.41236">
        <ele>1032</ele>
        <time>2011-08-18T12:45:29Z</time>
      </trkpt>
      <trkpt lat="44.0694" lon="6.41241">
        <ele>1039</ele>
        <time>2011-08-18T12:45:46Z</time>
      </trkpt>
      <trkpt lat="44.06966" lon="6.41248">
        <ele>1040</ele>
        <time>2011-08-18T12:46:01Z</time>
      </trkpt>
      <trkpt lat="44.06968" lon="6.41249">
        <ele>1040</ele>
        <time>2011-08-18T12:46:02Z</time>
      </trkpt>
      <trkpt lat="44.06991" lon="6.41254">
        <ele>1041</ele>
        <time>2011-08-18T12:46:17Z</time>
      </trkpt>
      <trkpt lat="44.07026" lon="6.41264">
        <ele>1045</ele>
        <time>2011-08-18T12:46:38Z</time>
      </trkpt>
      <trkpt lat="44.07037" lon="6.41249">
        <ele>1048</ele>
        <time>2011-08-18T12:46:51Z</time>
      </trkpt>
      <trkpt lat="44.07037" lon="6.41243">
        <ele>1048</ele>
        <time>2011-08-18T12:47:07Z</time>
      </trkpt>
      <trkpt lat="44.07039" lon="6.41221">
        <ele>1049</ele>
        <time>2011-08-18T12:47:15Z</time>
      </trkpt>
      <trkpt lat="44.07036" lon="6.41208">
        <ele>1049</ele>
        <time>2011-08-18T12:47:20Z</time>
      </trkpt>
      <trkpt lat="44.07011" lon="6.41164">
        <ele>1050</ele>
        <time>2011-08-18T12:47:42Z</time>
      </trkpt>
      <trkpt lat="44.07009" lon="6.41156">
        <ele>1050</ele>
        <time>2011-08-18T12:47:45Z</time>
      </trkpt>
      <trkpt lat="44.07009" lon="6.41154">
        <ele>1050</ele>
        <time>2011-08-18T12:47:47Z</time>
      </trkpt>
      <trkpt lat="44.07015" lon="6.41159">
        <ele>1051</ele>
        <time>2011-08-18T12:47:51Z</time>
      </trkpt>
      <trkpt lat="44.07051" lon="6.4117">
        <ele>1052</ele>
        <time>2011-08-18T12:48:06Z</time>
      </trkpt>
      <trkpt lat="44.07084" lon="6.41194">
        <ele>1060</ele>
        <time>2011-08-18T12:48:21Z</time>
      </trkpt>
      <trkpt lat="44.0709" lon="6.41245">
        <ele>1054</ele>
        <time>2011-08-18T12:48:35Z</time>
      </trkpt>
      <trkpt lat="44.07101" lon="6.41312">
        <ele>1057</ele>
        <time>2011-08-18T12:48:53Z</time>
      </trkpt>
      <trkpt lat="44.07087" lon="6.41338">
        <ele>1055</ele>
        <time>2011-08-18T12:49:00Z</time>
      </trkpt>
      <trkpt lat="44.07057" lon="6.41345">
        <ele>1051</ele>
        <time>2011-08-18T12:49:07Z</time>
      </trkpt>
      <trkpt lat="44.07032" lon="6.41372">
        <ele>1050</ele>
        <time>2011-08-18T12:49:15Z</time>
      </trkpt>
      <trkpt lat="44.06992" lon="6.41466">
        <ele>1047</ele>
        <time>2011-08-18T12:49:34Z</time>
      </trkpt>
      <trkpt lat="44.06977" lon="6.41512">
        <ele>1052</ele>
        <time>2011-08-18T12:49:42Z</time>
      </trkpt>
      <trkpt lat="44.06953" lon="6.41538">
        <ele>1053</ele>
        <time>2011-08-18T12:49:49Z</time>
      </trkpt>
      <trkpt lat="44.06945" lon="6.41538">
        <ele>1053</ele>
        <time>2011-08-18T12:49:51Z</time>
      </trkpt>
      <trkpt lat="44.06923" lon="6.41528">
        <ele>1052</ele>
        <time>2011-08-18T12:49:57Z</time>
      </trkpt>
      <trkpt lat="44.0689" lon="6.41503">
        <ele>1053</ele>
        <time>2011-08-18T12:50:11Z</time>
      </trkpt>
      <trkpt lat="44.06857" lon="6.41533">
        <ele>1057</ele>
        <time>2011-08-18T12:50:27Z</time>
      </trkpt>
      <trkpt lat="44.06827" lon="6.41543">
        <ele>1065</ele>
        <time>2011-08-18T12:50:43Z</time>
      </trkpt>
      <trkpt lat="44.06814" lon="6.41519">
        <ele>1062</ele>
        <time>2011-08-18T12:50:55Z</time>
      </trkpt>
      <trkpt lat="44.06797" lon="6.41489">
        <ele>1053</ele>
        <time>2011-08-18T12:51:10Z</time>
      </trkpt>
      <trkpt lat="44.06758" lon="6.41501">
        <ele>1065</ele>
        <time>2011-08-18T12:51:29Z</time>
      </trkpt>
      <trkpt lat="44.06719" lon="6.415">
        <ele>1070</ele>
        <time>2011-08-18T12:51:48Z</time>
      </trkpt>
      <trkpt lat="44.06689" lon="6.41517">
        <ele>1071</ele>
        <time>2011-08-18T12:52:07Z</time>
      </trkpt>
      <trkpt lat="44.0669" lon="6.41568">
        <ele>1076</ele>
        <time>2011-08-18T12:52:26Z</time>
      </trkpt>
      <trkpt lat="44.06656" lon="6.4159">
        <ele>1084</ele>
        <time>2011-08-18T12:52:45Z</time>
      </trkpt>
      <trkpt lat="44.0662" lon="6.41592">
        <ele>1087</ele>
        <time>2011-08-18T12:53:03Z</time>
      </trkpt>
      <trkpt lat="44.06584" lon="6.4159">
        <ele>1084</ele>
        <time>2011-08-18T12:53:22Z</time>
      </trkpt>
      <trkpt lat="44.06559" lon="6.41612">
        <ele>1086</ele>
        <time>2011-08-18T12:53:39Z</time>
      </trkpt>
      <trkpt lat="44.06551" lon="6.4164">
        <ele>1088</ele>
        <time>2011-08-18T12:53:54Z</time>
      </trkpt>
      <trkpt lat="44.06552" lon="6.41642">
        <ele>1088</ele>
        <time>2011-08-18T13:05:33Z</time>
      </trkpt>
      <trkpt lat="44.06551" lon="6.41646">
        <ele>1089</ele>
        <time>2011-08-18T13:05:38Z</time>
      </trkpt>
      <trkpt lat="44.06532" lon="6.41679">
        <ele>1096</ele>
        <time>2011-08-18T13:05:54Z</time>
      </trkpt>
      <trkpt lat="44.06509" lon="6.41738">
        <ele>1098</ele>
        <time>2011-08-18T13:06:17Z</time>
      </trkpt>
      <trkpt lat="44.06487" lon="6.41788">
        <ele>1098</ele>
        <time>2011-08-18T13:06:38Z</time>
      </trkpt>
      <trkpt lat="44.06463" lon="6.4183">
        <ele>1098</ele>
        <time>2011-08-18T13:06:57Z</time>
      </trkpt>
      <trkpt lat="44.06439" lon="6.41862">
        <ele>1102</ele>
        <time>2011-08-18T13:07:13Z</time>
      </trkpt>
      <trkpt lat="44.06433" lon="6.41914">
        <ele>1103</ele>
        <time>2011-08-18T13:07:31Z</time>
      </trkpt>
      <trkpt lat="44.06415" lon="6.41963">
        <ele>1102</ele>
        <time>2011-08-18T13:07:50Z</time>
      </trkpt>
      <trkpt lat="44.06401" lon="6.41995">
        <ele>1106</ele>
        <time>2011-08-18T13:08:03Z</time>
      </trkpt>
      <trkpt lat="44.06394" lon="6.42037">
        <ele>1113</ele>
        <time>2011-08-18T13:08:21Z</time>
      </trkpt>
      <trkpt lat="44.06414" lon="6.42023">
        <ele>1113</ele>
        <time>2011-08-18T13:08:33Z</time>
      </trkpt>
      <trkpt lat="44.06432" lon="6.41968">
        <ele>1114</ele>
        <time>2011-08-18T13:08:51Z</time>
      </trkpt>
      <trkpt lat="44.06476" lon="6.41945">
        <ele>1116</ele>
        <time>2011-08-18T13:09:08Z</time>
      </trkpt>
      <trkpt lat="44.06521" lon="6.41918">
        <ele>1122</ele>
        <time>2011-08-18T13:09:28Z</time>
      </trkpt>
      <trkpt lat="44.06558" lon="6.41874">
        <ele>1118</ele>
        <time>2011-08-18T13:09:50Z</time>
      </trkpt>
      <trkpt lat="44.06603" lon="6.41853">
        <ele>1125</ele>
        <time>2011-08-18T13:10:11Z</time>
      </trkpt>
      <trkpt lat="44.06646" lon="6.41863">
        <ele>1128</ele>
        <time>2011-08-18T13:10:30Z</time>
      </trkpt>
      <trkpt lat="44.0669" lon="6.41854">
        <ele>1133</ele>
        <time>2011-08-18T13:10:50Z</time>
      </trkpt>
      <trkpt lat="44.06734" lon="6.4183">
        <ele>1127</ele>
        <time>2011-08-18T13:11:11Z</time>
      </trkpt>
      <trkpt lat="44.06769" lon="6.41843">
        <ele>1133</ele>
        <time>2011-08-18T13:11:29Z</time>
      </trkpt>
      <trkpt lat="44.06774" lon="6.41888">
        <ele>1137</ele>
        <time>2011-08-18T13:11:46Z</time>
      </trkpt>
      <trkpt lat="44.06745" lon="6.41932">
        <ele>1145</ele>
        <time>2011-08-18T13:12:06Z</time>
      </trkpt>
      <trkpt lat="44.06721" lon="6.41969">
        <ele>1147</ele>
        <time>2011-08-18T13:12:24Z</time>
      </trkpt>
      <trkpt lat="44.06697" lon="6.42006">
        <ele>1155</ele>
        <time>2011-08-18T13:12:40Z</time>
      </trkpt>
      <trkpt lat="44.06667" lon="6.42055">
        <ele>1159</ele>
        <time>2011-08-18T13:12:59Z</time>
      </trkpt>
      <trkpt lat="44.06627" lon="6.4209">
        <ele>1165</ele>
        <time>2011-08-18T13:13:18Z</time>
      </trkpt>
      <trkpt lat="44.06594" lon="6.42112">
        <ele>1164</ele>
        <time>2011-08-18T13:13:34Z</time>
      </trkpt>
      <trkpt lat="44.06549" lon="6.42144">
        <ele>1160</ele>
        <time>2011-08-18T13:13:57Z</time>
      </trkpt>
      <trkpt lat="44.06522" lon="6.42176">
        <ele>1166</ele>
        <time>2011-08-18T13:14:12Z</time>
      </trkpt>
      <trkpt lat="44.06527" lon="6.42228">
        <ele>1172</ele>
        <time>2011-08-18T13:14:27Z</time>
      </trkpt>
      <trkpt lat="44.06512" lon="6.42267">
        <ele>1181</ele>
        <time>2011-08-18T13:14:41Z</time>
      </trkpt>
      <trkpt lat="44.06482" lon="6.42308">
        <ele>1179</ele>
        <time>2011-08-18T13:15:01Z</time>
      </trkpt>
      <trkpt lat="44.06441" lon="6.42329">
        <ele>1176</ele>
        <time>2011-08-18T13:15:20Z</time>
      </trkpt>
      <trkpt lat="44.06394" lon="6.42354">
        <ele>1182</ele>
        <time>2011-08-18T13:15:43Z</time>
      </trkpt>
      <trkpt lat="44.06378" lon="6.42402">
        <ele>1187</ele>
        <time>2011-08-18T13:15:59Z</time>
      </trkpt>
      <trkpt lat="44.06358" lon="6.42452">
        <ele>1199</ele>
        <time>2011-08-18T13:16:19Z</time>
      </trkpt>
      <trkpt lat="44.06327" lon="6.42492">
        <ele>1196</ele>
        <time>2011-08-18T13:16:38Z</time>
      </trkpt>
      <trkpt lat="44.0629" lon="6.42509">
        <ele>1203</ele>
        <time>2011-08-18T13:16:55Z</time>
      </trkpt>
      <trkpt lat="44.06253" lon="6.42535">
        <ele>1204</ele>
        <time>2011-08-18T13:17:13Z</time>
      </trkpt>
      <trkpt lat="44.06217" lon="6.4252">
        <ele>1203</ele>
        <time>2011-08-18T13:17:29Z</time>
      </trkpt>
      <trkpt lat="44.06184" lon="6.42526">
        <ele>1204</ele>
        <time>2011-08-18T13:17:45Z</time>
      </trkpt>
      <trkpt lat="44.06147" lon="6.42548">
        <ele>1207</ele>
        <time>2011-08-18T13:18:04Z</time>
      </trkpt>
      <trkpt lat="44.06113" lon="6.4257">
        <ele>1209</ele>
        <time>2011-08-18T13:18:22Z</time>
      </trkpt>
      <trkpt lat="44.06068" lon="6.42596">
        <ele>1220</ele>
        <time>2011-08-18T13:18:45Z</time>
      </trkpt>
      <trkpt lat="44.06043" lon="6.42637">
        <ele>1225</ele>
        <time>2011-08-18T13:19:03Z</time>
      </trkpt>
      <trkpt lat="44.06015" lon="6.42646">
        <ele>1226</ele>
        <time>2011-08-18T13:19:18Z</time>
      </trkpt>
      <trkpt lat="44.05972" lon="6.42638">
        <ele>1222</ele>
        <time>2011-08-18T13:19:35Z</time>
      </trkpt>
      <trkpt lat="44.05924" lon="6.4265">
        <ele>1227</ele>
        <time>2011-08-18T13:19:55Z</time>
      </trkpt>
      <trkpt lat="44.0588" lon="6.42657">
        <ele>1228</ele>
        <time>2011-08-18T13:20:13Z</time>
      </trkpt>
      <trkpt lat="44.05815" lon="6.42665">
        <ele>1232</ele>
        <time>2011-08-18T13:20:38Z</time>
      </trkpt>
      <trkpt lat="44.05787" lon="6.42685">
        <ele>1248</ele>
        <time>2011-08-18T13:20:53Z</time>
      </trkpt>
      <trkpt lat="44.05751" lon="6.42692">
        <ele>1248</ele>
        <time>2011-08-18T13:21:10Z</time>
      </trkpt>
      <trkpt lat="44.05718" lon="6.42678">
        <ele>1252</ele>
        <time>2011-08-18T13:21:25Z</time>
      </trkpt>
      <trkpt lat="44.0568" lon="6.42678">
        <ele>1253</ele>
        <time>2011-08-18T13:21:43Z</time>
      </trkpt>
      <trkpt lat="44.05668" lon="6.42677">
        <ele>1251</ele>
        <time>2011-08-18T13:21:57Z</time>
      </trkpt>
      <trkpt lat="44.05669" lon="6.42676">
        <ele>1251</ele>
        <time>2011-08-18T13:22:52Z</time>
      </trkpt>
      <trkpt lat="44.05668" lon="6.42677">
        <ele>1251</ele>
        <time>2011-08-18T13:23:50Z</time>
      </trkpt>
      <trkpt lat="44.05655" lon="6.42672">
        <ele>1256</ele>
        <time>2011-08-18T13:24:20Z</time>
      </trkpt>
      <trkpt lat="44.05614" lon="6.42665">
        <ele>1252</ele>
        <time>2011-08-18T13:24:38Z</time>
      </trkpt>
      <trkpt lat="44.0559" lon="6.42632">
        <ele>1252</ele>
        <time>2011-08-18T13:24:54Z</time>
      </trkpt>
      <trkpt lat="44.05571" lon="6.42602">
        <ele>1258</ele>
        <time>2011-08-18T13:25:09Z</time>
      </trkpt>
      <trkpt lat="44.05533" lon="6.42595">
        <ele>1261</ele>
        <time>2011-08-18T13:25:27Z</time>
      </trkpt>
      <trkpt lat="44.05505" lon="6.42604">
        <ele>1262</ele>
        <time>2011-08-18T13:25:42Z</time>
      </trkpt>
      <trkpt lat="44.05482" lon="6.42623">
        <ele>1268</ele>
        <time>2011-08-18T13:25:56Z</time>
      </trkpt>
      <trkpt lat="44.05463" lon="6.42651">
        <ele>1270</ele>
        <time>2011-08-18T13:26:11Z</time>
      </trkpt>
      <trkpt lat="44.05444" lon="6.4267">
        <ele>1276</ele>
        <time>2011-08-18T13:26:27Z</time>
      </trkpt>
      <trkpt lat="44.05439" lon="6.42669">
        <ele>1275</ele>
        <time>2011-08-18T13:26:54Z</time>
      </trkpt>
      <trkpt lat="44.05449" lon="6.42672">
        <ele>1276</ele>
        <time>2011-08-18T13:27:28Z</time>
      </trkpt>
      <trkpt lat="44.0545" lon="6.42671">
        <ele>1276</ele>
        <time>2011-08-18T13:28:28Z</time>
      </trkpt>
      <trkpt lat="44.05444" lon="6.42676">
        <ele>1276</ele>
        <time>2011-08-18T13:30:51Z</time>
      </trkpt>
      <trkpt lat="44.05442" lon="6.42676">
        <ele>1276</ele>
        <time>2011-08-18T13:31:00Z</time>
      </trkpt>
      <trkpt lat="44.05437" lon="6.4268">
        <ele>1276</ele>
        <time>2011-08-18T13:31:04Z</time>
      </trkpt>
      <trkpt lat="44.05421" lon="6.42695">
        <ele>1276</ele>
        <time>2011-08-18T13:31:13Z</time>
      </trkpt>
      <trkpt lat="44.05393" lon="6.42733">
        <ele>1275</ele>
        <time>2011-08-18T13:31:26Z</time>
      </trkpt>
      <trkpt lat="44.05346" lon="6.42808">
        <ele>1273</ele>
        <time>2011-08-18T13:31:37Z</time>
      </trkpt>
      <trkpt lat="44.05333" lon="6.42836">
        <ele>1265</ele>
        <time>2011-08-18T13:31:40Z</time>
      </trkpt>
      <trkpt lat="44.05312" lon="6.42873">
        <ele>1262</ele>
        <time>2011-08-18T13:31:44Z</time>
      </trkpt>
      <trkpt lat="44.05297" lon="6.42919">
        <ele>1259</ele>
        <time>2011-08-18T13:31:48Z</time>
      </trkpt>
      <trkpt lat="44.05292" lon="6.42973">
        <ele>1257</ele>
        <time>2011-08-18T13:31:52Z</time>
      </trkpt>
      <trkpt lat="44.05306" lon="6.43033">
        <ele>1250</ele>
        <time>2011-08-18T13:31:57Z</time>
      </trkpt>
      <trkpt lat="44.05326" lon="6.43077">
        <ele>1249</ele>
        <time>2011-08-18T13:32:01Z</time>
      </trkpt>
      <trkpt lat="44.05391" lon="6.43162">
        <ele>1249</ele>
        <time>2011-08-18T13:32:10Z</time>
      </trkpt>
      <trkpt lat="44.05398" lon="6.43171">
        <ele>1239</ele>
        <time>2011-08-18T13:32:11Z</time>
      </trkpt>
      <trkpt lat="44.05426" lon="6.43263">
        <ele>1242</ele>
        <time>2011-08-18T13:32:19Z</time>
      </trkpt>
      <trkpt lat="44.05418" lon="6.43286">
        <ele>1245</ele>
        <time>2011-08-18T13:32:21Z</time>
      </trkpt>
      <trkpt lat="44.0541" lon="6.43311">
        <ele>1228</ele>
        <time>2011-08-18T13:32:23Z</time>
      </trkpt>
      <trkpt lat="44.05407" lon="6.43353">
        <ele>1228</ele>
        <time>2011-08-18T13:32:26Z</time>
      </trkpt>
      <trkpt lat="44.0538" lon="6.4341">
        <ele>1221</ele>
        <time>2011-08-18T13:32:32Z</time>
      </trkpt>
      <trkpt lat="44.05367" lon="6.43407">
        <ele>1218</ele>
        <time>2011-08-18T13:32:34Z</time>
      </trkpt>
      <trkpt lat="44.05354" lon="6.43401">
        <ele>1215</ele>
        <time>2011-08-18T13:32:36Z</time>
      </trkpt>
      <trkpt lat="44.05339" lon="6.43431">
        <ele>1212</ele>
        <time>2011-08-18T13:32:41Z</time>
      </trkpt>
      <trkpt lat="44.05331" lon="6.43519">
        <ele>1203</ele>
        <time>2011-08-18T13:32:50Z</time>
      </trkpt>
      <trkpt lat="44.05336" lon="6.43566">
        <ele>1210</ele>
        <time>2011-08-18T13:32:54Z</time>
      </trkpt>
      <trkpt lat="44.05353" lon="6.43676">
        <ele>1189</ele>
        <time>2011-08-18T13:33:03Z</time>
      </trkpt>
      <trkpt lat="44.05375" lon="6.43696">
        <ele>1189</ele>
        <time>2011-08-18T13:33:08Z</time>
      </trkpt>
      <trkpt lat="44.05438" lon="6.43686">
        <ele>1193</ele>
        <time>2011-08-18T13:33:17Z</time>
      </trkpt>
      <trkpt lat="44.05457" lon="6.43674">
        <ele>1192</ele>
        <time>2011-08-18T13:33:20Z</time>
      </trkpt>
      <trkpt lat="44.05483" lon="6.43677">
        <ele>1192</ele>
        <time>2011-08-18T13:33:24Z</time>
      </trkpt>
      <trkpt lat="44.05512" lon="6.43675">
        <ele>1191</ele>
        <time>2011-08-18T13:33:28Z</time>
      </trkpt>
      <trkpt lat="44.05519" lon="6.43697">
        <ele>1185</ele>
        <time>2011-08-18T13:33:35Z</time>
      </trkpt>
      <trkpt lat="44.05514" lon="6.43698">
        <ele>1185</ele>
        <time>2011-08-18T13:33:36Z</time>
      </trkpt>
      <trkpt lat="44.05471" lon="6.43712">
        <ele>1187</ele>
        <time>2011-08-18T13:33:42Z</time>
      </trkpt>
      <trkpt lat="44.05439" lon="6.43733">
        <ele>1184</ele>
        <time>2011-08-18T13:33:46Z</time>
      </trkpt>
      <trkpt lat="44.05356" lon="6.4377">
        <ele>1170</ele>
        <time>2011-08-18T13:33:55Z</time>
      </trkpt>
      <trkpt lat="44.05318" lon="6.43776">
        <ele>1167</ele>
        <time>2011-08-18T13:33:59Z</time>
      </trkpt>
      <trkpt lat="44.05286" lon="6.43765">
        <ele>1166</ele>
        <time>2011-08-18T13:34:03Z</time>
      </trkpt>
      <trkpt lat="44.05275" lon="6.43787">
        <ele>1164</ele>
        <time>2011-08-18T13:34:09Z</time>
      </trkpt>
      <trkpt lat="44.05285" lon="6.4379">
        <ele>1164</ele>
        <time>2011-08-18T13:34:11Z</time>
      </trkpt>
      <trkpt lat="44.05298" lon="6.43793">
        <ele>1164</ele>
        <time>2011-08-18T13:34:13Z</time>
      </trkpt>
      <trkpt lat="44.05346" lon="6.43806">
        <ele>1164</ele>
        <time>2011-08-18T13:34:19Z</time>
      </trkpt>
      <trkpt lat="44.05409" lon="6.43806">
        <ele>1163</ele>
        <time>2011-08-18T13:34:26Z</time>
      </trkpt>
      <trkpt lat="44.05469" lon="6.43846">
        <ele>1148</ele>
        <time>2011-08-18T13:34:35Z</time>
      </trkpt>
      <trkpt lat="44.05463" lon="6.43882">
        <ele>1147</ele>
        <time>2011-08-18T13:34:39Z</time>
      </trkpt>
      <trkpt lat="44.05437" lon="6.4393">
        <ele>1143</ele>
        <time>2011-08-18T13:34:46Z</time>
      </trkpt>
      <trkpt lat="44.05422" lon="6.43997">
        <ele>1142</ele>
        <time>2011-08-18T13:34:59Z</time>
      </trkpt>
      <trkpt lat="44.05413" lon="6.4404">
        <ele>1144</ele>
        <time>2011-08-18T13:35:10Z</time>
      </trkpt>
      <trkpt lat="44.05385" lon="6.44058">
        <ele>1145</ele>
        <time>2011-08-18T13:35:24Z</time>
      </trkpt>
      <trkpt lat="44.05385" lon="6.44058">
        <ele>1145</ele>
        <time>2011-08-18T13:35:43Z</time>
      </trkpt>
      <trkpt lat="44.05385" lon="6.44058">
        <ele>1145</ele>
        <time>2011-08-18T13:37:33Z</time>
      </trkpt>
      <trkpt lat="44.0536" lon="6.4407">
        <ele>1144</ele>
        <time>2011-08-18T13:37:43Z</time>
      </trkpt>
      <trkpt lat="44.05347" lon="6.44074">
        <ele>1144</ele>
        <time>2011-08-18T13:37:47Z</time>
      </trkpt>
      <trkpt lat="44.05273" lon="6.44101">
        <ele>1143</ele>
        <time>2011-08-18T13:38:02Z</time>
      </trkpt>
      <trkpt lat="44.05182" lon="6.44161">
        <ele>1138</ele>
        <time>2011-08-18T13:38:19Z</time>
      </trkpt>
      <trkpt lat="44.05177" lon="6.44165">
        <ele>1137</ele>
        <time>2011-08-18T13:38:20Z</time>
      </trkpt>
      <trkpt lat="44.05163" lon="6.44186">
        <ele>1137</ele>
        <time>2011-08-18T13:38:24Z</time>
      </trkpt>
      <trkpt lat="44.05151" lon="6.44209">
        <ele>1137</ele>
        <time>2011-08-18T13:38:28Z</time>
      </trkpt>
      <trkpt lat="44.0509" lon="6.44248">
        <ele>1138</ele>
        <time>2011-08-18T13:38:42Z</time>
      </trkpt>
      <trkpt lat="44.05073" lon="6.44256">
        <ele>1141</ele>
        <time>2011-08-18T13:38:46Z</time>
      </trkpt>
      <trkpt lat="44.05065" lon="6.44259">
        <ele>1142</ele>
        <time>2011-08-18T13:38:48Z</time>
      </trkpt>
      <trkpt lat="44.05009" lon="6.44243">
        <ele>1137</ele>
        <time>2011-08-18T13:39:02Z</time>
      </trkpt>
      <trkpt lat="44.04947" lon="6.44248">
        <ele>1137</ele>
        <time>2011-08-18T13:39:17Z</time>
      </trkpt>
      <trkpt lat="44.04938" lon="6.44251">
        <ele>1145</ele>
        <time>2011-08-18T13:39:19Z</time>
      </trkpt>
      <trkpt lat="44.04906" lon="6.4427">
        <ele>1145</ele>
        <time>2011-08-18T13:39:27Z</time>
      </trkpt>
      <trkpt lat="44.04836" lon="6.44302">
        <ele>1147</ele>
        <time>2011-08-18T13:39:44Z</time>
      </trkpt>
      <trkpt lat="44.04819" lon="6.44304">
        <ele>1146</ele>
        <time>2011-08-18T13:39:48Z</time>
      </trkpt>
      <trkpt lat="44.04776" lon="6.443">
        <ele>1145</ele>
        <time>2011-08-18T13:40:01Z</time>
      </trkpt>
      <trkpt lat="44.04719" lon="6.44299">
        <ele>1144</ele>
        <time>2011-08-18T13:40:15Z</time>
      </trkpt>
      <trkpt lat="44.04659" lon="6.44295">
        <ele>1140</ele>
        <time>2011-08-18T13:40:25Z</time>
      </trkpt>
      <trkpt lat="44.04627" lon="6.44281">
        <ele>1137</ele>
        <time>2011-08-18T13:40:30Z</time>
      </trkpt>
      <trkpt lat="44.04582" lon="6.44295">
        <ele>1133</ele>
        <time>2011-08-18T13:40:37Z</time>
      </trkpt>
      <trkpt lat="44.04538" lon="6.44323">
        <ele>1132</ele>
        <time>2011-08-18T13:40:44Z</time>
      </trkpt>
      <trkpt lat="44.04474" lon="6.44358">
        <ele>1129</ele>
        <time>2011-08-18T13:40:53Z</time>
      </trkpt>
      <trkpt lat="44.04444" lon="6.44406">
        <ele>1128</ele>
        <time>2011-08-18T13:40:59Z</time>
      </trkpt>
      <trkpt lat="44.04417" lon="6.44432">
        <ele>1129</ele>
        <time>2011-08-18T13:41:03Z</time>
      </trkpt>
      <trkpt lat="44.04401" lon="6.44439">
        <ele>1124</ele>
        <time>2011-08-18T13:41:05Z</time>
      </trkpt>
      <trkpt lat="44.04334" lon="6.4451">
        <ele>1123</ele>
        <time>2011-08-18T13:41:15Z</time>
      </trkpt>
      <trkpt lat="44.04301" lon="6.44543">
        <ele>1120</ele>
        <time>2011-08-18T13:41:20Z</time>
      </trkpt>
      <trkpt lat="44.04252" lon="6.44564">
        <ele>1117</ele>
        <time>2011-08-18T13:41:27Z</time>
      </trkpt>
      <trkpt lat="44.0422" lon="6.44588">
        <ele>1115</ele>
        <time>2011-08-18T13:41:32Z</time>
      </trkpt>
      <trkpt lat="44.04169" lon="6.44668">
        <ele>1113</ele>
        <time>2011-08-18T13:41:42Z</time>
      </trkpt>
      <trkpt lat="44.04156" lon="6.44706">
        <ele>1110</ele>
        <time>2011-08-18T13:41:46Z</time>
      </trkpt>
      <trkpt lat="44.04147" lon="6.44757">
        <ele>1114</ele>
        <time>2011-08-18T13:41:51Z</time>
      </trkpt>
      <trkpt lat="44.04116" lon="6.44823">
        <ele>1112</ele>
        <time>2011-08-18T13:42:00Z</time>
      </trkpt>
      <trkpt lat="44.04018" lon="6.44893">
        <ele>1104</ele>
        <time>2011-08-18T13:42:14Z</time>
      </trkpt>
      <trkpt lat="44.03996" lon="6.44915">
        <ele>1100</ele>
        <time>2011-08-18T13:42:18Z</time>
      </trkpt>
      <trkpt lat="44.03945" lon="6.45006">
        <ele>1106</ele>
        <time>2011-08-18T13:42:32Z</time>
      </trkpt>
      <trkpt lat="44.03888" lon="6.45079">
        <ele>1102</ele>
        <time>2011-08-18T13:42:47Z</time>
      </trkpt>
      <trkpt lat="44.03822" lon="6.45146">
        <ele>1099</ele>
        <time>2011-08-18T13:43:03Z</time>
      </trkpt>
      <trkpt lat="44.03784" lon="6.45234">
        <ele>1100</ele>
        <time>2011-08-18T13:43:15Z</time>
      </trkpt>
      <trkpt lat="44.03778" lon="6.45275">
        <ele>1102</ele>
        <time>2011-08-18T13:43:21Z</time>
      </trkpt>
      <trkpt lat="44.03776" lon="6.45325">
        <ele>1102</ele>
        <time>2011-08-18T13:43:28Z</time>
      </trkpt>
      <trkpt lat="44.03768" lon="6.45409">
        <ele>1102</ele>
        <time>2011-08-18T13:43:38Z</time>
      </trkpt>
      <trkpt lat="44.03768" lon="6.45462">
        <ele>1105</ele>
        <time>2011-08-18T13:43:43Z</time>
      </trkpt>
      <trkpt lat="44.0376" lon="6.45527">
        <ele>1102</ele>
        <time>2011-08-18T13:43:49Z</time>
      </trkpt>
      <trkpt lat="44.03777" lon="6.45619">
        <ele>1099</ele>
        <time>2011-08-18T13:43:58Z</time>
      </trkpt>
      <trkpt lat="44.03781" lon="6.45655">
        <ele>1097</ele>
        <time>2011-08-18T13:44:01Z</time>
      </trkpt>
      <trkpt lat="44.03809" lon="6.45756">
        <ele>1090</ele>
        <time>2011-08-18T13:44:11Z</time>
      </trkpt>
      <trkpt lat="44.03814" lon="6.45909">
        <ele>1087</ele>
        <time>2011-08-18T13:44:26Z</time>
      </trkpt>
      <trkpt lat="44.03796" lon="6.46005">
        <ele>1086</ele>
        <time>2011-08-18T13:44:34Z</time>
      </trkpt>
      <trkpt lat="44.03778" lon="6.46051">
        <ele>1084</ele>
        <time>2011-08-18T13:44:38Z</time>
      </trkpt>
      <trkpt lat="44.03771" lon="6.46101">
        <ele>1088</ele>
        <time>2011-08-18T13:44:42Z</time>
      </trkpt>
      <trkpt lat="44.03752" lon="6.46171">
        <ele>1087</ele>
        <time>2011-08-18T13:44:48Z</time>
      </trkpt>
      <trkpt lat="44.03724" lon="6.46201">
        <ele>1084</ele>
        <time>2011-08-18T13:44:52Z</time>
      </trkpt>
      <trkpt lat="44.0363" lon="6.46266">
        <ele>1077</ele>
        <time>2011-08-18T13:45:04Z</time>
      </trkpt>
      <trkpt lat="44.03587" lon="6.46321">
        <ele>1070</ele>
        <time>2011-08-18T13:45:11Z</time>
      </trkpt>
      <trkpt lat="44.03581" lon="6.46378">
        <ele>1078</ele>
        <time>2011-08-18T13:45:16Z</time>
      </trkpt>
      <trkpt lat="44.03588" lon="6.46412">
        <ele>1072</ele>
        <time>2011-08-18T13:45:19Z</time>
      </trkpt>
      <trkpt lat="44.0358" lon="6.46478">
        <ele>1077</ele>
        <time>2011-08-18T13:45:26Z</time>
      </trkpt>
      <trkpt lat="44.03565" lon="6.46509">
        <ele>1076</ele>
        <time>2011-08-18T13:45:30Z</time>
      </trkpt>
      <trkpt lat="44.0355" lon="6.46558">
        <ele>1079</ele>
        <time>2011-08-18T13:45:35Z</time>
      </trkpt>
      <trkpt lat="44.03516" lon="6.4673">
        <ele>1073</ele>
        <time>2011-08-18T13:45:52Z</time>
      </trkpt>
      <trkpt lat="44.03462" lon="6.46859">
        <ele>1069</ele>
        <time>2011-08-18T13:46:06Z</time>
      </trkpt>
      <trkpt lat="44.03441" lon="6.46945">
        <ele>1068</ele>
        <time>2011-08-18T13:46:15Z</time>
      </trkpt>
      <trkpt lat="44.03441" lon="6.47019">
        <ele>1070</ele>
        <time>2011-08-18T13:46:22Z</time>
      </trkpt>
      <trkpt lat="44.03434" lon="6.47079">
        <ele>1066</ele>
        <time>2011-08-18T13:46:28Z</time>
      </trkpt>
      <trkpt lat="44.03435" lon="6.4722">
        <ele>1072</ele>
        <time>2011-08-18T13:46:44Z</time>
      </trkpt>
      <trkpt lat="44.03438" lon="6.4735">
        <ele>1068</ele>
        <time>2011-08-18T13:46:58Z</time>
      </trkpt>
      <trkpt lat="44.03439" lon="6.4745">
        <ele>1066</ele>
        <time>2011-08-18T13:47:09Z</time>
      </trkpt>
      <trkpt lat="44.03447" lon="6.47604">
        <ele>1058</ele>
        <time>2011-08-18T13:47:27Z</time>
      </trkpt>
      <trkpt lat="44.03451" lon="6.47647">
        <ele>1058</ele>
        <time>2011-08-18T13:47:32Z</time>
      </trkpt>
      <trkpt lat="44.03465" lon="6.47699">
        <ele>1057</ele>
        <time>2011-08-18T13:47:38Z</time>
      </trkpt>
      <trkpt lat="44.03466" lon="6.4774">
        <ele>1056</ele>
        <time>2011-08-18T13:47:43Z</time>
      </trkpt>
      <trkpt lat="44.03429" lon="6.47881">
        <ele>1053</ele>
        <time>2011-08-18T13:48:01Z</time>
      </trkpt>
      <trkpt lat="44.0342" lon="6.4793">
        <ele>1049</ele>
        <time>2011-08-18T13:48:07Z</time>
      </trkpt>
      <trkpt lat="44.03421" lon="6.48043">
        <ele>1064</ele>
        <time>2011-08-18T13:48:21Z</time>
      </trkpt>
      <trkpt lat="44.03407" lon="6.48118">
        <ele>1047</ele>
        <time>2011-08-18T13:48:31Z</time>
      </trkpt>
      <trkpt lat="44.03413" lon="6.4824">
        <ele>1042</ele>
        <time>2011-08-18T13:48:46Z</time>
      </trkpt>
      <trkpt lat="44.03422" lon="6.48317">
        <ele>1049</ele>
        <time>2011-08-18T13:48:56Z</time>
      </trkpt>
      <trkpt lat="44.03422" lon="6.48459">
        <ele>1032</ele>
        <time>2011-08-18T13:49:13Z</time>
      </trkpt>
      <trkpt lat="44.03422" lon="6.48563">
        <ele>1014</ele>
        <time>2011-08-18T13:49:28Z</time>
      </trkpt>
      <trkpt lat="44.03425" lon="6.48615">
        <ele>1020</ele>
        <time>2011-08-18T13:49:36Z</time>
      </trkpt>
      <trkpt lat="44.03437" lon="6.48632">
        <ele>1023</ele>
        <time>2011-08-18T13:49:41Z</time>
      </trkpt>
      <trkpt lat="44.03496" lon="6.48627">
        <ele>1022</ele>
        <time>2011-08-18T13:49:53Z</time>
      </trkpt>
      <trkpt lat="44.03552" lon="6.48635">
        <ele>1017</ele>
        <time>2011-08-18T13:50:05Z</time>
      </trkpt>
      <trkpt lat="44.03565" lon="6.48637">
        <ele>1016</ele>
        <time>2011-08-18T13:50:08Z</time>
      </trkpt>
      <trkpt lat="44.03589" lon="6.48649">
        <ele>1016</ele>
        <time>2011-08-18T13:50:13Z</time>
      </trkpt>
      <trkpt lat="44.0361" lon="6.48676">
        <ele>1021</ele>
        <time>2011-08-18T13:50:19Z</time>
      </trkpt>
      <trkpt lat="44.03622" lon="6.48695">
        <ele>1023</ele>
        <time>2011-08-18T13:50:23Z</time>
      </trkpt>
      <trkpt lat="44.03652" lon="6.48724">
        <ele>1023</ele>
        <time>2011-08-18T13:50:29Z</time>
      </trkpt>
      <trkpt lat="44.03676" lon="6.48737">
        <ele>1021</ele>
        <time>2011-08-18T13:50:33Z</time>
      </trkpt>
      <trkpt lat="44.03723" lon="6.48731">
        <ele>1023</ele>
        <time>2011-08-18T13:50:44Z</time>
      </trkpt>
      <trkpt lat="44.03778" lon="6.48705">
        <ele>1030</ele>
        <time>2011-08-18T13:50:57Z</time>
      </trkpt>
      <trkpt lat="44.03815" lon="6.48661">
        <ele>1023</ele>
        <time>2011-08-18T13:51:11Z</time>
      </trkpt>
      <trkpt lat="44.03819" lon="6.48658">
        <ele>1023</ele>
        <time>2011-08-18T13:51:12Z</time>
      </trkpt>
      <trkpt lat="44.03834" lon="6.48648">
        <ele>1024</ele>
        <time>2011-08-18T13:51:16Z</time>
      </trkpt>
      <trkpt lat="44.03846" lon="6.48643">
        <ele>1024</ele>
        <time>2011-08-18T13:51:19Z</time>
      </trkpt>
      <trkpt lat="44.0391" lon="6.48643">
        <ele>1028</ele>
        <time>2011-08-18T13:51:33Z</time>
      </trkpt>
      <trkpt lat="44.03933" lon="6.48643">
        <ele>1032</ele>
        <time>2011-08-18T13:51:38Z</time>
      </trkpt>
      <trkpt lat="44.03959" lon="6.48639">
        <ele>1032</ele>
        <time>2011-08-18T13:51:44Z</time>
      </trkpt>
      <trkpt lat="44.03989" lon="6.48625">
        <ele>1032</ele>
        <time>2011-08-18T13:51:50Z</time>
      </trkpt>
      <trkpt lat="44.04051" lon="6.48563">
        <ele>1031</ele>
        <time>2011-08-18T13:52:06Z</time>
      </trkpt>
      <trkpt lat="44.04068" lon="6.48546">
        <ele>1031</ele>
        <time>2011-08-18T13:52:10Z</time>
      </trkpt>
      <trkpt lat="44.04101" lon="6.48506">
        <ele>1032</ele>
        <time>2011-08-18T13:52:20Z</time>
      </trkpt>
      <trkpt lat="44.04109" lon="6.48499">
        <ele>1027</ele>
        <time>2011-08-18T13:52:22Z</time>
      </trkpt>
      <trkpt lat="44.04124" lon="6.48489">
        <ele>1028</ele>
        <time>2011-08-18T13:52:25Z</time>
      </trkpt>
      <trkpt lat="44.04143" lon="6.48482">
        <ele>1029</ele>
        <time>2011-08-18T13:52:29Z</time>
      </trkpt>
      <trkpt lat="44.04173" lon="6.48475">
        <ele>1030</ele>
        <time>2011-08-18T13:52:35Z</time>
      </trkpt>
      <trkpt lat="44.04223" lon="6.48469">
        <ele>1031</ele>
        <time>2011-08-18T13:52:45Z</time>
      </trkpt>
      <trkpt lat="44.04269" lon="6.48484">
        <ele>1036</ele>
        <time>2011-08-18T13:52:55Z</time>
      </trkpt>
      <trkpt lat="44.04273" lon="6.48487">
        <ele>1036</ele>
        <time>2011-08-18T13:52:56Z</time>
      </trkpt>
      <trkpt lat="44.0429" lon="6.48486">
        <ele>1036</ele>
        <time>2011-08-18T13:52:59Z</time>
      </trkpt>
      <trkpt lat="44.04317" lon="6.48461">
        <ele>1034</ele>
        <time>2011-08-18T13:53:07Z</time>
      </trkpt>
      <trkpt lat="44.04336" lon="6.48427">
        <ele>1032</ele>
        <time>2011-08-18T13:53:14Z</time>
      </trkpt>
      <trkpt lat="44.04384" lon="6.4838">
        <ele>1028</ele>
        <time>2011-08-18T13:53:27Z</time>
      </trkpt>
      <trkpt lat="44.04393" lon="6.48377">
        <ele>1028</ele>
        <time>2011-08-18T13:53:29Z</time>
      </trkpt>
      <trkpt lat="44.04413" lon="6.48381">
        <ele>1029</ele>
        <time>2011-08-18T13:53:34Z</time>
      </trkpt>
      <trkpt lat="44.04447" lon="6.48401">
        <ele>1033</ele>
        <time>2011-08-18T13:53:41Z</time>
      </trkpt>
      <trkpt lat="44.04466" lon="6.48412">
        <ele>1033</ele>
        <time>2011-08-18T13:53:45Z</time>
      </trkpt>
      <trkpt lat="44.04479" lon="6.48417">
        <ele>1048</ele>
        <time>2011-08-18T13:53:48Z</time>
      </trkpt>
      <trkpt lat="44.04511" lon="6.48403">
        <ele>1040</ele>
        <time>2011-08-18T13:53:55Z</time>
      </trkpt>
      <trkpt lat="44.04519" lon="6.48391">
        <ele>1041</ele>
        <time>2011-08-18T13:53:58Z</time>
      </trkpt>
      <trkpt lat="44.0454" lon="6.48348">
        <ele>1039</ele>
        <time>2011-08-18T13:54:07Z</time>
      </trkpt>
      <trkpt lat="44.04571" lon="6.48309">
        <ele>1035</ele>
        <time>2011-08-18T13:54:16Z</time>
      </trkpt>
      <trkpt lat="44.04586" lon="6.48296">
        <ele>1041</ele>
        <time>2011-08-18T13:54:20Z</time>
      </trkpt>
      <trkpt lat="44.04603" lon="6.4829">
        <ele>1042</ele>
        <time>2011-08-18T13:54:24Z</time>
      </trkpt>
      <trkpt lat="44.0464" lon="6.48286">
        <ele>1044</ele>
        <time>2011-08-18T13:54:32Z</time>
      </trkpt>
      <trkpt lat="44.04664" lon="6.48282">
        <ele>1044</ele>
        <time>2011-08-18T13:54:37Z</time>
      </trkpt>
      <trkpt lat="44.04721" lon="6.48225">
        <ele>1042</ele>
        <time>2011-08-18T13:54:53Z</time>
      </trkpt>
      <trkpt lat="44.04728" lon="6.48219">
        <ele>1042</ele>
        <time>2011-08-18T13:54:55Z</time>
      </trkpt>
      <trkpt lat="44.04782" lon="6.48195">
        <ele>1045</ele>
        <time>2011-08-18T13:55:09Z</time>
      </trkpt>
      <trkpt lat="44.04817" lon="6.48185">
        <ele>1044</ele>
        <time>2011-08-18T13:55:18Z</time>
      </trkpt>
      <trkpt lat="44.04854" lon="6.48175">
        <ele>1047</ele>
        <time>2011-08-18T13:55:27Z</time>
      </trkpt>
      <trkpt lat="44.04908" lon="6.48179">
        <ele>1046</ele>
        <time>2011-08-18T13:55:40Z</time>
      </trkpt>
      <trkpt lat="44.04977" lon="6.48174">
        <ele>1050</ele>
        <time>2011-08-18T13:55:51Z</time>
      </trkpt>
      <trkpt lat="44.05026" lon="6.48173">
        <ele>1048</ele>
        <time>2011-08-18T13:56:01Z</time>
      </trkpt>
      <trkpt lat="44.05036" lon="6.48175">
        <ele>1049</ele>
        <time>2011-08-18T13:56:03Z</time>
      </trkpt>
      <trkpt lat="44.05047" lon="6.4818">
        <ele>1049</ele>
        <time>2011-08-18T13:56:05Z</time>
      </trkpt>
      <trkpt lat="44.05079" lon="6.48205">
        <ele>1050</ele>
        <time>2011-08-18T13:56:11Z</time>
      </trkpt>
      <trkpt lat="44.05108" lon="6.48224">
        <ele>1049</ele>
        <time>2011-08-18T13:56:17Z</time>
      </trkpt>
      <trkpt lat="44.05156" lon="6.4826">
        <ele>1052</ele>
        <time>2011-08-18T13:56:30Z</time>
      </trkpt>
      <trkpt lat="44.05214" lon="6.48296">
        <ele>1056</ele>
        <time>2011-08-18T13:56:43Z</time>
      </trkpt>
      <trkpt lat="44.0525" lon="6.48314">
        <ele>1058</ele>
        <time>2011-08-18T13:56:52Z</time>
      </trkpt>
      <trkpt lat="44.05318" lon="6.48311">
        <ele>1058</ele>
        <time>2011-08-18T13:57:05Z</time>
      </trkpt>
      <trkpt lat="44.05397" lon="6.48266">
        <ele>1058</ele>
        <time>2011-08-18T13:57:20Z</time>
      </trkpt>
      <trkpt lat="44.05476" lon="6.48243">
        <ele>1053</ele>
        <time>2011-08-18T13:57:35Z</time>
      </trkpt>
      <trkpt lat="44.05526" lon="6.4825">
        <ele>1057</ele>
        <time>2011-08-18T13:57:43Z</time>
      </trkpt>
      <trkpt lat="44.05559" lon="6.48274">
        <ele>1059</ele>
        <time>2011-08-18T13:57:51Z</time>
      </trkpt>
      <trkpt lat="44.05611" lon="6.48312">
        <ele>1059</ele>
        <time>2011-08-18T13:58:05Z</time>
      </trkpt>
      <trkpt lat="44.05625" lon="6.48317">
        <ele>1058</ele>
        <time>2011-08-18T13:58:08Z</time>
      </trkpt>
      <trkpt lat="44.05666" lon="6.48319">
        <ele>1060</ele>
        <time>2011-08-18T13:58:16Z</time>
      </trkpt>
      <trkpt lat="44.05746" lon="6.4829">
        <ele>1059</ele>
        <time>2011-08-18T13:58:31Z</time>
      </trkpt>
      <trkpt lat="44.05812" lon="6.4825">
        <ele>1053</ele>
        <time>2011-08-18T13:58:45Z</time>
      </trkpt>
      <trkpt lat="44.05833" lon="6.48236">
        <ele>1054</ele>
        <time>2011-08-18T13:58:50Z</time>
      </trkpt>
      <trkpt lat="44.059" lon="6.48219">
        <ele>1058</ele>
        <time>2011-08-18T13:59:04Z</time>
      </trkpt>
      <trkpt lat="44.05955" lon="6.48189">
        <ele>1060</ele>
        <time>2011-08-18T13:59:16Z</time>
      </trkpt>
      <trkpt lat="44.06015" lon="6.48187">
        <ele>1065</ele>
        <time>2011-08-18T13:59:28Z</time>
      </trkpt>
      <trkpt lat="44.06089" lon="6.48155">
        <ele>1059</ele>
        <time>2011-08-18T13:59:42Z</time>
      </trkpt>
      <trkpt lat="44.06173" lon="6.48129">
        <ele>1060</ele>
        <time>2011-08-18T13:59:59Z</time>
      </trkpt>
      <trkpt lat="44.06235" lon="6.48129">
        <ele>1060</ele>
        <time>2011-08-18T14:00:11Z</time>
      </trkpt>
      <trkpt lat="44.0624" lon="6.4813">
        <ele>1060</ele>
        <time>2011-08-18T14:00:12Z</time>
      </trkpt>
      <trkpt lat="44.06321" lon="6.48113">
        <ele>1063</ele>
        <time>2011-08-18T14:00:28Z</time>
      </trkpt>
      <trkpt lat="44.06414" lon="6.48087">
        <ele>1060</ele>
        <time>2011-08-18T14:00:47Z</time>
      </trkpt>
      <trkpt lat="44.06493" lon="6.48075">
        <ele>1058</ele>
        <time>2011-08-18T14:01:03Z</time>
      </trkpt>
      <trkpt lat="44.06587" lon="6.48078">
        <ele>1060</ele>
        <time>2011-08-18T14:01:22Z</time>
      </trkpt>
      <trkpt lat="44.06659" lon="6.48081">
        <ele>1058</ele>
        <time>2011-08-18T14:01:37Z</time>
      </trkpt>
      <trkpt lat="44.06758" lon="6.48104">
        <ele>1064</ele>
        <time>2011-08-18T14:01:57Z</time>
      </trkpt>
      <trkpt lat="44.06825" lon="6.48146">
        <ele>1067</ele>
        <time>2011-08-18T14:02:14Z</time>
      </trkpt>
      <trkpt lat="44.06904" lon="6.48214">
        <ele>1080</ele>
        <time>2011-08-18T14:02:33Z</time>
      </trkpt>
      <trkpt lat="44.06963" lon="6.48262">
        <ele>1087</ele>
        <time>2011-08-18T14:02:48Z</time>
      </trkpt>
      <trkpt lat="44.06988" lon="6.48261">
        <ele>1080</ele>
        <time>2011-08-18T14:02:54Z</time>
      </trkpt>
      <trkpt lat="44.07062" lon="6.48198">
        <ele>1066</ele>
        <time>2011-08-18T14:03:12Z</time>
      </trkpt>
      <trkpt lat="44.07142" lon="6.48117">
        <ele>1064</ele>
        <time>2011-08-18T14:03:31Z</time>
      </trkpt>
      <trkpt lat="44.07225" lon="6.48026">
        <ele>1064</ele>
        <time>2011-08-18T14:03:51Z</time>
      </trkpt>
      <trkpt lat="44.07303" lon="6.47939">
        <ele>1064</ele>
        <time>2011-08-18T14:04:10Z</time>
      </trkpt>
      <trkpt lat="44.07362" lon="6.47876">
        <ele>1069</ele>
        <time>2011-08-18T14:04:25Z</time>
      </trkpt>
      <trkpt lat="44.07395" lon="6.47857">
        <ele>1071</ele>
        <time>2011-08-18T14:04:34Z</time>
      </trkpt>
      <trkpt lat="44.0741" lon="6.47862">
        <ele>1072</ele>
        <time>2011-08-18T14:04:38Z</time>
      </trkpt>
      <trkpt lat="44.07492" lon="6.4792">
        <ele>1076</ele>
        <time>2011-08-18T14:05:00Z</time>
      </trkpt>
      <trkpt lat="44.07559" lon="6.47965">
        <ele>1078</ele>
        <time>2011-08-18T14:05:19Z</time>
      </trkpt>
      <trkpt lat="44.07582" lon="6.47978">
        <ele>1077</ele>
        <time>2011-08-18T14:05:25Z</time>
      </trkpt>
      <trkpt lat="44.07635" lon="6.47981">
        <ele>1078</ele>
        <time>2011-08-18T14:05:37Z</time>
      </trkpt>
      <trkpt lat="44.07651" lon="6.47975">
        <ele>1078</ele>
        <time>2011-08-18T14:05:41Z</time>
      </trkpt>
      <trkpt lat="44.07718" lon="6.47957">
        <ele>1079</ele>
        <time>2011-08-18T14:05:57Z</time>
      </trkpt>
      <trkpt lat="44.07781" lon="6.47972">
        <ele>1081</ele>
        <time>2011-08-18T14:06:12Z</time>
      </trkpt>
      <trkpt lat="44.07785" lon="6.47973">
        <ele>1081</ele>
        <time>2011-08-18T14:06:13Z</time>
      </trkpt>
      <trkpt lat="44.07856" lon="6.47971">
        <ele>1085</ele>
        <time>2011-08-18T14:06:31Z</time>
      </trkpt>
      <trkpt lat="44.07933" lon="6.47969">
        <ele>1088</ele>
        <time>2011-08-18T14:06:51Z</time>
      </trkpt>
      <trkpt lat="44.07993" lon="6.47953">
        <ele>1089</ele>
        <time>2011-08-18T14:07:07Z</time>
      </trkpt>
      <trkpt lat="44.08065" lon="6.47925">
        <ele>1091</ele>
        <time>2011-08-18T14:07:25Z</time>
      </trkpt>
      <trkpt lat="44.08126" lon="6.47909">
        <ele>1094</ele>
        <time>2011-08-18T14:07:38Z</time>
      </trkpt>
      <trkpt lat="44.08141" lon="6.47907">
        <ele>1093</ele>
        <time>2011-08-18T14:07:41Z</time>
      </trkpt>
      <trkpt lat="44.0824" lon="6.47883">
        <ele>1094</ele>
        <time>2011-08-18T14:08:01Z</time>
      </trkpt>
      <trkpt lat="44.08244" lon="6.47883">
        <ele>1094</ele>
        <time>2011-08-18T14:08:02Z</time>
      </trkpt>
      <trkpt lat="44.08339" lon="6.47911">
        <ele>1095</ele>
        <time>2011-08-18T14:08:25Z</time>
      </trkpt>
      <trkpt lat="44.08433" lon="6.47944">
        <ele>1095</ele>
        <time>2011-08-18T14:08:50Z</time>
      </trkpt>
      <trkpt lat="44.08456" lon="6.47949">
        <ele>1095</ele>
        <time>2011-08-18T14:08:56Z</time>
      </trkpt>
      <trkpt lat="44.08517" lon="6.4794">
        <ele>1096</ele>
        <time>2011-08-18T14:09:11Z</time>
      </trkpt>
      <trkpt lat="44.08525" lon="6.47935">
        <ele>1096</ele>
        <time>2011-08-18T14:09:13Z</time>
      </trkpt>
      <trkpt lat="44.08552" lon="6.47932">
        <ele>1097</ele>
        <time>2011-08-18T14:09:19Z</time>
      </trkpt>
      <trkpt lat="44.08599" lon="6.47945">
        <ele>1099</ele>
        <time>2011-08-18T14:09:35Z</time>
      </trkpt>
      <trkpt lat="44.08599" lon="6.47944">
        <ele>1099</ele>
        <time>2011-08-18T14:10:41Z</time>
      </trkpt>
      <trkpt lat="44.08621" lon="6.47947">
        <ele>1100</ele>
        <time>2011-08-18T14:11:09Z</time>
      </trkpt>
      <trkpt lat="44.08632" lon="6.47958">
        <ele>1100</ele>
        <time>2011-08-18T14:11:13Z</time>
      </trkpt>
      <trkpt lat="44.08643" lon="6.47971">
        <ele>1100</ele>
        <time>2011-08-18T14:11:17Z</time>
      </trkpt>
      <trkpt lat="44.08652" lon="6.47984">
        <ele>1100</ele>
        <time>2011-08-18T14:11:20Z</time>
      </trkpt>
      <trkpt lat="44.08674" lon="6.48005">
        <ele>1100</ele>
        <time>2011-08-18T14:11:29Z</time>
      </trkpt>
      <trkpt lat="44.08675" lon="6.48009">
        <ele>1100</ele>
        <time>2011-08-18T14:11:30Z</time>
      </trkpt>
      <trkpt lat="44.087" lon="6.48026">
        <ele>1101</ele>
        <time>2011-08-18T14:11:37Z</time>
      </trkpt>
      <trkpt lat="44.08734" lon="6.48038">
        <ele>1101</ele>
        <time>2011-08-18T14:11:48Z</time>
      </trkpt>
      <trkpt lat="44.08796" lon="6.48058">
        <ele>1105</ele>
        <time>2011-08-18T14:12:03Z</time>
      </trkpt>
      <trkpt lat="44.088" lon="6.4806">
        <ele>1105</ele>
        <time>2011-08-18T14:12:04Z</time>
      </trkpt>
      <trkpt lat="44.08848" lon="6.48065">
        <ele>1111</ele>
        <time>2011-08-18T14:12:18Z</time>
      </trkpt>
      <trkpt lat="44.08882" lon="6.48068">
        <ele>1114</ele>
        <time>2011-08-18T14:12:32Z</time>
      </trkpt>
      <trkpt lat="44.08885" lon="6.4807">
        <ele>1114</ele>
        <time>2011-08-18T14:12:33Z</time>
      </trkpt>
      <trkpt lat="44.08929" lon="6.48103">
        <ele>1114</ele>
        <time>2011-08-18T14:12:47Z</time>
      </trkpt>
      <trkpt lat="44.08967" lon="6.48145">
        <ele>1115</ele>
        <time>2011-08-18T14:13:01Z</time>
      </trkpt>
      <trkpt lat="44.08993" lon="6.48164">
        <ele>1115</ele>
        <time>2011-08-18T14:13:13Z</time>
      </trkpt>
      <trkpt lat="44.08994" lon="6.48165">
        <ele>1114</ele>
        <time>2011-08-18T14:13:14Z</time>
      </trkpt>
      <trkpt lat="44.09023" lon="6.48184">
        <ele>1116</ele>
        <time>2011-08-18T14:13:26Z</time>
      </trkpt>
      <trkpt lat="44.09044" lon="6.48185">
        <ele>1119</ele>
        <time>2011-08-18T14:13:34Z</time>
      </trkpt>
      <trkpt lat="44.09053" lon="6.48192">
        <ele>1119</ele>
        <time>2011-08-18T14:13:38Z</time>
      </trkpt>
      <trkpt lat="44.0909" lon="6.48212">
        <ele>1130</ele>
        <time>2011-08-18T14:13:51Z</time>
      </trkpt>
      <trkpt lat="44.09112" lon="6.48227">
        <ele>1129</ele>
        <time>2011-08-18T14:14:00Z</time>
      </trkpt>
      <trkpt lat="44.09135" lon="6.48248">
        <ele>1130</ele>
        <time>2011-08-18T14:14:10Z</time>
      </trkpt>
      <trkpt lat="44.09138" lon="6.48254">
        <ele>1117</ele>
        <time>2011-08-18T14:14:12Z</time>
      </trkpt>
      <trkpt lat="44.09153" lon="6.48254">
        <ele>1120</ele>
        <time>2011-08-18T14:14:18Z</time>
      </trkpt>
      <trkpt lat="44.09182" lon="6.48275">
        <ele>1131</ele>
        <time>2011-08-18T14:14:30Z</time>
      </trkpt>
      <trkpt lat="44.09213" lon="6.48301">
        <ele>1132</ele>
        <time>2011-08-18T14:14:42Z</time>
      </trkpt>
      <trkpt lat="44.09246" lon="6.4835">
        <ele>1120</ele>
        <time>2011-08-18T14:14:56Z</time>
      </trkpt>
      <trkpt lat="44.09287" lon="6.48382">
        <ele>1122</ele>
        <time>2011-08-18T14:15:09Z</time>
      </trkpt>
      <trkpt lat="44.09293" lon="6.48389">
        <ele>1122</ele>
        <time>2011-08-18T14:15:22Z</time>
      </trkpt>
      <trkpt lat="44.093" lon="6.48399">
        <ele>1122</ele>
        <time>2011-08-18T14:15:37Z</time>
      </trkpt>
      <trkpt lat="44.09304" lon="6.48405">
        <ele>1122</ele>
        <time>2011-08-18T14:15:46Z</time>
      </trkpt>
      <trkpt lat="44.09312" lon="6.48408">
        <ele>1122</ele>
        <time>2011-08-18T14:15:50Z</time>
      </trkpt>
      <trkpt lat="44.0934" lon="6.48417">
        <ele>1125</ele>
        <time>2011-08-18T14:16:04Z</time>
      </trkpt>
      <trkpt lat="44.09354" lon="6.48439">
        <ele>1134</ele>
        <time>2011-08-18T14:16:12Z</time>
      </trkpt>
      <trkpt lat="44.09356" lon="6.48445">
        <ele>1135</ele>
        <time>2011-08-18T14:16:14Z</time>
      </trkpt>
      <trkpt lat="44.09375" lon="6.48474">
        <ele>1139</ele>
        <time>2011-08-18T14:16:27Z</time>
      </trkpt>
      <trkpt lat="44.09382" lon="6.48488">
        <ele>1141</ele>
        <time>2011-08-18T14:16:31Z</time>
      </trkpt>
      <trkpt lat="44.09391" lon="6.48531">
        <ele>1138</ele>
        <time>2011-08-18T14:16:46Z</time>
      </trkpt>
      <trkpt lat="44.09392" lon="6.48541">
        <ele>1138</ele>
        <time>2011-08-18T14:16:50Z</time>
      </trkpt>
      <trkpt lat="44.09399" lon="6.48557">
        <ele>1138</ele>
        <time>2011-08-18T14:16:58Z</time>
      </trkpt>
      <trkpt lat="44.09399" lon="6.48571">
        <ele>1139</ele>
        <time>2011-08-18T14:17:01Z</time>
      </trkpt>
      <trkpt lat="44.09402" lon="6.48615">
        <ele>1135</ele>
        <time>2011-08-18T14:17:14Z</time>
      </trkpt>
      <trkpt lat="44.09405" lon="6.48635">
        <ele>1135</ele>
        <time>2011-08-18T14:17:26Z</time>
      </trkpt>
      <trkpt lat="44.09408" lon="6.48646">
        <ele>1135</ele>
        <time>2011-08-18T14:17:41Z</time>
      </trkpt>
      <trkpt lat="44.09409" lon="6.48649">
        <ele>1135</ele>
        <time>2011-08-18T14:17:47Z</time>
      </trkpt>
      <trkpt lat="44.09413" lon="6.48657">
        <ele>1136</ele>
        <time>2011-08-18T14:17:51Z</time>
      </trkpt>
      <trkpt lat="44.09415" lon="6.48661">
        <ele>1136</ele>
        <time>2011-08-18T14:17:53Z</time>
      </trkpt>
      <trkpt lat="44.09416" lon="6.48669">
        <ele>1137</ele>
        <time>2011-08-18T14:17:56Z</time>
      </trkpt>
      <trkpt lat="44.09421" lon="6.48693">
        <ele>1145</ele>
        <time>2011-08-18T14:18:05Z</time>
      </trkpt>
      <trkpt lat="44.09426" lon="6.48699">
        <ele>1146</ele>
        <time>2011-08-18T14:18:09Z</time>
      </trkpt>
      <trkpt lat="44.09445" lon="6.48731">
        <ele>1147</ele>
        <time>2011-08-18T14:18:21Z</time>
      </trkpt>
      <trkpt lat="44.09448" lon="6.48762">
        <ele>1141</ele>
        <time>2011-08-18T14:18:30Z</time>
      </trkpt>
      <trkpt lat="44.0946" lon="6.4879">
        <ele>1144</ele>
        <time>2011-08-18T14:18:39Z</time>
      </trkpt>
      <trkpt lat="44.09461" lon="6.48818">
        <ele>1145</ele>
        <time>2011-08-18T14:18:47Z</time>
      </trkpt>
      <trkpt lat="44.09461" lon="6.48821">
        <ele>1145</ele>
        <time>2011-08-18T14:18:48Z</time>
      </trkpt>
      <trkpt lat="44.09458" lon="6.48841">
        <ele>1144</ele>
        <time>2011-08-18T14:18:52Z</time>
      </trkpt>
      <trkpt lat="44.09452" lon="6.4886">
        <ele>1142</ele>
        <time>2011-08-18T14:18:58Z</time>
      </trkpt>
      <trkpt lat="44.09453" lon="6.48885">
        <ele>1143</ele>
        <time>2011-08-18T14:19:09Z</time>
      </trkpt>
      <trkpt lat="44.09455" lon="6.48901">
        <ele>1143</ele>
        <time>2011-08-18T14:19:21Z</time>
      </trkpt>
      <trkpt lat="44.09456" lon="6.48903">
        <ele>1143</ele>
        <time>2011-08-18T14:19:22Z</time>
      </trkpt>
      <trkpt lat="44.09456" lon="6.48913">
        <ele>1143</ele>
        <time>2011-08-18T14:19:25Z</time>
      </trkpt>
      <trkpt lat="44.0946" lon="6.48921">
        <ele>1146</ele>
        <time>2011-08-18T14:19:29Z</time>
      </trkpt>
      <trkpt lat="44.09458" lon="6.48944">
        <ele>1146</ele>
        <time>2011-08-18T14:19:39Z</time>
      </trkpt>
      <trkpt lat="44.09455" lon="6.48951">
        <ele>1146</ele>
        <time>2011-08-18T14:19:42Z</time>
      </trkpt>
      <trkpt lat="44.09454" lon="6.48975">
        <ele>1146</ele>
        <time>2011-08-18T14:19:49Z</time>
      </trkpt>
      <trkpt lat="44.09459" lon="6.48987">
        <ele>1148</ele>
        <time>2011-08-18T14:19:55Z</time>
      </trkpt>
      <trkpt lat="44.09455" lon="6.49006">
        <ele>1149</ele>
        <time>2011-08-18T14:20:05Z</time>
      </trkpt>
      <trkpt lat="44.09455" lon="6.4902">
        <ele>1149</ele>
        <time>2011-08-18T14:20:20Z</time>
      </trkpt>
      <trkpt lat="44.09453" lon="6.49035">
        <ele>1149</ele>
        <time>2011-08-18T14:20:32Z</time>
      </trkpt>
      <trkpt lat="44.09452" lon="6.49057">
        <ele>1149</ele>
        <time>2011-08-18T14:20:38Z</time>
      </trkpt>
      <trkpt lat="44.09453" lon="6.49098">
        <ele>1149</ele>
        <time>2011-08-18T14:20:50Z</time>
      </trkpt>
      <trkpt lat="44.09453" lon="6.49136">
        <ele>1149</ele>
        <time>2011-08-18T14:21:00Z</time>
      </trkpt>
      <trkpt lat="44.09452" lon="6.49144">
        <ele>1149</ele>
        <time>2011-08-18T14:21:02Z</time>
      </trkpt>
      <trkpt lat="44.09452" lon="6.49168">
        <ele>1147</ele>
        <time>2011-08-18T14:21:12Z</time>
      </trkpt>
      <trkpt lat="44.09451" lon="6.49173">
        <ele>1146</ele>
        <time>2011-08-18T14:21:15Z</time>
      </trkpt>
      <trkpt lat="44.09452" lon="6.49181">
        <ele>1147</ele>
        <time>2011-08-18T14:21:20Z</time>
      </trkpt>
      <trkpt lat="44.09453" lon="6.49193">
        <ele>1147</ele>
        <time>2011-08-18T14:21:25Z</time>
      </trkpt>
      <trkpt lat="44.09456" lon="6.49211">
        <ele>1148</ele>
        <time>2011-08-18T14:21:33Z</time>
      </trkpt>
      <trkpt lat="44.0946" lon="6.49227">
        <ele>1148</ele>
        <time>2011-08-18T14:21:46Z</time>
      </trkpt>
      <trkpt lat="44.0946" lon="6.49241">
        <ele>1148</ele>
        <time>2011-08-18T14:22:01Z</time>
      </trkpt>
      <trkpt lat="44.09467" lon="6.49265">
        <ele>1146</ele>
        <time>2011-08-18T14:22:20Z</time>
      </trkpt>
      <trkpt lat="44.09475" lon="6.49271">
        <ele>1148</ele>
        <time>2011-08-18T14:22:34Z</time>
      </trkpt>
      <trkpt lat="44.09482" lon="6.49275">
        <ele>1148</ele>
        <time>2011-08-18T14:22:55Z</time>
      </trkpt>
      <trkpt lat="44.09501" lon="6.49292">
        <ele>1168</ele>
        <time>2011-08-18T14:23:22Z</time>
      </trkpt>
      <trkpt lat="44.09506" lon="6.49296">
        <ele>1168</ele>
        <time>2011-08-18T14:23:29Z</time>
      </trkpt>
      <trkpt lat="44.0952" lon="6.49301">
        <ele>1169</ele>
        <time>2011-08-18T14:23:46Z</time>
      </trkpt>
      <trkpt lat="44.09519" lon="6.49309">
        <ele>1168</ele>
        <time>2011-08-18T14:23:52Z</time>
      </trkpt>
      <trkpt lat="44.09514" lon="6.49334">
        <ele>1159</ele>
        <time>2011-08-18T14:24:10Z</time>
      </trkpt>
      <trkpt lat="44.09513" lon="6.49358">
        <ele>1163</ele>
        <time>2011-08-18T14:24:34Z</time>
      </trkpt>
      <trkpt lat="44.09516" lon="6.49373">
        <ele>1165</ele>
        <time>2011-08-18T14:24:49Z</time>
      </trkpt>
      <trkpt lat="44.09519" lon="6.49394">
        <ele>1165</ele>
        <time>2011-08-18T14:25:08Z</time>
      </trkpt>
      <trkpt lat="44.09523" lon="6.49404">
        <ele>1165</ele>
        <time>2011-08-18T14:25:18Z</time>
      </trkpt>
      <trkpt lat="44.09521" lon="6.49425">
        <ele>1167</ele>
        <time>2011-08-18T14:25:31Z</time>
      </trkpt>
      <trkpt lat="44.09521" lon="6.49447">
        <ele>1169</ele>
        <time>2011-08-18T14:25:44Z</time>
      </trkpt>
      <trkpt lat="44.09523" lon="6.49463">
        <ele>1170</ele>
        <time>2011-08-18T14:25:57Z</time>
      </trkpt>
      <trkpt lat="44.0952" lon="6.49477">
        <ele>1169</ele>
        <time>2011-08-18T14:26:13Z</time>
      </trkpt>
      <trkpt lat="44.09521" lon="6.49495">
        <ele>1167</ele>
        <time>2011-08-18T14:26:28Z</time>
      </trkpt>
      <trkpt lat="44.09519" lon="6.4953">
        <ele>1171</ele>
        <time>2011-08-18T14:26:41Z</time>
      </trkpt>
      <trkpt lat="44.09519" lon="6.49572">
        <ele>1169</ele>
        <time>2011-08-18T14:26:58Z</time>
      </trkpt>
      <trkpt lat="44.09515" lon="6.49613">
        <ele>1171</ele>
        <time>2011-08-18T14:27:10Z</time>
      </trkpt>
      <trkpt lat="44.09515" lon="6.49684">
        <ele>1168</ele>
        <time>2011-08-18T14:27:25Z</time>
      </trkpt>
      <trkpt lat="44.09517" lon="6.49745">
        <ele>1166</ele>
        <time>2011-08-18T14:27:39Z</time>
      </trkpt>
      <trkpt lat="44.09517" lon="6.49767">
        <ele>1165</ele>
        <time>2011-08-18T14:27:45Z</time>
      </trkpt>
      <trkpt lat="44.09523" lon="6.49798">
        <ele>1166</ele>
        <time>2011-08-18T14:27:50Z</time>
      </trkpt>
      <trkpt lat="44.09529" lon="6.4982">
        <ele>1165</ele>
        <time>2011-08-18T14:27:53Z</time>
      </trkpt>
      <trkpt lat="44.09534" lon="6.49847">
        <ele>1162</ele>
        <time>2011-08-18T14:27:56Z</time>
      </trkpt>
      <trkpt lat="44.09534" lon="6.49896">
        <ele>1161</ele>
        <time>2011-08-18T14:28:04Z</time>
      </trkpt>
      <trkpt lat="44.09539" lon="6.49923">
        <ele>1157</ele>
        <time>2011-08-18T14:28:08Z</time>
      </trkpt>
      <trkpt lat="44.09546" lon="6.49954">
        <ele>1158</ele>
        <time>2011-08-18T14:28:14Z</time>
      </trkpt>
      <trkpt lat="44.09554" lon="6.49978">
        <ele>1158</ele>
        <time>2011-08-18T14:28:19Z</time>
      </trkpt>
      <trkpt lat="44.09533" lon="6.49998">
        <ele>1153</ele>
        <time>2011-08-18T14:28:25Z</time>
      </trkpt>
      <trkpt lat="44.09493" lon="6.50009">
        <ele>1141</ele>
        <time>2011-08-18T14:28:31Z</time>
      </trkpt>
      <trkpt lat="44.09452" lon="6.50033">
        <ele>1140</ele>
        <time>2011-08-18T14:28:43Z</time>
      </trkpt>
      <trkpt lat="44.09448" lon="6.50035">
        <ele>1140</ele>
        <time>2011-08-18T14:28:44Z</time>
      </trkpt>
      <trkpt lat="44.0942" lon="6.50025">
        <ele>1140</ele>
        <time>2011-08-18T14:28:49Z</time>
      </trkpt>
      <trkpt lat="44.09393" lon="6.50008">
        <ele>1139</ele>
        <time>2011-08-18T14:28:54Z</time>
      </trkpt>
      <trkpt lat="44.09335" lon="6.5">
        <ele>1136</ele>
        <time>2011-08-18T14:29:05Z</time>
      </trkpt>
      <trkpt lat="44.09317" lon="6.49999">
        <ele>1136</ele>
        <time>2011-08-18T14:29:09Z</time>
      </trkpt>
      <trkpt lat="44.09298" lon="6.49996">
        <ele>1137</ele>
        <time>2011-08-18T14:29:13Z</time>
      </trkpt>
      <trkpt lat="44.09247" lon="6.49981">
        <ele>1138</ele>
        <time>2011-08-18T14:29:24Z</time>
      </trkpt>
      <trkpt lat="44.09201" lon="6.49926">
        <ele>1138</ele>
        <time>2011-08-18T14:29:38Z</time>
      </trkpt>
      <trkpt lat="44.09168" lon="6.49923">
        <ele>1138</ele>
        <time>2011-08-18T14:29:48Z</time>
      </trkpt>
      <trkpt lat="44.09119" lon="6.49947">
        <ele>1134</ele>
        <time>2011-08-18T14:30:04Z</time>
      </trkpt>
      <trkpt lat="44.09088" lon="6.49949">
        <ele>1133</ele>
        <time>2011-08-18T14:30:13Z</time>
      </trkpt>
      <trkpt lat="44.0907" lon="6.49939">
        <ele>1129</ele>
        <time>2011-08-18T14:30:18Z</time>
      </trkpt>
      <trkpt lat="44.09069" lon="6.4995">
        <ele>1129</ele>
        <time>2011-08-18T14:30:24Z</time>
      </trkpt>
      <trkpt lat="44.09083" lon="6.50016">
        <ele>1132</ele>
        <time>2011-08-18T14:30:38Z</time>
      </trkpt>
      <trkpt lat="44.09086" lon="6.50063">
        <ele>1131</ele>
        <time>2011-08-18T14:30:54Z</time>
      </trkpt>
    </trkseg>
  </trk>
  <trk>
    <name><![CDATA[ACTIVE LOG163537]]></name>
    <trkseg>
      <trkpt lat="44.0907" lon="6.49956">
        <ele>1129</ele>
        <time>2011-08-18T14:35:37Z</time>
      </trkpt>
      <trkpt lat="44.09085" lon="6.50006">
        <ele>1131</ele>
        <time>2011-08-18T14:35:52Z</time>
      </trkpt>
      <trkpt lat="44.09083" lon="6.50099">
        <ele>1125</ele>
        <time>2011-08-18T14:36:07Z</time>
      </trkpt>
      <trkpt lat="44.09089" lon="6.5018">
        <ele>1130</ele>
        <time>2011-08-18T14:36:21Z</time>
      </trkpt>
      <trkpt lat="44.09062" lon="6.50246">
        <ele>1124</ele>
        <time>2011-08-18T14:36:33Z</time>
      </trkpt>
      <trkpt lat="44.09009" lon="6.50282">
        <ele>1125</ele>
        <time>2011-08-18T14:36:44Z</time>
      </trkpt>
      <trkpt lat="44.08987" lon="6.50292">
        <ele>1121</ele>
        <time>2011-08-18T14:36:48Z</time>
      </trkpt>
      <trkpt lat="44.08935" lon="6.50294">
        <ele>1119</ele>
        <time>2011-08-18T14:36:57Z</time>
      </trkpt>
      <trkpt lat="44.08889" lon="6.50336">
        <ele>1117</ele>
        <time>2011-08-18T14:37:08Z</time>
      </trkpt>
      <trkpt lat="44.08887" lon="6.50343">
        <ele>1116</ele>
        <time>2011-08-18T14:37:09Z</time>
      </trkpt>
      <trkpt lat="44.08883" lon="6.50373">
        <ele>1116</ele>
        <time>2011-08-18T14:37:13Z</time>
      </trkpt>
      <trkpt lat="44.0888" lon="6.50504">
        <ele>1119</ele>
        <time>2011-08-18T14:37:28Z</time>
      </trkpt>
      <trkpt lat="44.08872" lon="6.50644">
        <ele>1116</ele>
        <time>2011-08-18T14:37:43Z</time>
      </trkpt>
      <trkpt lat="44.08872" lon="6.50661">
        <ele>1116</ele>
        <time>2011-08-18T14:37:45Z</time>
      </trkpt>
      <trkpt lat="44.0887" lon="6.50741">
        <ele>1116</ele>
        <time>2011-08-18T14:37:55Z</time>
      </trkpt>
      <trkpt lat="44.08865" lon="6.50782">
        <ele>1117</ele>
        <time>2011-08-18T14:38:01Z</time>
      </trkpt>
      <trkpt lat="44.08874" lon="6.50904">
        <ele>1119</ele>
        <time>2011-08-18T14:38:19Z</time>
      </trkpt>
      <trkpt lat="44.08879" lon="6.51033">
        <ele>1122</ele>
        <time>2011-08-18T14:38:38Z</time>
      </trkpt>
      <trkpt lat="44.08877" lon="6.51064">
        <ele>1123</ele>
        <time>2011-08-18T14:38:43Z</time>
      </trkpt>
      <trkpt lat="44.08901" lon="6.51169">
        <ele>1125</ele>
        <time>2011-08-18T14:39:00Z</time>
      </trkpt>
      <trkpt lat="44.08916" lon="6.51269">
        <ele>1128</ele>
        <time>2011-08-18T14:39:17Z</time>
      </trkpt>
      <trkpt lat="44.08918" lon="6.51355">
        <ele>1131</ele>
        <time>2011-08-18T14:39:34Z</time>
      </trkpt>
      <trkpt lat="44.08915" lon="6.51463">
        <ele>1131</ele>
        <time>2011-08-18T14:39:51Z</time>
      </trkpt>
      <trkpt lat="44.08915" lon="6.51535">
        <ele>1132</ele>
        <time>2011-08-18T14:40:03Z</time>
      </trkpt>
      <trkpt lat="44.08919" lon="6.51619">
        <ele>1136</ele>
        <time>2011-08-18T14:40:17Z</time>
      </trkpt>
      <trkpt lat="44.08947" lon="6.51737">
        <ele>1140</ele>
        <time>2011-08-18T14:40:39Z</time>
      </trkpt>
      <trkpt lat="44.08975" lon="6.51862">
        <ele>1146</ele>
        <time>2011-08-18T14:41:04Z</time>
      </trkpt>
      <trkpt lat="44.08993" lon="6.51936">
        <ele>1150</ele>
        <time>2011-08-18T14:41:22Z</time>
      </trkpt>
      <trkpt lat="44.09011" lon="6.52027">
        <ele>1154</ele>
        <time>2011-08-18T14:41:42Z</time>
      </trkpt>
      <trkpt lat="44.09041" lon="6.52124">
        <ele>1154</ele>
        <time>2011-08-18T14:42:01Z</time>
      </trkpt>
      <trkpt lat="44.09056" lon="6.52175">
        <ele>1153</ele>
        <time>2011-08-18T14:42:08Z</time>
      </trkpt>
      <trkpt lat="44.09061" lon="6.52277">
        <ele>1150</ele>
        <time>2011-08-18T14:42:19Z</time>
      </trkpt>
      <trkpt lat="44.09041" lon="6.5238">
        <ele>1150</ele>
        <time>2011-08-18T14:42:34Z</time>
      </trkpt>
      <trkpt lat="44.09017" lon="6.52503">
        <ele>1152</ele>
        <time>2011-08-18T14:42:55Z</time>
      </trkpt>
      <trkpt lat="44.09003" lon="6.5264">
        <ele>1155</ele>
        <time>2011-08-18T14:43:13Z</time>
      </trkpt>
      <trkpt lat="44.08994" lon="6.52746">
        <ele>1152</ele>
        <time>2011-08-18T14:43:27Z</time>
      </trkpt>
      <trkpt lat="44.08992" lon="6.52871">
        <ele>1155</ele>
        <time>2011-08-18T14:43:46Z</time>
      </trkpt>
      <trkpt lat="44.08993" lon="6.52973">
        <ele>1156</ele>
        <time>2011-08-18T14:44:01Z</time>
      </trkpt>
      <trkpt lat="44.09011" lon="6.53054">
        <ele>1160</ele>
        <time>2011-08-18T14:44:17Z</time>
      </trkpt>
      <trkpt lat="44.09047" lon="6.53154">
        <ele>1160</ele>
        <time>2011-08-18T14:44:37Z</time>
      </trkpt>
      <trkpt lat="44.09078" lon="6.53248">
        <ele>1160</ele>
        <time>2011-08-18T14:44:55Z</time>
      </trkpt>
      <trkpt lat="44.09115" lon="6.53357">
        <ele>1162</ele>
        <time>2011-08-18T14:45:16Z</time>
      </trkpt>
      <trkpt lat="44.09128" lon="6.53414">
        <ele>1163</ele>
        <time>2011-08-18T14:45:26Z</time>
      </trkpt>
      <trkpt lat="44.09135" lon="6.53486">
        <ele>1162</ele>
        <time>2011-08-18T14:45:38Z</time>
      </trkpt>
      <trkpt lat="44.09161" lon="6.53573">
        <ele>1163</ele>
        <time>2011-08-18T14:45:52Z</time>
      </trkpt>
      <trkpt lat="44.09165" lon="6.53591">
        <ele>1163</ele>
        <time>2011-08-18T14:45:55Z</time>
      </trkpt>
      <trkpt lat="44.09156" lon="6.53687">
        <ele>1162</ele>
        <time>2011-08-18T14:46:11Z</time>
      </trkpt>
      <trkpt lat="44.09152" lon="6.5372">
        <ele>1162</ele>
        <time>2011-08-18T14:46:17Z</time>
      </trkpt>
      <trkpt lat="44.09143" lon="6.53765">
        <ele>1161</ele>
        <time>2011-08-18T14:46:24Z</time>
      </trkpt>
      <trkpt lat="44.09165" lon="6.53883">
        <ele>1159</ele>
        <time>2011-08-18T14:46:40Z</time>
      </trkpt>
      <trkpt lat="44.09174" lon="6.53986">
        <ele>1167</ele>
        <time>2011-08-18T14:46:54Z</time>
      </trkpt>
      <trkpt lat="44.09193" lon="6.54118">
        <ele>1169</ele>
        <time>2011-08-18T14:47:14Z</time>
      </trkpt>
      <trkpt lat="44.09195" lon="6.5414">
        <ele>1169</ele>
        <time>2011-08-18T14:47:17Z</time>
      </trkpt>
      <trkpt lat="44.09184" lon="6.54268">
        <ele>1169</ele>
        <time>2011-08-18T14:47:36Z</time>
      </trkpt>
      <trkpt lat="44.09169" lon="6.54351">
        <ele>1165</ele>
        <time>2011-08-18T14:47:49Z</time>
      </trkpt>
      <trkpt lat="44.09179" lon="6.54448">
        <ele>1160</ele>
        <time>2011-08-18T14:48:04Z</time>
      </trkpt>
      <trkpt lat="44.09181" lon="6.54461">
        <ele>1159</ele>
        <time>2011-08-18T14:48:06Z</time>
      </trkpt>
      <trkpt lat="44.09212" lon="6.54568">
        <ele>1155</ele>
        <time>2011-08-18T14:48:23Z</time>
      </trkpt>
      <trkpt lat="44.09218" lon="6.54581">
        <ele>1155</ele>
        <time>2011-08-18T14:48:25Z</time>
      </trkpt>
      <trkpt lat="44.09278" lon="6.5465">
        <ele>1159</ele>
        <time>2011-08-18T14:48:40Z</time>
      </trkpt>
      <trkpt lat="44.09313" lon="6.54676">
        <ele>1157</ele>
        <time>2011-08-18T14:48:48Z</time>
      </trkpt>
      <trkpt lat="44.09325" lon="6.54696">
        <ele>1156</ele>
        <time>2011-08-18T14:48:52Z</time>
      </trkpt>
      <trkpt lat="44.09352" lon="6.54755">
        <ele>1158</ele>
        <time>2011-08-18T14:49:02Z</time>
      </trkpt>
      <trkpt lat="44.09401" lon="6.54863">
        <ele>1154</ele>
        <time>2011-08-18T14:49:18Z</time>
      </trkpt>
      <trkpt lat="44.09452" lon="6.54966">
        <ele>1155</ele>
        <time>2011-08-18T14:49:33Z</time>
      </trkpt>
      <trkpt lat="44.09463" lon="6.54992">
        <ele>1155</ele>
        <time>2011-08-18T14:49:37Z</time>
      </trkpt>
      <trkpt lat="44.09514" lon="6.55119">
        <ele>1152</ele>
        <time>2011-08-18T14:49:55Z</time>
      </trkpt>
      <trkpt lat="44.09557" lon="6.55233">
        <ele>1153</ele>
        <time>2011-08-18T14:50:12Z</time>
      </trkpt>
      <trkpt lat="44.09589" lon="6.5531">
        <ele>1154</ele>
        <time>2011-08-18T14:50:27Z</time>
      </trkpt>
      <trkpt lat="44.09624" lon="6.55376">
        <ele>1151</ele>
        <time>2011-08-18T14:50:38Z</time>
      </trkpt>
      <trkpt lat="44.09661" lon="6.55451">
        <ele>1146</ele>
        <time>2011-08-18T14:50:50Z</time>
      </trkpt>
      <trkpt lat="44.09675" lon="6.55483">
        <ele>1146</ele>
        <time>2011-08-18T14:50:57Z</time>
      </trkpt>
      <trkpt lat="44.0967" lon="6.55489">
        <ele>1146</ele>
        <time>2011-08-18T14:51:11Z</time>
      </trkpt>
      <trkpt lat="44.09663" lon="6.55501">
        <ele>1144</ele>
        <time>2011-08-18T14:51:19Z</time>
      </trkpt>
      <trkpt lat="44.09667" lon="6.55534">
        <ele>1143</ele>
        <time>2011-08-18T14:51:25Z</time>
      </trkpt>
      <trkpt lat="44.09695" lon="6.55585">
        <ele>1145</ele>
        <time>2011-08-18T14:51:38Z</time>
      </trkpt>
      <trkpt lat="44.09697" lon="6.5559">
        <ele>1145</ele>
        <time>2011-08-18T14:51:39Z</time>
      </trkpt>
      <trkpt lat="44.09693" lon="6.55663">
        <ele>1142</ele>
        <time>2011-08-18T14:51:51Z</time>
      </trkpt>
      <trkpt lat="44.09691" lon="6.55684">
        <ele>1138</ele>
        <time>2011-08-18T14:52:01Z</time>
      </trkpt>
    </trkseg>
  </trk>
  <trk>
    <name><![CDATA[ACTIVE LOG173004]]></name>
    <trkseg>
      <trkpt lat="44.09706" lon="6.55681">
        <ele>1139</ele>
        <time>2011-08-18T15:30:04Z</time>
      </trkpt>
      <trkpt lat="44.09706" lon="6.55682">
        <ele>1139</ele>
        <time>2011-08-18T15:30:25Z</time>
      </trkpt>
      <trkpt lat="44.097" lon="6.55677">
        <ele>1139</ele>
        <time>2011-08-18T15:30:36Z</time>
      </trkpt>
      <trkpt lat="44.09697" lon="6.5564">
        <ele>1143</ele>
        <time>2011-08-18T15:30:54Z</time>
      </trkpt>
      <trkpt lat="44.09697" lon="6.55629">
        <ele>1144</ele>
        <time>2011-08-18T15:30:58Z</time>
      </trkpt>
      <trkpt lat="44.09692" lon="6.55609">
        <ele>1144</ele>
        <time>2011-08-18T15:31:06Z</time>
      </trkpt>
      <trkpt lat="44.09668" lon="6.55584">
        <ele>1144</ele>
        <time>2011-08-18T15:31:21Z</time>
      </trkpt>
      <trkpt lat="44.0967" lon="6.55542">
        <ele>1146</ele>
        <time>2011-08-18T15:31:32Z</time>
      </trkpt>
      <trkpt lat="44.09662" lon="6.55534">
        <ele>1143</ele>
        <time>2011-08-18T15:31:36Z</time>
      </trkpt>
      <trkpt lat="44.09656" lon="6.55515">
        <ele>1143</ele>
        <time>2011-08-18T15:31:42Z</time>
      </trkpt>
      <trkpt lat="44.09662" lon="6.55504">
        <ele>1144</ele>
        <time>2011-08-18T15:31:47Z</time>
      </trkpt>
      <trkpt lat="44.09671" lon="6.5549">
        <ele>1146</ele>
        <time>2011-08-18T15:31:54Z</time>
      </trkpt>
      <trkpt lat="44.09668" lon="6.55469">
        <ele>1147</ele>
        <time>2011-08-18T15:32:05Z</time>
      </trkpt>
      <trkpt lat="44.0966" lon="6.55456">
        <ele>1146</ele>
        <time>2011-08-18T15:32:12Z</time>
      </trkpt>
      <trkpt lat="44.09653" lon="6.5545">
        <ele>1146</ele>
        <time>2011-08-18T15:32:26Z</time>
      </trkpt>
      <trkpt lat="44.09655" lon="6.55448">
        <ele>1146</ele>
        <time>2011-08-18T15:32:38Z</time>
      </trkpt>
      <trkpt lat="44.09655" lon="6.5544">
        <ele>1146</ele>
        <time>2011-08-18T15:32:42Z</time>
      </trkpt>
      <trkpt lat="44.09638" lon="6.55401">
        <ele>1150</ele>
        <time>2011-08-18T15:32:58Z</time>
      </trkpt>
      <trkpt lat="44.09612" lon="6.55355">
        <ele>1152</ele>
        <time>2011-08-18T15:33:18Z</time>
      </trkpt>
      <trkpt lat="44.09591" lon="6.55313">
        <ele>1154</ele>
        <time>2011-08-18T15:33:34Z</time>
      </trkpt>
      <trkpt lat="44.09562" lon="6.55251">
        <ele>1154</ele>
        <time>2011-08-18T15:33:55Z</time>
      </trkpt>
      <trkpt lat="44.0954" lon="6.55192">
        <ele>1152</ele>
        <time>2011-08-18T15:34:10Z</time>
      </trkpt>
      <trkpt lat="44.09505" lon="6.55101">
        <ele>1152</ele>
        <time>2011-08-18T15:34:27Z</time>
      </trkpt>
      <trkpt lat="44.09498" lon="6.55085">
        <ele>1151</ele>
        <time>2011-08-18T15:34:30Z</time>
      </trkpt>
      <trkpt lat="44.09481" lon="6.55042">
        <ele>1151</ele>
        <time>2011-08-18T15:34:37Z</time>
      </trkpt>
      <trkpt lat="44.09444" lon="6.54949">
        <ele>1156</ele>
        <time>2011-08-18T15:34:57Z</time>
      </trkpt>
      <trkpt lat="44.09398" lon="6.5486">
        <ele>1154</ele>
        <time>2011-08-18T15:35:15Z</time>
      </trkpt>
      <trkpt lat="44.0937" lon="6.54791">
        <ele>1159</ele>
        <time>2011-08-18T15:35:29Z</time>
      </trkpt>
      <trkpt lat="44.09327" lon="6.54701">
        <ele>1156</ele>
        <time>2011-08-18T15:35:48Z</time>
      </trkpt>
      <trkpt lat="44.09319" lon="6.54686">
        <ele>1157</ele>
        <time>2011-08-18T15:35:51Z</time>
      </trkpt>
      <trkpt lat="44.09311" lon="6.54673">
        <ele>1157</ele>
        <time>2011-08-18T15:35:54Z</time>
      </trkpt>
      <trkpt lat="44.09278" lon="6.54649">
        <ele>1159</ele>
        <time>2011-08-18T15:36:03Z</time>
      </trkpt>
      <trkpt lat="44.09223" lon="6.54587">
        <ele>1152</ele>
        <time>2011-08-18T15:36:21Z</time>
      </trkpt>
      <trkpt lat="44.09186" lon="6.54483">
        <ele>1158</ele>
        <time>2011-08-18T15:36:41Z</time>
      </trkpt>
      <trkpt lat="44.09169" lon="6.5436">
        <ele>1166</ele>
        <time>2011-08-18T15:37:02Z</time>
      </trkpt>
      <trkpt lat="44.09186" lon="6.54257">
        <ele>1168</ele>
        <time>2011-08-18T15:37:20Z</time>
      </trkpt>
      <trkpt lat="44.09191" lon="6.54233">
        <ele>1169</ele>
        <time>2011-08-18T15:37:24Z</time>
      </trkpt>
      <trkpt lat="44.09194" lon="6.54126">
        <ele>1169</ele>
        <time>2011-08-18T15:37:41Z</time>
      </trkpt>
      <trkpt lat="44.09179" lon="6.5401">
        <ele>1168</ele>
        <time>2011-08-18T15:38:01Z</time>
      </trkpt>
      <trkpt lat="44.09174" lon="6.53971">
        <ele>1168</ele>
        <time>2011-08-18T15:38:07Z</time>
      </trkpt>
      <trkpt lat="44.0916" lon="6.5387">
        <ele>1159</ele>
        <time>2011-08-18T15:38:21Z</time>
      </trkpt>
      <trkpt lat="44.0915" lon="6.53852">
        <ele>1159</ele>
        <time>2011-08-18T15:38:25Z</time>
      </trkpt>
      <trkpt lat="44.09117" lon="6.53769">
        <ele>1160</ele>
        <time>2011-08-18T15:38:42Z</time>
      </trkpt>
      <trkpt lat="44.09111" lon="6.53758">
        <ele>1160</ele>
        <time>2011-08-18T15:38:45Z</time>
      </trkpt>
      <trkpt lat="44.0907" lon="6.53763">
        <ele>1158</ele>
        <time>2011-08-18T15:38:57Z</time>
      </trkpt>
      <trkpt lat="44.09015" lon="6.53775">
        <ele>1158</ele>
        <time>2011-08-18T15:39:12Z</time>
      </trkpt>
      <trkpt lat="44.08955" lon="6.53769">
        <ele>1161</ele>
        <time>2011-08-18T15:39:28Z</time>
      </trkpt>
      <trkpt lat="44.08929" lon="6.53731">
        <ele>1163</ele>
        <time>2011-08-18T15:39:40Z</time>
      </trkpt>
      <trkpt lat="44.08922" lon="6.53694">
        <ele>1163</ele>
        <time>2011-08-18T15:39:52Z</time>
      </trkpt>
      <trkpt lat="44.08924" lon="6.53689">
        <ele>1163</ele>
        <time>2011-08-18T15:40:06Z</time>
      </trkpt>
      <trkpt lat="44.08927" lon="6.53683">
        <ele>1163</ele>
        <time>2011-08-18T15:40:29Z</time>
      </trkpt>
      <trkpt lat="44.08933" lon="6.53666">
        <ele>1164</ele>
        <time>2011-08-18T15:40:48Z</time>
      </trkpt>
      <trkpt lat="44.08934" lon="6.53661">
        <ele>1164</ele>
        <time>2011-08-18T15:40:53Z</time>
      </trkpt>
      <trkpt lat="44.08935" lon="6.53641">
        <ele>1163</ele>
        <time>2011-08-18T15:41:09Z</time>
      </trkpt>
      <trkpt lat="44.08932" lon="6.53624">
        <ele>1163</ele>
        <time>2011-08-18T15:41:23Z</time>
      </trkpt>
      <trkpt lat="44.0893" lon="6.53623">
        <ele>1163</ele>
        <time>2011-08-18T15:41:25Z</time>
      </trkpt>
      <trkpt lat="44.08925" lon="6.5362">
        <ele>1164</ele>
        <time>2011-08-18T15:41:39Z</time>
      </trkpt>
      <trkpt lat="44.08925" lon="6.53621">
        <ele>1164</ele>
        <time>2011-08-18T15:43:29Z</time>
      </trkpt>
      <trkpt lat="44.08922" lon="6.53591">
        <ele>1165</ele>
        <time>2011-08-18T15:43:50Z</time>
      </trkpt>
      <trkpt lat="44.08927" lon="6.53561">
        <ele>1165</ele>
        <time>2011-08-18T15:44:14Z</time>
      </trkpt>
      <trkpt lat="44.08931" lon="6.53552">
        <ele>1164</ele>
        <time>2011-08-18T15:44:26Z</time>
      </trkpt>
      <trkpt lat="44.08935" lon="6.5352">
        <ele>1165</ele>
        <time>2011-08-18T15:44:50Z</time>
      </trkpt>
      <trkpt lat="44.08935" lon="6.53499">
        <ele>1166</ele>
        <time>2011-08-18T15:45:06Z</time>
      </trkpt>
      <trkpt lat="44.08942" lon="6.53476">
        <ele>1165</ele>
        <time>2011-08-18T15:45:23Z</time>
      </trkpt>
    </trkseg>
  </trk>
</gpx>